# Wetter Temperatur Luftdruck Luftfeuchtigkeit Sichtweite Windgeschwindigkeit Windrichtung Zeit
1 Clouds 12 1013 90 10000 4.12 240 08:31 02.10.2022
2 Clear 11 1012 83 10000 3.09 230 05:23 02.10.2022
3 Clear 11 1011 80 10000 4.63 250 01:29 02.10.2022
4 Clear 11 1011 81 10000 3.6 250 00:38 02.10.2022
5 Clear 11 1011 81 10000 3.6 250 00:38 02.10.2022
6 Clear 11 1010 81 10000 3.13 249 23:29 01.10.2022
7 Clouds 11 1009 91 10000 4.63 260 21:58 01.10.2022
8 Clear 11 1006 92 10000 4.63 260 19:30 01.10.2022
9 Thunderstorm 12 1004 74 10000 7.72 270 17:46 01.10.2022
10 Clouds 16 1003 66 10000 6.69 240 16:24 01.10.2022
11 Clouds 14 1003 70 10000 7.2 230 14:19 01.10.2022
12 Drizzle 12 1002 78 10000 7.2 220 12:35 01.10.2022
13 Clouds 11 1002 82 10000 5.66 210 11:57 01.10.2022
14 Clouds 11 1002 84 10000 5.66 200 11:18 01.10.2022
15 Rain 10 1002 85 10000 5.14 180 10:30 01.10.2022
16 Rain 10 1002 85 10000 5.14 180 10:30 01.10.2022
17 Rain 10 1003 83 9000 4.63 180 09:26 01.10.2022
18 Rain 10 1003 77 10000 4.63 170 08:40 01.10.2022
19 Clouds 10 1007 70 10000 3.6 160 03:52 01.10.2022
20 Clouds 10 1007 69 10000 3.6 150 03:28 01.10.2022
21 Clear 9 1009 79 10000 2.57 160 23:33 30.09.2022
22 Clear 9 1009 66 10000 2.57 140 22:19 30.09.2022
23 Clear 9 1009 66 10000 2.57 140 22:19 30.09.2022
24 Clear 10 1010 75 10000 2.06 140 21:22 30.09.2022
25 Clear 10 1010 66 10000 2.06 140 20:42 30.09.2022
26 Clear 12 1010 58 10000 1.54 190 19:30 30.09.2022
27 Clear 16 1010 51 10000 4.12 230 17:27 30.09.2022
28 Clouds 16 1010 52 10000 4.12 240 15:26 30.09.2022
29 Clouds 16 1010 52 10000 2.57 240 13:27 30.09.2022
30 Clear 14 1010 70 10000 2.57 200 11:56 30.09.2022
31 Clear 10 1010 83 10000 2.06 200 10:18 30.09.2022
32 Clear 6 1009 83 10000 0.51 0 08:22 30.09.2022
33 Clouds 7 1008 74 10000 0.51 0 04:55 30.09.2022
34 Clouds 9 1008 64 10000 2.6 219 02:31 30.09.2022
35 Fog 9 1006 90 10000 1.03 0 22:26 29.09.2022
36 Clear 9 1005 93 10000 1.54 90 21:26 29.09.2022
37 Clear 9 1004 86 10000 1.03 90 20:35 29.09.2022
38 Clouds 13 1004 69 10000 2.06 230 18:32 29.09.2022
39 Clear 14 1003 57 10000 1.54 290 17:23 29.09.2022
40 Clouds 14 1002 63 10000 3.6 240 16:28 29.09.2022
41 Clear 14 1002 64 10000 2.06 240 15:35 29.09.2022
42 Clouds 14 1002 60 10000 3.09 240 14:25 29.09.2022
43 Clear 8 1001 95 10000 1.54 210 09:57 29.09.2022
44 Clear 4 1000 95 10000 0 0 06:46 29.09.2022
45 Clouds 7 999 87 10000 0 0 02:47 29.09.2022
46 Clouds 9 999 84 10000 1.54 240 23:54 28.09.2022
47 Clouds 9 999 91 10000 1.54 250 22:42 28.09.2022
48 Clouds 9 998 92 10000 2.06 250 21:29 28.09.2022
49 Clouds 9 998 92 10000 1.54 290 20:22 28.09.2022
50 Clouds 10 997 85 10000 2.57 270 18:31 28.09.2022
51 Rain 10 996 89 10000 3.58 296 14:52 28.09.2022
52 Rain 9 995 92 10000 0.51 0 12:56 28.09.2022
53 Drizzle 9 995 90 9000 2.06 130 10:51 28.09.2022
54 Rain 8 994 93 10000 1.54 130 09:18 28.09.2022
55 Rain 7 994 87 10000 2.06 90 07:19 28.09.2022
56 Clouds 8 996 86 10000 2.06 200 02:36 28.09.2022
57 Clouds 9 996 84 10000 2.06 220 01:33 28.09.2022
58 Clouds 9 996 92 10000 2.57 230 23:20 27.09.2022
59 Clouds 9 997 92 10000 2.57 250 21:44 27.09.2022
60 Clouds 9 996 85 10000 2.57 230 20:38 27.09.2022
61 Drizzle 9 996 84 10000 3.6 250 19:48 27.09.2022
62 Rain 9 996 79 10000 4.12 250 18:45 27.09.2022
63 Rain 10 996 76 10000 5.14 250 17:45 27.09.2022
64 Clouds 11 995 75 10000 7.2 270 15:40 27.09.2022
65 Clouds 12 995 79 10000 5.14 260 14:55 27.09.2022
66 Clouds 11 994 85 10000 5.14 260 12:53 27.09.2022
67 Clouds 10 994 87 10000 5.66 260 11:34 27.09.2022
68 Rain 10 993 87 10000 4.63 270 09:34 27.09.2022
69 Rain 10 992 92 10000 2.57 210 06:56 27.09.2022
70 Clouds 10 993 89 10000 2.06 160 02:41 27.09.2022
71 Rain 11 994 75 10000 3.09 180 01:35 27.09.2022
72 Clouds 12 995 66 10000 5.14 190 23:35 26.09.2022
73 Clouds 12 996 71 10000 4.12 180 22:40 26.09.2022
74 Rain 13 997 63 10000 4.12 190 20:46 26.09.2022
75 Clear 13 998 62 10000 4.12 190 19:32 26.09.2022
76 Clouds 13 998 70 10000 4.12 170 18:34 26.09.2022
77 Drizzle 14 999 70 10000 4.63 210 16:41 26.09.2022
78 Rain 15 1001 59 10000 5.14 210 14:41 26.09.2022
79 Clear 14 1003 63 10000 6.17 230 11:36 26.09.2022
80 Clouds 13 1003 70 10000 3.09 200 10:41 26.09.2022
81 Clouds 12 1004 72 10000 3.58 242 10:21 26.09.2022
82 Clear 12 1003 75 10000 2.06 200 09:56 26.09.2022
83 Clear 11 1004 81 10000 2.06 190 09:24 26.09.2022
84 Clear 11 1004 83 10000 2.57 190 08:57 26.09.2022
85 Clouds 9 1008 83 10000 0.51 0 02:59 26.09.2022
86 Clouds 9 1009 75 10000 0 0 01:31 26.09.2022
87 Clouds 9 1009 86 10000 0 0 23:20 25.09.2022
88 Clouds 11 1010 82 10000 0 0 21:44 25.09.2022
89 Clear 11 1010 80 10000 0 0 20:54 25.09.2022
90 Clear 12 1010 79 10000 0 0 20:31 25.09.2022
91 Clouds 14 1010 68 10000 2.06 340 18:44 25.09.2022
92 Clouds 15 1010 76 10000 3.09 340 18:21 25.09.2022
93 Clouds 15 1011 71 10000 3.09 310 16:55 25.09.2022
94 Clouds 15 1011 76 10000 4.63 290 15:48 25.09.2022
95 Clouds 14 1011 84 10000 4.63 270 14:31 25.09.2022
96 Clouds 14 1011 84 10000 4.63 270 14:31 25.09.2022
97 Clouds 14 1012 87 10000 4.63 270 13:45 25.09.2022
98 Clouds 12 1012 89 10000 3.6 280 10:37 25.09.2022
99 Mist 12 1012 90 5000 3.09 260 09:21 25.09.2022
100 Clouds 12 1012 89 9000 2.57 240 06:28 25.09.2022
101 Clouds 12 1012 89 10000 1.54 190 04:28 25.09.2022
102 Clouds 12 1012 87 10000 2.06 150 23:36 24.09.2022
103 Rain 13 1013 85 10000 1.54 170 21:19 24.09.2022
104 Rain 13 1012 89 10000 1.54 190 19:33 24.09.2022
105 Rain 14 1012 77 10000 0 0 18:44 24.09.2022
106 Clear 15 1012 62 10000 2.57 280 16:43 24.09.2022
107 Clear 16 1012 59 10000 2.57 270 15:23 24.09.2022
108 Clear 17 1013 65 10000 1.03 0 14:27 24.09.2022
109 Clear 16 1013 69 10000 1.54 100 12:59 24.09.2022
110 Clear 15 1013 72 10000 1.54 100 12:22 24.09.2022
111 Clear 13 1012 83 10000 0 0 09:58 24.09.2022
112 Clouds 11 1012 79 10000 0 0 08:56 24.09.2022
113 Clouds 11 1012 83 10000 0 0 07:41 24.09.2022
114 Rain 12 1012 83 10000 0 0 04:52 24.09.2022
115 Clouds 12 1012 79 10000 1.03 90 03:48 24.09.2022
116 Clouds 13 1013 72 10000 1.54 90 22:54 23.09.2022
117 Clouds 13 1014 77 10000 1.03 90 21:33 23.09.2022
118 Clear 14 1014 66 10000 1.54 80 20:57 23.09.2022
119 Clear 14 1014 65 10000 1.54 80 20:37 23.09.2022
120 Clear 15 1014 58 10000 0 0 19:19 23.09.2022
121 Clear 18 1015 40 10000 4.12 230 15:31 23.09.2022
122 Clear 18 1017 48 10000 3.09 210 12:39 23.09.2022
123 Clear 11 1018 77 10000 1.54 120 09:36 23.09.2022
124 Clouds 7 1018 74 10000 1.54 90 06:51 23.09.2022
125 Clouds 8 1020 84 10000 2.06 110 00:44 23.09.2022
126 Clouds 9 1021 73 10000 2.06 90 23:28 22.09.2022
127 Clouds 10 1021 70 10000 2.06 90 22:27 22.09.2022
128 Clouds 11 1021 78 10000 2.06 90 21:23 22.09.2022
129 Clear 12 1021 64 10000 1.03 90 20:18 22.09.2022
130 Clear 16 1021 50 10000 2.06 100 18:30 22.09.2022
131 Clouds 18 1023 52 10000 2.57 160 14:48 22.09.2022
132 Clear 13 1024 76 10000 1.54 120 10:38 22.09.2022
133 Clear 12 1024 79 10000 1.54 130 10:18 22.09.2022
134 Fog 6 1024 85 4600 1.54 90 07:48 22.09.2022
135 Clouds 6 1025 93 3400 0 0 04:37 22.09.2022
136 Clouds 8 1026 74 10000 1.54 80 00:25 22.09.2022
137 Clouds 10 1026 90 10000 0 0 22:28 21.09.2022
138 Clear 11 1025 71 10000 0 0 20:55 21.09.2022
139 Clear 16 1025 48 10000 2.06 270 18:34 21.09.2022
140 Clear 17 1025 47 10000 2.57 320 17:39 21.09.2022
141 Clear 17 1025 58 10000 2.06 0 15:35 21.09.2022
142 Clouds 16 1026 61 10000 2.06 290 13:39 21.09.2022
143 Clouds 13 1026 79 10000 1.54 0 11:34 21.09.2022
144 Clouds 12 1026 81 10000 2.06 270 10:52 21.09.2022
145 Clouds 10 1027 80 10000 2.06 270 09:39 21.09.2022
146 Fog 6 1026 94 6000 0 0 08:24 21.09.2022
147 Clouds 6 1025 91 400 1.03 0 03:51 21.09.2022
148 Clear 7 1025 92 1100 0 0 02:38 21.09.2022
149 Clear 7 1024 85 10000 1.03 0 01:52 21.09.2022
150 Clouds 8 1024 84 10000 0 0 00:19 21.09.2022
151 Clouds 9 1023 88 10000 0 0 21:52 20.09.2022
152 Clear 10 1023 78 10000 0 0 20:32 20.09.2022
153 Clouds 13 1021 66 10000 0.89 258 18:41 20.09.2022
154 Clouds 15 1020 63 10000 3.09 260 15:37 20.09.2022
155 Clouds 15 1021 64 10000 2.57 310 14:18 20.09.2022
156 Clouds 12 1021 82 10000 4.12 290 11:51 20.09.2022
157 Mist 10 1019 86 3000 3.09 300 08:44 20.09.2022
158 Mist 9 1019 88 2500 3.09 280 08:23 20.09.2022
159 Clouds 9 1018 88 10000 3.6 280 04:37 20.09.2022
160 Clouds 9 1017 85 10000 3.09 270 02:24 20.09.2022
161 Rain 10 1017 85 10000 3.6 270 22:44 19.09.2022
162 Rain 11 1017 81 10000 1.54 260 21:28 19.09.2022
163 Clouds 11 1017 81 10000 3.09 270 20:40 19.09.2022
164 Clouds 11 1016 84 10000 2.06 10 19:20 19.09.2022
165 Clouds 13 1015 75 10000 4.63 280 17:37 19.09.2022
166 Clouds 16 1014 62 10000 5.66 290 13:49 19.09.2022
167 Clouds 15 1014 77 10000 5.14 290 12:26 19.09.2022
168 Clouds 12 1014 82 10000 4.63 280 10:31 19.09.2022
169 Clouds 10 1013 90 10000 4.12 280 08:41 19.09.2022
170 Clouds 10 1010 87 10000 4.63 300 04:26 19.09.2022
171 Clouds 10 1009 85 10000 4.63 290 01:18 19.09.2022
172 Clouds 9 1007 86 10000 6.69 280 22:49 18.09.2022
173 Rain 9 1007 83 10000 4.12 260 21:30 18.09.2022
174 Rain 9 1007 81 10000 4.12 250 19:58 18.09.2022
175 Clouds 10 1008 83 10000 5.14 250 17:53 18.09.2022
176 Rain 11 1008 75 10000 5.66 270 16:59 18.09.2022
177 Rain 11 1009 67 10000 4.12 270 15:34 18.09.2022
178 Clouds 13 1008 74 10000 8.23 270 13:47 18.09.2022
179 Clouds 13 1008 82 10000 7.2 270 12:33 18.09.2022
180 Rain 12 1009 77 10000 6.69 270 10:45 18.09.2022
181 Clouds 9 1009 86 10000 5.66 280 03:40 18.09.2022
182 Clouds 10 1008 83 10000 7.2 280 01:24 18.09.2022
183 Clouds 10 1008 86 10000 7.2 280 00:23 18.09.2022
184 Rain 10 1007 92 10000 7.2 290 21:39 17.09.2022
185 Rain 10 1007 92 10000 6.17 280 19:42 17.09.2022
186 Clouds 10 1006 83 10000 7.2 270 18:57 17.09.2022
187 Rain 11 1008 81 10000 4.63 310 15:58 17.09.2022
188 Rain 15 1007 47 10000 4.02 360 13:56 17.09.2022
189 Clouds 13 1007 63 10000 7.2 280 10:57 17.09.2022
190 Clouds 11 1007 84 10000 6.69 280 09:27 17.09.2022
191 Clouds 11 1006 88 10000 6.17 280 06:25 17.09.2022
192 Clouds 12 1005 73 10000 6.69 270 00:20 17.09.2022
193 Clouds 12 1005 68 10000 7.2 270 22:54 16.09.2022
194 Clouds 13 1004 70 10000 7.2 270 21:23 16.09.2022
195 Clear 13 1004 57 10000 6.69 260 19:51 16.09.2022
196 Clouds 15 1005 53 10000 5.66 260 16:56 16.09.2022
197 Clouds 16 1005 53 10000 7.72 260 15:34 16.09.2022
198 Clouds 17 1005 44 10000 9.26 270 13:57 16.09.2022
199 Clouds 15 1006 54 10000 7.72 260 11:43 16.09.2022
200 Clouds 12 1006 77 10000 4.63 270 08:26 16.09.2022
201 Clouds 11 1006 80 10000 3.6 260 07:19 16.09.2022
202 Clouds 11 1006 85 10000 3.6 260 06:47 16.09.2022
203 Clouds 11 1006 78 10000 4.12 260 02:52 16.09.2022
204 Clouds 13 1006 73 10000 2.68 360 22:57 15.09.2022
205 Clouds 14 1005 79 10000 3.58 360 21:19 15.09.2022
206 Clear 15 1005 66 10000 3.6 290 19:57 15.09.2022
207 Clear 17 1004 50 10000 6.69 290 18:30 15.09.2022
208 Clouds 17 1005 52 10000 4.12 320 17:33 15.09.2022
209 Clouds 17 1005 50 10000 7.72 280 16:51 15.09.2022
210 Clouds 17 1005 54 10000 6.17 280 14:41 15.09.2022
211 Clouds 17 1004 60 10000 6.17 270 12:48 15.09.2022
212 Clouds 14 1004 82 10000 4.63 270 10:21 15.09.2022
213 Clouds 12 1004 94 7000 2.57 270 07:51 15.09.2022
214 Clouds 12 1004 86 10000 2.57 270 03:58 15.09.2022
215 Clouds 13 1004 85 10000 2.06 260 01:27 15.09.2022
216 Clouds 14 1004 79 10000 2.06 250 22:26 14.09.2022
217 Clear 15 1003 74 10000 0 0 19:59 14.09.2022
218 Clear 16 1003 70 10000 0 0 19:26 14.09.2022
219 Clear 18 1003 59 10000 1.03 0 17:25 14.09.2022
220 Clear 18 1004 59 10000 0 0 15:56 14.09.2022
221 Clear 18 1005 56 10000 0.51 0 14:34 14.09.2022
222 Clear 17 1006 74 10000 0.45 98 11:54 14.09.2022
223 Clear 14 1006 83 10000 0 0 09:48 14.09.2022
224 Clear 12 1007 90 10000 0 0 07:39 14.09.2022
225 Clear 11 1006 90 10000 0 0 06:47 14.09.2022
226 Clouds 12 1007 92 10000 0 0 04:52 14.09.2022
227 Clouds 13 1008 88 10000 0 0 01:51 14.09.2022
228 Clouds 13 1008 88 10000 0 0 01:29 14.09.2022
229 Clouds 13 1008 88 10000 0 0 01:29 14.09.2022
230 Clouds 13 1008 81 10000 0 0 00:52 14.09.2022
231 Clouds 14 1008 78 10000 0.45 360 23:54 13.09.2022
232 Clouds 14 1008 79 10000 0 0 23:36 13.09.2022
233 Clouds 14 1008 77 10000 0.89 352 23:18 13.09.2022
234 Clouds 15 1008 82 10000 2.57 310 22:21 13.09.2022
235 Clear 18 1008 78 10000 2.06 290 20:21 13.09.2022
236 Clouds 21 1008 64 10000 5.14 280 18:20 13.09.2022
237 Clouds 20 1008 69 10000 3.09 300 15:56 13.09.2022
238 Clouds 20 1008 68 10000 3.6 320 14:36 13.09.2022
239 Clouds 20 1008 67 10000 3.13 360 13:20 13.09.2022
240 Clouds 17 1008 85 10000 2.06 240 09:23 13.09.2022
241 Clouds 15 1009 78 10000 2.06 210 06:59 13.09.2022
242 Clouds 15 1011 75 10000 2.57 120 00:30 13.09.2022
243 Clouds 15 1012 80 10000 1.54 100 22:51 12.09.2022
244 Clouds 15 1012 79 10000 2.06 100 22:22 12.09.2022
245 Clear 17 1013 64 10000 1.54 90 20:42 12.09.2022
246 Clear 21 1013 59 10000 1.54 140 18:52 12.09.2022
247 Clear 22 1014 43 10000 2.06 150 17:42 12.09.2022
248 Clear 22 1015 46 10000 2.06 100 14:54 12.09.2022
249 Clouds 20 1016 67 10000 1.54 0 11:51 12.09.2022
250 Clear 16 1017 81 10000 1.03 0 09:57 12.09.2022
251 Clouds 11 1017 92 8000 1.03 90 05:50 12.09.2022
252 Clouds 12 1018 82 8000 1.03 100 04:30 12.09.2022
253 Clouds 14 1018 86 10000 0 0 23:58 11.09.2022
254 Clouds 15 1018 83 10000 1.54 250 22:43 11.09.2022
255 Clouds 16 1018 73 10000 0 0 21:19 11.09.2022
256 Clear 16 1018 71 10000 1.03 0 20:42 11.09.2022
257 Clear 19 1017 65 10000 4.12 290 19:26 11.09.2022
258 Clouds 20 1017 66 10000 4.12 310 18:38 11.09.2022
259 Clouds 20 1018 58 10000 5.14 280 16:57 11.09.2022
260 Clouds 20 1018 61 10000 4.63 280 15:44 11.09.2022
261 Clouds 20 1018 72 10000 3.09 290 13:18 11.09.2022
262 Drizzle 15 1018 92 2800 2.06 320 10:35 11.09.2022
263 Clouds 13 1016 91 2300 2.57 320 07:49 11.09.2022
264 Clouds 13 1015 88 10000 1.54 320 04:36 11.09.2022
265 Clouds 16 1013 79 10000 0 0 23:48 10.09.2022
266 Clouds 17 1013 75 10000 0 0 21:38 10.09.2022
267 Clear 18 1012 67 10000 2.06 270 20:24 10.09.2022
268 Clear 19 1012 63 10000 2.57 260 19:43 10.09.2022
269 Clouds 19 1012 62 10000 3.09 250 19:24 10.09.2022
270 Clouds 20 1011 57 10000 2.06 0 17:27 10.09.2022
271 Clear 21 1011 65 10000 3.09 220 15:35 10.09.2022
272 Clouds 21 1011 61 10000 3.6 200 13:36 10.09.2022
273 Clouds 21 1011 61 10000 2.57 230 12:29 10.09.2022
274 Clouds 18 1012 69 10000 2.57 210 10:28 10.09.2022
275 Clouds 16 1011 80 10000 2.57 250 08:41 10.09.2022
276 Clouds 15 1011 86 10000 1.54 230 08:20 10.09.2022
277 Clouds 14 1011 86 10000 1.34 360 03:48 10.09.2022
278 Clouds 16 1011 73 10000 0 0 23:36 09.09.2022
279 Clouds 16 1010 74 10000 1.54 90 22:36 09.09.2022
280 Clear 17 1010 69 10000 2.57 90 20:50 09.09.2022
281 Clear 18 1009 67 10000 2.06 110 20:19 09.09.2022
282 Clear 20 1009 66 10000 1.54 90 19:22 09.09.2022
283 Clear 21 1009 63 10000 2.57 300 17:29 09.09.2022
284 Clouds 22 1009 55 10000 3.09 270 15:19 09.09.2022
285 Clouds 22 1009 62 10000 3.6 210 13:31 09.09.2022
286 Clear 19 1010 76 10000 3.09 190 10:42 09.09.2022
287 Clear 19 1010 76 10000 3.09 190 10:42 09.09.2022
288 Clear 14 1009 90 10000 2.57 170 07:57 09.09.2022
289 Clouds 14 1009 92 10000 1.03 0 03:37 09.09.2022
290 Clouds 15 1009 90 10000 2.57 170 22:40 08.09.2022
291 Clouds 15 1009 98 2900 1.54 120 21:51 08.09.2022
292 Clouds 15 1008 92 10000 0.51 0 20:49 08.09.2022
293 Clear 15 1008 96 10000 1.03 230 20:27 08.09.2022
294 Clouds 17 1008 89 10000 3.09 280 19:18 08.09.2022
295 Rain 17 1008 91 10000 3.09 260 17:29 08.09.2022
296 Rain 17 1007 93 8000 3.09 270 15:53 08.09.2022
297 Rain 17 1007 91 6000 2.06 210 13:30 08.09.2022
298 Rain 18 1007 88 6000 1.03 0 12:42 08.09.2022
299 Rain 18 1007 90 9000 0 0 11:24 08.09.2022
300 Clouds 17 1007 91 7000 1.54 120 09:57 08.09.2022
301 Mist 15 1008 90 2300 1.54 70 07:38 08.09.2022
302 Clouds 15 1009 90 10000 1.65 89 04:53 08.09.2022
303 Clouds 16 1010 94 10000 0.85 176 02:36 08.09.2022
304 Clouds 16 1010 93 10000 1.03 186 02:18 08.09.2022
305 Clouds 18 1011 86 10000 0.45 26 00:21 08.09.2022
306 Rain 19 1011 75 10000 0.89 99 21:58 07.09.2022
307 Clouds 19 1011 74 10000 0.89 76 21:38 07.09.2022
308 Rain 19 1012 74 2000 5.14 10 20:30 07.09.2022
309 Clouds 21 1011 65 10000 1.54 0 19:26 07.09.2022
310 Rain 26 1011 51 10000 1.54 40 17:22 07.09.2022
311 Clear 20 1013 77 10000 1.03 0 11:32 07.09.2022
312 Clear 18 1013 80 10000 2.57 190 10:36 07.09.2022
313 Clear 17 1013 81 10000 1.54 100 08:33 07.09.2022
314 Clouds 17 1013 78 10000 3.6 110 06:50 07.09.2022
315 Clouds 18 1015 62 10000 4.12 100 00:53 07.09.2022
316 Clear 19 1016 65 10000 4.12 100 22:28 06.09.2022
317 Clear 20 1016 64 10000 3.09 90 21:38 06.09.2022
318 Clear 23 1015 50 10000 4.63 90 19:57 06.09.2022
319 Clear 25 1016 48 10000 4.63 90 18:42 06.09.2022
320 Clear 26 1015 35 10000 4.63 90 17:56 06.09.2022
321 Clear 26 1015 40 10000 5.66 90 17:20 06.09.2022
322 Clear 26 1015 39 10000 5.66 100 16:37 06.09.2022
323 Clear 25 1017 37 10000 4.12 90 14:55 06.09.2022
324 Clear 23 1017 51 10000 4.63 100 13:44 06.09.2022
325 Clear 23 1017 51 10000 4.63 100 13:44 06.09.2022
326 Clear 23 1017 51 10000 4.63 100 13:44 06.09.2022
327 Clear 21 1018 49 10000 4.63 80 13:20 06.09.2022
328 Clear 18 1019 68 10000 3.6 90 11:29 06.09.2022
329 Clear 18 1018 60 10000 4.12 110 10:33 06.09.2022
330 Clear 16 1018 57 10000 5.14 110 08:29 06.09.2022
331 Clouds 16 1018 58 10000 5.14 90 06:58 06.09.2022
332 Clouds 18 1019 59 10000 3.09 110 02:34 06.09.2022
333 Clear 20 1020 48 10000 4.63 90 23:21 05.09.2022
334 Clear 21 1020 57 10000 5.66 100 21:50 05.09.2022
335 Rain 22 1020 54 10000 4.63 100 20:32 05.09.2022
336 Clear 25 1020 48 10000 5.14 100 19:18 05.09.2022
337 Clear 26 1020 42 10000 5.14 90 18:44 05.09.2022
338 Clear 26 1020 35 10000 5.14 90 18:21 05.09.2022
339 Clear 27 1020 35 10000 5.14 110 16:35 05.09.2022
340 Clear 27 1020 40 10000 5.66 110 15:46 05.09.2022
341 Clear 26 1021 39 10000 6.17 110 13:25 05.09.2022
342 Clear 25 1022 42 10000 5.66 110 12:27 05.09.2022
343 Clear 20 1023 60 10000 6.17 100 09:44 05.09.2022
344 Clouds 16 1022 68 10000 4.63 90 06:41 05.09.2022
345 Clouds 18 1021 58 10000 3.09 90 02:19 05.09.2022
346 Clouds 20 1021 48 10000 3.09 100 23:18 04.09.2022
347 Clouds 20 1021 47 10000 3.13 360 22:27 04.09.2022
348 Clear 22 1020 46 10000 2.06 80 20:50 04.09.2022
349 Clear 24 1020 40 10000 3.6 100 19:38 04.09.2022
350 Clear 25 1020 39 10000 3.6 90 18:19 04.09.2022
351 Clear 26 1019 37 10000 3.09 100 16:56 04.09.2022
352 Clear 26 1019 37 10000 4.63 100 14:33 04.09.2022
353 Clear 25 1019 38 10000 5.14 110 13:49 04.09.2022
354 Clear 23 1020 48 10000 4.63 110 12:18 04.09.2022
355 Clear 20 1020 48 10000 3.6 110 10:47 04.09.2022
356 Clouds 14 1019 74 10000 3.6 80 08:20 04.09.2022
357 Clouds 12 1017 73 10000 3.09 90 05:36 04.09.2022
358 Clouds 15 1016 54 10000 2.06 90 00:53 04.09.2022
359 Clouds 17 1016 45 10000 3.09 90 22:26 03.09.2022
360 Clouds 19 1015 47 10000 3.09 80 21:23 03.09.2022
361 Clear 21 1015 40 10000 4.63 90 19:56 03.09.2022
362 Clear 24 1014 30 10000 6.17 110 17:29 03.09.2022
363 Clear 24 1014 30 10000 5.66 120 16:33 03.09.2022
364 Clear 23 1015 31 10000 6.17 110 14:46 03.09.2022
365 Clear 23 1015 31 10000 6.17 130 14:26 03.09.2022
366 Clear 23 1015 35 10000 7.72 110 13:21 03.09.2022
367 Clear 20 1016 42 10000 5.66 100 10:55 03.09.2022
368 Clouds 15 1016 53 10000 4.12 100 08:41 03.09.2022
369 Clear 12 1016 68 10000 2.57 90 06:59 03.09.2022
370 Clouds 13 1016 63 10000 2.57 90 04:40 03.09.2022
371 Clouds 16 1017 57 10000 3.09 90 00:46 03.09.2022
372 Clouds 17 1017 54 10000 3.09 90 23:28 02.09.2022
373 Clear 17 1017 43 10000 2.57 80 21:33 02.09.2022
374 Clear 19 1016 39 10000 4.12 100 20:39 02.09.2022
375 Clear 21 1016 38 10000 5.66 100 19:35 02.09.2022
376 Clear 22 1016 36 10000 6.69 100 18:43 02.09.2022
377 Clear 23 1016 32 10000 4.63 130 18:24 02.09.2022
378 Clear 23 1017 34 10000 5.66 100 16:51 02.09.2022
379 Clear 24 1017 31 10000 5.66 120 15:48 02.09.2022
380 Clear 22 1018 35 10000 6.17 110 12:56 02.09.2022
381 Clear 20 1020 55 10000 4.12 100 10:37 02.09.2022
382 Clear 17 1020 64 10000 3.6 100 09:41 02.09.2022
383 Clear 15 1020 67 10000 3.6 100 08:42 02.09.2022
384 Clear 11 1020 82 10000 2.57 80 06:43 02.09.2022
385 Clouds 11 1020 73 10000 1.54 90 04:58 02.09.2022
386 Clear 15 1021 55 10000 1.79 360 22:58 01.09.2022
387 Clear 16 1021 49 10000 2.57 80 21:46 01.09.2022
388 Clear 16 1021 55 10000 1.54 80 21:26 01.09.2022
389 Clear 18 1021 51 10000 1.54 50 20:49 01.09.2022
390 Clear 21 1020 38 10000 3.6 90 19:24 01.09.2022
391 Clear 22 1021 35 10000 4.63 90 18:18 01.09.2022
392 Clear 23 1021 31 10000 3.09 60 16:47 01.09.2022
393 Clear 23 1022 37 10000 4.12 90 14:51 01.09.2022
394 Clear 22 1022 40 10000 4.12 90 13:21 01.09.2022
395 Clear 22 1022 41 10000 3.6 100 12:50 01.09.2022
396 Clear 21 1023 43 10000 3.6 90 11:51 01.09.2022
397 Clear 20 1023 46 10000 3.6 100 11:19 01.09.2022
398 Clear 15 1023 66 10000 2.06 80 09:31 01.09.2022
399 Clouds 11 1022 88 10000 0 0 06:31 01.09.2022
400 Clear 12 1023 71 10000 1.54 70 02:34 01.09.2022
401 Clouds 13 1023 69 10000 1.54 40 01:30 01.09.2022
402 Clouds 13 1023 69 10000 1.54 40 01:30 01.09.2022
403 Clouds 15 1022 59 10000 1.03 0 22:22 31.08.2022
404 Clear 19 1022 48 10000 2.57 80 20:35 31.08.2022
405 Clear 22 1021 39 10000 4.02 55 18:45 31.08.2022
406 Clear 23 1022 39 10000 3.6 70 16:36 31.08.2022
407 Clear 23 1022 40 10000 4.63 120 15:21 31.08.2022
408 Clear 21 1023 51 10000 3.6 70 12:58 31.08.2022
409 Clouds 20 1024 62 10000 3.6 80 11:54 31.08.2022
410 Clear 16 1023 66 10000 3.09 90 09:35 31.08.2022
411 Clear 13 1023 75 10000 1.54 70 07:31 31.08.2022
412 Clouds 15 1022 75 10000 2.57 80 02:47 31.08.2022
413 Clouds 17 1021 60 10000 2.57 70 22:21 30.08.2022
414 Clouds 18 1021 63 10000 2.57 70 21:28 30.08.2022
415 Clear 19 1021 55 10000 2.57 70 20:26 30.08.2022
416 Clouds 24 1020 43 10000 1.79 59 16:48 30.08.2022
417 Clouds 23 1022 56 10000 1.54 0 13:51 30.08.2022
418 Clouds 20 1022 73 10000 1.54 90 11:58 30.08.2022
419 Clouds 18 1023 73 10000 0.51 0 11:20 30.08.2022
420 Clouds 16 1022 87 8000 1.03 0 09:39 30.08.2022
421 Clouds 13 1021 87 550 1.03 0 06:48 30.08.2022
422 Clouds 15 1021 78 10000 1.03 0 01:18 30.08.2022
423 Clouds 17 1020 68 10000 2.57 50 22:38 29.08.2022
424 Clouds 19 1020 69 10000 2.57 50 21:54 29.08.2022
425 Clear 20 1020 62 10000 1.03 0 20:47 29.08.2022
426 Clear 23 1018 46 10000 2.06 310 19:35 29.08.2022
427 Clouds 24 1019 42 10000 3.09 260 17:39 29.08.2022
428 Clear 24 1019 42 10000 3.09 0 17:18 29.08.2022
429 Clouds 23 1020 55 10000 4.12 310 15:38 29.08.2022
430 Clouds 22 1021 54 10000 3.6 300 13:58 29.08.2022
431 Clouds 21 1021 68 10000 3.09 250 12:34 29.08.2022
432 Clouds 18 1021 75 10000 3.6 280 10:49 29.08.2022
433 Clouds 16 1021 69 10000 3.6 280 09:30 29.08.2022
434 Clouds 14 1020 73 10000 3.6 260 07:35 29.08.2022
435 Clear 12 1019 73 10000 2.06 280 02:42 29.08.2022
436 Clear 14 1019 63 10000 2.06 270 23:50 28.08.2022
437 Clear 16 1019 57 10000 0.45 330 22:22 28.08.2022
438 Clear 16 1019 61 10000 2.06 310 21:32 28.08.2022
439 Clear 19 1019 42 10000 3.6 310 20:39 28.08.2022
440 Clear 22 1018 38 10000 5.14 320 18:51 28.08.2022
441 Clear 22 1017 38 10000 5.66 310 18:19 28.08.2022
442 Clear 23 1017 38 10000 5.66 300 16:57 28.08.2022
443 Clear 23 1017 45 10000 5.66 310 15:50 28.08.2022
444 Clouds 22 1018 42 10000 5.66 290 14:21 28.08.2022
445 Clouds 20 1018 52 10000 4.63 320 12:31 28.08.2022
446 Clouds 17 1018 63 10000 4.63 310 10:42 28.08.2022
447 Clouds 17 1018 67 10000 4.12 300 09:41 28.08.2022
448 Clouds 15 1017 81 10000 4.12 290 08:36 28.08.2022
449 Clouds 14 1017 84 10000 3.09 290 07:41 28.08.2022
450 Clouds 15 1016 72 10000 3.09 290 02:31 28.08.2022
451 Clouds 17 1016 74 10000 3.6 320 00:25 28.08.2022
452 Clouds 19 1016 64 10000 3.09 310 22:32 27.08.2022
453 Clouds 19 1015 65 10000 1.54 300 21:24 27.08.2022
454 Clouds 21 1015 59 10000 4.12 320 19:40 27.08.2022
455 Clouds 21 1014 70 10000 3.6 310 16:48 27.08.2022
456 Clouds 20 1014 72 10000 4.12 320 15:52 27.08.2022
457 Clouds 20 1014 74 10000 4.12 320 15:23 27.08.2022
458 Clouds 20 1014 80 10000 4.12 300 12:23 27.08.2022
459 Clouds 19 1014 88 10000 3.09 300 11:24 27.08.2022
460 Clouds 19 1014 86 10000 4.12 300 09:42 27.08.2022
461 Clouds 18 1013 86 10000 4.63 310 07:31 27.08.2022
462 Clouds 19 1013 87 10000 3.6 310 02:34 27.08.2022
463 Clouds 19 1013 86 10000 1.54 310 23:55 26.08.2022
464 Clouds 20 1012 78 10000 1.54 0 22:37 26.08.2022
465 Clouds 22 1012 76 10000 1.79 360 20:42 26.08.2022
466 Clouds 22 1012 65 10000 3.09 100 19:23 26.08.2022
467 Clouds 27 1011 53 10000 3.6 10 16:46 26.08.2022
468 Clouds 29 1011 48 10000 2.06 320 15:31 26.08.2022
469 Clear 29 1012 50 10000 1.03 0 14:29 26.08.2022
470 Clear 28 1012 56 10000 1.54 0 12:49 26.08.2022
471 Clear 26 1013 58 10000 1.54 0 11:27 26.08.2022
472 Clear 26 1014 61 10000 1.03 0 10:29 26.08.2022
473 Clear 19 1013 80 10000 2.06 90 07:28 26.08.2022
474 Clear 19 1013 80 10000 2.06 90 07:28 26.08.2022
475 Clouds 21 1014 71 10000 2.57 90 01:41 26.08.2022
476 Clouds 22 1015 76 10000 2.06 90 23:41 25.08.2022
477 Clear 24 1015 56 10000 2.06 70 21:36 25.08.2022
478 Clear 26 1015 55 10000 2.57 80 20:30 25.08.2022
479 Clear 28 1014 44 10000 4.63 110 18:55 25.08.2022
480 Clear 29 1015 43 10000 5.14 100 17:50 25.08.2022
481 Clear 29 1015 44 10000 5.14 90 17:31 25.08.2022
482 Clouds 29 1016 44 10000 5.14 100 15:43 25.08.2022
483 Clouds 29 1016 44 10000 5.66 100 15:25 25.08.2022
484 Clouds 26 1018 59 10000 4.12 100 11:55 25.08.2022
485 Clear 25 1019 58 10000 3.09 90 10:48 25.08.2022
486 Clear 21 1019 81 10000 3.09 90 09:20 25.08.2022
487 Clear 17 1019 87 10000 2.57 70 05:39 25.08.2022
488 Clear 18 1020 66 10000 2.57 80 01:42 25.08.2022
489 Clouds 20 1020 68 10000 2.06 90 23:26 24.08.2022
490 Clouds 22 1020 53 10000 2.06 80 22:41 24.08.2022
491 Clear 23 1020 46 10000 2.06 80 21:36 24.08.2022
492 Clear 25 1019 39 10000 3.09 80 20:55 24.08.2022
493 Clear 29 1019 35 10000 3.6 100 19:19 24.08.2022
494 Clear 30 1019 33 10000 3.6 0 16:47 24.08.2022
495 Clear 31 1019 29 10000 4.12 100 15:52 24.08.2022
496 Clear 29 1019 31 10000 2.57 0 13:46 24.08.2022
497 Clear 27 1020 37 10000 3.6 0 11:50 24.08.2022
498 Clear 25 1020 48 10000 3.09 130 10:34 24.08.2022
499 Clear 18 1020 76 10000 2.57 90 08:25 24.08.2022
500 Clouds 17 1018 65 10000 2.06 100 03:32 24.08.2022
501 Clouds 20 1019 53 10000 2.06 80 23:35 23.08.2022
502 Clouds 22 1018 46 10000 2.57 90 22:33 23.08.2022
503 Clouds 23 1018 42 10000 1.34 360 21:39 23.08.2022
504 Clear 25 1017 36 10000 3.09 110 20:31 23.08.2022
505 Clear 28 1017 32 10000 3.6 110 18:53 23.08.2022
506 Clear 28 1017 31 10000 3.6 140 17:51 23.08.2022
507 Clear 28 1017 31 10000 3.6 110 17:18 23.08.2022
508 Clear 28 1017 31 10000 4.12 120 15:49 23.08.2022
509 Clear 27 1017 35 10000 4.63 110 13:36 23.08.2022
510 Clear 26 1018 38 10000 5.14 110 12:45 23.08.2022
511 Clear 24 1018 51 10000 4.12 120 10:53 23.08.2022
512 Clear 24 1018 52 10000 4.12 120 10:32 23.08.2022
513 Clear 20 1018 67 10000 2.06 110 08:55 23.08.2022
514 Clear 17 1018 76 10000 2.57 100 08:22 23.08.2022
515 Clear 17 1017 70 10000 0.89 360 07:48 23.08.2022
516 Clear 15 1017 83 10000 1.54 90 07:22 23.08.2022
517 Clear 14 1017 81 10000 1.34 360 06:19 23.08.2022
518 Clouds 18 1016 59 10000 2.57 90 01:43 23.08.2022
519 Clouds 19 1016 63 10000 2.57 90 00:26 23.08.2022
520 Clouds 20 1016 60 10000 3.09 100 23:30 22.08.2022
521 Clouds 21 1016 54 10000 2.06 80 22:19 22.08.2022
522 Clear 26 1015 39 10000 4.63 100 19:56 22.08.2022
523 Clear 26 1015 36 10000 4.63 100 19:36 22.08.2022
524 Clear 27 1014 31 10000 3.6 110 18:36 22.08.2022
525 Clear 28 1015 30 10000 3.09 0 15:45 22.08.2022
526 Clear 27 1015 31 10000 3.09 90 14:48 22.08.2022
527 Clear 25 1016 36 10000 2.06 0 11:39 22.08.2022
528 Clear 18 1016 72 10000 1.54 100 09:24 22.08.2022
529 Clouds 13 1015 83 10000 0 0 05:44 22.08.2022
530 Clouds 15 1016 81 10000 0 0 00:56 22.08.2022
531 Clouds 15 1016 78 10000 0 0 00:36 22.08.2022
532 Clouds 17 1015 64 10000 0 0 23:21 21.08.2022
533 Clouds 19 1015 66 10000 1.03 0 21:55 21.08.2022
534 Clouds 20 1015 61 10000 1.03 0 21:18 21.08.2022
535 Clear 24 1014 38 10000 3.6 310 19:58 21.08.2022
536 Clear 26 1014 34 10000 4.12 310 18:36 21.08.2022
537 Clear 26 1014 36 10000 2.06 310 16:50 21.08.2022
538 Clear 26 1014 32 10000 3.09 250 15:52 21.08.2022
539 Clear 26 1015 35 10000 4.12 260 14:51 21.08.2022
540 Clear 25 1015 41 10000 3.13 259 13:50 21.08.2022
541 Clear 24 1015 51 10000 4.12 300 12:56 21.08.2022
542 Clear 22 1016 53 10000 3.09 180 10:40 21.08.2022
543 Clouds 17 1016 79 10000 2.06 90 08:57 21.08.2022
544 Clouds 16 1016 75 10000 2.06 90 08:39 21.08.2022
545 Clouds 15 1016 79 10000 1.54 100 08:18 21.08.2022
546 Clouds 13 1016 79 1700 1.03 90 06:37 21.08.2022
547 Clouds 17 1016 73 10000 1.54 40 01:50 21.08.2022
548 Clouds 18 1017 81 10000 2.06 50 23:34 20.08.2022
549 Clouds 20 1016 67 10000 0 0 21:55 20.08.2022
550 Clear 21 1016 59 10000 0 0 20:56 20.08.2022
551 Clear 23 1015 56 10000 0.51 0 19:44 20.08.2022
552 Clear 23 1015 63 10000 1.54 40 18:50 20.08.2022
553 Clear 23 1015 66 10000 2.06 360 18:26 20.08.2022
554 Clear 24 1015 55 10000 3.6 350 17:21 20.08.2022
555 Clouds 23 1015 60 10000 3.09 360 16:20 20.08.2022
556 Clouds 24 1015 56 10000 2.57 320 14:26 20.08.2022
557 Clouds 23 1015 71 10000 2.57 300 12:19 20.08.2022
558 Clear 22 1015 72 10000 2.06 300 11:42 20.08.2022
559 Clear 19 1014 80 10000 2.57 330 09:20 20.08.2022
560 Clouds 17 1014 90 10000 0.45 0 07:31 20.08.2022
561 Clouds 17 1013 89 10000 1.03 110 05:22 20.08.2022
562 Clouds 19 1013 76 10000 0 0 00:58 20.08.2022
563 Clouds 19 1013 74 10000 0 0 23:51 19.08.2022
564 Clouds 19 1013 73 10000 1.03 90 22:45 19.08.2022
565 Clouds 21 1012 65 10000 1.03 80 21:30 19.08.2022
566 Clear 24 1012 52 10000 2.06 360 19:40 19.08.2022
567 Clouds 26 1012 48 10000 0.89 308 16:28 19.08.2022
568 Clouds 24 1012 63 10000 4.12 310 14:22 19.08.2022
569 Clouds 21 1013 68 10000 4.12 280 12:19 19.08.2022
570 Clouds 19 1013 81 10000 3.6 290 10:41 19.08.2022
571 Clouds 19 1013 75 10000 3.09 300 09:36 19.08.2022
572 Clouds 19 1011 77 10000 3.09 300 04:56 19.08.2022
573 Clouds 21 1011 82 10000 3.09 330 00:43 19.08.2022
574 Clouds 21 1011 75 10000 2.57 320 00:20 19.08.2022
575 Clouds 21 1011 74 10000 2.06 300 22:59 18.08.2022
576 Clouds 21 1011 75 10000 2.06 280 22:26 18.08.2022
577 Clouds 21 1011 74 10000 2.57 290 21:51 18.08.2022
578 Clear 22 1011 72 10000 2.06 310 20:56 18.08.2022
579 Rain 23 1011 74 10000 2.57 290 19:54 18.08.2022
580 Clear 23 1011 69 10000 2.06 320 19:21 18.08.2022
581 Rain 23 1011 60 10000 1.54 340 17:41 18.08.2022
582 Rain 25 1012 61 10000 3.09 300 16:19 18.08.2022
583 Clouds 25 1012 45 10000 4.12 290 14:22 18.08.2022
584 Clear 25 1012 50 10000 4.12 300 13:45 18.08.2022
585 Clouds 25 1012 57 10000 4.63 310 12:31 18.08.2022
586 Clouds 24 1012 60 10000 3.6 310 11:21 18.08.2022
587 Clouds 22 1012 71 10000 4.12 290 09:43 18.08.2022
588 Clear 19 1011 78 10000 1.54 280 08:31 18.08.2022
589 Clear 18 1011 81 10000 0 0 07:18 18.08.2022
590 Clouds 18 1011 79 10000 1.03 100 02:59 18.08.2022
591 Clouds 20 1010 80 10000 1.03 0 22:51 17.08.2022
592 Clear 23 1010 64 10000 1.03 0 21:28 17.08.2022
593 Clear 26 1010 51 10000 2.57 340 19:59 17.08.2022
594 Clear 28 1009 45 10000 4.63 290 18:58 17.08.2022
595 Clear 30 1009 33 10000 3.09 100 17:28 17.08.2022
596 Clear 30 1010 34 10000 3.6 130 16:21 17.08.2022
597 Clear 31 1010 30 10000 4.12 110 15:18 17.08.2022
598 Clear 30 1011 38 10000 3.6 120 12:52 17.08.2022
599 Clear 29 1011 40 10000 3.6 110 11:36 17.08.2022
600 Clear 24 1011 62 10000 1.54 100 09:31 17.08.2022
601 Clouds 21 1012 68 10000 1.5 126 07:36 17.08.2022
602 Clouds 19 1010 68 10000 1.54 100 02:24 17.08.2022
603 Clouds 20 1011 67 10000 1.03 80 23:49 16.08.2022
604 Clear 22 1010 69 10000 0 0 21:59 16.08.2022
605 Clear 25 1009 54 10000 0 0 20:52 16.08.2022
606 Clear 28 1009 38 10000 2.57 320 19:53 16.08.2022
607 Clear 29 1008 39 10000 4.12 320 18:34 16.08.2022
608 Clear 29 1008 40 10000 3.6 260 17:41 16.08.2022
609 Clear 29 1008 37 10000 3.09 260 15:47 16.08.2022
610 Clear 29 1008 41 10000 3.09 220 14:55 16.08.2022
611 Clear 29 1008 41 10000 3.09 220 14:37 16.08.2022
612 Clouds 27 1008 42 10000 2.57 270 12:44 16.08.2022
613 Clear 25 1008 52 10000 2.57 250 10:37 16.08.2022
614 Clear 24 1008 66 10000 3.6 220 09:50 16.08.2022
615 Clear 21 1008 70 10000 1.34 213 08:47 16.08.2022
616 Clear 18 1007 80 10000 0.45 218 07:33 16.08.2022
617 Clouds 19 1006 93 10000 2.06 170 02:19 16.08.2022
618 Clouds 20 1005 81 6000 0 0 22:31 15.08.2022
619 Clouds 20 1005 93 10000 0 0 21:55 15.08.2022
620 Clouds 20 1005 92 10000 0.45 360 21:34 15.08.2022
621 Clear 21 1004 77 10000 0 0 20:20 15.08.2022
622 Clear 22 1004 87 10000 1.54 270 18:43 15.08.2022
623 Clear 22 1004 74 10000 4.12 310 17:46 15.08.2022
624 Thunderstorm 22 1004 76 10000 2.57 170 16:22 15.08.2022
625 Clouds 31 1003 39 10000 1.03 0 14:31 15.08.2022
626 Clear 31 1003 39 10000 3.09 0 12:54 15.08.2022
627 Clear 28 1004 48 10000 2.57 110 10:23 15.08.2022
628 Clear 22 1004 53 10000 1.54 190 08:52 15.08.2022
629 Clouds 19 1004 66 10000 2.06 100 06:34 15.08.2022
630 Clouds 21 1005 67 10000 1.54 100 03:34 15.08.2022
631 Clear 24 1006 51 10000 1.03 0 23:27 14.08.2022
632 Clear 25 1007 44 10000 1.54 100 21:43 14.08.2022
633 Clear 27 1006 38 10000 2.06 60 20:41 14.08.2022
634 Clear 29 1006 35 10000 2.06 70 19:45 14.08.2022
635 Clear 31 1007 30 10000 4.12 120 18:32 14.08.2022
636 Clear 31 1007 35 10000 4.12 110 17:37 14.08.2022
637 Clear 31 1008 38 10000 4.63 140 16:23 14.08.2022
638 Clear 31 1009 38 10000 5.14 160 15:34 14.08.2022
639 Clear 30 1010 40 10000 5.14 110 13:52 14.08.2022
640 Clear 30 1010 38 10000 5.14 110 13:33 14.08.2022
641 Clouds 29 1011 47 10000 4.12 130 12:45 14.08.2022
642 Clear 27 1011 47 10000 4.12 120 11:30 14.08.2022
643 Clear 26 1012 57 10000 3.6 110 10:18 14.08.2022
644 Clouds 21 1012 79 10000 2.57 100 08:18 14.08.2022
645 Clouds 18 1013 89 10000 1.54 90 06:18 14.08.2022
646 Clouds 19 1015 71 10000 1.54 110 01:48 14.08.2022
647 Clouds 19 1015 79 10000 0 0 23:23 13.08.2022
648 Clouds 21 1015 63 10000 1.54 80 22:28 13.08.2022
649 Clear 23 1015 65 10000 1.54 90 20:56 13.08.2022
650 Clear 25 1015 50 10000 1.54 90 19:50 13.08.2022
651 Clouds 26 1015 41 10000 0.89 56 19:19 13.08.2022
652 Clear 28 1016 43 10000 5.14 120 17:22 13.08.2022
653 Clear 30 1017 40 10000 5.66 90 15:18 13.08.2022
654 Clear 29 1017 36 10000 5.14 100 14:24 13.08.2022
655 Clear 29 1017 35 10000 3.09 70 13:37 13.08.2022
656 Clear 28 1018 36 10000 4.12 100 11:49 13.08.2022
657 Clear 24 1018 45 10000 2.06 90 09:43 13.08.2022
658 Clear 19 1019 63 10000 0 0 07:50 13.08.2022
659 Clear 17 1019 53 10000 1.03 100 02:33 13.08.2022
660 Clear 18 1019 53 10000 1.54 120 23:46 12.08.2022
661 Clear 22 1019 41 10000 1.03 0 21:40 12.08.2022
662 Clear 28 1018 27 10000 4.12 100 19:51 12.08.2022
663 Clear 28 1018 26 10000 3.09 90 19:26 12.08.2022
664 Clear 30 1018 24 10000 3.09 90 18:37 12.08.2022
665 Clear 31 1019 22 10000 4.63 100 16:28 12.08.2022
666 Clear 30 1019 23 10000 3.6 70 15:31 12.08.2022
667 Clear 30 1020 24 10000 5.14 90 14:27 12.08.2022
668 Clear 29 1020 26 10000 4.63 120 12:51 12.08.2022
669 Clear 25 1021 39 10000 2.06 150 09:52 12.08.2022
670 Clouds 20 1021 43 10000 2.74 127 07:47 12.08.2022
671 Clouds 17 1021 49 10000 2.63 128 06:31 12.08.2022
672 Clouds 17 1021 62 10000 1.03 0 02:22 12.08.2022
673 Clouds 19 1021 56 10000 1.34 360 00:24 12.08.2022
674 Clouds 20 1021 46 10000 1.03 100 23:35 11.08.2022
675 Clouds 22 1020 44 10000 2.06 80 22:24 11.08.2022
676 Clouds 23 1020 39 10000 2.06 80 21:40 11.08.2022
677 Clear 26 1020 34 10000 2.06 70 20:45 11.08.2022
678 Clear 27 1020 29 10000 2.06 70 20:18 11.08.2022
679 Clear 29 1020 27 10000 3.09 0 19:32 11.08.2022
680 Clear 31 1020 23 10000 3.6 80 17:48 11.08.2022
681 Clear 31 1021 25 10000 3.09 0 16:35 11.08.2022
682 Clear 31 1021 24 10000 2.06 0 15:21 11.08.2022
683 Clear 29 1023 32 10000 3.09 0 12:44 11.08.2022
684 Clear 24 1024 43 10000 2.06 120 10:27 11.08.2022
685 Clear 19 1024 52 10000 1.7 115 07:38 11.08.2022
686 Clouds 15 1024 57 10000 1.03 0 03:53 11.08.2022
687 Clear 17 1024 58 10000 2.06 100 00:50 11.08.2022
688 Clear 20 1024 54 10000 1.03 0 22:32 10.08.2022
689 Clear 21 1024 49 10000 1.54 60 21:34 10.08.2022
690 Clear 24 1024 40 10000 1.54 60 20:55 10.08.2022
691 Clear 27 1024 29 10000 2.68 63 19:31 10.08.2022
692 Clear 28 1024 29 10000 2.68 27 18:23 10.08.2022
693 Clear 28 1025 32 10000 2.06 120 16:41 10.08.2022
694 Clear 27 1026 31 10000 2.57 0 13:36 10.08.2022
695 Clear 26 1027 33 10000 2.57 130 12:46 10.08.2022
696 Clear 23 1028 52 10000 3.09 100 09:55 10.08.2022
697 Clear 18 1028 68 10000 2.57 90 08:35 10.08.2022
698 Clear 14 1028 71 10000 1.03 110 07:20 10.08.2022
699 Clouds 14 1028 79 10000 2.06 80 03:32 10.08.2022
700 Clouds 17 1028 55 10000 1.54 80 23:58 09.08.2022
701 Clouds 18 1027 52 10000 1.54 0 23:25 09.08.2022
702 Clouds 21 1027 48 10000 1.03 0 21:37 09.08.2022
703 Clear 24 1027 33 10000 2.06 40 20:40 09.08.2022
704 Clear 26 1026 32 10000 2.06 0 18:45 09.08.2022
705 Clear 27 1026 32 10000 2.06 0 17:31 09.08.2022
706 Clear 27 1026 32 10000 3.09 50 16:42 09.08.2022
707 Clear 26 1027 38 10000 2.24 39 15:59 09.08.2022
708 Clear 26 1027 36 10000 3.6 340 14:29 09.08.2022
709 Clear 23 1028 48 10000 2.24 115 10:45 09.08.2022
710 Clear 18 1028 67 10000 0.89 54 08:51 09.08.2022
711 Clear 16 1027 77 10000 1.03 350 07:54 09.08.2022
712 Clear 13 1027 73 10000 1.68 42 04:43 09.08.2022
713 Clear 17 1026 59 10000 0.45 0 23:58 08.08.2022
714 Clear 18 1026 55 10000 1.34 6 22:58 08.08.2022
715 Clear 18 1026 51 10000 1.34 0 22:35 08.08.2022
716 Clear 21 1025 53 10000 3.68 45 21:40 08.08.2022
717 Clear 24 1025 34 10000 3.09 360 19:58 08.08.2022
718 Clear 25 1024 33 10000 3.13 357 19:31 08.08.2022
719 Clear 26 1024 32 10000 2.06 0 17:47 08.08.2022
720 Clear 26 1024 29 10000 3.6 300 15:47 08.08.2022
721 Clear 26 1024 31 10000 2.57 0 14:46 08.08.2022
722 Clear 24 1025 32 10000 2.06 0 12:30 08.08.2022
723 Clear 21 1025 44 10000 1.03 0 10:26 08.08.2022
724 Clear 15 1024 74 10000 0 0 07:51 08.08.2022
725 Clear 12 1024 70 10000 1.03 0 03:42 08.08.2022
726 Clouds 16 1023 61 10000 1.03 110 23:28 07.08.2022
727 Clouds 18 1023 50 10000 1.03 0 21:41 07.08.2022
728 Clear 21 1023 42 10000 1.03 0 20:55 07.08.2022
729 Clear 23 1022 36 10000 2.06 350 20:18 07.08.2022
730 Clear 23 1022 33 10000 2.06 340 19:51 07.08.2022
731 Clouds 24 1022 31 10000 1.34 4 19:22 07.08.2022
732 Clear 25 1022 33 10000 2.24 61 17:31 07.08.2022
733 Clouds 25 1023 34 10000 0.89 337 16:52 07.08.2022
734 Clear 25 1023 31 10000 2.57 0 15:39 07.08.2022
735 Clear 23 1024 34 10000 3.09 280 13:58 07.08.2022
736 Clear 22 1025 36 10000 2.06 0 12:41 07.08.2022
737 Clear 21 1026 52 10000 1.54 0 10:51 07.08.2022
738 Clear 19 1026 52 10000 1.54 0 10:20 07.08.2022
739 Clouds 10 1026 79 10000 0 0 04:38 07.08.2022
740 Clear 11 1027 77 10000 1.54 110 02:25 07.08.2022
741 Clear 15 1027 61 10000 1.03 0 22:39 06.08.2022
742 Clear 15 1027 61 10000 1.03 0 22:18 06.08.2022
743 Clear 21 1026 42 10000 3.6 320 19:46 06.08.2022
744 Clear 22 1026 34 10000 4.12 330 18:50 06.08.2022
745 Clear 23 1025 34 10000 3.09 300 17:48 06.08.2022
746 Clear 22 1026 36 10000 3.09 340 16:29 06.08.2022
747 Clouds 21 1026 39 10000 2.57 0 13:51 06.08.2022
748 Clouds 21 1027 51 10000 2.57 310 12:46 06.08.2022
749 Clear 19 1027 50 10000 0.89 326 11:21 06.08.2022
750 Clear 17 1027 64 10000 2.57 290 09:49 06.08.2022
751 Clear 12 1026 90 10000 2.06 260 07:35 06.08.2022
752 Clouds 12 1023 75 10000 1.54 280 02:22 06.08.2022
753 Clouds 16 1021 56 10000 4.12 310 22:40 05.08.2022
754 Clouds 18 1020 59 10000 4.63 310 21:36 05.08.2022
755 Clouds 19 1019 65 10000 3.6 290 19:29 05.08.2022
756 Clear 19 1019 66 10000 3.6 300 18:44 05.08.2022
757 Clouds 19 1018 70 10000 3.6 310 17:26 05.08.2022
758 Clouds 18 1018 81 10000 3.09 330 16:43 05.08.2022
759 Clouds 22 1016 68 10000 4.12 330 15:21 05.08.2022
760 Clouds 24 1014 71 10000 3.6 310 13:53 05.08.2022
761 Clouds 24 1014 71 10000 3.6 300 13:22 05.08.2022
762 Clouds 23 1015 70 9000 2.57 330 12:24 05.08.2022
763 Clouds 20 1014 84 8000 1.54 60 10:35 05.08.2022
764 Clouds 19 1014 87 10000 0.45 280 07:58 05.08.2022
765 Rain 19 1014 83 10000 2.57 260 05:32 05.08.2022
766 Rain 23 1014 60 10000 2.06 350 00:30 05.08.2022
767 Clouds 24 1013 58 10000 1.54 290 22:26 04.08.2022
768 Clouds 26 1012 50 10000 1.54 310 21:26 04.08.2022
769 Clear 27 1012 47 10000 3.09 320 20:42 04.08.2022
770 Rain 30 1011 46 10000 5.14 300 19:40 04.08.2022
771 Clouds 33 1010 43 10000 4.86 265 18:36 04.08.2022
772 Rain 35 1011 27 10000 4.12 230 17:38 04.08.2022
773 Clear 36 1012 25 10000 3.6 180 14:23 04.08.2022
774 Clear 35 1012 28 10000 3.6 160 12:57 04.08.2022
775 Clear 33 1013 28 10000 2.68 138 11:18 04.08.2022
776 Clear 25 1013 58 10000 0 0 07:54 04.08.2022
777 Clear 20 1014 77 10000 1.54 90 06:40 04.08.2022
778 Clear 20 1014 67 10000 2.06 100 02:33 04.08.2022
779 Clouds 22 1014 62 10000 1.54 110 23:45 03.08.2022
780 Clouds 23 1014 63 10000 1.54 100 22:59 03.08.2022
781 Clear 28 1014 47 10000 0.45 0 20:50 03.08.2022
782 Clear 30 1014 45 10000 1.54 290 19:46 03.08.2022
783 Clear 31 1014 33 10000 1.03 0 18:37 03.08.2022
784 Clear 33 1014 29 10000 3.6 270 16:26 03.08.2022
785 Clear 33 1015 30 10000 2.57 220 15:45 03.08.2022
786 Clear 31 1016 38 10000 4.12 250 12:44 03.08.2022
787 Clear 27 1016 46 10000 2.57 200 09:51 03.08.2022
788 Clouds 18 1016 73 10000 1.34 171 06:29 03.08.2022
789 Clouds 18 1016 67 10000 1.03 0 04:21 03.08.2022
790 Clear 19 1016 65 10000 1.54 100 02:35 03.08.2022
791 Clouds 21 1016 59 10000 1.54 100 23:54 02.08.2022
792 Clouds 22 1016 56 10000 0 0 21:59 02.08.2022
793 Clouds 22 1016 54 10000 0 0 21:41 02.08.2022
794 Clear 26 1016 39 10000 4.12 240 20:25 02.08.2022
795 Clear 27 1016 34 10000 4.63 250 16:52 02.08.2022
796 Clear 27 1017 36 10000 4.12 210 14:33 02.08.2022
797 Clear 22 1018 56 10000 2.06 0 10:44 02.08.2022
798 Clear 16 1019 72 10000 1.54 110 08:38 02.08.2022
799 Clouds 14 1019 90 10000 0.51 100 07:51 02.08.2022
800 Clouds 11 1019 83 10000 0.51 0 04:57 02.08.2022
801 Clouds 12 1019 89 10000 1.03 310 03:30 02.08.2022
802 Clouds 17 1019 73 10000 2.24 340 23:26 01.08.2022
803 Clouds 19 1018 59 10000 2.06 320 21:49 01.08.2022
804 Clouds 21 1017 55 10000 3.09 310 20:34 01.08.2022
805 Clouds 22 1017 54 10000 3.6 310 19:22 01.08.2022
806 Clouds 23 1017 54 10000 3.6 320 17:22 01.08.2022
807 Clouds 23 1017 53 10000 4.63 300 16:49 01.08.2022
808 Clouds 23 1016 55 10000 4.63 310 15:48 01.08.2022
809 Clouds 23 1016 60 10000 4.63 310 15:28 01.08.2022
810 Clouds 21 1017 64 10000 5.66 310 13:39 01.08.2022
811 Clouds 20 1016 74 10000 4.63 310 11:38 01.08.2022
812 Clouds 19 1015 87 8000 4.12 320 09:38 01.08.2022
813 Clouds 19 1015 88 10000 4.12 300 08:20 01.08.2022
814 Clouds 19 1013 89 7000 3.09 270 04:44 01.08.2022
815 Clouds 18 1013 87 10000 3.09 240 02:31 01.08.2022
816 Rain 18 1014 79 10000 1.54 120 22:54 31.07.2022
817 Rain 18 1014 79 10000 1.54 120 22:36 31.07.2022
818 Clouds 19 1014 82 10000 2.57 240 20:49 31.07.2022
819 Rain 23 1014 49 10000 4.12 260 19:25 31.07.2022
820 Clear 26 1014 41 10000 4.12 240 17:43 31.07.2022
821 Clear 27 1014 37 10000 2.57 280 15:30 31.07.2022
822 Clear 26 1015 41 10000 2.57 260 13:31 31.07.2022
823 Clear 24 1016 48 10000 2.57 260 11:45 31.07.2022
824 Clear 19 1017 75 10000 1.54 220 09:27 31.07.2022
825 Clouds 16 1018 82 3500 0.45 251 06:43 31.07.2022
826 Clouds 17 1018 83 4500 0.89 261 02:57 31.07.2022
827 Clouds 19 1018 77 10000 1.03 0 23:30 30.07.2022
828 Clouds 19 1018 75 10000 0.45 215 22:19 30.07.2022
829 Clouds 19 1018 74 10000 0.45 215 21:47 30.07.2022
830 Clouds 20 1017 73 10000 0.51 0 20:56 30.07.2022
831 Rain 21 1017 72 10000 4.12 220 19:58 30.07.2022
832 Rain 23 1017 63 10000 2.68 242 18:51 30.07.2022
833 Clear 24 1017 51 10000 1.54 100 17:41 30.07.2022
834 Clear 25 1016 59 10000 4.63 170 15:49 30.07.2022
835 Clear 24 1016 61 10000 4.12 150 15:21 30.07.2022
836 Clear 22 1017 68 10000 2.57 290 12:55 30.07.2022
837 Clouds 21 1017 71 10000 2.06 0 11:55 30.07.2022
838 Drizzle 18 1017 83 10000 2.57 290 10:28 30.07.2022
839 Rain 18 1017 84 10000 3.6 260 09:47 30.07.2022
840 Rain 16 1017 85 10000 2.06 210 07:54 30.07.2022
841 Clouds 19 1015 55 10000 1.54 10 02:37 30.07.2022
842 Clouds 20 1015 56 10000 2.57 280 01:49 30.07.2022
843 Clouds 21 1015 48 10000 1.54 20 22:25 29.07.2022
844 Clouds 23 1015 44 10000 1.54 10 21:23 29.07.2022
845 Clear 25 1014 37 10000 1.54 360 19:57 29.07.2022
846 Clear 26 1015 36 10000 1.54 60 17:59 29.07.2022
847 Clear 26 1016 31 10000 4.12 110 15:27 29.07.2022
848 Clear 25 1017 36 10000 3.13 84 13:18 29.07.2022
849 Clear 22 1017 45 10000 3.09 80 11:22 29.07.2022
850 Clear 17 1018 60 10000 2.57 80 08:50 29.07.2022
851 Clear 15 1018 60 10000 2.57 80 07:54 29.07.2022
852 Clouds 13 1019 60 10000 2.06 90 01:52 29.07.2022
853 Clouds 17 1018 54 10000 2.57 80 22:49 28.07.2022
854 Clear 20 1018 43 10000 2.06 70 21:28 28.07.2022
855 Clear 21 1018 39 10000 1.54 60 20:32 28.07.2022
856 Clear 23 1017 36 10000 3.09 80 19:43 28.07.2022
857 Clear 23 1017 35 10000 3.09 90 19:24 28.07.2022
858 Clear 25 1017 32 10000 2.57 70 17:44 28.07.2022
859 Clear 24 1018 33 10000 3.13 117 16:57 28.07.2022
860 Clear 24 1018 32 10000 3.09 130 16:36 28.07.2022
861 Clear 22 1019 39 10000 2.06 0 13:35 28.07.2022
862 Clear 20 1020 43 10000 2.57 0 11:42 28.07.2022
863 Clouds 10 1021 77 10000 1.03 80 06:46 28.07.2022
864 Clouds 8 1021 81 10000 0 0 05:33 28.07.2022
865 Clouds 9 1020 76 10000 0 0 03:53 28.07.2022
866 Clear 15 1019 58 10000 1.34 341 22:56 27.07.2022
867 Clear 18 1019 49 10000 2.06 340 21:29 27.07.2022
868 Clear 20 1018 40 10000 3.6 320 19:46 27.07.2022
869 Clear 20 1018 39 10000 4.12 310 18:49 27.07.2022
870 Clear 22 1018 36 10000 6.17 290 16:31 27.07.2022
871 Clear 22 1018 36 10000 6.17 310 15:41 27.07.2022
872 Clear 21 1018 42 10000 5.14 320 14:41 27.07.2022
873 Clear 21 1018 35 10000 4.12 270 13:29 27.07.2022
874 Clear 16 1019 57 10000 4.12 290 09:28 27.07.2022
875 Clear 14 1019 68 10000 3.09 280 07:40 27.07.2022
876 Clouds 13 1018 78 10000 2.06 290 03:57 27.07.2022
877 Clouds 18 1017 51 10000 2.57 320 22:49 26.07.2022
878 Clear 18 1017 57 10000 4.12 300 21:49 26.07.2022
879 Clouds 19 1016 51 10000 4.63 310 20:49 26.07.2022
880 Clouds 20 1016 49 10000 4.12 330 19:22 26.07.2022
881 Clouds 21 1016 49 10000 5.14 310 18:40 26.07.2022
882 Clouds 21 1015 51 10000 4.12 330 17:47 26.07.2022
883 Clouds 21 1015 65 10000 6.69 300 15:43 26.07.2022
884 Clouds 21 1015 59 10000 5.14 320 14:38 26.07.2022
885 Clouds 20 1014 63 10000 6.17 320 12:32 26.07.2022
886 Clouds 21 1013 68 10000 6.17 260 09:59 26.07.2022
887 Clear 20 1012 62 10000 6.17 260 08:27 26.07.2022
888 Clouds 19 1011 77 10000 3.6 290 01:52 26.07.2022
889 Clouds 19 1011 77 10000 3.6 290 01:52 26.07.2022
890 Clouds 20 1011 83 10000 2.57 300 00:20 26.07.2022
891 Clouds 21 1010 75 10000 2.06 330 22:40 25.07.2022
892 Clouds 21 1010 72 10000 0.51 0 21:43 25.07.2022
893 Rain 23 1008 64 10000 5.14 320 20:43 25.07.2022
894 Clear 24 1007 64 10000 7.2 320 20:24 25.07.2022
895 Clear 27 1006 52 10000 8.75 270 19:25 25.07.2022
896 Clear 31 1006 31 10000 5.14 230 17:56 25.07.2022
897 Clear 31 1005 34 10000 4.63 270 17:20 25.07.2022
898 Clear 34 1007 29 10000 5.14 250 13:36 25.07.2022
899 Clear 32 1009 30 10000 4.47 219 10:55 25.07.2022
900 Clear 23 1010 41 10000 2.24 162 07:59 25.07.2022
901 Clouds 20 1014 49 10000 2.24 155 01:44 25.07.2022
902 Clouds 21 1015 51 10000 2.06 100 23:46 24.07.2022
903 Clouds 23 1015 52 10000 2.24 136 22:49 24.07.2022
904 Clouds 23 1015 56 10000 1.79 124 22:24 24.07.2022
905 Clouds 26 1015 38 10000 0.89 128 21:18 24.07.2022
906 Clear 28 1015 30 10000 2.06 260 20:45 24.07.2022
907 Clear 29 1015 29 10000 2.57 250 19:37 24.07.2022
908 Clear 31 1016 28 10000 2.06 0 18:27 24.07.2022
909 Clear 30 1017 32 10000 3.6 280 15:57 24.07.2022
910 Clear 30 1018 34 10000 3.09 0 15:32 24.07.2022
911 Clear 29 1019 31 10000 3.6 250 13:51 24.07.2022
912 Clear 27 1019 35 10000 2.06 0 12:52 24.07.2022
913 Clear 25 1020 39 10000 2.06 0 11:37 24.07.2022
914 Clear 24 1020 41 10000 3.09 200 10:48 24.07.2022
915 Clouds 18 1021 67 10000 2.57 150 08:30 24.07.2022
916 Clouds 16 1021 73 10000 1.03 0 07:46 24.07.2022
917 Clear 11 1021 76 10000 1.54 100 04:45 24.07.2022
918 Clear 15 1021 63 10000 0 0 23:51 23.07.2022
919 Clear 21 1019 49 10000 4.63 310 20:59 23.07.2022
920 Clear 23 1019 39 10000 5.14 310 19:44 23.07.2022
921 Clear 24 1018 38 10000 5.14 320 18:50 23.07.2022
922 Clear 25 1018 42 10000 4.63 280 17:28 23.07.2022
923 Clear 24 1018 42 10000 5.66 300 16:33 23.07.2022
924 Clouds 24 1018 44 10000 5.66 280 15:22 23.07.2022
925 Clouds 24 1018 46 10000 5.66 300 14:58 23.07.2022
926 Clouds 24 1017 44 10000 5.14 290 14:27 23.07.2022
927 Clouds 24 1017 44 10000 5.14 270 13:26 23.07.2022
928 Clouds 20 1018 60 10000 3.09 280 10:45 23.07.2022
929 Clouds 19 1018 67 10000 3.09 310 10:21 23.07.2022
930 Clear 17 1018 83 10000 1.03 0 08:39 23.07.2022
931 Clouds 14 1018 90 10000 0 0 03:39 23.07.2022
932 Clouds 15 1018 76 10000 0 0 01:27 23.07.2022
933 Clouds 16 1018 69 10000 1.54 300 22:56 22.07.2022
934 Clouds 19 1018 57 10000 2.57 340 20:56 22.07.2022
935 Clouds 20 1018 56 10000 3.09 320 19:41 22.07.2022
936 Clouds 20 1018 41 10000 3.85 272 18:28 22.07.2022
937 Clouds 20 1019 55 10000 3.6 280 17:28 22.07.2022
938 Clouds 20 1020 59 10000 4.12 320 14:55 22.07.2022
939 Clouds 19 1020 64 10000 5.14 280 11:49 22.07.2022
940 Clouds 17 1020 79 10000 4.12 290 09:27 22.07.2022
941 Clouds 17 1020 81 10000 4.63 300 08:43 22.07.2022
942 Clouds 17 1019 82 10000 4.63 300 07:21 22.07.2022
943 Clouds 18 1018 77 10000 3.6 240 03:59 22.07.2022
944 Clouds 20 1018 69 10000 5.66 240 22:53 21.07.2022
945 Clouds 21 1018 59 10000 4.12 240 21:35 21.07.2022
946 Clear 23 1017 65 10000 5.14 260 19:31 21.07.2022
947 Clouds 24 1017 62 10000 5.14 270 18:28 21.07.2022
948 Clouds 25 1017 45 10000 5.66 250 17:20 21.07.2022
949 Clouds 26 1017 46 10000 5.14 240 15:39 21.07.2022
950 Clouds 27 1017 44 10000 5.14 240 14:44 21.07.2022
951 Clouds 24 1018 56 10000 5.14 270 12:54 21.07.2022
952 Clouds 23 1018 61 10000 3.09 270 11:23 21.07.2022
953 Clouds 22 1017 67 10000 5.14 270 09:44 21.07.2022
954 Clear 21 1017 82 10000 3.09 260 08:53 21.07.2022
955 Clear 19 1017 80 10000 3.09 260 07:50 21.07.2022
956 Rain 21 1017 64 10000 0.89 0 06:26 21.07.2022
957 Clouds 23 1015 44 10000 3.13 293 02:23 21.07.2022
958 Clouds 27 1013 37 10000 6.24 9 22:32 20.07.2022
959 Clear 28 1013 36 10000 5.58 353 21:49 20.07.2022
960 Clear 32 1013 27 10000 5.14 120 20:46 20.07.2022
961 Clear 36 1013 20 10000 5.14 120 19:46 20.07.2022
962 Clear 38 1013 18 10000 5.14 120 18:53 20.07.2022
963 Clear 38 1014 18 10000 5.14 130 18:30 20.07.2022
964 Clear 39 1014 18 10000 5.66 120 17:24 20.07.2022
965 Clear 39 1015 18 10000 4.63 130 15:33 20.07.2022
966 Clouds 39 1015 19 10000 4.63 150 14:36 20.07.2022
967 Clear 37 1016 21 10000 2.24 132 12:54 20.07.2022
968 Clear 35 1016 28 10000 3.09 150 10:57 20.07.2022
969 Clouds 20 1016 53 10000 1.79 159 06:21 20.07.2022
970 Clouds 23 1017 43 10000 2.57 90 01:40 20.07.2022
971 Clouds 22 1017 47 10000 1.54 90 00:41 20.07.2022
972 Clouds 25 1017 35 10000 2.06 80 22:36 19.07.2022
973 Clouds 27 1017 32 10000 0.51 0 21:54 19.07.2022
974 Clear 31 1017 24 10000 1.54 60 20:50 19.07.2022
975 Clear 34 1017 19 10000 3.09 70 19:32 19.07.2022
976 Clear 35 1017 19 10000 2.06 70 18:42 19.07.2022
977 Clear 36 1017 18 10000 1.54 0 17:55 19.07.2022
978 Clear 37 1018 17 10000 2.06 0 15:49 19.07.2022
979 Clear 35 1019 20 10000 1.54 0 13:46 19.07.2022
980 Clear 31 1020 27 10000 2.06 0 11:34 19.07.2022
981 Clear 27 1020 40 10000 1.03 0 09:54 19.07.2022
982 Clear 24 1020 48 10000 1.03 0 08:48 19.07.2022
983 Clear 23 1020 54 10000 1.54 90 08:21 19.07.2022
984 Clear 18 1020 76 10000 1.54 90 07:18 19.07.2022
985 Clear 15 1020 68 10000 1.54 100 05:20 19.07.2022
986 Clear 15 1020 67 10000 1.54 90 04:40 19.07.2022
987 Clouds 19 1020 57 10000 1.54 110 00:21 19.07.2022
988 Clouds 20 1020 61 10000 1.54 110 23:21 18.07.2022
989 Clouds 21 1020 50 10000 1.54 80 22:51 18.07.2022
990 Clear 24 1020 42 10000 0 0 21:50 18.07.2022
991 Clear 27 1020 31 10000 1.54 260 20:50 18.07.2022
992 Clear 31 1020 24 10000 2.57 260 19:24 18.07.2022
993 Clear 31 1021 23 10000 3.09 270 16:52 18.07.2022
994 Clear 31 1022 25 10000 3.09 280 15:42 18.07.2022
995 Clouds 30 1023 27 10000 1.79 186 14:24 18.07.2022
996 Clear 27 1024 31 10000 2.57 0 12:38 18.07.2022
997 Clear 24 1024 36 10000 2.57 170 10:37 18.07.2022
998 Clear 21 1024 53 10000 2.06 130 08:51 18.07.2022
999 Clouds 15 1025 57 10000 1.28 169 06:58 18.07.2022
1000 Clouds 14 1026 64 10000 0 0 00:42 18.07.2022
1001 Clouds 17 1026 51 10000 0 0 22:37 17.07.2022
1002 Clouds 19 1025 53 10000 0 0 21:49 17.07.2022
1003 Clouds 20 1025 49 10000 1.03 0 21:21 17.07.2022
1004 Clear 22 1025 34 10000 2.06 330 20:44 17.07.2022
1005 Clear 23 1024 30 10000 3.09 300 19:32 17.07.2022
1006 Clear 24 1025 29 10000 3.09 280 18:30 17.07.2022
1007 Clear 25 1025 28 10000 2.57 330 17:38 17.07.2022
1008 Clear 25 1025 29 10000 3.09 320 16:51 17.07.2022
1009 Clear 24 1026 32 10000 3.6 320 16:26 17.07.2022
1010 Clear 23 1014 36 10000 6.17 310 14:58 17.07.2022
1011 Clear 22 1014 40 10000 3.09 280 13:31 17.07.2022
1012 Clouds 20 1014 42 10000 2.57 290 11:50 17.07.2022
1013 Clear 16 1008 68 10000 3.09 250 09:30 17.07.2022
1014 Clouds 8 1008 76 10000 0 0 05:54 17.07.2022
1015 Clouds 10 1007 70 10000 1.03 320 02:33 17.07.2022
1016 Clouds 13 1025 67 10000 2.06 330 23:21 16.07.2022
1017 Clear 16 1024 51 10000 3.6 320 21:47 16.07.2022
1018 Clear 20 1023 43 10000 5.66 310 19:53 16.07.2022
1019 Clear 21 1023 30 10000 6.69 310 18:35 16.07.2022
1020 Clear 22 1021 30 10000 6.69 320 17:19 16.07.2022
1021 Clear 22 1020 37 10000 7.2 310 14:31 16.07.2022
1022 Clouds 19 1020 49 10000 6.17 300 11:54 16.07.2022
1023 Clouds 16 1019 71 10000 5.66 280 09:37 16.07.2022
1024 Clouds 15 1019 77 10000 5.14 290 08:48 16.07.2022
1025 Clouds 15 1018 73 10000 4.12 280 08:29 16.07.2022
1026 Clouds 15 1018 68 10000 4.12 260 05:59 16.07.2022
1027 Clouds 15 1018 56 10000 3.09 210 03:31 16.07.2022
1028 Clouds 14 1020 60 10000 0 0 23:51 15.07.2022
1029 Clouds 15 1020 55 10000 1.54 270 22:43 15.07.2022
1030 Clouds 16 1020 51 10000 3.6 300 21:31 15.07.2022
1031 Clouds 16 1020 51 10000 3.6 300 21:31 15.07.2022
1032 Clear 17 1020 49 10000 3.6 310 20:32 15.07.2022
1033 Clouds 19 1021 51 10000 5.66 290 18:46 15.07.2022
1034 Clouds 19 1021 45 10000 4.63 300 17:49 15.07.2022
1035 Clouds 20 1021 47 10000 6.17 280 15:41 15.07.2022
1036 Clear 18 1021 49 10000 4.63 280 13:22 15.07.2022
1037 Clouds 18 1021 54 10000 5.14 290 12:22 15.07.2022
1038 Clouds 17 1021 47 10000 5.66 300 10:51 15.07.2022
1039 Clear 13 1020 68 10000 3.09 260 07:47 15.07.2022
1040 Clear 12 1020 89 10000 2.57 280 02:47 15.07.2022
1041 Clouds 14 1019 73 10000 3.6 290 00:39 15.07.2022
1042 Clear 16 1019 51 10000 3.6 290 22:55 14.07.2022
1043 Clear 17 1019 45 10000 4.12 310 21:59 14.07.2022
1044 Clear 17 1019 44 10000 4.12 310 21:37 14.07.2022
1045 Clear 17 1018 45 10000 5.66 310 21:18 14.07.2022
1046 Clear 18 1018 44 10000 6.17 320 20:42 14.07.2022
1047 Clear 18 1018 46 10000 6.17 320 20:18 14.07.2022
1048 Clear 23 1016 33 10000 5.66 300 17:59 14.07.2022
1049 Clear 23 1016 34 10000 5.14 320 16:19 14.07.2022
1050 Clear 24 1016 33 10000 4.12 330 14:55 14.07.2022
1051 Clouds 24 1017 34 10000 3.6 0 13:51 14.07.2022
1052 Clouds 23 1017 39 10000 2.57 0 12:34 14.07.2022
1053 Clear 20 1019 52 10000 2.57 0 11:26 14.07.2022
1054 Clouds 19 1019 46 10000 3.6 340 10:52 14.07.2022
1055 Clear 17 1020 57 10000 1.54 350 08:58 14.07.2022
1056 Clouds 14 1020 85 10000 1.54 310 04:45 14.07.2022
1057 Clouds 19 1019 68 10000 2.57 300 01:21 14.07.2022
1058 Clouds 20 1019 64 10000 2.57 290 00:51 14.07.2022
1059 Clouds 23 1018 53 10000 4.63 330 22:31 13.07.2022
1060 Clouds 24 1017 50 10000 3.6 330 21:47 13.07.2022
1061 Clear 26 1017 32 10000 4.63 330 20:41 13.07.2022
1062 Clear 28 1015 32 10000 6.17 310 18:40 13.07.2022
1063 Clear 28 1015 34 10000 6.17 290 17:34 13.07.2022
1064 Clear 29 1015 32 10000 4.63 260 16:19 13.07.2022
1065 Clear 30 1017 30 10000 6.17 240 14:54 13.07.2022
1066 Clear 27 1017 33 10000 4.63 250 11:56 13.07.2022
1067 Clear 25 1018 36 10000 3.6 240 10:45 13.07.2022
1068 Clear 24 1018 40 10000 4.12 240 09:56 13.07.2022
1069 Clear 23 1019 51 10000 2.57 240 09:20 13.07.2022
1070 Clouds 18 1020 59 10000 0 0 05:52 13.07.2022
1071 Clouds 17 1022 60 10000 0 0 01:27 13.07.2022
1072 Clouds 18 1023 57 10000 0 0 23:39 12.07.2022
1073 Clear 22 1022 51 10000 2.06 310 21:55 12.07.2022
1074 Clear 23 1022 47 10000 2.57 320 21:19 12.07.2022
1075 Clear 24 1022 42 10000 2.57 330 20:41 12.07.2022
1076 Clear 27 1011 31 10000 3.6 310 19:25 12.07.2022
1077 Clear 27 1011 33 10000 4.12 300 17:49 12.07.2022
1078 Clear 26 1011 36 10000 3.09 300 15:57 12.07.2022
1079 Clear 25 1012 42 10000 3.09 270 14:31 12.07.2022
1080 Clouds 23 1006 52 10000 2.24 248 12:29 12.07.2022
1081 Clouds 21 1012 56 10000 3.09 230 11:26 12.07.2022
1082 Clouds 18 1007 66 10000 2.06 260 09:42 12.07.2022
1083 Clouds 15 1007 80 10000 2.57 290 08:23 12.07.2022
1084 Clouds 14 1007 85 10000 1.54 310 06:49 12.07.2022
1085 Clouds 13 1006 84 10000 1.03 300 05:42 12.07.2022
1086 Clouds 13 1006 82 10000 1.03 320 02:52 12.07.2022
1087 Clouds 17 1006 81 10000 2.57 290 23:30 11.07.2022
1088 Clouds 17 1006 66 10000 3.6 300 22:31 11.07.2022
1089 Clouds 20 1006 60 10000 4.63 290 20:41 11.07.2022
1090 Clouds 20 1006 57 10000 5.14 270 19:50 11.07.2022
1091 Clouds 21 1006 55 10000 4.63 290 18:32 11.07.2022
1092 Clouds 21 1006 62 10000 5.14 290 17:53 11.07.2022
1093 Clouds 22 1010 59 10000 4.63 290 16:21 11.07.2022
1094 Clouds 22 1010 47 10000 4.63 310 14:49 11.07.2022
1095 Clouds 20 1010 61 10000 4.12 300 12:18 11.07.2022
1096 Clouds 18 1006 65 10000 3.09 330 10:42 11.07.2022
1097 Clouds 17 1006 64 10000 2.57 320 09:54 11.07.2022
1098 Clouds 15 1006 73 10000 2.57 330 08:36 11.07.2022
1099 Clouds 14 1006 81 10000 2.06 300 07:32 11.07.2022
1100 Clouds 12 1006 72 10000 2.06 290 00:54 11.07.2022
1101 Clouds 14 1022 66 10000 3.09 290 23:53 10.07.2022
1102 Clouds 15 1022 72 10000 2.57 290 22:34 10.07.2022
1103 Clouds 17 1005 61 10000 5.66 290 20:55 10.07.2022
1104 Clouds 18 1005 53 10000 4.63 290 20:24 10.07.2022
1105 Clouds 19 1005 51 10000 6.17 290 19:28 10.07.2022
1106 Clouds 19 1005 47 10000 6.69 290 17:59 10.07.2022
1107 Clouds 19 1005 46 10000 7.2 300 16:59 10.07.2022
1108 Clouds 20 1021 39 10000 6.69 300 16:20 10.07.2022
1109 Clear 20 1005 47 10000 5.66 310 14:44 10.07.2022
1110 Clouds 19 1021 53 10000 5.14 310 13:29 10.07.2022
1111 Clouds 17 1006 53 10000 6.17 300 11:39 10.07.2022
1112 Clouds 15 990 62 10000 4.02 0 09:45 10.07.2022
1113 Clouds 14 1006 73 10000 4.12 290 08:43 10.07.2022
1114 Clouds 13 1006 78 10000 3.6 290 07:19 10.07.2022
1115 Clouds 15 1006 58 10000 4.63 310 23:50 09.07.2022
1116 Clouds 16 1006 54 10000 4.63 310 22:26 09.07.2022
1117 Clouds 16 1006 54 10000 4.63 310 22:26 09.07.2022
1118 Clouds 16 1006 53 10000 4.63 320 21:41 09.07.2022
1119 Clouds 19 1006 60 10000 7.2 320 19:44 09.07.2022
1120 Clouds 21 1006 56 10000 7.2 320 18:28 09.07.2022
1121 Clouds 20 1011 65 10000 4.12 290 17:32 09.07.2022
1122 Clouds 20 1022 66 10000 3.6 290 16:34 09.07.2022
1123 Rain 21 1011 62 10000 6.17 310 15:39 09.07.2022
1124 Clouds 22 1011 49 10000 5.66 280 14:24 09.07.2022
1125 Clouds 22 1011 52 10000 6.17 270 13:48 09.07.2022
1126 Clouds 20 1006 59 10000 5.14 280 12:29 09.07.2022
1127 Clouds 18 1007 67 10000 3.6 280 10:42 09.07.2022
1128 Clouds 18 1007 68 10000 4.12 280 10:21 09.07.2022
1129 Clouds 15 1007 81 10000 1.54 280 07:44 09.07.2022
1130 Clouds 14 1007 83 10000 1.54 270 04:53 09.07.2022
1131 Clouds 14 1026 91 10000 1.03 280 00:43 09.07.2022
1132 Clouds 17 1027 82 10000 2.06 270 22:42 08.07.2022
1133 Clouds 18 1008 76 10000 3.6 280 21:31 08.07.2022
1134 Clouds 19 1008 63 10000 3.09 290 20:40 08.07.2022
1135 Clouds 20 1008 62 10000 4.12 290 19:48 08.07.2022
1136 Clouds 19 1008 71 10000 5.14 290 18:19 08.07.2022
1137 Clouds 20 1008 55 10000 6.17 300 16:39 08.07.2022
1138 Clouds 19 1008 54 10000 5.14 300 14:51 08.07.2022
1139 Clouds 20 1015 53 10000 5.14 300 13:24 08.07.2022
1140 Clouds 20 1015 53 10000 5.14 300 13:24 08.07.2022
1141 Clouds 18 1008 52 10000 5.66 280 11:25 08.07.2022
1142 Clouds 16 1008 57 10000 5.66 290 10:27 08.07.2022
1143 Clouds 15 1008 67 10000 5.14 290 08:26 08.07.2022
1144 Clouds 14 1008 68 10000 4.12 290 06:47 08.07.2022
1145 Clouds 15 1007 66 10000 5.14 300 01:19 08.07.2022
1146 Clouds 15 1006 62 10000 5.66 300 22:57 07.07.2022
1147 Clouds 15 1006 60 10000 5.14 300 22:28 07.07.2022
1148 Clouds 16 1005 57 10000 5.14 310 20:22 07.07.2022
1149 Clouds 17 1005 68 10000 5.14 310 18:20 07.07.2022
1150 Clouds 19 1004 65 10000 5.66 300 16:46 07.07.2022
1151 Clouds 18 1003 80 10000 5.66 310 14:34 07.07.2022
1152 Rain 18 1003 77 10000 5.14 280 13:18 07.07.2022
1153 Rain 17 1003 86 10000 4.12 280 12:24 07.07.2022
1154 Rain 17 1003 86 10000 4.12 280 12:24 07.07.2022
1155 Drizzle 17 1003 88 10000 4.63 270 11:45 07.07.2022
1156 Drizzle 17 1003 88 10000 4.63 260 11:24 07.07.2022
1157 Drizzle 16 1003 88 9000 4.63 240 10:41 07.07.2022
1158 Drizzle 16 1003 87 10000 4.12 240 10:23 07.07.2022
1159 Rain 14 1003 85 7000 4.12 230 06:49 07.07.2022
1160 Clouds 14 1004 73 10000 3.09 240 01:43 07.07.2022
1161 Rain 17 990 47 10000 1.79 0 23:36 06.07.2022
1162 Clouds 16 1005 54 10000 2.06 280 23:18 06.07.2022
1163 Clouds 17 1005 51 10000 2.06 280 22:52 06.07.2022
1164 Clouds 17 1005 53 10000 2.06 280 22:34 06.07.2022
1165 Clear 19 1005 50 10000 3.6 290 20:36 06.07.2022
1166 Clear 20 1005 41 10000 4.63 280 19:35 06.07.2022
1167 Clear 20 1006 39 10000 5.14 290 17:32 06.07.2022
1168 Clear 19 1006 41 10000 4.02 275 15:59 06.07.2022
1169 Clear 19 1006 42 10000 4.63 280 14:33 06.07.2022
1170 Clouds 18 1006 46 10000 4.63 280 12:31 06.07.2022
1171 Clouds 18 1006 49 10000 4.12 290 11:48 06.07.2022
1172 Clear 17 1006 54 10000 4.12 290 10:18 06.07.2022
1173 Clear 15 1006 65 10000 4.12 290 07:44 06.07.2022
1174 Clear 15 1006 65 10000 4.12 290 07:44 06.07.2022
1175 Clear 14 1006 65 10000 3.09 290 07:20 06.07.2022
1176 Clouds 14 1006 66 10000 2.06 300 02:55 06.07.2022
1177 Clouds 18 1021 52 10000 2.57 320 22:45 05.07.2022
1178 Clouds 20 1020 43 10000 2.57 340 21:36 05.07.2022
1179 Clear 22 1020 37 10000 3.09 320 20:38 05.07.2022
1180 Clear 23 1005 32 10000 3.6 300 19:41 05.07.2022
1181 Clear 23 1005 32 10000 4.12 310 19:22 05.07.2022
1182 Clear 24 1009 32 10000 5.14 290 17:47 05.07.2022
1183 Clear 24 1010 33 10000 5.14 290 16:44 05.07.2022
1184 Clear 24 1010 34 10000 5.66 300 15:25 05.07.2022
1185 Clear 24 1010 37 10000 6.17 290 13:53 05.07.2022
1186 Clouds 23 1010 40 10000 4.12 290 12:42 05.07.2022
1187 Clouds 22 1010 48 10000 3.09 260 11:32 05.07.2022
1188 Clouds 20 1005 55 10000 3.09 320 10:34 05.07.2022
1189 Clouds 17 1005 71 10000 0 0 08:26 05.07.2022
1190 Clear 15 1005 79 10000 0 0 07:31 05.07.2022
1191 Clouds 12 1005 87 10000 0 0 04:49 05.07.2022
1192 Clouds 13 1005 76 10000 0 0 04:21 05.07.2022
1193 Clouds 16 1004 72 10000 0 0 23:45 04.07.2022
1194 Clouds 18 1004 54 10000 0 0 23:25 04.07.2022
1195 Clouds 19 1004 47 10000 1.54 300 22:25 04.07.2022
1196 Clouds 22 1004 47 10000 2.57 280 21:30 04.07.2022
1197 Clear 23 1004 37 10000 3.09 270 20:52 04.07.2022
1198 Clear 23 1018 30 10000 3.09 270 20:33 04.07.2022
1199 Clear 23 1004 36 10000 3.6 290 19:52 04.07.2022
1200 Clear 24 1018 34 10000 3.6 290 19:34 04.07.2022
1201 Clear 25 1008 35 10000 3.6 280 17:58 04.07.2022
1202 Clear 25 1008 33 10000 4.47 255 15:50 04.07.2022
1203 Clear 24 1008 34 10000 3.6 290 15:31 04.07.2022
1204 Clear 24 1009 39 10000 4.12 290 13:29 04.07.2022
1205 Clouds 22 1005 46 10000 4.02 282 12:21 04.07.2022
1206 Clouds 20 1005 50 10000 3.6 270 10:34 04.07.2022
1207 Clouds 19 1005 69 10000 2.57 290 09:41 04.07.2022
1208 Clear 16 1004 74 10000 4.12 290 07:33 04.07.2022
1209 Clouds 15 1004 83 10000 2.57 290 03:36 04.07.2022
1210 Clouds 17 1018 78 10000 3.09 310 00:36 04.07.2022
1211 Clouds 19 1016 79 10000 2.57 310 22:59 03.07.2022
1212 Clear 27 1015 32 10000 3.09 290 20:58 03.07.2022
1213 Clear 26 1015 28 10000 3.09 290 20:31 03.07.2022
1214 Clear 26 1015 38 10000 2.06 270 19:27 03.07.2022
1215 Clear 27 1015 34 10000 3.09 280 18:43 03.07.2022
1216 Clear 28 1006 36 10000 4.63 230 17:43 03.07.2022
1217 Clear 29 1006 35 10000 5.14 270 15:51 03.07.2022
1218 Clear 29 1006 32 10000 5.66 260 14:59 03.07.2022
1219 Clear 27 1007 38 10000 4.12 250 14:18 03.07.2022
1220 Clear 28 1007 34 10000 4.12 260 13:48 03.07.2022
1221 Clear 27 1007 40 10000 3.6 0 12:33 03.07.2022
1222 Clear 26 1007 37 10000 4.12 270 11:29 03.07.2022
1223 Clear 26 1007 38 10000 3.6 250 10:39 03.07.2022
1224 Clear 25 1007 42 10000 2.06 210 09:42 03.07.2022
1225 Clear 18 1003 74 10000 1.79 178 07:35 03.07.2022
1226 Clouds 17 1003 52 10000 2.57 120 03:46 03.07.2022
1227 Clear 18 1004 57 10000 2.57 90 00:22 03.07.2022
1228 Clear 20 1004 50 10000 2.24 144 22:34 02.07.2022
1229 Clear 23 1004 42 10000 2.57 130 21:28 02.07.2022
1230 Clear 26 1009 38 10000 3.09 150 19:52 02.07.2022
1231 Clear 27 1009 33 10000 4.12 140 19:23 02.07.2022
1232 Clear 27 1009 35 10000 3.09 190 17:51 02.07.2022
1233 Clear 27 1009 35 10000 3.09 190 17:33 02.07.2022
1234 Clear 26 1011 34 10000 3.09 0 14:52 02.07.2022
1235 Clear 23 1011 43 10000 3.09 250 12:22 02.07.2022
1236 Clear 23 1012 49 10000 2.57 220 11:27 02.07.2022
1237 Clear 22 1012 51 10000 2.06 0 10:46 02.07.2022
1238 Clear 21 1012 58 10000 1.54 230 09:37 02.07.2022
1239 Clear 18 1006 71 10000 1.54 190 08:36 02.07.2022
1240 Clear 17 1006 67 10000 1.54 210 08:18 02.07.2022
1241 Clear 12 1006 89 10000 1.03 0 02:52 02.07.2022
1242 Clouds 14 1005 76 10000 1.54 130 00:27 02.07.2022
1243 Clouds 15 1005 72 10000 0.45 185 22:59 01.07.2022
1244 Clouds 15 1005 70 10000 0.89 169 22:19 01.07.2022
1245 Clouds 16 1020 62 10000 0 0 21:37 01.07.2022
1246 Clear 18 1019 55 10000 2.57 290 20:58 01.07.2022
1247 Clear 19 1019 44 10000 3.09 280 19:48 01.07.2022
1248 Clouds 20 1003 48 10000 4.12 270 19:22 01.07.2022
1249 Rain 17 1004 67 10000 4.12 250 16:38 01.07.2022
1250 Rain 16 1003 86 10000 3.09 290 14:27 01.07.2022
1251 Clouds 15 1003 83 10000 3.09 280 13:23 01.07.2022
1252 Drizzle 15 1003 82 10000 5.14 280 10:53 01.07.2022
1253 Rain 16 1003 79 10000 5.14 270 10:19 01.07.2022
1254 Clouds 16 1001 83 10000 5.14 280 06:21 01.07.2022
1255 Clouds 21 1010 68 10000 2.57 0 02:19 01.07.2022
1256 Clear 23 1010 64 10000 2.57 100 23:44 30.06.2022
1257 Clear 23 1010 84 10000 3.3 121 22:50 30.06.2022
1258 Clear 23 1010 84 10000 3.3 121 22:31 30.06.2022
1259 Clear 28 1010 80 10000 2.53 118 21:53 30.06.2022
1260 Clear 29 1009 42 10000 2.06 90 20:49 30.06.2022
1261 Clear 28 1009 35 10000 3.09 120 20:20 30.06.2022
1262 Clear 29 1008 36 10000 4.12 130 19:47 30.06.2022
1263 Clear 29 1002 38 10000 3.6 130 18:54 30.06.2022
1264 Clear 30 1009 42 10000 2.57 130 17:56 30.06.2022
1265 Clear 29 1009 43 10000 3.09 0 17:18 30.06.2022
1266 Clear 29 1010 45 10000 2.57 80 16:18 30.06.2022
1267 Clouds 30 1000 43 10000 2.57 0 14:20 30.06.2022
1268 Clouds 28 1004 43 10000 2.57 0 13:21 30.06.2022
1269 Clouds 27 1004 46 10000 3.09 140 12:34 30.06.2022
1270 Clear 25 1000 50 10000 2.68 169 10:57 30.06.2022
1271 Clouds 23 1005 55 10000 2.24 116 09:51 30.06.2022
1272 Clouds 21 1001 60 10000 2.57 100 09:26 30.06.2022
1273 Clouds 18 1013 72 10000 2.06 90 07:41 30.06.2022
1274 Clouds 15 1001 72 10000 2.06 90 05:46 30.06.2022
1275 Clouds 17 1002 63 10000 1.54 90 00:26 30.06.2022
1276 Clear 19 1002 56 10000 1.54 80 22:54 29.06.2022
1277 Clear 20 1002 55 10000 1.54 80 22:33 29.06.2022
1278 Clear 23 1002 44 10000 4.12 110 20:56 29.06.2022
1279 Clear 24 1005 42 10000 4.12 110 20:33 29.06.2022
1280 Clear 25 1005 42 10000 4.12 90 19:34 29.06.2022
1281 Clear 25 1006 40 10000 5.66 110 17:40 29.06.2022
1282 Clear 25 1002 40 10000 5.66 130 16:33 29.06.2022
1283 Clear 24 1016 29 10000 6.17 130 14:19 29.06.2022
1284 Clouds 24 1003 48 10000 5.14 120 12:39 29.06.2022
1285 Clear 23 1007 60 10000 5.66 110 10:25 29.06.2022
1286 Clear 22 1003 60 10000 5.14 110 09:31 29.06.2022
1287 Clear 16 1003 64 10000 3.09 90 07:30 29.06.2022
1288 Clouds 13 1004 71 10000 2.06 110 04:50 29.06.2022
1289 Clouds 15 1004 73 10000 0.45 70 00:56 29.06.2022
1290 Clouds 15 1004 72 10000 0.89 70 00:35 29.06.2022
1291 Clouds 19 1004 51 10000 1.03 0 22:53 28.06.2022
1292 Clouds 19 1004 51 10000 1.03 0 22:24 28.06.2022
1293 Clouds 20 1019 44 10000 1.54 30 21:54 28.06.2022
1294 Clouds 21 1019 39 10000 1.54 30 21:32 28.06.2022
1295 Clear 23 1019 42 10000 0.51 0 20:34 28.06.2022
1296 Clear 25 1009 30 10000 1.03 0 19:33 28.06.2022
1297 Clear 25 1009 30 10000 1.03 0 19:33 28.06.2022
1298 Clear 25 1009 36 10000 3.09 130 18:45 28.06.2022
1299 Clear 25 1009 36 10000 3.09 130 18:45 28.06.2022
1300 Clear 25 1009 37 10000 2.06 0 17:40 28.06.2022
1301 Clear 25 1004 39 10000 0.45 259 15:57 28.06.2022
1302 Clear 25 1005 40 10000 0.89 323 15:36 28.06.2022
1303 Clear 24 1010 38 10000 1.54 0 14:20 28.06.2022
1304 Clouds 24 1011 40 10000 1.54 0 13:51 28.06.2022
1305 Clear 23 1011 43 10000 3.09 0 12:57 28.06.2022
1306 Clouds 21 1006 46 10000 3.6 320 11:18 28.06.2022
1307 Clouds 18 1006 65 10000 4.63 270 09:29 28.06.2022
1308 Clouds 17 1006 68 10000 4.12 280 08:43 28.06.2022
1309 Clouds 16 1006 73 10000 4.12 280 07:42 28.06.2022
1310 Clouds 15 1005 74 10000 4.12 280 06:56 28.06.2022
1311 Clouds 17 1004 86 10000 2.57 280 00:58 28.06.2022
1312 Clouds 17 1004 75 10000 2.06 270 23:37 27.06.2022
1313 Clouds 18 1004 73 10000 3.6 300 22:52 27.06.2022
1314 Clouds 19 1004 81 10000 4.63 280 21:38 27.06.2022
1315 Clouds 19 1003 72 10000 4.12 300 20:52 27.06.2022
1316 Clouds 20 1003 68 10000 6.69 280 19:36 27.06.2022
1317 Rain 23 1014 68 10000 7.2 270 18:26 27.06.2022
1318 Clouds 27 1014 47 10000 3.09 260 16:27 27.06.2022
1319 Clear 27 1005 48 10000 3.09 260 15:24 27.06.2022
1320 Clear 27 1005 57 10000 3.09 270 13:39 27.06.2022
1321 Clear 27 1005 60 10000 2.57 310 12:56 27.06.2022
1322 Clear 23 1001 65 10000 1.03 0 10:35 27.06.2022
1323 Clear 21 1001 72 10000 1.03 0 09:23 27.06.2022
1324 Clear 20 1001 73 10000 1.54 40 08:31 27.06.2022
1325 Clouds 20 1001 73 10000 2.57 10 07:38 27.06.2022
1326 Clouds 19 1014 78 10000 3.6 310 04:21 27.06.2022
1327 Clouds 20 1013 78 10000 1.54 60 01:19 27.06.2022
1328 Clouds 24 1014 60 10000 1.03 0 22:27 26.06.2022
1329 Clear 26 1014 53 10000 2.57 310 20:53 26.06.2022
1330 Clear 26 1014 53 10000 3.09 290 19:59 26.06.2022
1331 Clear 28 1014 44 10000 3.6 320 18:32 26.06.2022
1332 Clear 28 1014 43 10000 4.12 290 17:33 26.06.2022
1333 Rain 28 1005 40 10000 3.13 266 15:31 26.06.2022
1334 Clear 29 1005 38 10000 3.09 270 13:55 26.06.2022
1335 Clear 29 1005 39 10000 3.09 0 13:23 26.06.2022
1336 Clear 28 1005 42 10000 4.12 270 11:31 26.06.2022
1337 Clear 27 1005 44 10000 2.06 210 10:29 26.06.2022
1338 Clear 27 1005 44 10000 2.06 210 10:29 26.06.2022
1339 Clear 26 1005 46 10000 2.57 210 09:45 26.06.2022
1340 Clouds 21 1001 74 10000 0.45 159 07:46 26.06.2022
1341 Clouds 18 1001 69 10000 0.45 123 04:29 26.06.2022
1342 Clouds 20 1001 68 10000 2.06 90 00:36 26.06.2022
1343 Clouds 20 1001 68 10000 1.54 90 00:18 26.06.2022
1344 Clouds 21 1001 65 10000 0 0 23:25 25.06.2022
1345 Clouds 22 1001 60 10000 0.89 147 22:28 25.06.2022
1346 Clouds 23 1001 57 10000 1.03 90 21:52 25.06.2022
1347 Clouds 25 1001 59 10000 0.45 148 21:20 25.06.2022
1348 Clear 26 1012 47 10000 1.54 150 20:32 25.06.2022
1349 Clear 27 1001 46 10000 1.54 170 19:56 25.06.2022
1350 Clear 27 1012 41 10000 1.03 0 18:22 25.06.2022
1351 Clear 28 1012 41 10000 2.06 310 17:26 25.06.2022
1352 Clear 28 1004 44 10000 2.57 270 16:25 25.06.2022
1353 Clouds 27 1004 40 10000 3.6 300 14:29 25.06.2022
1354 Clouds 26 1004 50 10000 3.09 270 12:45 25.06.2022
1355 Clear 25 1004 51 10000 3.09 270 11:39 25.06.2022
1356 Clear 23 1001 64 10000 4.12 270 09:24 25.06.2022
1357 Clouds 22 1001 67 10000 3.6 260 08:49 25.06.2022
1358 Clouds 20 1001 73 10000 2.57 260 08:20 25.06.2022
1359 Clouds 18 1000 82 10000 2.06 240 06:34 25.06.2022
1360 Clouds 18 1009 89 10000 2.06 290 00:44 25.06.2022
1361 Clouds 19 1009 85 10000 1.54 290 23:54 24.06.2022
1362 Clear 20 1008 82 10000 2.06 310 22:25 24.06.2022
1363 Clear 23 998 55 10000 2.57 300 21:22 24.06.2022
1364 Rain 24 998 50 10000 2.06 280 20:23 24.06.2022
1365 Clear 24 998 50 10000 3.09 130 19:24 24.06.2022
1366 Clouds 25 998 46 10000 4.12 140 18:51 24.06.2022
1367 Clouds 27 1005 40 10000 1.54 190 18:31 24.06.2022
1368 Clouds 26 998 45 10000 3.58 142 17:49 24.06.2022
1369 Clear 27 1000 47 10000 2.06 130 16:45 24.06.2022
1370 Clear 27 1000 47 10000 2.06 130 16:45 24.06.2022
1371 Clouds 24 998 59 10000 4.63 240 14:30 24.06.2022
1372 Rain 24 998 64 10000 4.12 240 13:59 24.06.2022
1373 Rain 25 1007 53 10000 4.12 240 13:35 24.06.2022
1374 Clear 27 1000 41 10000 2.57 210 11:41 24.06.2022
1375 Clear 27 1001 45 10000 4.12 230 10:36 24.06.2022
1376 Clear 26 1001 40 10000 3.09 140 09:41 24.06.2022
1377 Clear 25 1001 48 10000 2.68 141 08:53 24.06.2022
1378 Clear 22 998 54 10000 3.09 110 07:57 24.06.2022
1379 Clouds 19 999 52 10000 2.68 145 06:43 24.06.2022
1380 Clouds 19 999 51 10000 3.6 90 06:22 24.06.2022
1381 Clouds 19 1008 50 10000 4.63 90 04:46 24.06.2022
1382 Clear 19 1000 62 10000 1.54 100 23:32 23.06.2022
1383 Clear 20 1011 61 10000 2.06 90 22:43 23.06.2022
1384 Clear 28 1011 30 10000 2.57 90 20:59 23.06.2022
1385 Clear 28 1011 30 10000 2.57 90 20:36 23.06.2022
1386 Clear 28 1010 24 10000 5.14 100 19:48 23.06.2022
1387 Clear 30 1001 25 10000 4.63 110 18:27 23.06.2022
1388 Clear 30 1001 26 10000 3.6 100 17:34 23.06.2022
1389 Clear 31 1001 27 10000 3.6 130 16:29 23.06.2022
1390 Clear 30 1001 28 10000 4.12 110 15:26 23.06.2022
1391 Clear 30 1001 27 10000 3.6 100 14:34 23.06.2022
1392 Clear 26 1005 36 10000 3.09 120 11:42 23.06.2022
1393 Clear 25 1006 41 10000 3.09 100 10:41 23.06.2022
1394 Clear 21 1002 57 10000 3.6 90 09:19 23.06.2022
1395 Clouds 12 1002 73 10000 0 0 04:48 23.06.2022
1396 Clouds 16 1001 58 10000 1.03 0 00:27 23.06.2022
1397 Clouds 17 1001 56 10000 2.06 20 23:59 22.06.2022
1398 Clouds 18 1001 54 10000 1.54 20 23:18 22.06.2022
1399 Clouds 18 1001 54 10000 1.54 20 23:18 22.06.2022
1400 Clouds 21 1012 50 10000 1.03 360 21:44 22.06.2022
1401 Clear 24 1012 39 10000 2.57 330 20:52 22.06.2022
1402 Clear 25 1004 34 10000 1.03 0 20:19 22.06.2022
1403 Clear 26 1004 30 10000 1.54 0 19:30 22.06.2022
1404 Clear 26 1004 32 10000 2.24 211 17:40 22.06.2022
1405 Clear 26 1004 34 10000 2.57 250 16:41 22.06.2022
1406 Clear 25 1004 37 10000 2.68 330 15:29 22.06.2022
1407 Clear 25 1004 36 10000 2.06 0 14:51 22.06.2022
1408 Clear 25 1005 34 10000 1.03 0 13:48 22.06.2022
1409 Clear 24 1005 35 10000 2.57 0 13:24 22.06.2022
1410 Clear 24 1005 42 10000 2.06 0 12:18 22.06.2022
1411 Clear 22 1005 44 10000 1.34 343 11:29 22.06.2022
1412 Clear 22 1005 47 10000 2.06 0 10:43 22.06.2022
1413 Clear 19 1002 68 10000 1.03 0 09:18 22.06.2022
1414 Clouds 12 1001 76 10000 0.45 299 06:55 22.06.2022
1415 Clouds 12 1001 75 10000 0.51 0 02:26 22.06.2022
1416 Clouds 12 1001 72 10000 0.51 90 00:57 22.06.2022
1417 Clouds 15 1001 62 10000 0 0 22:53 21.06.2022
1418 Clear 20 1013 43 10000 0.51 0 20:58 21.06.2022
1419 Clear 23 1005 33 10000 2.06 350 19:30 21.06.2022
1420 Clear 23 1005 39 10000 1.03 0 17:56 21.06.2022
1421 Clear 23 1005 34 10000 1.54 0 16:47 21.06.2022
1422 Clouds 19 1003 51 10000 4.63 270 11:59 21.06.2022
1423 Clouds 17 1003 57 10000 4.12 270 10:47 21.06.2022
1424 Clouds 15 1003 67 10000 4.12 280 09:35 21.06.2022
1425 Clear 13 1003 87 10000 3.09 280 07:56 21.06.2022
1426 Clear 9 1003 82 10000 2.06 270 04:59 21.06.2022
1427 Clear 12 1015 79 10000 2.57 290 00:31 21.06.2022
1428 Clouds 15 1002 56 10000 3.6 320 22:21 20.06.2022
1429 Clouds 15 1002 61 10000 3.6 310 21:40 20.06.2022
1430 Clear 17 1001 48 10000 5.14 310 20:30 20.06.2022
1431 Clear 18 1001 45 10000 6.17 310 19:37 20.06.2022
1432 Clear 19 1001 43 10000 6.69 300 18:44 20.06.2022
1433 Clear 19 1001 44 10000 6.17 290 17:50 20.06.2022
1434 Clear 20 1001 45 10000 6.17 300 16:53 20.06.2022
1435 Clear 19 1001 47 10000 5.14 300 15:52 20.06.2022
1436 Clouds 15 1001 82 10000 3.09 280 12:38 20.06.2022
1437 Rain 13 1001 88 10000 3.09 290 10:32 20.06.2022
1438 Clouds 13 1001 88 10000 1.54 290 08:57 20.06.2022
1439 Clouds 13 1001 88 10000 1.54 290 08:57 20.06.2022
1440 Clouds 13 1000 89 10000 1.54 0 08:21 20.06.2022
1441 Rain 14 990 84 10000 0.89 312 05:35 20.06.2022
1442 Clouds 14 990 78 10000 1.17 309 01:33 20.06.2022
1443 Clear 15 990 72 10000 1.34 346 00:26 20.06.2022
1444 Rain 16 990 59 10000 2.24 0 22:50 19.06.2022
1445 Clouds 17 1012 66 10000 2.72 336 21:57 19.06.2022
1446 Clouds 17 1012 68 10000 2.72 336 21:39 19.06.2022
1447 Clear 19 1001 51 10000 3.6 320 20:38 19.06.2022
1448 Clear 20 1000 52 10000 4.63 320 19:47 19.06.2022
1449 Clear 21 1000 55 10000 4.47 324 18:45 19.06.2022
1450 Clear 23 1000 47 10000 5.66 320 17:54 19.06.2022
1451 Clear 25 999 48 10000 4.63 310 17:22 19.06.2022
1452 Clear 27 1002 48 10000 4.12 310 16:35 19.06.2022
1453 Clear 25 999 50 10000 3.09 280 15:41 19.06.2022
1454 Clear 26 1002 42 10000 4.12 310 14:57 19.06.2022
1455 Clear 26 1002 42 10000 5.14 310 14:20 19.06.2022
1456 Clear 26 1002 43 10000 5.14 300 13:23 19.06.2022
1457 Clear 26 1001 46 10000 3.13 300 11:38 19.06.2022
1458 Clear 24 998 54 10000 3.09 340 10:31 19.06.2022
1459 Clouds 21 998 70 10000 3.09 360 08:49 19.06.2022
1460 Clouds 20 998 65 10000 3.09 360 08:19 19.06.2022
1461 Clouds 18 1008 71 10000 3.09 20 05:44 19.06.2022
1462 Clouds 19 1011 76 10000 3.09 100 02:32 19.06.2022
1463 Clouds 21 1013 70 10000 2.57 60 00:26 19.06.2022
1464 Clouds 22 1013 68 10000 1.54 70 23:36 18.06.2022
1465 Clouds 23 1013 64 10000 1.03 0 22:45 18.06.2022
1466 Clouds 25 1013 57 10000 2.06 30 21:43 18.06.2022
1467 Clear 27 1013 45 10000 2.57 360 20:49 18.06.2022
1468 Clear 27 1013 45 10000 2.57 360 20:49 18.06.2022
1469 Clear 30 1012 34 10000 3.6 310 19:40 18.06.2022
1470 Clear 31 1005 34 10000 4.12 310 18:54 18.06.2022
1471 Clear 32 1002 38 10000 4.63 300 17:44 18.06.2022
1472 Clear 32 1002 38 10000 5.66 280 17:22 18.06.2022
1473 Clear 32 1002 39 10000 5.66 270 15:38 18.06.2022
1474 Clear 32 1002 33 10000 5.66 300 14:49 18.06.2022
1475 Clear 31 1002 36 10000 5.66 260 13:54 18.06.2022
1476 Clear 29 1003 39 10000 5.66 240 11:58 18.06.2022
1477 Clear 27 1007 40 10000 5.14 240 10:59 18.06.2022
1478 Clear 25 1007 39 10000 4.63 250 09:29 18.06.2022
1479 Rain 25 1007 45 10000 4.63 240 08:37 18.06.2022
1480 Clouds 21 1003 51 10000 1.54 210 07:33 18.06.2022
1481 Clouds 17 1003 54 10000 0.51 0 04:43 18.06.2022
1482 Clouds 17 1004 72 10000 2.06 130 01:27 18.06.2022
1483 Clouds 17 1005 70 10000 2.06 130 00:55 18.06.2022
1484 Clouds 18 1005 62 10000 2.57 140 00:23 18.06.2022
1485 Clouds 19 1005 59 10000 2.57 120 23:33 17.06.2022
1486 Clouds 20 1005 57 10000 1.54 120 22:27 17.06.2022
1487 Clear 24 1005 48 10000 1.03 0 20:29 17.06.2022
1488 Clear 24 1011 39 10000 1.03 0 19:20 17.06.2022
1489 Clear 25 1011 38 10000 2.57 280 17:56 17.06.2022
1490 Clear 25 1011 35 10000 3.09 0 16:44 17.06.2022
1491 Clear 25 1011 35 10000 3.6 260 16:25 17.06.2022
1492 Clear 26 1011 34 10000 3.09 230 15:37 17.06.2022
1493 Clear 24 1012 39 10000 3.6 220 14:23 17.06.2022
1494 Clear 25 1012 35 10000 3.09 260 13:58 17.06.2022
1495 Clear 24 1012 36 10000 3.09 260 13:38 17.06.2022
1496 Clear 23 1012 38 10000 2.57 280 12:28 17.06.2022
1497 Clear 23 1012 38 10000 2.57 230 11:55 17.06.2022
1498 Clear 23 1012 39 10000 2.57 230 11:33 17.06.2022
1499 Clear 20 1007 54 10000 3.09 250 09:36 17.06.2022
1500 Clear 16 1007 69 10000 2.06 250 08:26 17.06.2022
1501 Clouds 12 1006 79 10000 0.45 0 06:45 17.06.2022
1502 Clouds 10 1006 80 10000 0.45 0 03:59 17.06.2022
1503 Clouds 13 1006 61 10000 0 0 01:56 17.06.2022
1504 Clouds 15 1024 49 10000 1.54 330 23:47 16.06.2022
1505 Clouds 17 1023 48 10000 1.54 330 22:42 16.06.2022
1506 Clouds 20 1022 45 10000 3.09 320 21:22 16.06.2022
1507 Clear 20 1021 40 10000 3.6 320 20:55 16.06.2022
1508 Clear 21 1021 40 10000 3.6 320 20:35 16.06.2022
1509 Clear 22 1021 37 10000 4.63 320 19:41 16.06.2022
1510 Clear 23 1005 32 10000 4.47 333 18:24 16.06.2022
1511 Clear 24 1010 33 10000 4.12 330 17:43 16.06.2022
1512 Clear 24 1010 33 10000 5.14 320 16:35 16.06.2022
1513 Clear 24 1010 35 10000 4.12 300 15:22 16.06.2022
1514 Clear 24 1010 35 10000 4.02 314 14:37 16.06.2022
1515 Clouds 23 1009 39 10000 2.57 0 13:22 16.06.2022
1516 Clouds 22 1009 40 10000 2.57 0 12:36 16.06.2022
1517 Clear 22 1009 44 10000 3.09 360 11:51 16.06.2022
1518 Clear 22 1009 44 10000 3.09 360 11:51 16.06.2022
1519 Clear 20 1005 47 10000 3.09 10 10:55 16.06.2022
1520 Clear 19 1005 51 10000 2.24 345 09:53 16.06.2022
1521 Clear 17 1004 55 10000 3.09 320 09:21 16.06.2022
1522 Clear 16 1004 61 10000 2.06 320 08:30 16.06.2022
1523 Clear 14 1004 67 10000 1.54 310 07:26 16.06.2022
1524 Clouds 13 1018 64 10000 1.54 320 04:50 16.06.2022
1525 Clouds 15 1018 68 10000 0.51 0 02:20 16.06.2022
1526 Clouds 15 1018 71 10000 1.03 0 01:35 16.06.2022
1527 Clouds 15 1018 71 10000 1.03 0 01:35 16.06.2022
1528 Clouds 15 1018 73 10000 2.93 358 00:56 16.06.2022
1529 Clouds 17 1017 65 10000 2.57 350 23:47 15.06.2022
1530 Clouds 17 1017 65 10000 2.57 350 23:47 15.06.2022
1531 Clouds 17 1017 61 10000 1.54 360 22:38 15.06.2022
1532 Clouds 22 1017 41 10000 1.03 360 21:22 15.06.2022
1533 Clear 23 1017 41 10000 2.06 320 20:44 15.06.2022
1534 Clear 23 1017 41 10000 2.06 320 20:44 15.06.2022
1535 Clear 24 1016 29 10000 2.57 320 20:25 15.06.2022
1536 Clear 25 1007 33 10000 2.06 240 19:30 15.06.2022
1537 Clear 26 1007 34 10000 3.09 240 17:56 15.06.2022
1538 Clear 26 1007 32 10000 3.09 240 17:32 15.06.2022
1539 Clear 26 1004 33 10000 2.57 0 15:38 15.06.2022
1540 Clear 25 1004 36 10000 2.24 220 14:23 15.06.2022
1541 Clear 23 1008 39 10000 2.06 120 12:54 15.06.2022
1542 Rain 23 1008 35 10000 2.06 0 12:28 15.06.2022
1543 Clear 21 1009 46 10000 3.09 90 10:27 15.06.2022
1544 Clear 20 1009 57 10000 3.6 100 09:45 15.06.2022
1545 Clear 17 1005 59 10000 3.6 90 08:50 15.06.2022
1546 Clouds 11 990 68 10000 0.45 0 06:42 15.06.2022
1547 Clouds 9 990 75 10000 0.45 0 04:47 15.06.2022
1548 Clear 11 990 80 10000 0.45 0 01:55 15.06.2022
1549 Clear 12 990 66 10000 0.45 1 00:54 15.06.2022
1550 Clear 13 990 63 10000 1.34 0 23:55 14.06.2022
1551 Clear 13 1021 59 10000 0.61 302 23:37 14.06.2022
1552 Clouds 15 990 69 10000 0.45 0 22:28 14.06.2022
1553 Clouds 16 1021 65 10000 1.06 195 21:41 14.06.2022
1554 Clear 19 1021 38 10000 0 0 20:57 14.06.2022
1555 Clear 19 1021 38 10000 0 0 20:34 14.06.2022
1556 Clear 20 1005 40 10000 1.54 0 19:25 14.06.2022
1557 Clear 21 1010 45 10000 1.03 0 18:25 14.06.2022
1558 Clouds 21 1010 40 10000 3.6 270 16:50 14.06.2022
1559 Clouds 20 1011 41 10000 4.12 290 15:52 14.06.2022
1560 Clouds 20 1011 41 10000 4.12 290 15:34 14.06.2022
1561 Clouds 21 1011 41 10000 3.09 0 14:46 14.06.2022
1562 Clouds 19 1011 44 10000 4.12 310 13:53 14.06.2022
1563 Clouds 19 1006 43 10000 2.24 358 12:56 14.06.2022
1564 Clouds 17 1006 49 10000 4.12 290 11:52 14.06.2022
1565 Clouds 16 1006 52 10000 4.63 270 10:50 14.06.2022
1566 Clouds 16 1006 55 10000 3.09 260 10:25 14.06.2022
1567 Clouds 14 1006 66 10000 3.09 260 08:52 14.06.2022
1568 Clouds 13 1006 68 10000 2.57 260 08:23 14.06.2022
1569 Clouds 9 990 89 10000 2.17 265 06:19 14.06.2022
1570 Clouds 9 1006 84 10000 0 0 03:39 14.06.2022
1571 Clouds 10 1023 80 10000 1.03 0 01:36 14.06.2022
1572 Clouds 12 1022 62 10000 3.09 310 23:53 13.06.2022
1573 Clouds 14 1022 62 10000 2.57 320 22:39 13.06.2022
1574 Clouds 14 1022 66 10000 2.06 310 22:19 13.06.2022
1575 Clouds 16 1005 58 10000 2.57 320 21:24 13.06.2022
1576 Clouds 17 1005 47 10000 5.14 300 19:48 13.06.2022
1577 Clouds 18 1005 49 10000 3.6 310 18:54 13.06.2022
1578 Clear 19 1005 46 10000 5.14 310 17:55 13.06.2022
1579 Clear 18 1005 50 10000 4.63 280 17:23 13.06.2022
1580 Clear 18 1005 54 10000 4.12 270 16:30 13.06.2022
1581 Clouds 17 1005 55 10000 7.72 280 14:49 13.06.2022
1582 Clouds 17 1005 56 10000 5.14 310 14:31 13.06.2022
1583 Clear 16 1005 51 10000 7.2 280 13:31 13.06.2022
1584 Clouds 19 1004 50 10000 6.17 280 12:22 13.06.2022
1585 Clouds 18 1004 54 10000 4.63 270 10:37 13.06.2022
1586 Clouds 16 1004 70 10000 3.6 270 09:54 13.06.2022
1587 Clear 15 1004 63 10000 2.57 290 08:40 13.06.2022
1588 Clouds 13 1004 72 10000 1.54 280 06:37 13.06.2022
1589 Clouds 12 1004 72 10000 1.54 330 05:35 13.06.2022
1590 Clouds 15 1019 74 10000 1.03 0 01:55 13.06.2022
1591 Clouds 15 1019 73 10000 1.03 0 01:34 13.06.2022
1592 Clouds 17 1019 67 10000 1.54 350 23:48 12.06.2022
1593 Clouds 18 1018 59 10000 3.09 330 22:39 12.06.2022
1594 Clouds 20 1018 45 10000 2.57 290 21:53 12.06.2022
1595 Clear 21 1018 40 10000 2.57 290 20:53 12.06.2022
1596 Clear 23 1018 31 10000 4.63 280 19:59 12.06.2022
1597 Clear 23 1018 32 10000 4.63 270 19:30 12.06.2022
1598 Clear 24 1019 36 10000 4.63 300 17:40 12.06.2022
1599 Clear 25 1005 40 10000 6.17 280 15:57 12.06.2022
1600 Clear 25 1009 42 10000 4.63 270 14:51 12.06.2022
1601 Clear 25 1009 40 10000 6.17 250 14:20 12.06.2022
1602 Clear 24 1009 36 10000 5.14 260 13:49 12.06.2022
1603 Clouds 24 1004 41 10000 3.13 231 12:35 12.06.2022
1604 Clear 22 1005 44 10000 4.02 260 11:36 12.06.2022
1605 Clear 22 1005 53 10000 3.6 290 10:21 12.06.2022
1606 Clouds 19 1005 62 10000 1.54 260 08:54 12.06.2022
1607 Clouds 19 1005 64 10000 1.54 260 08:35 12.06.2022
1608 Clouds 17 1005 68 10000 1.54 260 07:32 12.06.2022
1609 Clouds 16 1005 73 10000 1.54 280 04:35 12.06.2022
1610 Clouds 17 1005 72 10000 0 0 02:53 12.06.2022
1611 Clouds 16 1005 82 10000 0 0 01:39 12.06.2022
1612 Clouds 16 1005 66 10000 0.51 80 00:58 12.06.2022
1613 Clouds 16 1005 81 10000 0 0 00:20 12.06.2022
1614 Clouds 17 1021 77 10000 0 0 23:40 11.06.2022
1615 Clear 18 1021 71 10000 0 0 22:38 11.06.2022
1616 Clear 21 1021 56 10000 2.06 270 21:42 11.06.2022
1617 Clear 24 1021 43 10000 2.57 280 20:36 11.06.2022
1618 Clear 24 1021 41 10000 3.6 290 19:46 11.06.2022
1619 Clear 24 1021 47 10000 4.63 290 19:25 11.06.2022
1620 Clear 25 1021 38 10000 4.12 300 18:33 11.06.2022
1621 Clear 25 1021 36 10000 5.66 270 17:51 11.06.2022
1622 Clear 25 1010 42 10000 4.12 270 17:26 11.06.2022
1623 Clear 25 1010 41 10000 5.14 260 16:55 11.06.2022
1624 Clear 25 1010 39 10000 4.47 265 16:27 11.06.2022
1625 Clear 25 1010 45 10000 5.14 280 15:31 11.06.2022
1626 Clouds 24 1010 47 10000 5.14 280 13:53 11.06.2022
1627 Clouds 25 1010 44 10000 5.14 260 12:51 11.06.2022
1628 Clouds 22 1006 58 10000 5.14 240 10:48 11.06.2022
1629 Clear 21 1005 55 10000 4.12 250 09:51 11.06.2022
1630 Clear 20 1005 65 10000 4.63 240 09:18 11.06.2022
1631 Clouds 18 1005 72 10000 2.06 210 07:41 11.06.2022
1632 Clouds 17 1005 64 10000 2.57 170 06:30 11.06.2022
1633 Clouds 16 1021 73 10000 2.06 160 04:30 11.06.2022
1634 Clouds 17 1021 61 10000 0.51 0 01:53 11.06.2022
1635 Clouds 17 1021 65 10000 0.51 0 01:33 11.06.2022
1636 Clouds 16 1005 81 10000 1.54 100 00:20 11.06.2022
1637 Clouds 18 1021 73 10000 0 0 22:32 10.06.2022
1638 Clouds 20 1021 60 10000 0 0 21:52 10.06.2022
1639 Clear 21 1021 56 10000 2.06 280 20:42 10.06.2022
1640 Clear 22 1005 54 10000 2.57 290 20:22 10.06.2022
1641 Clear 22 1021 49 10000 3.09 270 19:38 10.06.2022
1642 Clear 22 1021 49 10000 3.6 280 19:18 10.06.2022
1643 Clear 22 1021 49 10000 3.6 280 19:18 10.06.2022
1644 Clear 22 1021 49 10000 3.6 280 19:18 10.06.2022
1645 Clear 23 1021 46 10000 3.09 260 18:18 10.06.2022
1646 Clouds 22 1022 49 10000 4.63 250 17:35 10.06.2022
1647 Clear 22 1022 52 10000 3.6 270 16:51 10.06.2022
1648 Clear 24 1010 42 10000 4.12 280 15:45 10.06.2022
1649 Clear 23 1010 39 10000 4.63 250 14:57 10.06.2022
1650 Clear 23 1011 44 10000 4.63 230 13:41 10.06.2022
1651 Clear 22 1011 49 10000 4.12 280 12:24 10.06.2022
1652 Clear 22 1011 49 10000 3.6 250 11:40 10.06.2022
1653 Clear 20 1006 49 10000 3.09 270 10:37 10.06.2022
1654 Clear 19 1006 61 10000 2.57 250 09:40 10.06.2022
1655 Clear 16 1006 75 10000 2.06 240 08:23 10.06.2022
1656 Clouds 12 1006 84 10000 0.45 331 06:52 10.06.2022
1657 Clouds 11 1006 84 10000 0.45 0 06:32 10.06.2022
1658 Clouds 11 1005 83 10000 0 0 05:45 10.06.2022
1659 Clear 12 1005 79 10000 1.03 290 02:55 10.06.2022
1660 Clouds 13 1005 75 10000 0.89 0 01:38 10.06.2022
1661 Clouds 14 1019 83 10000 2.57 290 00:25 10.06.2022
1662 Clouds 15 1018 80 10000 2.57 280 23:25 09.06.2022
1663 Clouds 16 1017 77 10000 2.06 300 21:47 09.06.2022
1664 Clouds 18 1003 66 10000 2.57 290 21:29 09.06.2022
1665 Clear 18 1016 72 10000 2.57 310 20:54 09.06.2022
1666 Clear 20 1002 48 10000 4.63 280 19:55 09.06.2022
1667 Clear 20 1014 60 10000 3.6 290 18:49 09.06.2022
1668 Clear 21 1014 60 10000 4.63 290 18:21 09.06.2022
1669 Clouds 21 1002 52 10000 3.6 300 16:46 09.06.2022
1670 Clouds 22 1001 57 10000 4.63 270 15:47 09.06.2022
1671 Clouds 21 1001 53 10000 5.14 260 14:35 09.06.2022
1672 Clouds 20 1001 67 10000 4.63 270 13:47 09.06.2022
1673 Clouds 20 1001 59 10000 4.63 260 13:26 09.06.2022
1674 Clouds 18 1001 62 10000 5.14 260 11:53 09.06.2022
1675 Clouds 17 1000 72 10000 4.63 270 10:51 09.06.2022
1676 Clouds 17 1000 73 10000 4.12 270 09:42 09.06.2022
1677 Clouds 17 1000 83 10000 4.63 260 09:23 09.06.2022
1678 Clouds 15 999 85 10000 3.6 250 07:44 09.06.2022
1679 Clouds 14 999 87 10000 3.6 250 05:47 09.06.2022
1680 Rain 15 998 82 10000 1.03 0 01:59 09.06.2022
1681 Rain 16 998 77 10000 1.54 180 23:34 08.06.2022
1682 Rain 16 998 71 10000 2.06 260 22:56 08.06.2022
1683 Rain 16 998 82 10000 2.06 280 22:26 08.06.2022
1684 Rain 16 998 78 10000 3.6 280 21:52 08.06.2022
1685 Clouds 16 1008 77 10000 4.76 252 20:57 08.06.2022
1686 Clouds 19 1006 53 10000 5.14 230 19:55 08.06.2022
1687 Clouds 20 998 56 10000 1.03 0 19:27 08.06.2022
1688 Rain 22 998 58 10000 1.54 180 18:42 08.06.2022
1689 Rain 23 1000 53 10000 2.06 170 16:39 08.06.2022
1690 Clear 24 1000 43 10000 3.09 250 15:27 08.06.2022
1691 Clouds 24 998 48 10000 2.24 250 13:44 08.06.2022
1692 Clouds 22 1002 52 10000 3.09 210 11:51 08.06.2022
1693 Clouds 21 999 55 10000 3.6 230 11:26 08.06.2022
1694 Clouds 19 1000 73 10000 3.6 250 09:55 08.06.2022
1695 Clouds 19 1000 76 10000 3.6 250 09:21 08.06.2022
1696 Clouds 18 1000 71 10000 1.03 0 08:22 08.06.2022
1697 Clouds 13 1000 80 10000 1.03 100 05:47 08.06.2022
1698 Clouds 13 1000 78 10000 0 0 03:52 08.06.2022
1699 Clouds 16 1011 76 10000 2.06 260 00:29 08.06.2022
1700 Clouds 17 1011 67 10000 2.06 270 23:27 07.06.2022
1701 Clouds 18 1011 59 10000 3.09 250 22:44 07.06.2022
1702 Clouds 19 1011 55 10000 3.6 250 22:22 07.06.2022
1703 Clouds 19 1011 55 10000 3.09 260 21:33 07.06.2022
1704 Clear 19 1011 59 10000 3.6 260 20:58 07.06.2022
1705 Clear 19 1011 59 10000 3.6 260 20:32 07.06.2022
1706 Clear 20 1011 57 10000 1.54 290 19:38 07.06.2022
1707 Clear 22 1000 46 10000 4.12 310 18:22 07.06.2022
1708 Clear 22 1000 39 10000 5.14 270 17:26 07.06.2022
1709 Clear 22 1011 36 10000 5.14 260 16:43 07.06.2022
1710 Clear 22 1003 42 10000 6.17 260 15:47 07.06.2022
1711 Clear 22 1010 42 10000 7.2 270 15:26 07.06.2022
1712 Clear 22 1010 42 10000 7.2 270 15:26 07.06.2022
1713 Clear 23 1003 39 10000 7.2 260 14:47 07.06.2022
1714 Clear 22 1011 42 10000 6.69 240 14:29 07.06.2022
1715 Clear 22 1001 42 10000 5.66 260 13:30 07.06.2022
1716 Clear 22 1004 49 10000 5.66 240 12:49 07.06.2022
1717 Clouds 21 1001 42 10000 5.14 240 11:47 07.06.2022
1718 Clear 19 1001 48 10000 6.69 240 10:26 07.06.2022
1719 Clear 18 1001 60 10000 2.68 222 08:49 07.06.2022
1720 Clear 14 1001 75 10000 3.09 170 07:34 07.06.2022
1721 Clouds 12 1001 79 10000 1.54 180 06:18 07.06.2022
1722 Clouds 12 1002 75 10000 1.03 0 03:31 07.06.2022
1723 Clouds 15 1014 72 10000 4.12 260 00:45 07.06.2022
1724 Clouds 15 1013 80 10000 2.06 210 23:41 06.06.2022
1725 Clouds 15 1001 71 10000 2.06 160 22:53 06.06.2022
1726 Clear 16 1001 65 10000 2.06 160 22:28 06.06.2022
1727 Clear 19 1013 53 10000 2.06 200 20:42 06.06.2022
1728 Clear 21 1001 54 10000 3.09 210 19:24 06.06.2022
1729 Clear 21 1002 57 10000 1.54 180 18:48 06.06.2022
1730 Clouds 19 1002 72 10000 1.34 220 17:57 06.06.2022
1731 Rain 21 1001 58 10000 3.13 0 16:57 06.06.2022
1732 Clouds 21 1013 59 10000 2.57 170 15:52 06.06.2022
1733 Clouds 22 990 50 10000 0.45 222 14:59 06.06.2022
1734 Clouds 22 990 50 10000 0.45 222 14:59 06.06.2022
1735 Clouds 21 1014 50 10000 6.17 280 14:26 06.06.2022
1736 Clouds 22 1002 49 10000 4.63 250 13:20 06.06.2022
1737 Clouds 22 1002 50 10000 4.63 260 12:35 06.06.2022
1738 Clouds 21 1002 54 10000 4.63 240 11:49 06.06.2022
1739 Clouds 19 1014 54 10000 4.63 240 10:21 06.06.2022
1740 Clouds 18 1002 62 10000 5.14 240 09:23 06.06.2022
1741 Clouds 18 1001 66 10000 4.63 240 08:31 06.06.2022
1742 Clouds 17 1001 79 10000 4.47 293 07:24 06.06.2022
1743 Clouds 16 1001 81 10000 4.12 230 04:42 06.06.2022
1744 Clouds 18 1001 85 10000 3.13 212 02:27 06.06.2022
1745 Rain 18 1001 85 10000 4.63 220 00:57 06.06.2022
1746 Rain 18 1001 84 10000 4.63 220 00:35 06.06.2022
1747 Rain 19 1000 81 10000 2.06 90 23:28 05.06.2022
1748 Clouds 19 1001 81 10000 2.24 0 22:33 05.06.2022
1749 Rain 20 1013 72 10000 2.06 130 20:40 05.06.2022
1750 Rain 21 1001 65 10000 3.09 130 19:37 05.06.2022
1751 Rain 24 1004 54 10000 3.6 120 18:26 05.06.2022
1752 Rain 24 1012 47 10000 3.6 100 17:51 05.06.2022
1753 Clear 24 1005 42 10000 4.12 110 17:24 05.06.2022
1754 Rain 25 1005 40 10000 5.14 120 16:49 05.06.2022
1755 Clear 25 1005 39 10000 5.66 130 16:30 05.06.2022
1756 Clear 25 1006 39 10000 6.17 120 14:24 05.06.2022
1757 Clouds 24 1002 40 10000 4.92 85 12:49 05.06.2022
1758 Clear 23 1008 44 10000 5.66 100 11:43 05.06.2022
1759 Clear 22 1004 47 10000 5.66 110 10:33 05.06.2022
1760 Clear 20 1004 60 10000 5.14 100 09:59 05.06.2022
1761 Clouds 17 1004 55 10000 4.47 121 08:28 05.06.2022
1762 Clear 16 1004 70 10000 4.12 90 07:41 05.06.2022
1763 Clear 11 1005 74 10000 2.06 100 05:21 05.06.2022
1764 Clear 12 1005 80 10000 3.6 90 03:46 05.06.2022
1765 Clear 13 1021 63 10000 2.57 80 01:32 05.06.2022
1766 Clear 14 1021 72 10000 1.54 70 00:33 05.06.2022
1767 Clear 18 1021 58 10000 1.54 20 22:22 04.06.2022
1768 Clear 23 1020 36 10000 1.54 60 20:31 04.06.2022
1769 Clear 24 1009 38 10000 1.79 342 18:19 04.06.2022
1770 Clear 24 1010 38 10000 1.54 50 16:44 04.06.2022
1771 Clear 24 1010 36 10000 2.06 50 16:18 04.06.2022
1772 Clear 24 1010 42 10000 3.09 60 14:53 04.06.2022
1773 Clear 22 1010 44 10000 3.09 40 12:35 04.06.2022
1774 Clear 20 1005 48 10000 3.09 60 11:19 04.06.2022
1775 Clear 20 1005 51 10000 3.09 50 10:44 04.06.2022
1776 Clear 18 1005 47 10000 3.09 80 09:44 04.06.2022
1777 Clouds 17 1005 59 10000 2.06 50 08:43 04.06.2022
1778 Clouds 15 1005 66 10000 2.06 50 07:41 04.06.2022
1779 Clouds 13 1004 66 10000 1.54 0 05:30 04.06.2022
1780 Clouds 16 1004 59 10000 2.57 60 01:42 04.06.2022
1781 Clouds 18 1004 50 10000 1.54 50 23:59 03.06.2022
1782 Clouds 18 1004 50 10000 2.06 40 22:40 03.06.2022
1783 Clouds 19 1017 44 10000 1.54 40 21:39 03.06.2022
1784 Clear 22 1017 47 10000 2.06 40 20:38 03.06.2022
1785 Clear 23 1007 39 10000 2.57 90 18:54 03.06.2022
1786 Clear 23 1008 39 10000 2.68 72 16:52 03.06.2022
1787 Clear 23 1008 39 10000 3.6 110 15:37 03.06.2022
1788 Clear 22 1009 42 10000 4.12 120 13:48 03.06.2022
1789 Clear 21 1009 44 10000 4.63 110 11:51 03.06.2022
1790 Clear 18 1005 48 10000 4.12 100 09:53 03.06.2022
1791 Clear 17 1005 56 10000 3.6 100 09:28 03.06.2022
1792 Clear 9 1005 92 10000 1.54 100 07:27 03.06.2022
1793 Clear 10 1022 77 10000 2.35 99 06:45 03.06.2022
1794 Clear 7 1005 84 10000 0 0 06:27 03.06.2022
1795 Clouds 8 1005 80 10000 2.06 100 02:24 03.06.2022
1796 Clear 11 1006 68 10000 1.03 90 23:34 02.06.2022
1797 Clouds 13 1022 76 10000 1.21 40 21:57 02.06.2022
1798 Clear 17 1005 55 10000 1.03 0 20:26 02.06.2022
1799 Clear 18 1021 50 10000 2.06 280 19:54 02.06.2022
1800 Clear 18 1021 48 10000 2.06 280 19:36 02.06.2022
1801 Clear 18 1021 50 10000 3.09 280 18:34 02.06.2022
1802 Clouds 18 1006 44 10000 3.09 310 16:28 02.06.2022
1803 Clouds 18 1006 53 10000 3.6 260 15:30 02.06.2022
1804 Clouds 17 1006 47 10000 4.12 270 13:30 02.06.2022
1805 Clouds 17 1006 47 10000 4.12 270 13:30 02.06.2022
1806 Clouds 17 1006 51 10000 4.12 270 12:46 02.06.2022
1807 Clouds 14 1005 63 10000 3.6 280 10:34 02.06.2022
1808 Clouds 13 1005 80 10000 3.6 270 09:29 02.06.2022
1809 Clouds 12 1005 80 10000 4.12 250 08:39 02.06.2022
1810 Clouds 11 1005 78 10000 3.09 260 08:19 02.06.2022
1811 Clear 7 1004 86 10000 2.06 290 06:21 02.06.2022
1812 Clouds 8 1004 90 10000 2.57 270 03:50 02.06.2022
1813 Clouds 10 1003 87 10000 2.57 260 00:47 02.06.2022
1814 Clouds 11 1003 76 10000 1.34 262 22:57 01.06.2022
1815 Clouds 12 1003 72 10000 3.09 290 21:59 01.06.2022
1816 Clouds 12 1002 68 10000 2.57 280 21:24 01.06.2022
1817 Clear 13 1002 66 10000 4.12 260 20:38 01.06.2022
1818 Clear 13 1002 67 10000 4.12 270 19:52 01.06.2022
1819 Clear 14 1002 74 10000 3.6 290 18:37 01.06.2022
1820 Rain 16 1002 60 10000 3.09 280 16:58 01.06.2022
1821 Clouds 16 1001 65 10000 5.66 260 15:45 01.06.2022
1822 Clouds 17 1001 50 10000 6.17 260 14:50 01.06.2022
1823 Clouds 16 990 64 10000 0.89 0 13:26 01.06.2022
1824 Clouds 16 1001 63 10000 4.12 270 11:23 01.06.2022
1825 Clear 13 1001 73 10000 4.12 240 09:30 01.06.2022
1826 Clear 13 1001 85 10000 2.57 250 08:28 01.06.2022
1827 Clear 10 1001 87 10000 0.89 0 07:20 01.06.2022
1828 Clouds 8 1001 85 9000 1.54 100 04:53 01.06.2022
1829 Clouds 10 1001 91 10000 0 0 23:56 31.05.2022
1830 Clouds 11 1001 88 10000 2.57 210 22:43 31.05.2022
1831 Clouds 11 1001 77 10000 1.03 0 22:25 31.05.2022
1832 Clouds 11 1001 77 10000 2.06 90 21:44 31.05.2022
1833 Clouds 12 1001 78 10000 2.06 60 20:44 31.05.2022
1834 Clouds 13 1001 77 10000 4.63 230 19:52 31.05.2022
1835 Rain 15 1001 62 10000 3.13 0 18:44 31.05.2022
1836 Clear 19 1001 37 10000 2.06 0 17:49 31.05.2022
1837 Clear 19 1001 42 10000 2.24 93 16:48 31.05.2022
1838 Clear 20 1001 41 10000 2.57 0 15:40 31.05.2022
1839 Clear 18 1001 44 10000 2.06 0 13:38 31.05.2022
1840 Clear 17 1002 48 10000 4.12 150 12:19 31.05.2022
1841 Clouds 16 1002 54 10000 1.54 0 10:52 31.05.2022
1842 Clear 12 1002 72 10000 2.06 150 08:37 31.05.2022
1843 Clouds 7 1002 77 10000 0.45 159 06:57 31.05.2022
1844 Clouds 5 1002 82 10000 1.54 100 04:46 31.05.2022
1845 Clouds 8 1002 72 10000 0 0 23:53 30.05.2022
1846 Clouds 9 1002 70 10000 0 0 23:25 30.05.2022
1847 Clouds 9 1015 64 10000 0 0 22:48 30.05.2022
1848 Clouds 11 1014 71 10000 0 0 21:51 30.05.2022
1849 Clouds 11 1014 71 10000 0 0 21:32 30.05.2022
1850 Clear 13 1002 54 10000 3.6 300 19:51 30.05.2022
1851 Clouds 13 1002 61 10000 3.09 270 18:34 30.05.2022
1852 Clouds 13 1002 51 10000 3.09 280 17:24 30.05.2022
1853 Clouds 14 1002 51 10000 3.09 280 16:40 30.05.2022
1854 Clouds 13 1001 54 10000 3.09 290 14:23 30.05.2022
1855 Clouds 12 1001 59 10000 2.57 290 12:21 30.05.2022
1856 Clouds 11 1001 64 10000 3.6 300 10:40 30.05.2022
1857 Clouds 10 1001 80 10000 3.09 290 09:19 30.05.2022
1858 Clouds 9 1000 79 10000 2.57 290 06:40 30.05.2022
1859 Clouds 8 1000 79 10000 2.57 280 05:48 30.05.2022
1860 Clouds 9 1000 79 10000 2.57 290 01:33 30.05.2022
1861 Clouds 10 1000 75 10000 3.09 280 22:57 29.05.2022
1862 Clouds 10 1000 74 10000 3.09 280 22:36 29.05.2022
1863 Clouds 11 1000 70 10000 2.57 270 20:54 29.05.2022
1864 Clouds 12 1000 83 10000 3.09 290 19:32 29.05.2022
1865 Rain 13 1000 63 10000 3.6 280 18:44 29.05.2022
1866 Rain 13 1000 63 10000 4.12 280 17:31 29.05.2022
1867 Clouds 14 1000 61 10000 5.66 280 15:48 29.05.2022
1868 Clouds 14 1000 64 10000 4.12 300 14:58 29.05.2022
1869 Rain 13 1001 63 10000 4.63 260 13:53 29.05.2022
1870 Clouds 12 1001 64 10000 4.63 290 11:41 29.05.2022
1871 Clouds 12 1001 67 10000 4.63 270 10:39 29.05.2022
1872 Rain 11 1012 66 10000 5.14 290 09:18 29.05.2022
1873 Clouds 9 1001 76 10000 3.6 260 06:18 29.05.2022
1874 Clouds 9 1001 76 10000 3.6 270 04:45 29.05.2022
1875 Clouds 9 1001 76 10000 3.6 260 03:53 29.05.2022
1876 Clouds 9 1015 72 10000 4.63 290 23:50 28.05.2022
1877 Clouds 10 1002 62 10000 3.09 280 23:26 28.05.2022
1878 Clouds 10 1016 50 10000 3.6 290 22:39 28.05.2022
1879 Clear 11 1003 53 10000 5.14 290 21:38 28.05.2022
1880 Clear 14 1003 47 10000 5.66 300 19:51 28.05.2022
1881 Clear 15 1003 42 10000 6.17 300 18:54 28.05.2022
1882 Clouds 16 1003 42 10000 7.72 300 17:37 28.05.2022
1883 Clouds 16 1002 45 10000 6.69 300 16:50 28.05.2022
1884 Clouds 16 1003 48 10000 5.66 310 15:43 28.05.2022
1885 Clouds 15 1003 62 10000 7.2 270 14:28 28.05.2022
1886 Rain 14 1003 60 10000 6.69 290 13:21 28.05.2022
1887 Clouds 13 1003 63 10000 6.69 300 12:39 28.05.2022
1888 Clouds 13 1003 57 10000 7.72 280 11:23 28.05.2022
1889 Clouds 12 1003 63 10000 6.69 290 10:21 28.05.2022
1890 Clouds 11 1003 67 10000 6.69 280 09:22 28.05.2022
1891 Clouds 10 1002 78 10000 6.17 280 07:23 28.05.2022
1892 Clouds 9 1002 81 10000 4.63 280 06:26 28.05.2022
1893 Rain 8 1002 85 7000 7.2 290 03:48 28.05.2022
1894 Clouds 11 1003 69 10000 6.17 270 00:33 28.05.2022
1895 Clouds 11 1003 60 10000 6.69 270 23:34 27.05.2022
1896 Clouds 13 1003 61 10000 5.66 290 22:23 27.05.2022
1897 Clear 14 1003 47 10000 6.17 290 20:57 27.05.2022
1898 Clear 15 1003 45 10000 8.23 290 20:26 27.05.2022
1899 Clear 15 1016 41 10000 6.69 290 19:55 27.05.2022
1900 Clear 15 1016 40 10000 6.69 290 19:33 27.05.2022
1901 Clear 16 1002 46 10000 8.23 280 18:29 27.05.2022
1902 Clear 18 1003 40 10000 6.69 290 16:42 27.05.2022
1903 Clear 17 1003 51 10000 7.2 300 15:44 27.05.2022
1904 Clear 18 1003 45 10000 9.26 300 14:45 27.05.2022
1905 Clear 18 1003 49 10000 9.77 280 13:30 27.05.2022
1906 Clouds 16 1003 57 10000 6.17 290 11:43 27.05.2022
1907 Clouds 16 1003 51 10000 7.72 290 11:25 27.05.2022
1908 Clouds 15 1003 60 10000 6.69 290 10:35 27.05.2022
1909 Clouds 14 1002 69 10000 4.63 280 09:42 27.05.2022
1910 Clouds 13 1003 92 10000 4.63 280 08:24 27.05.2022
1911 Clouds 12 1003 89 10000 3.09 250 06:50 27.05.2022
1912 Clouds 14 1003 91 9000 5.66 260 02:56 27.05.2022
1913 Rain 15 1003 77 4500 3.6 290 00:54 27.05.2022
1914 Clouds 18 1003 54 10000 4.12 270 22:53 26.05.2022
1915 Clouds 18 1003 61 10000 5.14 250 21:45 26.05.2022
1916 Clouds 18 1003 52 10000 5.14 260 20:59 26.05.2022
1917 Clouds 18 1004 51 10000 5.14 270 19:30 26.05.2022
1918 Clouds 18 1004 52 10000 7.2 250 18:24 26.05.2022
1919 Clouds 18 1004 50 10000 5.14 280 16:59 26.05.2022
1920 Clouds 19 1004 54 10000 7.72 270 15:58 26.05.2022
1921 Clouds 19 1004 53 10000 6.69 270 15:18 26.05.2022
1922 Clouds 19 1004 45 10000 7.2 270 13:46 26.05.2022
1923 Clouds 18 1004 55 10000 6.69 280 11:47 26.05.2022
1924 Clouds 17 1004 61 10000 6.17 260 10:39 26.05.2022
1925 Clouds 16 1003 66 10000 6.17 250 09:37 26.05.2022
1926 Clouds 15 1003 70 10000 5.66 270 08:38 26.05.2022
1927 Clouds 15 1002 60 10000 4.63 260 05:26 26.05.2022
1928 Clouds 16 1002 50 10000 4.63 250 02:19 26.05.2022
1929 Clouds 16 1016 38 10000 5.06 222 23:50 25.05.2022
1930 Clouds 17 1015 45 10000 3.09 250 22:51 25.05.2022
1931 Clouds 18 1015 39 10000 4.63 270 21:41 25.05.2022
1932 Clear 18 1014 36 10000 5.14 260 20:47 25.05.2022
1933 Clear 19 1014 37 10000 6.17 260 19:32 25.05.2022
1934 Clear 19 1014 41 10000 6.69 260 18:47 25.05.2022
1935 Clear 20 1014 40 10000 6.69 280 16:58 25.05.2022
1936 Clear 21 1002 44 10000 5.66 270 16:27 25.05.2022
1937 Clear 20 1002 44 10000 6.69 260 15:36 25.05.2022
1938 Clear 20 1002 44 10000 6.17 240 14:50 25.05.2022
1939 Clear 20 1002 43 10000 6.17 260 14:31 25.05.2022
1940 Clouds 19 1002 50 10000 5.66 250 13:23 25.05.2022
1941 Clear 18 990 45 10000 3.13 257 11:49 25.05.2022
1942 Clouds 17 1002 54 10000 5.14 260 10:41 25.05.2022
1943 Clouds 16 1002 58 10000 4.12 250 09:38 25.05.2022
1944 Clouds 12 990 74 10000 1.79 0 07:36 25.05.2022
1945 Clouds 10 1001 79 10000 1.03 0 05:41 25.05.2022
1946 Clouds 10 990 76 10000 2.65 228 02:41 25.05.2022
1947 Clouds 12 1011 79 10000 1.03 0 23:50 24.05.2022
1948 Clouds 13 1011 71 10000 1.54 310 22:59 24.05.2022
1949 Clouds 13 1011 71 10000 1.54 310 22:59 24.05.2022
1950 Clouds 13 1010 68 10000 2.57 310 21:58 24.05.2022
1951 Clouds 14 1010 62 10000 2.57 310 21:37 24.05.2022
1952 Clouds 15 1009 67 10000 3.6 300 21:19 24.05.2022
1953 Clouds 18 999 53 10000 4.63 270 19:27 24.05.2022
1954 Clear 19 1008 48 10000 5.66 250 18:38 24.05.2022
1955 Clouds 19 998 44 10000 7.2 260 16:40 24.05.2022
1956 Clouds 19 998 48 10000 7.2 260 15:52 24.05.2022
1957 Clouds 18 998 55 10000 6.69 260 14:45 24.05.2022
1958 Clouds 17 997 70 10000 6.17 260 13:48 24.05.2022
1959 Clouds 14 997 87 10000 4.63 270 12:35 24.05.2022
1960 Clear 17 996 62 10000 4.63 240 09:52 24.05.2022
1961 Clouds 17 996 66 10000 4.47 251 09:27 24.05.2022
1962 Clouds 16 996 67 10000 4.12 220 08:42 24.05.2022
1963 Clouds 15 996 81 10000 4.12 270 06:42 24.05.2022
1964 Clouds 16 994 81 10000 6.69 250 03:48 24.05.2022
1965 Clouds 17 994 77 10000 2.57 180 01:48 24.05.2022
1966 Clouds 17 994 84 10000 3.6 160 00:57 24.05.2022
1967 Clear 19 999 55 10000 4.63 120 22:29 23.05.2022
1968 Clear 20 999 49 10000 5.14 120 21:53 23.05.2022
1969 Clear 21 999 46 10000 4.63 120 20:55 23.05.2022
1970 Clear 21 995 56 10000 5.14 130 20:26 23.05.2022
1971 Clear 21 995 48 10000 5.14 130 19:31 23.05.2022
1972 Clear 22 997 47 10000 6.69 130 18:43 23.05.2022
1973 Clear 22 997 46 10000 6.17 120 18:22 23.05.2022
1974 Clear 23 1002 40 10000 7.72 120 16:51 23.05.2022
1975 Clear 23 1004 39 10000 6.69 110 14:52 23.05.2022
1976 Clear 21 1000 46 10000 7.72 110 12:50 23.05.2022
1977 Clear 18 998 60 10000 6.17 110 11:26 23.05.2022
1978 Clear 16 999 58 10000 4.47 119 09:50 23.05.2022
1979 Clear 16 999 59 10000 4.12 100 09:28 23.05.2022
1980 Clear 15 999 67 10000 4.63 90 08:20 23.05.2022
1981 Clouds 12 1000 70 10000 2.57 100 06:45 23.05.2022
1982 Clouds 10 1000 74 10000 3.6 90 05:25 23.05.2022
1983 Clouds 10 1001 71 10000 2.06 110 02:23 23.05.2022
1984 Clouds 11 1001 79 10000 2.06 100 01:37 23.05.2022
1985 Clouds 11 1001 79 10000 2.06 100 00:20 23.05.2022
1986 Clouds 13 990 62 10000 0.89 0 22:36 22.05.2022
1987 Clouds 14 1014 57 10000 0 0 21:55 22.05.2022
1988 Clear 17 1014 55 10000 1.03 50 20:54 22.05.2022
1989 Clear 18 1002 39 10000 1.79 104 20:31 22.05.2022
1990 Clear 18 1014 39 10000 2.06 300 19:56 22.05.2022
1991 Clear 19 1002 42 10000 2.06 0 18:55 22.05.2022
1992 Clear 20 1002 41 10000 1.54 0 18:25 22.05.2022
1993 Clear 20 1002 46 10000 2.06 0 17:34 22.05.2022
1994 Clear 20 1002 44 10000 1.54 0 16:36 22.05.2022
1995 Clouds 19 1003 48 10000 2.57 0 14:53 22.05.2022
1996 Clouds 18 1003 53 10000 3.6 240 13:54 22.05.2022
1997 Clouds 17 1003 57 10000 3.09 280 12:52 22.05.2022
1998 Clouds 16 1003 50 10000 3.6 300 11:47 22.05.2022
1999 Clouds 15 1003 69 10000 3.13 344 10:24 22.05.2022
2000 Clouds 14 1004 67 10000 2.06 310 09:18 22.05.2022
2001 Clouds 11 1004 78 10000 0.45 342 07:22 22.05.2022
2002 Clouds 9 1004 90 10000 1.54 280 06:27 22.05.2022
2003 Clouds 11 1018 85 10000 0 0 02:50 22.05.2022
2004 Clouds 12 1019 82 10000 1.54 300 00:44 22.05.2022
2005 Clouds 12 1019 76 10000 2.06 290 23:56 21.05.2022
2006 Clouds 12 1019 76 10000 2.57 290 23:22 21.05.2022
2007 Clouds 14 1018 74 10000 2.57 300 21:55 21.05.2022
2008 Clouds 14 1003 70 10000 3.6 300 21:30 21.05.2022
2009 Clouds 16 1004 55 10000 4.63 280 20:29 21.05.2022
2010 Clouds 16 1004 56 10000 3.6 280 19:43 21.05.2022
2011 Clouds 16 1004 71 10000 4.63 270 18:45 21.05.2022
2012 Clouds 17 1004 67 10000 5.66 290 16:57 21.05.2022
2013 Rain 16 1004 65 10000 5.66 290 14:39 21.05.2022
2014 Clouds 16 1004 74 10000 6.69 260 13:55 21.05.2022
2015 Clouds 16 1004 59 10000 8.23 260 13:19 21.05.2022
2016 Clouds 16 1004 59 10000 6.69 260 12:38 21.05.2022
2017 Clouds 15 1018 75 10000 6.69 240 11:25 21.05.2022
2018 Clouds 13 1004 67 10000 5.66 260 09:57 21.05.2022
2019 Clouds 13 990 66 10000 3.58 0 08:59 21.05.2022
2020 Clouds 13 990 65 10000 3.58 0 08:38 21.05.2022
2021 Clouds 11 990 85 10000 2.24 0 06:20 21.05.2022
2022 Clouds 14 990 71 10000 4.92 0 01:41 21.05.2022
2023 Clouds 16 1013 90 10000 11.02 263 23:32 20.05.2022
2024 Clouds 18 990 72 10000 5.36 260 22:30 20.05.2022
2025 Clouds 18 990 91 10000 1.79 240 21:56 20.05.2022
2026 Clouds 19 1000 83 10000 2.06 360 21:19 20.05.2022
2027 Clouds 19 1000 83 10000 2.06 360 20:47 20.05.2022
2028 Clouds 19 1001 80 10000 1.54 70 19:45 20.05.2022
2029 Rain 20 1001 86 10000 1.54 100 18:53 20.05.2022
2030 Rain 22 1001 73 10000 2.57 90 18:18 20.05.2022
2031 Clear 23 1006 51 10000 2.57 110 16:23 20.05.2022
2032 Clear 24 1006 58 10000 1.54 0 15:54 20.05.2022
2033 Clear 23 1003 57 10000 3.13 67 15:20 20.05.2022
2034 Clear 23 1004 56 10000 2.06 0 14:27 20.05.2022
2035 Clear 21 1004 60 10000 2.06 0 12:37 20.05.2022
2036 Clouds 19 1005 60 10000 2.06 320 10:47 20.05.2022
2037 Clouds 16 1005 69 10000 4.12 290 09:27 20.05.2022
2038 Clouds 16 1005 75 10000 4.12 290 08:27 20.05.2022
2039 Clouds 15 1005 91 10000 3.6 280 06:43 20.05.2022
2040 Clouds 15 1005 90 10000 3.09 290 05:40 20.05.2022
2041 Clouds 16 1005 83 10000 2.57 270 02:41 20.05.2022
2042 Clouds 17 1004 78 10000 4.12 240 23:47 19.05.2022
2043 Clouds 17 1004 78 10000 3.6 230 22:37 19.05.2022
2044 Clouds 17 1004 80 10000 1.54 190 21:51 19.05.2022
2045 Clouds 18 1004 79 10000 1.03 0 21:24 19.05.2022
2046 Clear 18 1004 76 10000 2.06 300 20:52 19.05.2022
2047 Rain 18 1005 71 10000 4.63 280 19:54 19.05.2022
2048 Rain 22 1019 61 10000 6.69 310 19:19 19.05.2022
2049 Clouds 28 1015 31 10000 3.46 218 17:46 19.05.2022
2050 Clear 28 1016 34 10000 4.12 0 15:58 19.05.2022
2051 Clear 28 1016 35 10000 5.14 150 14:50 19.05.2022
2052 Clear 27 1017 36 10000 4.12 150 14:21 19.05.2022
2053 Clear 27 1017 36 10000 4.12 150 14:21 19.05.2022
2054 Clear 26 1019 41 10000 3.6 140 12:19 19.05.2022
2055 Clear 25 1019 38 10000 3.6 200 10:31 19.05.2022
2056 Clear 21 1020 51 10000 1.54 160 08:46 19.05.2022
2057 Clear 18 1020 56 10000 1.54 90 07:33 19.05.2022
2058 Clouds 16 1020 68 10000 2.57 110 04:23 19.05.2022
2059 Clouds 18 1021 59 10000 2.57 110 01:28 19.05.2022
2060 Clouds 18 1021 64 10000 2.06 120 23:49 18.05.2022
2061 Clouds 19 1021 56 10000 2.06 110 22:45 18.05.2022
2062 Clouds 21 1021 67 10000 2.57 110 21:45 18.05.2022
2063 Clouds 22 1021 60 10000 3.09 120 21:24 18.05.2022
2064 Clear 24 1021 57 10000 4.12 130 20:23 18.05.2022
2065 Clear 26 1021 42 10000 4.12 140 19:32 18.05.2022
2066 Clear 27 1020 42 10000 4.12 150 18:20 18.05.2022
2067 Clear 27 1020 42 10000 4.63 150 17:41 18.05.2022
2068 Clear 27 1020 41 10000 3.09 150 17:22 18.05.2022
2069 Clear 27 1021 42 10000 3.09 150 15:59 18.05.2022
2070 Clear 27 1021 42 10000 3.09 150 15:38 18.05.2022
2071 Clouds 26 1021 44 10000 3.09 0 14:30 18.05.2022
2072 Clouds 26 1021 44 10000 3.09 0 14:30 18.05.2022
2073 Clear 25 1022 47 10000 3.6 150 12:59 18.05.2022
2074 Clear 25 1022 54 10000 3.6 150 12:39 18.05.2022
2075 Clear 23 1006 62 10000 4.12 150 11:34 18.05.2022
2076 Clear 23 1006 65 10000 4.63 160 10:52 18.05.2022
2077 Clear 23 1006 65 10000 4.63 160 10:52 18.05.2022
2078 Clear 18 1006 73 10000 3.13 124 08:53 18.05.2022
2079 Clear 16 1006 84 10000 2.57 100 07:29 18.05.2022
2080 Clouds 15 1006 83 10000 2.57 100 05:21 18.05.2022
2081 Clouds 16 1006 77 10000 2.06 100 00:52 18.05.2022
2082 Clouds 16 1005 86 10000 1.54 110 00:20 18.05.2022
2083 Clouds 17 1021 79 10000 1.03 0 21:39 17.05.2022
2084 Clouds 18 1005 76 10000 2.06 90 21:19 17.05.2022
2085 Clear 21 1005 56 10000 3.6 90 19:52 17.05.2022
2086 Clouds 22 1004 56 10000 4.12 100 19:27 17.05.2022
2087 Clouds 22 1005 59 10000 4.12 90 17:50 17.05.2022
2088 Clouds 23 1005 53 10000 4.47 62 16:58 17.05.2022
2089 Clear 24 1020 37 10000 4.63 270 16:29 17.05.2022
2090 Clear 24 1020 38 10000 4.63 290 15:24 17.05.2022
2091 Clouds 24 1020 47 10000 5.14 280 14:30 17.05.2022
2092 Clouds 22 1020 56 10000 4.63 290 13:32 17.05.2022
2093 Clouds 21 1020 66 10000 2.57 300 11:37 17.05.2022
2094 Clouds 18 1005 74 10000 3.09 290 09:27 17.05.2022
2095 Clouds 16 1005 81 10000 2.06 290 08:25 17.05.2022
2096 Clouds 15 1004 83 4000 0.89 0 06:46 17.05.2022
2097 Clouds 15 1004 81 10000 4.12 270 03:20 17.05.2022
2098 Clouds 18 1018 79 10000 4.12 280 00:43 17.05.2022
2099 Clouds 17 1017 83 10000 2.57 260 22:43 16.05.2022
2100 Clouds 18 1016 85 10000 2.06 270 21:41 16.05.2022
2101 Rain 18 1003 68 10000 0 0 20:47 16.05.2022
2102 Rain 20 1002 67 10000 0 0 19:46 16.05.2022
2103 Rain 22 1006 53 10000 3.6 270 18:20 16.05.2022
2104 Clear 24 1014 36 10000 3.6 130 15:50 16.05.2022
2105 Clear 24 1015 32 10000 5.14 100 14:26 16.05.2022
2106 Clear 24 1006 38 10000 5.66 110 13:23 16.05.2022
2107 Clear 22 1017 44 10000 6.69 110 11:25 16.05.2022
2108 Clear 19 1003 52 10000 4.63 100 09:47 16.05.2022
2109 Clouds 11 1003 62 10000 5.14 90 06:58 16.05.2022
2110 Clouds 10 1004 65 10000 2.06 100 03:58 16.05.2022
2111 Clouds 13 1004 55 10000 2.57 90 23:44 15.05.2022
2112 Clouds 14 1019 67 10000 1.54 90 22:34 15.05.2022
2113 Clouds 16 1019 55 10000 1.54 80 21:47 15.05.2022
2114 Clear 20 1019 42 10000 1.54 90 20:59 15.05.2022
2115 Clear 22 1019 35 10000 2.57 90 19:53 15.05.2022
2116 Clear 22 1019 41 10000 2.57 0 17:52 15.05.2022
2117 Clear 23 1019 35 10000 2.57 0 16:35 15.05.2022
2118 Clear 21 1010 45 10000 2.06 0 14:18 15.05.2022
2119 Clear 20 1006 46 10000 2.06 0 13:23 15.05.2022
2120 Clear 19 1006 51 10000 2.06 0 11:55 15.05.2022
2121 Clear 18 1006 47 10000 2.57 80 10:35 15.05.2022
2122 Clear 14 1006 63 10000 3.09 100 08:52 15.05.2022
2123 Clear 8 1006 80 6000 1.03 110 06:59 15.05.2022
2124 Clear 10 1022 64 10000 1.45 106 06:38 15.05.2022
2125 Clear 9 1006 80 10000 0 0 01:43 15.05.2022
2126 Clear 11 1021 58 10000 1.03 0 23:52 14.05.2022
2127 Clear 11 1021 58 10000 1.03 0 23:33 14.05.2022
2128 Clear 15 1021 58 10000 0 0 21:45 14.05.2022
2129 Clear 15 1021 61 10000 1.54 360 21:19 14.05.2022
2130 Clear 20 1020 40 10000 5.14 290 19:40 14.05.2022
2131 Clear 19 1020 45 10000 3.09 320 19:40 14.05.2022
2132 Clear 19 1020 44 10000 5.14 290 19:20 14.05.2022
2133 Clear 20 1020 44 10000 4.12 320 18:47 14.05.2022
2134 Clear 20 1020 44 10000 5.14 300 17:36 14.05.2022
2135 Clear 20 1005 47 10000 5.14 300 15:47 14.05.2022
2136 Clouds 21 1009 40 10000 6.69 280 14:37 14.05.2022
2137 Clouds 18 1005 59 10000 5.66 290 12:51 14.05.2022
2138 Clouds 18 1005 53 10000 5.14 280 11:37 14.05.2022
2139 Clear 16 1020 65 10000 5.14 260 10:24 14.05.2022
2140 Clear 16 1005 68 10000 4.12 280 09:56 14.05.2022
2141 Clear 15 1005 58 10000 4.63 280 09:19 14.05.2022
2142 Clouds 12 1004 62 10000 4.12 250 07:23 14.05.2022
2143 Clouds 10 1019 64 10000 0 0 03:45 14.05.2022
2144 Clouds 11 1019 78 10000 2.57 280 00:25 14.05.2022
2145 Clouds 12 1019 75 10000 2.57 270 23:24 13.05.2022
2146 Clouds 12 1019 74 10000 2.57 270 22:54 13.05.2022
2147 Clouds 13 1019 67 10000 3.09 260 22:20 13.05.2022
2148 Clear 17 1018 51 10000 4.63 260 20:58 13.05.2022
2149 Clear 17 1018 51 10000 4.63 260 20:32 13.05.2022
2150 Clear 17 1018 42 10000 5.14 270 19:51 13.05.2022
2151 Clear 17 1004 53 10000 6.17 260 18:47 13.05.2022
2152 Clear 18 1004 45 10000 7.2 290 17:30 13.05.2022
2153 Clouds 18 990 42 10000 2.68 292 16:29 13.05.2022
2154 Clouds 18 1004 43 10000 7.2 260 15:45 13.05.2022
2155 Clouds 17 1004 44 10000 8.23 270 14:38 13.05.2022
2156 Clouds 17 990 56 10000 4.47 316 12:51 13.05.2022
2157 Clouds 16 1003 49 10000 8.75 260 11:54 13.05.2022
2158 Clouds 14 1003 54 10000 5.66 270 09:55 13.05.2022
2159 Clouds 14 1003 56 10000 5.66 260 09:26 13.05.2022
2160 Clouds 12 1003 66 10000 0.45 0 07:51 13.05.2022
2161 Clouds 10 1003 77 10000 0.89 0 06:50 13.05.2022
2162 Clouds 10 1016 60 10000 0.51 0 05:23 13.05.2022
2163 Clouds 11 1003 65 10000 0.45 0 00:59 13.05.2022
2164 Clouds 13 1003 68 10000 0.45 0 23:23 12.05.2022
2165 Clouds 14 1017 51 10000 2.06 280 22:34 12.05.2022
2166 Clouds 16 1016 59 10000 2.06 270 21:26 12.05.2022
2167 Clear 18 1017 38 10000 4.12 270 19:51 12.05.2022
2168 Clear 19 1003 40 10000 5.14 270 18:27 12.05.2022
2169 Clear 19 1003 39 10000 5.14 270 16:45 12.05.2022
2170 Clear 19 1004 39 10000 6.69 260 14:57 12.05.2022
2171 Clouds 18 1004 48 10000 5.66 270 13:50 12.05.2022
2172 Clouds 17 1004 48 10000 5.66 260 12:29 12.05.2022
2173 Clouds 15 1004 69 10000 5.66 270 10:34 12.05.2022
2174 Clouds 13 1003 61 10000 6.17 280 08:56 12.05.2022
2175 Clouds 13 1003 62 10000 6.17 280 08:35 12.05.2022
2176 Clouds 12 1002 65 10000 6.17 290 07:25 12.05.2022
2177 Clouds 14 1000 78 10000 5.81 0 04:45 12.05.2022
2178 Rain 17 1008 56 10000 3.09 290 01:37 12.05.2022
2179 Clouds 19 1008 52 10000 1.54 280 23:36 11.05.2022
2180 Clouds 21 1008 49 10000 3.09 290 22:22 11.05.2022
2181 Clouds 23 1007 43 10000 3.09 290 21:27 11.05.2022
2182 Clear 24 1007 41 10000 4.12 290 20:45 11.05.2022
2183 Clear 26 1007 33 10000 5.66 270 17:54 11.05.2022
2184 Clear 25 1007 33 10000 6.17 280 16:47 11.05.2022
2185 Clear 25 1002 39 10000 7.72 260 14:49 11.05.2022
2186 Clear 26 1002 43 10000 8.23 260 14:25 11.05.2022
2187 Clear 25 1002 42 10000 8.23 250 13:44 11.05.2022
2188 Clear 24 1003 49 10000 5.14 240 11:50 11.05.2022
2189 Clear 19 1000 64 10000 3.09 150 09:39 11.05.2022
2190 Clouds 16 1001 77 10000 3.09 160 07:53 11.05.2022
2191 Rain 16 1001 75 10000 1.54 160 04:43 11.05.2022
2192 Clouds 17 1015 72 10000 1.54 330 00:41 11.05.2022
2193 Clouds 22 1013 46 10000 3.6 230 22:30 10.05.2022
2194 Clouds 21 1013 49 10000 3.6 230 21:45 10.05.2022
2195 Clear 23 1013 38 10000 5.14 220 20:52 10.05.2022
2196 Clouds 24 1013 33 10000 4.63 220 19:25 10.05.2022
2197 Clear 24 1013 35 10000 5.66 220 17:47 10.05.2022
2198 Clear 24 1014 31 10000 5.66 220 16:41 10.05.2022
2199 Clear 24 1007 37 10000 6.17 260 14:33 10.05.2022
2200 Clear 24 1004 37 10000 4.63 240 12:37 10.05.2022
2201 Clear 23 1008 44 10000 5.66 250 11:49 10.05.2022
2202 Clear 22 1008 39 10000 4.63 250 11:18 10.05.2022
2203 Clear 20 1004 51 10000 2.06 190 09:59 10.05.2022
2204 Clear 18 1005 64 10000 3.09 190 09:25 10.05.2022
2205 Clouds 12 1005 62 10000 2.06 100 06:44 10.05.2022
2206 Clouds 11 1005 60 10000 2.06 90 03:29 10.05.2022
2207 Clear 12 1023 74 10000 2.06 110 00:34 10.05.2022
2208 Clear 14 1023 66 10000 2.06 90 22:44 09.05.2022
2209 Clear 15 1023 58 10000 2.06 100 21:50 09.05.2022
2210 Clear 21 1023 37 10000 2.06 130 20:30 09.05.2022
2211 Clear 21 1024 33 10000 2.57 0 18:43 09.05.2022
2212 Clear 21 1024 30 10000 2.57 130 17:44 09.05.2022
2213 Clear 22 1025 30 10000 2.06 0 16:30 09.05.2022
2214 Clear 22 1025 30 10000 2.06 0 16:30 09.05.2022
2215 Clear 21 1024 30 10000 3.09 0 15:51 09.05.2022
2216 Clear 21 1025 32 10000 3.09 0 15:21 09.05.2022
2217 Clear 21 1007 37 10000 4.12 110 14:29 09.05.2022
2218 Clear 20 1014 38 10000 3.6 0 13:40 09.05.2022
2219 Clear 19 1008 39 10000 4.12 110 12:21 09.05.2022
2220 Clear 18 1028 37 10000 2.57 100 11:18 09.05.2022
2221 Clear 17 1008 44 10000 2.57 110 10:42 09.05.2022
2222 Clear 12 1008 61 10000 3.09 90 08:45 09.05.2022
2223 Clear 9 1008 80 10000 1.54 100 07:54 09.05.2022
2224 Clouds 6 1054 64 10000 2.06 90 03:21 09.05.2022
2225 Clear 10 1053 49 10000 1.54 60 23:34 08.05.2022
2226 Clear 10 1053 53 10000 0.51 0 22:55 08.05.2022
2227 Clear 11 1027 57 10000 1.03 0 21:55 08.05.2022
2228 Clear 17 1026 29 10000 1.54 40 20:35 08.05.2022
2229 Clear 19 1026 27 10000 1.54 30 19:45 08.05.2022
2230 Clear 18 1026 24 10000 1.54 0 18:54 08.05.2022
2231 Clear 19 1053 28 10000 2.06 0 18:18 08.05.2022
2232 Clear 18 1053 29 10000 2.57 330 16:44 08.05.2022
2233 Clear 18 1053 33 10000 3.09 0 15:39 08.05.2022
2234 Clear 17 1053 38 10000 2.57 0 14:57 08.05.2022
2235 Clear 15 1053 48 10000 3.09 290 12:33 08.05.2022
2236 Clear 12 1053 64 10000 2.57 0 10:32 08.05.2022
2237 Clear 11 1053 57 10000 2.57 320 09:58 08.05.2022
2238 Clear 11 1053 57 10000 2.57 320 09:58 08.05.2022
2239 Clouds 10 1053 62 10000 2.57 330 08:57 08.05.2022
2240 Clouds 9 1053 68 10000 1.54 330 07:31 08.05.2022
2241 Clouds 11 1052 71 10000 3.6 350 03:55 08.05.2022
2242 Clouds 11 1052 82 10000 2.57 350 02:51 08.05.2022
2243 Clear 13 1024 82 10000 1.03 330 00:28 08.05.2022
2244 Clouds 13 1024 82 10000 0 0 23:51 07.05.2022
2245 Clouds 14 1023 78 10000 1.54 360 22:51 07.05.2022
2246 Clouds 14 1023 77 10000 1.54 360 22:33 07.05.2022
2247 Clouds 15 1023 72 10000 2.06 360 21:34 07.05.2022
2248 Clear 16 1022 59 10000 3.6 340 20:42 07.05.2022
2249 Clouds 17 1022 84 10000 3.74 352 19:58 07.05.2022
2250 Clear 21 1021 48 10000 3.09 320 17:43 07.05.2022
2251 Clouds 21 1051 50 10000 3.6 290 15:51 07.05.2022
2252 Clouds 21 1022 52 10000 3.09 320 14:19 07.05.2022
2253 Clouds 17 1023 59 10000 2.57 310 10:57 07.05.2022
2254 Clear 16 1023 48 10000 2.57 250 09:22 07.05.2022
2255 Clouds 13 1051 74 10000 0.45 0 07:52 07.05.2022
2256 Clouds 12 1022 72 10000 0 0 06:43 07.05.2022
2257 Clouds 13 1022 61 10000 2.11 248 05:22 07.05.2022
2258 Clouds 12 1022 47 10000 0 0 02:21 07.05.2022
2259 Clouds 13 1051 60 10000 0.45 0 23:38 06.05.2022
2260 Clouds 16 1051 49 10000 0 0 22:31 06.05.2022
2261 Clouds 16 1051 46 10000 0 0 21:44 06.05.2022
2262 Clear 18 1023 49 10000 0 0 20:35 06.05.2022
2263 Clear 19 1023 39 10000 1.54 280 19:40 06.05.2022
2264 Clear 19 1023 43 10000 1.54 260 19:00 06.05.2022
2265 Clear 20 1023 37 10000 2.06 300 18:23 06.05.2022
2266 Clear 21 1051 41 10000 2.57 0 16:53 06.05.2022
2267 Clear 20 1052 41 10000 1.79 32 15:42 06.05.2022
2268 Clear 20 1052 44 10000 1.54 0 14:53 06.05.2022
2269 Clouds 19 1052 51 10000 2.06 0 12:56 06.05.2022
2270 Clouds 19 1052 49 10000 2.24 297 12:37 06.05.2022
2271 Clear 18 1052 53 10000 2.57 0 11:45 06.05.2022
2272 Clear 16 1052 50 10000 1.03 0 10:30 06.05.2022
2273 Clear 15 1052 56 10000 1.03 0 09:46 06.05.2022
2274 Clear 11 1052 67 10000 0.51 0 08:33 06.05.2022
2275 Clouds 9 1025 64 10000 0.78 196 06:48 06.05.2022
2276 Clouds 6 1052 73 10000 1.03 90 05:37 06.05.2022
2277 Clouds 7 1052 71 10000 0 0 02:50 06.05.2022
2278 Clouds 9 1052 74 10000 0 0 00:26 06.05.2022
2279 Clear 12 1051 51 10000 1.03 0 22:28 05.05.2022
2280 Clouds 13 1023 65 10000 3.05 30 21:22 05.05.2022
2281 Clear 17 1021 39 10000 1.54 340 19:55 05.05.2022
2282 Clear 18 1021 38 10000 3.6 330 18:34 05.05.2022
2283 Clear 19 1050 40 10000 3.6 300 16:33 05.05.2022
2284 Clear 18 1051 41 10000 4.12 280 14:51 05.05.2022
2285 Clear 17 1051 44 10000 3.09 300 13:24 05.05.2022
2286 Clear 16 1051 44 10000 3.09 280 12:49 05.05.2022
2287 Clear 14 1050 47 10000 2.57 310 10:52 05.05.2022
2288 Clear 12 1050 52 10000 1.54 0 09:40 05.05.2022
2289 Clear 8 1050 71 10000 1.03 0 07:36 05.05.2022
2290 Clouds 8 1049 67 10000 2.57 290 05:19 05.05.2022
2291 Clouds 10 1049 62 10000 1.03 0 01:59 05.05.2022
2292 Clouds 11 1049 62 10000 1.54 360 01:29 05.05.2022
2293 Clouds 12 1049 62 10000 0 0 23:53 04.05.2022
2294 Clouds 12 1048 61 10000 1.54 340 22:46 04.05.2022
2295 Clouds 13 1048 71 10000 1.54 310 21:54 04.05.2022
2296 Clouds 13 1048 72 10000 0 0 21:29 04.05.2022
2297 Clear 15 1016 47 10000 0 0 20:30 04.05.2022
2298 Clouds 16 1017 62 10000 2.1 326 19:56 04.05.2022
2299 Clear 16 1016 57 10000 1.03 0 19:31 04.05.2022
2300 Clear 16 1048 49 10000 1.03 0 18:22 04.05.2022
2301 Clouds 17 1048 44 10000 1.79 358 17:59 04.05.2022
2302 Clear 17 1048 57 10000 1.54 0 15:57 04.05.2022
2303 Clouds 17 1048 57 10000 1.54 160 15:30 04.05.2022
2304 Clear 17 1048 55 10000 1.54 0 14:38 04.05.2022
2305 Clear 17 1049 48 10000 2.57 90 14:18 04.05.2022
2306 Clear 15 1049 58 10000 1.03 0 12:34 04.05.2022
2307 Clear 14 1049 52 10000 2.06 0 11:25 04.05.2022
2308 Clear 11 1049 57 10000 2.06 30 09:50 04.05.2022
2309 Clear 9 1049 65 10000 1.54 30 08:56 04.05.2022
2310 Clear 7 1049 75 10000 0.45 0 07:33 04.05.2022
2311 Clouds 6 1049 83 10000 0 0 04:34 04.05.2022
2312 Clouds 7 1019 64 10000 0 0 02:33 04.05.2022
2313 Clouds 10 1049 62 10000 0.45 335 22:59 03.05.2022
2314 Clear 11 1049 68 10000 0.89 0 21:47 03.05.2022
2315 Clear 12 1048 65 10000 2.57 340 21:21 03.05.2022
2316 Clear 13 1017 49 10000 3.09 340 20:39 03.05.2022
2317 Clouds 16 1049 55 10000 4.12 330 19:21 03.05.2022
2318 Clouds 16 1016 51 10000 4.12 340 18:42 03.05.2022
2319 Clear 17 1017 45 10000 3.09 340 17:21 03.05.2022
2320 Clouds 18 1017 48 10000 4.1 343 15:51 03.05.2022
2321 Clouds 17 1049 46 10000 3.6 310 14:23 03.05.2022
2322 Clear 16 1049 49 10000 3.6 270 12:35 03.05.2022
2323 Clear 14 1049 49 10000 2.57 330 11:35 03.05.2022
2324 Clear 14 1049 40 10000 1.54 0 10:44 03.05.2022
2325 Clear 9 1049 56 10000 1.54 280 08:19 03.05.2022
2326 Clouds 7 1048 60 10000 1.54 280 06:45 03.05.2022
2327 Clouds 9 1017 52 10000 0 0 02:39 03.05.2022
2328 Clouds 12 1018 62 10000 2.06 20 23:19 02.05.2022
2329 Clouds 13 1017 65 10000 1.03 330 22:29 02.05.2022
2330 Clouds 13 1017 65 10000 1.03 330 22:29 02.05.2022
2331 Clouds 13 1017 63 10000 1.54 350 21:47 02.05.2022
2332 Clear 18 1016 42 10000 2.57 320 19:30 02.05.2022
2333 Clear 18 1017 47 10000 2.06 280 18:26 02.05.2022
2334 Clear 19 1017 44 10000 1.03 0 17:41 02.05.2022
2335 Clear 19 1017 44 10000 1.03 0 17:41 02.05.2022
2336 Clear 19 1017 47 10000 1.54 0 16:43 02.05.2022
2337 Clear 19 1049 49 10000 1.03 0 15:44 02.05.2022
2338 Clear 18 1049 49 10000 2.57 0 14:51 02.05.2022
2339 Clear 18 1049 51 10000 3.09 0 13:45 02.05.2022
2340 Clear 16 1050 48 10000 2.06 0 11:41 02.05.2022
2341 Clear 13 1050 70 10000 1.54 0 09:59 02.05.2022
2342 Clear 11 1050 65 10000 2.06 110 08:31 02.05.2022
2343 Clear 9 1050 71 10000 0.45 0 07:23 02.05.2022
2344 Clouds 9 1051 61 10000 0.51 0 00:48 02.05.2022
2345 Clouds 9 1051 64 10000 0 0 00:22 02.05.2022
2346 Clouds 10 1051 60 10000 0 0 23:40 01.05.2022
2347 Clouds 11 1051 56 10000 0 0 21:46 01.05.2022
2348 Clear 13 1050 53 10000 0 0 20:50 01.05.2022
2349 Clear 14 1050 47 10000 1.03 0 19:40 01.05.2022
2350 Clear 14 1051 46 10000 1.03 0 18:53 01.05.2022
2351 Clear 14 1051 45 10000 1.54 350 17:57 01.05.2022
2352 Clear 14 1051 52 10000 2.06 270 16:46 01.05.2022
2353 Clear 15 1051 51 10000 1.34 339 16:23 01.05.2022
2354 Clouds 14 1051 43 10000 2.06 0 14:58 01.05.2022
2355 Clouds 13 1052 51 10000 1.03 0 13:23 01.05.2022
2356 Clouds 10 1052 68 10000 1.03 0 10:46 01.05.2022
2357 Clouds 9 1052 66 10000 1.03 0 08:51 01.05.2022
2358 Clouds 9 1051 66 10000 2.06 340 06:53 01.05.2022
2359 Clouds 10 1051 60 10000 2.06 340 02:51 01.05.2022
2360 Clear 11 1051 53 10000 0.89 0 22:58 30.04.2022
2361 Clear 12 1051 52 10000 1.54 330 21:35 30.04.2022
2362 Clear 12 1051 51 10000 2.06 320 20:35 30.04.2022
2363 Clear 13 1051 52 10000 3.09 300 19:33 30.04.2022
2364 Clear 14 1051 46 10000 2.57 320 17:38 30.04.2022
2365 Clear 15 1051 46 10000 4.12 290 16:34 30.04.2022
2366 Clear 15 1052 57 10000 3.6 0 15:19 30.04.2022
2367 Clear 14 1052 60 10000 3.09 310 14:31 30.04.2022
2368 Clouds 12 1052 67 10000 2.06 330 12:36 30.04.2022
2369 Clouds 12 1052 67 10000 2.06 330 12:36 30.04.2022
2370 Rain 10 1052 61 10000 1.54 310 11:33 30.04.2022
2371 Clouds 9 1052 63 10000 2.68 0 10:40 30.04.2022
2372 Clouds 8 1078 66 10000 1.34 0 08:54 30.04.2022
2373 Clouds 7 1078 67 10000 0.89 0 05:38 30.04.2022
2374 Clouds 10 1026 69 10000 2.83 310 00:35 30.04.2022
2375 Clouds 10 1026 42 10000 2.95 322 23:36 29.04.2022
2376 Clouds 12 1078 41 10000 1.34 0 22:31 29.04.2022
2377 Clouds 12 1078 59 10000 1.34 0 21:27 29.04.2022
2378 Clear 13 1025 50 10000 3.09 10 20:39 29.04.2022
2379 Clear 15 1025 47 10000 2.06 340 19:38 29.04.2022
2380 Clear 18 1052 38 10000 2.06 310 17:50 29.04.2022
2381 Clear 18 1052 43 10000 1.54 0 17:21 29.04.2022
2382 Clear 18 1053 41 10000 1.54 0 14:57 29.04.2022
2383 Clear 18 1053 43 10000 2.06 0 14:20 29.04.2022
2384 Clear 17 1054 49 10000 2.06 0 12:48 29.04.2022
2385 Clear 12 1054 56 10000 1.03 0 10:59 29.04.2022
2386 Clear 8 1054 63 10000 1.03 0 08:33 29.04.2022
2387 Clear 5 1054 69 10000 0 0 07:27 29.04.2022
2388 Clouds 5 1054 73 10000 1.54 290 06:38 29.04.2022
2389 Clouds 5 1054 82 10000 1.54 320 04:43 29.04.2022
2390 Clouds 8 1030 67 10000 2.06 350 00:39 29.04.2022
2391 Clouds 8 1054 71 10000 0 0 23:27 28.04.2022
2392 Clouds 9 1029 70 10000 0.51 0 22:41 28.04.2022
2393 Clouds 10 1029 63 10000 0.51 0 21:47 28.04.2022
2394 Clear 12 1028 57 10000 2.06 280 20:57 28.04.2022
2395 Clear 14 1028 49 10000 1.54 280 20:25 28.04.2022
2396 Clear 16 1028 36 10000 2.06 330 19:41 28.04.2022
2397 Clear 16 1054 38 10000 2.68 283 19:22 28.04.2022
2398 Clear 16 1028 45 10000 2.57 270 18:35 28.04.2022
2399 Clear 16 1054 44 10000 3.09 330 17:20 28.04.2022
2400 Clear 17 1054 46 10000 4.12 290 16:40 28.04.2022
2401 Clear 16 1054 47 10000 4.02 283 16:18 28.04.2022
2402 Clear 16 1054 48 10000 3.58 326 15:28 28.04.2022
2403 Clouds 15 1054 53 10000 2.57 280 13:44 28.04.2022
2404 Clear 14 1055 50 10000 2.57 0 12:44 28.04.2022
2405 Clear 13 1055 60 10000 2.57 290 11:58 28.04.2022
2406 Clear 12 1054 54 10000 1.03 0 10:46 28.04.2022
2407 Clear 10 1054 71 10000 1.54 340 09:56 28.04.2022
2408 Clear 7 1054 72 10000 1.54 290 08:31 28.04.2022
2409 Clear 5 1054 75 10000 1.54 300 07:19 28.04.2022
2410 Clouds 3 1054 87 10000 1.03 270 05:56 28.04.2022
2411 Clouds 4 1054 87 10000 1.03 270 05:38 28.04.2022
2412 Clouds 4 1054 73 10000 1.03 300 04:39 28.04.2022
2413 Clouds 8 1027 72 10000 1.03 0 00:30 28.04.2022
2414 Clouds 10 1026 55 10000 1.03 0 22:40 27.04.2022
2415 Clouds 11 1026 52 10000 1.54 340 21:56 27.04.2022
2416 Clouds 11 1025 64 10000 1.54 330 21:26 27.04.2022
2417 Clear 13 1025 54 10000 2.57 320 20:38 27.04.2022
2418 Clear 15 1024 51 10000 3.6 300 19:38 27.04.2022
2419 Clear 16 1052 51 10000 4.12 290 19:18 27.04.2022
2420 Clear 16 1052 52 10000 3.09 320 18:22 27.04.2022
2421 Clear 17 1052 48 10000 3.6 300 17:24 27.04.2022
2422 Clear 16 1024 47 10000 3.09 270 15:22 27.04.2022
2423 Clear 15 1052 46 10000 1.54 0 12:27 27.04.2022
2424 Clear 13 1052 53 10000 2.24 331 11:21 27.04.2022
2425 Clear 11 1052 72 10000 1.03 0 09:59 27.04.2022
2426 Clear 6 1051 75 10000 1.54 290 07:25 27.04.2022
2427 Clouds 5 1051 79 10000 1.54 270 05:50 27.04.2022
2428 Clouds 8 1050 71 10000 1.54 30 01:52 27.04.2022
2429 Clouds 9 1020 82 10000 1.54 310 00:52 27.04.2022
2430 Clouds 10 1049 79 10000 1.54 340 23:58 26.04.2022
2431 Clouds 10 1050 80 10000 0.89 0 23:23 26.04.2022
2432 Clouds 11 1049 75 10000 0 0 22:42 26.04.2022
2433 Clouds 11 1018 73 10000 0 0 21:49 26.04.2022
2434 Clear 12 1018 71 10000 0 0 20:56 26.04.2022
2435 Clear 12 1018 70 10000 0 0 20:35 26.04.2022
2436 Clear 13 1017 67 10000 0 0 19:34 26.04.2022
2437 Clear 14 1048 52 10000 0 0 18:51 26.04.2022
2438 Clear 14 1048 62 10000 0 0 18:18 26.04.2022
2439 Clear 14 1048 60 10000 1.03 320 17:33 26.04.2022
2440 Clouds 15 1078 50 10000 0.45 0 14:46 26.04.2022
2441 Rain 15 1078 48 9558 0.45 2 13:34 26.04.2022
2442 Clouds 15 1048 48 10000 2.06 130 12:34 26.04.2022
2443 Clear 14 1048 61 10000 1.54 120 10:46 26.04.2022
2444 Clear 12 1047 73 10000 2.06 130 09:50 26.04.2022
2445 Clouds 8 1047 78 5000 0.51 0 08:28 26.04.2022
2446 Clouds 5 1047 82 4600 1.03 0 04:37 26.04.2022
2447 Clouds 6 1047 82 10000 1.03 0 02:40 26.04.2022
2448 Clouds 8 1047 76 10000 0 0 00:28 26.04.2022
2449 Clouds 8 1047 76 10000 0 0 23:43 25.04.2022
2450 Clouds 10 1047 72 10000 0.45 0 21:44 25.04.2022
2451 Clouds 10 1047 72 10000 0.45 0 21:44 25.04.2022
2452 Clear 11 1046 67 10000 2.06 340 20:49 25.04.2022
2453 Clear 12 1046 60 10000 2.06 300 19:39 25.04.2022
2454 Clear 13 1047 71 10000 2.06 180 18:25 25.04.2022
2455 Clear 13 1046 73 10000 1.54 0 17:39 25.04.2022
2456 Clouds 12 1046 67 10000 2.06 210 15:51 25.04.2022
2457 Clouds 10 1046 70 10000 1.54 0 15:19 25.04.2022
2458 Clouds 9 1047 77 10000 1.54 30 14:22 25.04.2022
2459 Clouds 8 1046 89 10000 1.54 0 12:40 25.04.2022
2460 Clouds 7 1045 83 10000 2.06 70 10:29 25.04.2022
2461 Clouds 6 1045 87 10000 2.06 50 09:36 25.04.2022
2462 Rain 6 1045 85 10000 1.03 0 07:34 25.04.2022
2463 Rain 6 1045 90 10000 1.54 60 05:53 25.04.2022
2464 Clouds 8 1044 71 10000 2.24 0 01:27 25.04.2022
2465 Clouds 8 1043 67 10000 2.57 40 23:54 24.04.2022
2466 Clouds 9 1043 63 10000 3.13 33 23:20 24.04.2022
2467 Clouds 10 1006 56 10000 1.54 0 22:37 24.04.2022
2468 Clouds 11 1006 63 10000 2.57 50 21:54 24.04.2022
2469 Clouds 12 1005 61 10000 2.57 30 21:21 24.04.2022
2470 Clear 13 1005 50 10000 3.09 50 20:41 24.04.2022
2471 Clear 14 1004 47 10000 3.09 0 19:57 24.04.2022
2472 Clear 14 1042 47 10000 3.09 50 18:33 24.04.2022
2473 Clear 14 1042 47 10000 3.13 0 17:41 24.04.2022
2474 Clear 14 1042 49 10000 3.6 40 17:20 24.04.2022
2475 Clouds 15 1042 55 10000 4.02 0 16:51 24.04.2022
2476 Clear 15 1042 49 10000 4.12 50 16:22 24.04.2022
2477 Clear 15 1042 48 10000 5.36 0 15:36 24.04.2022
2478 Clear 15 1042 57 10000 4.12 50 14:31 24.04.2022
2479 Clear 14 1043 58 10000 4.12 30 13:26 24.04.2022
2480 Clear 14 1043 59 10000 4.12 40 12:46 24.04.2022
2481 Clear 13 1042 52 10000 4.63 50 11:46 24.04.2022
2482 Clouds 11 1078 52 10000 3.13 4 10:37 24.04.2022
2483 Clouds 10 1043 56 10000 3.13 0 09:42 24.04.2022
2484 Clear 6 1043 73 10000 3.09 70 07:41 24.04.2022
2485 Clear 6 1043 69 10000 2.68 11 05:38 24.04.2022
2486 Clouds 9 1043 54 10000 4.12 80 01:58 24.04.2022
2487 Clouds 10 1044 55 10000 4.12 80 00:45 24.04.2022
2488 Clouds 10 1044 54 10000 3.13 0 23:46 23.04.2022
2489 Clouds 11 1044 53 10000 3.6 90 23:25 23.04.2022
2490 Clouds 12 1043 56 10000 2.06 80 21:58 23.04.2022
2491 Clouds 12 1006 54 10000 2.06 80 21:36 23.04.2022
2492 Clear 13 1006 50 10000 3.09 80 20:59 23.04.2022
2493 Clear 15 1007 36 10000 6.17 100 19:56 23.04.2022
2494 Clear 16 1044 42 10000 6.17 90 19:20 23.04.2022
2495 Clear 16 1007 40 10000 6.69 100 18:53 23.04.2022
2496 Clear 17 1044 40 10000 6.69 110 18:31 23.04.2022
2497 Clear 17 1044 39 10000 6.69 100 17:44 23.04.2022
2498 Clear 17 1044 40 10000 7.2 100 16:45 23.04.2022
2499 Clear 17 1044 41 10000 6.26 82 15:36 23.04.2022
2500 Clear 16 1045 46 10000 6.69 90 13:24 23.04.2022
2501 Clear 14 1045 44 10000 7.2 110 11:29 23.04.2022
2502 Clear 11 1046 54 10000 5.14 90 09:39 23.04.2022
2503 Clouds 7 1045 75 10000 3.6 100 07:52 23.04.2022
2504 Clouds 8 1045 71 10000 4.12 80 03:57 23.04.2022
2505 Clouds 9 1045 56 10000 2.57 80 02:34 23.04.2022
2506 Clouds 12 1009 59 10000 5.14 90 23:34 22.04.2022
2507 Clouds 12 1009 71 10000 3.6 80 22:40 22.04.2022
2508 Clouds 12 1009 66 10000 3.09 80 21:56 22.04.2022
2509 Clouds 12 1009 66 10000 3.09 80 21:38 22.04.2022
2510 Clouds 13 1044 50 10000 6.17 90 20:30 22.04.2022
2511 Clouds 14 1044 53 10000 6.26 0 19:24 22.04.2022
2512 Clouds 14 1044 56 10000 4.12 80 18:56 22.04.2022
2513 Clouds 14 1044 49 10000 5.14 90 18:24 22.04.2022
2514 Clouds 14 1044 49 10000 5.66 80 16:54 22.04.2022
2515 Clouds 15 1044 47 10000 6.17 90 15:58 22.04.2022
2516 Clouds 15 1044 47 10000 6.17 100 15:23 22.04.2022
2517 Clouds 15 1045 49 10000 4.12 70 14:38 22.04.2022
2518 Clouds 13 1045 53 10000 5.14 100 13:41 22.04.2022
2519 Clouds 11 1045 64 10000 4.47 0 12:36 22.04.2022
2520 Clouds 10 1078 73 10000 2.24 0 11:23 22.04.2022
2521 Clouds 9 1045 77 10000 3.09 60 10:56 22.04.2022
2522 Clouds 8 1045 78 10000 3.6 90 10:32 22.04.2022
2523 Clouds 8 1045 82 10000 4.02 0 09:57 22.04.2022
2524 Clouds 7 1045 77 10000 3.6 90 09:21 22.04.2022
2525 Clouds 7 1045 77 10000 2.57 0 08:42 22.04.2022
2526 Clouds 7 1045 82 10000 3.09 70 06:38 22.04.2022
2527 Clouds 9 1046 87 6000 0 0 01:24 22.04.2022
2528 Clouds 9 1046 85 10000 1.54 90 23:33 21.04.2022
2529 Clouds 9 1046 84 10000 2.06 70 22:43 21.04.2022
2530 Rain 10 1046 92 10000 2.57 80 21:42 21.04.2022
2531 Drizzle 11 1047 70 10000 4.12 80 20:31 21.04.2022
2532 Clouds 12 1047 53 10000 4.63 100 18:49 21.04.2022
2533 Clouds 12 1047 54 10000 4.63 90 18:28 21.04.2022
2534 Clouds 12 1047 54 10000 3.6 80 17:20 21.04.2022
2535 Clouds 12 1046 60 10000 3.13 0 16:19 21.04.2022
2536 Clouds 12 1047 54 10000 2.57 40 15:19 21.04.2022
2537 Clear 11 1047 70 10000 2.06 110 14:28 21.04.2022
2538 Clear 10 1047 54 10000 2.06 90 13:21 21.04.2022
2539 Clear 10 1047 48 10000 2.06 30 12:25 21.04.2022
2540 Clouds 8 1047 57 10000 2.68 85 09:58 21.04.2022
2541 Clouds 7 1047 57 10000 1.54 80 08:47 21.04.2022
2542 Clouds 5 1047 75 10000 1.54 30 06:44 21.04.2022
2543 Clouds 5 1047 73 10000 2.06 20 03:42 21.04.2022
2544 Clouds 6 1047 68 10000 1.79 0 03:22 21.04.2022
2545 Clouds 6 1047 68 10000 2.24 33 02:44 21.04.2022
2546 Clouds 6 1047 68 10000 2.24 33 02:44 21.04.2022
2547 Clouds 8 1015 51 10000 2.06 350 00:35 21.04.2022
2548 Clouds 9 1015 41 10000 1.54 20 23:40 20.04.2022
2549 Clouds 9 1016 49 10000 2.06 360 23:18 20.04.2022
2550 Clouds 9 1016 53 10000 2.06 350 22:41 20.04.2022
2551 Clouds 11 1015 58 10000 1.03 0 21:57 20.04.2022
2552 Clear 11 1015 59 10000 1.03 0 20:50 20.04.2022
2553 Clear 13 1048 58 10000 1.54 40 20:21 20.04.2022
2554 Clear 13 1015 51 10000 2.06 60 19:47 20.04.2022
2555 Clear 14 1048 44 10000 2.06 50 18:52 20.04.2022
2556 Clear 14 1048 45 10000 2.06 40 17:53 20.04.2022
2557 Clear 14 1048 45 10000 3.09 60 16:39 20.04.2022
2558 Clear 14 1048 42 10000 3.13 14 15:39 20.04.2022
2559 Clouds 13 1049 48 10000 4.12 70 12:47 20.04.2022
2560 Clear 12 1049 52 10000 2.57 0 11:42 20.04.2022
2561 Clouds 10 1078 61 10000 0.89 0 10:53 20.04.2022
2562 Clear 8 1049 63 10000 2.06 110 09:45 20.04.2022
2563 Clear 7 1049 54 10000 2.06 60 08:54 20.04.2022
2564 Clear 6 1049 57 10000 1.79 0 08:20 20.04.2022
2565 Clouds 3 1049 75 10000 1.03 0 06:49 20.04.2022
2566 Clouds 4 1049 80 10000 1.03 0 03:33 20.04.2022
2567 Clouds 7 1048 59 10000 1.54 60 00:22 20.04.2022
2568 Clouds 8 1049 60 10000 1.54 60 23:31 19.04.2022
2569 Clouds 9 1049 57 10000 2.57 70 22:24 19.04.2022
2570 Clouds 9 1017 56 10000 2.57 70 21:55 19.04.2022
2571 Clouds 10 1048 52 10000 2.06 70 21:19 19.04.2022
2572 Clouds 12 1016 45 10000 3.09 70 20:41 19.04.2022
2573 Clear 14 1015 35 10000 3.6 70 19:43 19.04.2022
2574 Clear 14 1015 39 10000 3.09 50 18:47 19.04.2022
2575 Clear 15 1047 35 10000 3.09 60 17:28 19.04.2022
2576 Clear 15 1047 34 10000 3.6 70 16:43 19.04.2022
2577 Clear 15 1047 33 10000 4.02 89 16:21 19.04.2022
2578 Clear 14 1048 33 10000 3.6 0 14:48 19.04.2022
2579 Clear 14 1048 33 10000 5.36 0 13:35 19.04.2022
2580 Clear 13 1048 42 10000 3.09 50 12:50 19.04.2022
2581 Clear 12 1048 39 10000 4.02 0 11:55 19.04.2022
2582 Clouds 10 1078 42 10000 2.24 0 10:25 19.04.2022
2583 Clear 8 1048 57 10000 2.57 80 09:18 19.04.2022
2584 Clouds 4 1048 75 10000 2.06 60 04:56 19.04.2022
2585 Clouds 4 1048 75 10000 0.51 0 03:25 19.04.2022
2586 Clouds 6 1048 81 10000 0 0 00:54 19.04.2022
2587 Clouds 7 1048 66 10000 0 0 23:30 18.04.2022
2588 Clouds 10 1048 50 10000 1.54 70 21:30 18.04.2022
2589 Clouds 10 1048 50 10000 1.54 70 21:30 18.04.2022
2590 Clouds 11 1017 53 10000 1.54 70 20:55 18.04.2022
2591 Clouds 12 1017 52 10000 1.54 70 20:32 18.04.2022
2592 Clear 14 1017 36 10000 2.57 90 19:49 18.04.2022
2593 Clear 15 1049 41 10000 2.57 90 18:56 18.04.2022
2594 Clear 16 1049 39 10000 3.09 110 17:57 18.04.2022
2595 Clear 16 1049 40 10000 1.54 0 17:33 18.04.2022
2596 Clear 16 1049 38 10000 4.12 110 16:55 18.04.2022
2597 Clear 16 1049 39 10000 4.12 110 16:31 18.04.2022
2598 Clear 15 1050 37 10000 3.09 100 14:51 18.04.2022
2599 Clear 15 1050 40 10000 3.09 0 13:36 18.04.2022
2600 Clear 14 1050 47 10000 3.09 130 12:30 18.04.2022
2601 Clear 13 1051 51 10000 3.6 90 11:35 18.04.2022
2602 Clear 12 1051 49 10000 3.6 100 10:32 18.04.2022
2603 Clear 9 1078 65 10000 1.34 96 09:31 18.04.2022
2604 Clear 4 1051 75 10000 1.54 110 07:54 18.04.2022
2605 Clear 2 1051 68 10000 1.03 120 05:41 18.04.2022
2606 Clouds 4 1052 79 10000 1.03 110 00:49 18.04.2022
2607 Clouds 6 1052 51 10000 1.54 80 22:42 17.04.2022
2608 Clouds 8 1052 47 10000 0 0 21:49 17.04.2022
2609 Clouds 9 1052 42 10000 1.03 90 21:27 17.04.2022
2610 Clouds 10 1025 29 10000 1.54 100 20:41 17.04.2022
2611 Clear 13 1025 26 10000 4.63 110 19:40 17.04.2022
2612 Clear 14 1053 31 10000 4.63 90 18:21 17.04.2022
2613 Clear 15 1054 29 10000 5.14 100 16:27 17.04.2022
2614 Clear 14 1054 35 10000 4.63 100 15:26 17.04.2022
2615 Clear 14 1054 36 10000 4.12 100 14:25 17.04.2022
2616 Clear 13 1055 32 10000 4.63 120 13:18 17.04.2022
2617 Clear 12 1055 40 10000 6.69 110 12:28 17.04.2022
2618 Clear 10 1056 35 10000 3.13 109 10:46 17.04.2022
2619 Clear 10 1056 37 10000 3.09 120 10:28 17.04.2022
2620 Clear 8 1056 41 10000 3.13 144 09:37 17.04.2022
2621 Clouds 6 1056 48 10000 2.57 100 08:54 17.04.2022
2622 Clouds 2 1056 69 10000 2.06 90 07:53 17.04.2022
2623 Clouds 1 1056 80 10000 1.54 100 04:52 17.04.2022
2624 Clouds 4 1014 67 10000 2.06 110 01:39 17.04.2022
2625 Clouds 5 1015 58 10000 1.54 110 23:57 16.04.2022
2626 Clouds 6 1015 54 10000 1.54 90 22:41 16.04.2022
2627 Clouds 7 1034 57 10000 1.54 70 21:41 16.04.2022
2628 Clear 9 1033 54 10000 1.54 80 20:45 16.04.2022
2629 Clear 12 1014 38 10000 3.6 100 19:20 16.04.2022
2630 Clear 13 1014 40 10000 4.12 100 18:32 16.04.2022
2631 Clear 13 1015 41 10000 4.63 90 16:42 16.04.2022
2632 Clear 13 1015 41 10000 4.63 100 15:46 16.04.2022
2633 Clear 13 1015 39 10000 4.12 80 14:57 16.04.2022
2634 Clear 12 1015 39 10000 5.66 100 14:29 16.04.2022
2635 Clear 11 1015 50 10000 5.66 100 13:41 16.04.2022
2636 Clear 10 1015 57 10000 3.6 110 12:35 16.04.2022
2637 Clouds 8 1015 55 10000 5.14 100 11:24 16.04.2022
2638 Clouds 7 997 54 10000 3.58 85 10:25 16.04.2022
2639 Clouds 6 1015 62 10000 4.63 90 09:32 16.04.2022
2640 Clouds 4 1015 78 10000 3.09 100 08:41 16.04.2022
2641 Clouds 2 1015 82 10000 1.54 70 07:21 16.04.2022
2642 Clouds 3 1014 77 10000 3.09 70 04:54 16.04.2022
2643 Clouds 7 1013 80 10000 2.57 60 00:40 16.04.2022
2644 Clouds 8 1013 87 10000 3.6 80 23:40 15.04.2022
2645 Clouds 9 1013 79 10000 4.02 56 22:48 15.04.2022
2646 Clouds 9 1013 80 10000 1.54 0 22:28 15.04.2022
2647 Clouds 9 1012 80 10000 2.06 360 21:20 15.04.2022
2648 Clouds 9 1013 80 10000 1.54 360 20:36 15.04.2022
2649 Clouds 10 1012 78 10000 2.57 350 19:43 15.04.2022
2650 Clouds 10 1012 78 10000 2.57 350 19:43 15.04.2022
2651 Clouds 10 1012 75 10000 4.02 345 18:58 15.04.2022
2652 Clouds 10 1012 74 10000 3.6 350 18:26 15.04.2022
2653 Clouds 11 1012 73 10000 3.09 340 17:57 15.04.2022
2654 Clouds 11 1012 73 10000 3.09 330 17:24 15.04.2022
2655 Clouds 11 1012 70 10000 3.6 330 16:24 15.04.2022
2656 Clouds 11 1012 52 10000 4.12 330 15:42 15.04.2022
2657 Clouds 11 1012 52 10000 4.12 330 15:42 15.04.2022
2658 Clouds 11 1011 53 10000 4.12 320 13:55 15.04.2022
2659 Clouds 11 1011 61 10000 3.6 320 12:50 15.04.2022
2660 Clouds 10 1011 55 10000 4.12 290 12:24 15.04.2022
2661 Clouds 10 1011 74 10000 4.63 300 11:50 15.04.2022
2662 Clouds 9 1011 75 10000 4.12 300 10:46 15.04.2022
2663 Clouds 9 1010 79 10000 3.6 300 09:59 15.04.2022
2664 Clouds 9 997 91 10000 2.68 296 09:22 15.04.2022
2665 Clouds 8 1010 91 10000 2.57 290 08:40 15.04.2022
2666 Clouds 8 1010 79 10000 3.6 290 06:50 15.04.2022
2667 Clouds 8 1010 80 10000 4.12 290 04:49 15.04.2022
2668 Clouds 10 1022 80 10000 2.57 320 00:46 15.04.2022
2669 Clouds 10 1009 77 10000 2.57 300 23:26 14.04.2022
2670 Clouds 11 1009 76 10000 2.06 300 22:46 14.04.2022
2671 Clouds 11 1009 75 10000 2.06 290 22:27 14.04.2022
2672 Clear 12 1009 86 10000 2.06 300 21:50 14.04.2022
2673 Clear 14 1008 71 10000 2.06 290 19:51 14.04.2022
2674 Clouds 15 1008 68 10000 2.57 290 19:22 14.04.2022
2675 Clear 15 1008 74 10000 1.54 210 17:46 14.04.2022
2676 Rain 15 1008 73 8000 1.03 0 17:18 14.04.2022
2677 Clouds 17 1008 58 10000 2.57 260 16:21 14.04.2022
2678 Clouds 15 1008 78 10000 2.57 220 13:55 14.04.2022
2679 Clouds 14 1008 80 10000 2.57 220 13:26 14.04.2022
2680 Clouds 14 1008 87 10000 3.09 220 12:33 14.04.2022
2681 Rain 14 1008 84 10000 2.57 230 11:47 14.04.2022
2682 Clouds 13 997 81 10000 0.89 229 11:21 14.04.2022
2683 Clouds 13 1008 82 6000 2.06 240 10:36 14.04.2022
2684 Rain 12 1008 89 5000 1.54 280 09:52 14.04.2022
2685 Rain 12 1008 82 5000 1.54 260 08:39 14.04.2022
2686 Clouds 12 1008 81 10000 0 0 06:26 14.04.2022
2687 Clouds 14 1007 75 10000 3.6 330 01:50 14.04.2022
2688 Rain 15 1007 59 10000 0 0 22:45 13.04.2022
2689 Clouds 15 1007 51 10000 0 0 21:44 13.04.2022
2690 Clear 17 1006 52 10000 0 0 20:53 13.04.2022
2691 Clear 18 1006 58 10000 0 0 20:22 13.04.2022
2692 Clear 20 1006 43 10000 1.03 0 19:23 13.04.2022
2693 Clear 22 1009 38 10000 1.54 310 17:55 13.04.2022
2694 Clear 22 1009 38 10000 1.54 290 17:23 13.04.2022
2695 Clear 22 1009 38 10000 1.54 270 16:33 13.04.2022
2696 Clear 22 1008 37 10000 2.06 300 15:35 13.04.2022
2697 Clear 22 1009 38 10000 1.03 0 14:50 13.04.2022
2698 Clear 21 1009 38 10000 1.54 290 14:18 13.04.2022
2699 Clear 21 1009 40 10000 1.54 0 13:19 13.04.2022
2700 Clear 20 1009 44 10000 1.79 261 12:25 13.04.2022
2701 Clear 15 1006 47 10000 1.03 0 10:47 13.04.2022
2702 Clear 13 1015 51 10000 1.03 0 09:41 13.04.2022
2703 Clear 11 1015 61 10000 1.03 100 08:42 13.04.2022
2704 Clouds 8 1005 68 10000 0.45 158 06:51 13.04.2022
2705 Clouds 7 1005 59 10000 0.89 177 06:25 13.04.2022
2706 Clouds 8 1005 56 10000 2.24 168 05:20 13.04.2022
2707 Clouds 11 1014 44 10000 3.09 110 00:21 13.04.2022
2708 Clouds 12 1014 40 10000 3.6 90 23:45 12.04.2022
2709 Clouds 13 1014 31 10000 4.63 110 22:19 12.04.2022
2710 Clouds 14 1005 40 10000 4.63 100 21:18 12.04.2022
2711 Clear 15 1014 30 10000 4.63 110 20:41 12.04.2022
2712 Clear 16 1013 36 10000 5.14 120 19:50 12.04.2022
2713 Clear 16 1005 42 10000 5.14 120 19:31 12.04.2022
2714 Clear 18 1005 36 10000 6.17 110 18:31 12.04.2022
2715 Clear 18 1005 34 10000 6.69 110 17:28 12.04.2022
2716 Clear 18 1005 34 10000 6.69 110 17:28 12.04.2022
2717 Clear 19 1005 31 10000 7.2 110 16:23 12.04.2022
2718 Clear 18 1006 31 10000 7.72 120 15:33 12.04.2022
2719 Clear 17 1006 38 10000 8.23 110 14:29 12.04.2022
2720 Clear 16 1006 41 10000 7.2 110 13:37 12.04.2022
2721 Clouds 16 997 40 10000 4.47 116 12:52 12.04.2022
2722 Clear 14 1006 44 10000 6.17 100 11:47 12.04.2022
2723 Clear 13 1006 52 10000 6.17 100 11:20 12.04.2022
2724 Clear 8 1006 63 10000 4.02 126 09:24 12.04.2022
2725 Clear 5 1006 61 10000 3.6 100 07:59 12.04.2022
2726 Clouds 4 1006 61 10000 2.57 90 06:32 12.04.2022
2727 Clouds 4 1006 61 10000 2.57 90 06:32 12.04.2022
2728 Clouds 4 1006 65 10000 3.6 90 05:34 12.04.2022
2729 Clouds 5 1007 53 10000 2.57 90 00:46 12.04.2022
2730 Clouds 6 1007 58 10000 2.06 90 22:53 11.04.2022
2731 Clouds 7 1007 50 10000 0 0 21:49 11.04.2022
2732 Clouds 9 1007 50 10000 1.03 0 20:59 11.04.2022
2733 Clouds 10 997 57 10000 1.95 83 20:29 11.04.2022
2734 Clear 11 1017 46 10000 1.03 0 19:55 11.04.2022
2735 Clear 13 1007 39 10000 1.03 0 19:21 11.04.2022
2736 Clear 13 1007 38 10000 2.06 310 18:48 11.04.2022
2737 Clear 14 1007 39 10000 1.03 0 17:57 11.04.2022
2738 Clear 14 1007 41 10000 3.6 280 16:57 11.04.2022
2739 Clear 13 1007 40 10000 2.57 230 16:20 11.04.2022
2740 Clear 13 1007 43 10000 3.09 310 14:35 11.04.2022
2741 Clear 12 1008 41 10000 2.68 270 12:53 11.04.2022
2742 Clear 12 1008 41 10000 2.57 320 12:35 11.04.2022
2743 Clear 11 1008 46 10000 3.09 280 11:37 11.04.2022
2744 Clear 9 1008 51 10000 3.6 250 10:34 11.04.2022
2745 Clear 6 1008 63 10000 2.57 220 09:22 11.04.2022
2746 Clouds 0 1008 84 10000 1.03 100 06:51 11.04.2022
2747 Clouds 2 1008 82 10000 1.03 0 02:30 11.04.2022
2748 Rain 4 1008 57 10000 2.57 270 22:54 10.04.2022
2749 Clouds 4 1008 84 10000 2.57 260 22:26 10.04.2022
2750 Clouds 4 1008 59 10000 2.57 270 21:33 10.04.2022
2751 Clear 5 1008 59 10000 3.6 270 20:33 10.04.2022
2752 Clouds 7 1008 51 10000 5.36 272 19:45 10.04.2022
2753 Clear 7 1007 48 10000 4.12 290 19:23 10.04.2022
2754 Clear 8 1007 47 10000 6.17 290 18:45 10.04.2022
2755 Clouds 8 1007 44 10000 8.23 290 17:55 10.04.2022
2756 Clouds 8 1007 47 10000 8.23 290 17:35 10.04.2022
2757 Clouds 8 1007 48 10000 7.2 300 16:33 10.04.2022
2758 Clouds 7 1007 49 10000 7.2 290 15:30 10.04.2022
2759 Clouds 8 1007 44 10000 7.72 290 14:25 10.04.2022
2760 Clouds 7 997 52 10000 6.26 259 12:35 10.04.2022
2761 Clouds 7 997 52 10000 6.26 259 12:35 10.04.2022
2762 Clouds 6 1007 58 10000 5.66 280 11:56 10.04.2022
2763 Clouds 7 1007 55 10000 7.2 280 11:29 10.04.2022
2764 Clouds 6 1006 58 10000 6.69 280 10:56 10.04.2022
2765 Clouds 6 1006 59 10000 6.69 270 09:58 10.04.2022
2766 Clouds 5 1006 57 10000 6.69 270 09:38 10.04.2022
2767 Clouds 4 1006 87 10000 5.36 266 08:23 10.04.2022
2768 Clouds 3 1006 86 10000 4.63 270 07:35 10.04.2022
2769 Clouds 3 1005 79 10000 6.17 260 05:50 10.04.2022
2770 Clouds 3 1005 79 10000 5.14 260 02:34 10.04.2022
2771 Clouds 3 1004 84 10000 4.63 260 00:29 10.04.2022
2772 Clouds 3 1004 84 10000 4.63 260 23:49 09.04.2022
2773 Clouds 3 1004 82 10000 4.12 250 22:48 09.04.2022
2774 Clouds 3 1004 82 10000 6.17 260 21:35 09.04.2022
2775 Clear 4 1003 79 10000 6.17 270 20:50 09.04.2022
2776 Clear 4 1003 78 10000 6.17 260 20:26 09.04.2022
2777 Clear 4 1003 62 10000 6.17 270 19:42 09.04.2022
2778 Clouds 5 1003 61 10000 6.69 260 19:18 09.04.2022
2779 Rain 6 1003 59 10000 6.17 270 18:21 09.04.2022
2780 Clear 6 1002 59 10000 5.66 270 17:39 09.04.2022
2781 Clouds 7 1008 60 10000 7.2 270 16:53 09.04.2022
2782 Clouds 7 997 65 10000 4.02 282 15:57 09.04.2022
2783 Clouds 6 1002 71 10000 9.26 290 15:39 09.04.2022
2784 Clouds 7 997 56 10000 4.92 0 14:44 09.04.2022
2785 Clouds 8 1001 59 10000 9.26 270 14:23 09.04.2022
2786 Clouds 8 1001 51 10000 7.2 290 13:20 09.04.2022
2787 Clouds 9 1001 52 10000 9.26 280 12:50 09.04.2022
2788 Clouds 8 1001 57 10000 7.72 280 11:38 09.04.2022
2789 Clouds 6 1000 62 10000 7.2 280 10:21 09.04.2022
2790 Clouds 6 1000 66 10000 7.2 270 09:42 09.04.2022
2791 Clouds 5 1000 68 10000 6.17 280 08:56 09.04.2022
2792 Clouds 4 999 83 10000 6.17 280 07:29 09.04.2022
2793 Clouds 3 997 75 10000 4.02 0 02:53 09.04.2022
2794 Clouds 4 996 75 10000 2.57 260 23:53 08.04.2022
2795 Clouds 4 997 84 10000 1.34 0 22:57 08.04.2022
2796 Clouds 5 997 79 10000 4.63 300 21:32 08.04.2022
2797 Clear 6 996 69 10000 1.54 10 20:40 08.04.2022
2798 Clear 7 996 59 10000 4.12 250 19:32 08.04.2022
2799 Clouds 8 996 41 10000 6.69 260 18:31 08.04.2022
2800 Clouds 8 996 42 10000 6.17 270 17:53 08.04.2022
2801 Clouds 9 996 41 10000 6.17 260 17:26 08.04.2022
2802 Clouds 9 996 40 10000 5.14 270 16:51 08.04.2022
2803 Clouds 9 996 41 10000 5.14 270 15:59 08.04.2022
2804 Clouds 9 996 42 10000 5.66 270 15:27 08.04.2022
2805 Clouds 9 997 46 10000 4.63 280 14:39 08.04.2022
2806 Clouds 8 997 48 10000 5.66 290 13:48 08.04.2022
2807 Clouds 8 997 45 10000 6.17 260 13:29 08.04.2022
2808 Clouds 8 997 51 10000 6.17 260 12:32 08.04.2022
2809 Clouds 7 997 53 10000 6.17 260 10:38 08.04.2022
2810 Clouds 5 997 86 10000 5.66 270 09:41 08.04.2022
2811 Clear 5 997 79 10000 5.66 260 08:58 08.04.2022
2812 Clouds 4 996 84 10000 9.26 280 07:38 08.04.2022
2813 Clouds 5 995 80 10000 6.17 280 06:44 08.04.2022
2814 Clouds 6 993 78 10000 8.23 270 02:27 08.04.2022
2815 Clouds 7 991 59 10000 10.8 260 00:28 08.04.2022
2816 Clouds 7 991 58 10000 9.26 260 23:38 07.04.2022
2817 Clouds 6 991 77 10000 10.29 250 22:40 07.04.2022
2818 Clouds 7 991 73 10000 8.23 270 22:22 07.04.2022
2819 Clouds 7 991 73 10000 9.26 270 21:56 07.04.2022
2820 Clouds 7 991 86 10000 8.23 260 21:23 07.04.2022
2821 Clouds 6 991 88 10000 13.38 280 20:42 07.04.2022
2822 Clear 11 989 55 10000 12.86 260 18:58 07.04.2022
2823 Clouds 12 989 58 10000 10.28 259 17:28 07.04.2022
2824 Clouds 12 989 62 10000 8.75 260 16:45 07.04.2022
2825 Clouds 11 989 65 10000 9.26 250 16:25 07.04.2022
2826 Clouds 10 990 71 10000 8.23 250 15:39 07.04.2022
2827 Clouds 9 979 67 10000 10.29 210 13:52 07.04.2022
2828 Drizzle 12 989 59 10000 8.94 0 13:23 07.04.2022
2829 Clouds 12 990 55 10000 10.29 220 11:49 07.04.2022
2830 Clouds 12 991 54 10000 8.23 210 10:40 07.04.2022
2831 Clouds 10 992 58 10000 7.72 220 08:43 07.04.2022
2832 Clouds 9 993 75 10000 4.63 220 06:59 07.04.2022
2833 Clouds 9 994 76 10000 4.63 220 04:36 07.04.2022
2834 Clouds 10 995 58 10000 4.63 220 02:32 07.04.2022
2835 Clouds 10 996 59 10000 5.66 230 00:43 07.04.2022
2836 Clouds 10 996 64 10000 5.66 230 23:28 06.04.2022
2837 Clouds 10 996 64 10000 5.66 230 22:44 06.04.2022
2838 Clouds 11 997 56 10000 6.69 230 22:20 06.04.2022
2839 Clouds 11 997 56 10000 5.66 240 20:47 06.04.2022
2840 Clouds 11 997 57 10000 5.14 230 20:00 06.04.2022
2841 Clouds 11 997 56 10000 6.17 230 19:24 06.04.2022
2842 Clouds 11 997 56 10000 4.92 224 18:48 06.04.2022
2843 Clouds 11 997 56 10000 7.2 250 17:36 06.04.2022
2844 Clouds 11 997 57 10000 7.72 250 16:56 06.04.2022
2845 Clouds 11 997 56 10000 7.72 250 16:32 06.04.2022
2846 Clouds 11 998 56 10000 8.23 240 15:43 06.04.2022
2847 Clouds 11 998 58 10000 8.23 260 13:48 06.04.2022
2848 Clouds 11 998 56 10000 9.77 250 12:30 06.04.2022
2849 Clouds 10 998 57 10000 7.2 240 11:44 06.04.2022
2850 Clouds 11 998 56 10000 8.23 250 10:33 06.04.2022
2851 Clouds 11 998 56 10000 8.23 250 10:33 06.04.2022
2852 Clouds 11 998 56 10000 8.23 250 10:33 06.04.2022
2853 Clouds 10 998 74 10000 6.17 240 09:59 06.04.2022
2854 Clouds 10 998 81 10000 5.66 250 09:25 06.04.2022
2855 Clear 9 998 85 10000 6.17 250 08:18 06.04.2022
2856 Clouds 9 998 81 10000 6.17 240 06:40 06.04.2022
2857 Clouds 9 999 92 10000 6.69 270 01:44 06.04.2022
2858 Clouds 9 999 87 10000 5.66 260 23:50 05.04.2022
2859 Drizzle 10 999 85 10000 6.17 270 21:59 05.04.2022
2860 Clouds 9 999 85 10000 6.69 270 21:18 05.04.2022
2861 Clouds 10 999 89 10000 5.36 0 20:25 05.04.2022
2862 Clouds 10 999 82 10000 5.14 260 18:53 05.04.2022
2863 Clouds 9 999 84 9000 3.6 250 17:30 05.04.2022
2864 Clouds 8 999 85 7000 4.12 250 16:45 05.04.2022
2865 Rain 8 1000 94 2800 3.09 280 15:52 05.04.2022
2866 Clouds 8 1000 93 9000 3.09 270 15:31 05.04.2022
2867 Clouds 8 1000 80 7000 5.66 260 14:18 05.04.2022
2868 Drizzle 8 1000 74 10000 4.12 280 12:55 05.04.2022
2869 Clouds 7 1000 58 10000 4.63 290 11:49 05.04.2022
2870 Clouds 7 1000 57 10000 5.14 290 11:31 05.04.2022
2871 Clouds 6 1000 76 10000 5.14 290 09:49 05.04.2022
2872 Clouds 6 1000 80 10000 4.63 300 08:52 05.04.2022
2873 Clouds 6 999 88 10000 5.66 290 06:43 05.04.2022
2874 Clouds 6 998 84 10000 7.72 260 00:41 05.04.2022
2875 Clouds 6 998 80 10000 10.29 260 22:41 04.04.2022
2876 Clouds 6 998 86 10000 9.26 260 22:19 04.04.2022
2877 Clouds 5 998 78 10000 11.32 250 21:21 04.04.2022
2878 Clouds 5 998 78 10000 10.29 250 20:49 04.04.2022
2879 Clouds 5 998 77 10000 11.32 250 19:44 04.04.2022
2880 Clouds 5 998 77 10000 10.8 250 19:25 04.04.2022
2881 Clouds 5 998 79 9000 11.32 250 18:20 04.04.2022
2882 Drizzle 4 999 81 9000 10.29 240 16:36 04.04.2022
2883 Clouds 4 999 77 9000 10.29 240 15:43 04.04.2022
2884 Clouds 4 1000 77 9000 10.29 240 15:25 04.04.2022
2885 Clouds 4 1000 76 9000 11.32 240 14:46 04.04.2022
2886 Clouds 5 1001 54 10000 9.77 240 13:22 04.04.2022
2887 Clouds 5 1002 53 10000 9.26 240 11:55 04.04.2022
2888 Clouds 6 1002 55 10000 8.75 240 11:28 04.04.2022
2889 Clear 3 1004 64 10000 5.66 230 08:54 04.04.2022
2890 Clouds 2 1006 79 10000 5.14 250 04:18 04.04.2022
2891 Clouds 2 1007 80 10000 4.12 250 00:44 04.04.2022
2892 Clouds 3 1007 77 10000 3.6 250 22:43 03.04.2022
2893 Clouds 3 1007 77 10000 4.12 260 21:46 03.04.2022
2894 Clouds 3 1007 76 10000 3.09 240 20:56 03.04.2022
2895 Clouds 4 1007 75 10000 3.6 260 19:51 03.04.2022
2896 Clouds 5 1007 75 10000 4.63 270 18:33 03.04.2022
2897 Clouds 5 997 74 10000 1.34 0 17:48 03.04.2022
2898 Clouds 6 1007 59 10000 4.47 0 16:59 03.04.2022
2899 Clouds 6 1007 58 10000 4.12 290 16:41 03.04.2022
2900 Clouds 6 1007 55 10000 5.66 270 15:18 03.04.2022
2901 Clouds 6 1008 50 10000 6.17 290 13:57 03.04.2022
2902 Clouds 5 1008 50 10000 6.69 280 12:48 03.04.2022
2903 Clouds 5 1020 56 10000 5.66 290 11:33 03.04.2022
2904 Clear 2 1020 50 10000 3.6 260 09:40 03.04.2022
2905 Clear -1 1020 55 10000 2.06 230 08:50 03.04.2022
2906 Clouds -4 1020 51 10000 1.03 0 05:44 03.04.2022
2907 Clouds -3 1020 51 10000 0 0 02:55 03.04.2022
2908 Clouds 0 1019 49 10000 1.54 350 23:22 02.04.2022
2909 Clouds 0 1019 49 10000 1.54 350 23:22 02.04.2022
2910 Clouds 1 1019 46 10000 2.06 360 22:41 02.04.2022
2911 Clouds 2 1018 47 10000 2.06 360 21:55 02.04.2022
2912 Clouds 2 1018 54 10000 1.54 0 21:19 02.04.2022
2913 Clouds 3 1018 45 10000 2.06 30 20:35 02.04.2022
2914 Clouds 5 1016 42 10000 2.57 0 18:47 02.04.2022
2915 Clouds 5 1016 43 10000 2.57 0 18:19 02.04.2022
2916 Clouds 5 1006 45 10000 3.58 0 16:45 02.04.2022
2917 Clouds 5 1006 43 10000 4.02 0 15:42 02.04.2022
2918 Clouds 5 1006 51 10000 3.09 20 15:18 02.04.2022
2919 Clouds 5 1006 46 10000 3.58 0 14:26 02.04.2022
2920 Clouds 5 1006 47 10000 4.02 0 13:31 02.04.2022
2921 Clouds 4 1006 58 10000 3.13 0 12:21 02.04.2022
2922 Clouds 2 997 55 10000 3.13 0 10:31 02.04.2022
2923 Clouds -1 1005 61 10000 2.06 360 07:52 02.04.2022
2924 Clouds 0 1004 59 10000 2.68 0 04:34 02.04.2022
2925 Clouds 1 1004 57 10000 4.02 0 02:37 02.04.2022
2926 Clouds 2 1004 58 10000 3.6 50 23:54 01.04.2022
2927 Clouds 2 1004 49 10000 4.63 60 22:47 01.04.2022
2928 Clouds 3 1003 50 10000 3.6 50 21:22 01.04.2022
2929 Clouds 4 1003 50 10000 4.12 0 20:46 01.04.2022
2930 Clear 4 1002 46 10000 5.36 0 19:46 01.04.2022
2931 Clear 5 1002 44 10000 3.6 60 19:26 01.04.2022
2932 Clear 5 1002 44 10000 4.63 50 18:38 01.04.2022
2933 Clear 6 1002 42 10000 5.81 0 17:39 01.04.2022
2934 Clear 6 1002 41 10000 5.66 60 16:24 01.04.2022
2935 Clear 5 1002 38 10000 5.66 60 14:56 01.04.2022
2936 Clouds 4 1002 44 10000 4.12 50 13:56 01.04.2022
2937 Clear 4 1001 46 10000 4.63 0 13:31 01.04.2022
2938 Clear 3 1001 49 10000 4.92 33 12:26 01.04.2022
2939 Clear 1 1001 67 10000 3.6 40 10:54 01.04.2022
2940 Clouds 0 1001 74 10000 3.09 50 09:49 01.04.2022
2941 Mist -1 1001 90 3700 3.13 0 07:50 01.04.2022
2942 Clouds -1 1000 91 2500 3.09 50 06:30 01.04.2022
2943 Clouds 0 1000 93 3500 3.58 0 04:44 01.04.2022
2944 Clouds 0 1000 81 5000 3.6 60 03:21 01.04.2022
2945 Clouds 3 1000 55 10000 6.71 0 01:52 01.04.2022
2946 Clear 4 1000 43 10000 5.66 80 22:37 31.03.2022
2947 Clear 4 999 46 10000 5.66 80 21:49 31.03.2022
2948 Clear 4 999 53 10000 6.17 80 21:22 31.03.2022
2949 Clouds 4 999 58 10000 5.66 90 20:28 31.03.2022
2950 Clouds 4 999 56 10000 6.17 90 19:46 31.03.2022
2951 Clouds 5 999 53 10000 5.66 70 18:38 31.03.2022
2952 Clouds 6 999 51 10000 6.26 0 17:33 31.03.2022
2953 Clouds 6 999 47 10000 5.66 80 16:34 31.03.2022
2954 Clouds 6 999 52 10000 5.66 90 15:35 31.03.2022
2955 Clear 6 999 47 10000 6.17 90 14:54 31.03.2022
2956 Clear 6 999 47 10000 6.69 90 14:20 31.03.2022
2957 Clouds 4 999 57 10000 5.14 90 11:34 31.03.2022
2958 Clouds 4 999 59 10000 4.63 90 10:41 31.03.2022
2959 Clouds 3 999 58 10000 6.17 90 09:44 31.03.2022
2960 Clouds 3 999 66 10000 4.63 100 07:53 31.03.2022
2961 Clouds 3 999 75 10000 3.09 100 04:42 31.03.2022
2962 Clouds 4 1000 59 10000 3.09 90 23:37 30.03.2022
2963 Clouds 5 1000 57 10000 3.6 80 22:27 30.03.2022
2964 Clouds 5 1000 64 10000 3.09 70 21:37 30.03.2022
2965 Clouds 5 1000 57 10000 2.68 0 20:44 30.03.2022
2966 Clouds 6 1000 56 10000 3.09 80 19:59 30.03.2022
2967 Clouds 7 1000 63 10000 2.57 50 18:59 30.03.2022
2968 Clouds 7 1000 57 10000 3.13 47 18:18 30.03.2022
2969 Clouds 8 1000 56 10000 3.6 40 17:44 30.03.2022
2970 Clouds 9 1000 53 10000 3.09 30 16:54 30.03.2022
2971 Clouds 9 1000 50 10000 3.13 17 16:31 30.03.2022
2972 Clear 10 1000 48 10000 2.68 12 14:59 30.03.2022
2973 Clouds 9 1000 57 10000 3.09 330 13:35 30.03.2022
2974 Clear 8 1001 60 10000 2.06 0 12:42 30.03.2022
2975 Clear 6 1001 64 10000 1.03 0 10:58 30.03.2022
2976 Clear 4 1001 74 10000 1.54 120 09:59 30.03.2022
2977 Clear 3 1001 65 10000 1.03 100 09:20 30.03.2022
2978 Clear 0 1001 80 10000 1.03 90 07:32 30.03.2022
2979 Clouds -1 1002 80 10000 0 0 05:40 30.03.2022
2980 Clouds 0 1002 80 10000 0 0 03:39 30.03.2022
2981 Clouds 3 1002 68 10000 1.54 330 00:31 30.03.2022
2982 Clouds 5 1003 56 10000 2.57 320 22:25 29.03.2022
2983 Clouds 6 1003 58 10000 3.09 330 21:44 29.03.2022
2984 Clear 7 1003 58 10000 2.57 310 20:52 29.03.2022
2985 Clouds 9 1002 55 10000 4.63 300 19:53 29.03.2022
2986 Clouds 11 1002 55 10000 5.14 290 18:55 29.03.2022
2987 Clouds 11 1003 47 10000 5.14 290 18:19 29.03.2022
2988 Clouds 12 1003 48 10000 4.63 290 17:22 29.03.2022
2989 Clouds 12 1003 48 10000 5.66 290 16:56 29.03.2022
2990 Clouds 12 1003 49 10000 5.14 280 15:57 29.03.2022
2991 Clouds 11 1004 63 10000 5.14 270 14:52 29.03.2022
2992 Clouds 10 1004 56 10000 4.12 260 13:56 29.03.2022
2993 Clouds 9 1005 58 10000 4.12 300 12:51 29.03.2022
2994 Clouds 8 1005 57 10000 4.12 290 11:43 29.03.2022
2995 Clouds 7 1005 59 10000 4.12 310 10:30 29.03.2022
2996 Clouds 6 1005 61 10000 4.63 310 09:42 29.03.2022
2997 Clouds 6 1005 79 10000 3.6 290 06:58 29.03.2022
2998 Clouds 6 1006 79 10000 4.47 271 03:54 29.03.2022
2999 Clouds 5 1006 80 10000 2.06 280 00:35 29.03.2022
3000 Clouds 6 1007 76 10000 3.09 310 23:23 28.03.2022
3001 Clouds 6 1007 86 10000 4.12 320 22:52 28.03.2022
3002 Clear 7 1007 74 10000 3.6 320 22:26 28.03.2022
3003 Clear 9 1007 57 10000 3.09 310 20:56 28.03.2022
3004 Clear 9 1007 58 10000 3.09 290 20:21 28.03.2022
3005 Clear 11 1007 56 10000 3.6 290 19:41 28.03.2022
3006 Clear 13 1007 53 10000 4.12 290 18:56 28.03.2022
3007 Clear 13 1007 52 10000 4.12 290 18:36 28.03.2022
3008 Clear 14 1007 51 10000 4.63 290 17:39 28.03.2022
3009 Clouds 14 1008 54 10000 3.09 330 16:20 28.03.2022
3010 Clear 14 1009 62 10000 3.09 300 14:29 28.03.2022
3011 Clear 13 1009 59 10000 2.57 330 13:58 28.03.2022
3012 Clouds 9 1023 80 10000 3.09 280 12:20 28.03.2022
3013 Fog 7 1023 78 900 2.57 300 11:23 28.03.2022
3014 Fog 5 1024 79 300 2.06 330 09:43 28.03.2022
3015 Fog 5 1024 80 300 1.03 0 09:19 28.03.2022
3016 Fog 4 1010 82 200 1.54 300 08:22 28.03.2022
3017 Fog 4 1024 82 550 1.54 290 07:28 28.03.2022
3018 Clouds 5 1011 75 10000 0 0 03:43 28.03.2022
3019 Clear 7 1012 70 10000 0 0 23:29 27.03.2022
3020 Clear 8 1012 65 10000 0 0 22:24 27.03.2022
3021 Clear 8 1012 60 10000 0 0 21:41 27.03.2022
3022 Clear 10 1012 65 10000 0 0 20:54 27.03.2022
3023 Clear 10 1012 65 10000 0 0 20:54 27.03.2022
3024 Clear 10 1012 65 10000 0 0 20:54 27.03.2022
3025 Clear 12 1012 52 10000 2.06 300 19:48 27.03.2022
3026 Clear 13 1012 50 10000 2.06 270 19:20 27.03.2022
3027 Clear 15 1012 45 10000 1.03 0 18:27 27.03.2022
3028 Clear 15 1012 45 10000 1.03 0 18:27 27.03.2022
3029 Clear 15 1013 46 10000 2.06 330 17:38 27.03.2022
3030 Clear 15 1013 49 10000 2.57 300 16:21 27.03.2022
3031 Clear 14 1013 52 10000 2.06 280 15:18 27.03.2022
3032 Clouds 13 1031 55 10000 2.06 0 13:55 27.03.2022
3033 Clouds 11 1014 65 10000 1.54 360 12:24 27.03.2022
3034 Clouds 9 1014 80 10000 1.54 340 10:53 27.03.2022
3035 Clouds 7 1013 85 10000 1.54 270 08:51 27.03.2022
3036 Clouds 7 1013 87 10000 2.06 330 05:54 27.03.2022
3037 Clouds 7 1013 81 10000 1.54 330 00:48 27.03.2022
3038 Clouds 8 1013 80 10000 1.03 350 23:40 26.03.2022
3039 Clouds 9 1013 77 10000 2.06 340 22:36 26.03.2022
3040 Clouds 10 1031 85 10000 2.06 340 21:34 26.03.2022
3041 Clouds 10 1030 83 10000 1.54 300 20:52 26.03.2022
3042 Clouds 13 1029 52 10000 3.6 320 19:21 26.03.2022
3043 Clouds 15 1013 64 10000 5.66 300 17:53 26.03.2022
3044 Clouds 15 1029 62 10000 5.66 300 17:32 26.03.2022
3045 Clouds 16 1012 51 10000 6.17 310 16:27 26.03.2022
3046 Clouds 17 1013 46 10000 6.17 290 14:57 26.03.2022
3047 Clear 17 1013 43 10000 5.14 300 13:53 26.03.2022
3048 Clear 16 1013 50 10000 6.17 300 12:51 26.03.2022
3049 Clear 15 1013 48 10000 5.66 300 11:33 26.03.2022
3050 Clear 13 1013 53 10000 4.12 280 10:22 26.03.2022
3051 Clear 8 1013 56 9000 4.12 260 08:34 26.03.2022
3052 Clouds 5 1013 75 10000 2.57 260 05:54 26.03.2022
3053 Clouds 5 1013 65 10000 1.54 290 04:21 26.03.2022
3054 Clear 6 1013 63 10000 0 0 00:22 26.03.2022
3055 Clear 9 1013 56 10000 0 0 21:41 25.03.2022
3056 Clear 10 1013 51 10000 0 0 20:46 25.03.2022
3057 Clear 11 1013 50 10000 0 0 19:36 25.03.2022
3058 Clear 13 1013 52 10000 0 0 18:47 25.03.2022
3059 Clear 16 1013 42 10000 1.03 0 17:47 25.03.2022
3060 Clear 17 1012 40 10000 2.06 0 17:26 25.03.2022
3061 Clear 17 1013 35 10000 2.06 350 16:18 25.03.2022
3062 Clear 17 1013 40 10000 1.54 0 14:26 25.03.2022
3063 Clear 16 1013 42 10000 2.24 0 12:48 25.03.2022
3064 Clear 11 1013 47 10000 1.54 320 09:57 25.03.2022
3065 Clear 9 1013 60 10000 1.03 0 09:28 25.03.2022
3066 Clear 3 1029 68 10000 1.03 100 07:54 25.03.2022
3067 Clear 4 1030 71 10000 0.64 108 07:28 25.03.2022
3068 Clear 1 1029 86 10000 0.51 110 05:55 25.03.2022
3069 Clear 4 1029 69 10000 1.03 110 01:18 25.03.2022
3070 Clear 6 997 51 10000 1.49 124 22:51 24.03.2022
3071 Clear 7 997 57 10000 1.63 109 21:45 24.03.2022
3072 Clear 8 997 52 10000 0.45 58 20:26 24.03.2022
3073 Clear 10 1012 44 10000 1.54 30 19:47 24.03.2022
3074 Clear 15 1012 30 10000 1.03 0 17:48 24.03.2022
3075 Clear 16 1012 29 10000 2.06 350 17:19 24.03.2022
3076 Clear 17 1012 31 10000 2.57 330 15:45 24.03.2022
3077 Clear 17 1013 32 10000 2.57 10 14:50 24.03.2022
3078 Clear 16 1013 32 10000 2.57 0 14:19 24.03.2022
3079 Clear 16 1013 34 10000 2.06 80 13:23 24.03.2022
3080 Clear 14 1013 37 10000 3.09 110 11:47 24.03.2022
3081 Clear 10 1013 54 10000 3.09 100 09:55 24.03.2022
3082 Clear 8 1030 56 10000 2.06 120 08:42 24.03.2022
3083 Clear 2 1029 67 10000 1.54 90 06:49 24.03.2022
3084 Clear 4 1029 66 10000 0 0 03:57 24.03.2022
3085 Clear 8 1013 46 10000 2.57 70 23:20 23.03.2022
3086 Clear 8 1013 45 10000 1.03 0 21:45 23.03.2022
3087 Clear 8 1013 44 10000 1.03 0 21:20 23.03.2022
3088 Clear 10 1013 42 10000 1.03 0 19:46 23.03.2022
3089 Clear 13 1013 36 10000 1.03 0 18:55 23.03.2022
3090 Clear 17 1029 19 10000 2.06 10 17:37 23.03.2022
3091 Clear 17 1013 25 10000 2.06 0 16:50 23.03.2022
3092 Clear 18 1013 23 10000 2.06 0 14:51 23.03.2022
3093 Clear 18 1013 25 10000 2.68 340 14:32 23.03.2022
3094 Clear 17 1013 25 10000 2.57 360 13:21 23.03.2022
3095 Clear 11 1014 38 10000 2.06 320 10:20 23.03.2022
3096 Clear 4 1031 45 10000 1.25 85 06:55 23.03.2022
3097 Clear 4 1031 45 10000 1.38 70 05:27 23.03.2022
3098 Clear 5 1032 31 10000 0.98 86 01:18 23.03.2022
3099 Clear 5 1032 44 10000 1.29 110 00:23 23.03.2022
3100 Clear 7 997 43 10000 2.22 110 21:31 22.03.2022
3101 Clear 8 997 47 10000 2.46 111 20:51 22.03.2022
3102 Clear 10 1013 40 10000 1.54 110 19:52 22.03.2022
3103 Clear 11 1013 38 10000 1.54 100 19:25 22.03.2022
3104 Clear 12 1031 33 10000 2.57 110 18:45 22.03.2022
3105 Clear 16 1031 22 10000 3.6 120 17:42 22.03.2022
3106 Clear 17 1013 27 10000 2.57 120 16:32 22.03.2022
3107 Clear 18 1014 27 10000 2.06 0 15:37 22.03.2022
3108 Clear 18 1014 28 10000 2.57 170 15:18 22.03.2022
3109 Clear 18 1014 29 10000 2.57 170 14:41 22.03.2022
3110 Clear 17 1014 29 10000 2.06 0 13:37 22.03.2022
3111 Clear 15 1014 34 10000 1.54 0 11:52 22.03.2022
3112 Clear 13 1015 35 10000 1.54 0 10:51 22.03.2022
3113 Clear 5 1034 60 10000 2.57 100 08:40 22.03.2022
3114 Clear 4 1034 55 10000 1.51 144 07:21 22.03.2022
3115 Clear 4 997 57 10000 2.23 137 03:55 22.03.2022
3116 Clear 5 1014 52 10000 1.54 90 00:46 22.03.2022
3117 Clear 5 1014 50 10000 1.79 0 22:46 21.03.2022
3118 Clear 7 1014 43 10000 2.57 90 21:20 21.03.2022
3119 Clear 8 1014 44 10000 3.09 100 20:43 21.03.2022
3120 Clear 9 1014 38 10000 3.6 100 20:21 21.03.2022
3121 Clear 9 1014 38 10000 4.12 110 19:35 21.03.2022
3122 Clear 10 1032 38 10000 5.14 110 18:47 21.03.2022
3123 Clear 13 1032 35 10000 4.63 110 17:35 21.03.2022
3124 Clear 14 1014 34 10000 5.14 100 16:59 21.03.2022
3125 Clear 14 1014 36 10000 5.66 100 16:26 21.03.2022
3126 Clear 14 1014 33 10000 5.14 110 15:37 21.03.2022
3127 Clear 14 1014 34 10000 4.47 136 14:36 21.03.2022
3128 Clear 13 1014 35 10000 3.6 100 13:20 21.03.2022
3129 Clear 11 1015 43 10000 3.6 100 11:58 21.03.2022
3130 Clear 10 1015 39 10000 3.6 110 11:20 21.03.2022
3131 Clear 8 1015 46 10000 4.02 0 09:49 21.03.2022
3132 Clear 3 1014 55 10000 2.68 0 07:33 21.03.2022
3133 Clear 2 1014 60 10000 3.13 0 05:56 21.03.2022
3134 Clear 5 1014 44 10000 4.12 110 01:39 21.03.2022
3135 Clear 7 1014 36 10000 5.81 0 22:57 20.03.2022
3136 Clear 8 1014 35 10000 5.81 10 22:25 20.03.2022
3137 Clear 8 1014 34 10000 6.17 120 21:38 20.03.2022
3138 Clear 9 1014 32 10000 6.69 120 20:55 20.03.2022
3139 Clear 9 1014 32 10000 6.69 120 20:36 20.03.2022
3140 Clear 9 1014 32 10000 5.66 120 19:54 20.03.2022
3141 Clear 10 1014 32 10000 6.17 120 19:24 20.03.2022
3142 Clear 12 1014 30 10000 8.23 120 17:48 20.03.2022
3143 Clear 12 1014 29 10000 9.26 110 17:26 20.03.2022
3144 Clear 13 1014 26 10000 8.75 120 16:38 20.03.2022
3145 Clear 13 1014 29 10000 10.29 120 14:50 20.03.2022
3146 Clear 12 1014 30 10000 10.8 120 13:39 20.03.2022
3147 Clear 11 1015 31 10000 10.29 120 12:20 20.03.2022
3148 Clear 7 1015 39 10000 8.75 100 10:28 20.03.2022
3149 Clear 3 1015 48 10000 5.66 110 08:26 20.03.2022
3150 Clear 1 1015 59 10000 4.63 90 06:40 20.03.2022
3151 Clear 2 1016 53 10000 4.63 80 03:27 20.03.2022
3152 Clear 3 1017 61 10000 4.12 80 00:54 20.03.2022
3153 Clear 3 1017 61 10000 4.12 80 00:35 20.03.2022
3154 Clear 4 1017 56 10000 4.12 80 22:42 19.03.2022
3155 Clear 5 1018 63 10000 2.06 70 21:27 19.03.2022
3156 Clouds 7 1018 52 10000 4.12 90 19:42 19.03.2022
3157 Clouds 9 1017 49 10000 5.14 80 18:44 19.03.2022
3158 Clear 9 1017 46 10000 5.14 70 17:57 19.03.2022
3159 Clear 10 1017 45 10000 5.14 70 17:34 19.03.2022
3160 Clear 11 1018 41 10000 6.17 80 15:43 19.03.2022
3161 Clouds 10 1019 47 10000 4.12 60 14:21 19.03.2022
3162 Clouds 11 1019 55 10000 5.36 0 12:56 19.03.2022
3163 Clouds 10 1019 57 10000 5.36 0 12:38 19.03.2022
3164 Clear 9 1020 60 10000 4.47 0 11:49 19.03.2022
3165 Clear 7 1020 55 10000 4.12 90 10:44 19.03.2022
3166 Clear 1 1020 86 6000 1.03 0 06:27 19.03.2022
3167 Clear 3 1021 82 10000 1.54 60 03:21 19.03.2022
3168 Clear 3 1021 82 10000 1.54 40 01:41 19.03.2022
3169 Clear 5 1021 79 10000 2.06 60 23:36 18.03.2022
3170 Clear 6 1020 70 10000 1.54 40 22:26 18.03.2022
3171 Clear 6 1020 82 10000 1.03 0 21:19 18.03.2022
3172 Clear 8 1020 56 10000 1.03 0 19:50 18.03.2022
3173 Clear 9 1020 55 10000 1.03 0 19:21 18.03.2022
3174 Clear 9 1020 55 10000 1.03 0 19:21 18.03.2022
3175 Clouds 12 1043 42 10000 2.06 50 17:43 18.03.2022
3176 Clouds 13 1019 50 10000 2.24 49 16:47 18.03.2022
3177 Clear 12 1019 47 10000 2.24 15 14:51 18.03.2022
3178 Clear 12 1020 46 10000 2.57 0 14:21 18.03.2022
3179 Clear 10 1020 53 10000 2.57 340 12:26 18.03.2022
3180 Clouds 7 1019 82 10000 1.03 0 10:52 18.03.2022
3181 Clouds 3 1019 96 6000 0 0 09:29 18.03.2022
3182 Fog 0 1019 90 2500 1.03 110 08:30 18.03.2022
3183 Clouds -1 1018 91 400 1.03 0 06:35 18.03.2022
3184 Clouds 0 1017 84 450 0.51 0 02:57 18.03.2022
3185 Clouds 2 1016 84 10000 1.54 340 00:23 18.03.2022
3186 Clouds 3 1016 83 10000 0 0 23:24 17.03.2022
3187 Fog 3 1016 84 10000 0 0 22:24 17.03.2022
3188 Fog 3 1015 94 10000 0 0 21:48 17.03.2022
3189 Clear 4 1015 82 10000 0 0 21:23 17.03.2022
3190 Clear 4 1015 85 10000 0 0 20:45 17.03.2022
3191 Clear 5 1014 83 10000 1.03 330 19:50 17.03.2022
3192 Clouds 6 1014 80 10000 2.57 310 19:28 17.03.2022
3193 Clouds 7 1014 78 10000 3.09 300 18:46 17.03.2022
3194 Clouds 8 1013 83 10000 4.12 310 16:58 17.03.2022
3195 Clouds 8 1013 84 10000 3.6 290 15:44 17.03.2022
3196 Clouds 8 1013 84 9000 3.6 280 15:26 17.03.2022
3197 Drizzle 8 1013 86 4400 4.12 290 14:38 17.03.2022
3198 Clouds 8 1012 81 6000 2.57 230 12:55 17.03.2022
3199 Clouds 8 1012 81 6000 2.57 230 12:37 17.03.2022
3200 Clear 10 1011 63 10000 3.6 170 11:30 17.03.2022
3201 Clear 9 1011 64 10000 3.6 160 10:32 17.03.2022
3202 Clear 7 1010 65 10000 3.13 150 08:40 17.03.2022
3203 Clear 7 1010 63 10000 3.58 3 07:52 17.03.2022
3204 Clouds 6 1010 62 10000 4.02 141 05:48 17.03.2022
3205 Clouds 6 1010 66 10000 4.12 110 03:41 17.03.2022
3206 Clouds 7 1011 59 10000 5.14 100 23:57 16.03.2022
3207 Clear 7 1011 61 10000 4.12 100 22:51 16.03.2022
3208 Clear 7 1011 61 10000 4.12 100 22:33 16.03.2022
3209 Clear 7 1011 57 10000 2.57 100 21:52 16.03.2022
3210 Clear 8 1011 57 10000 3.09 90 20:28 16.03.2022
3211 Clear 9 1011 64 10000 3.6 100 19:22 16.03.2022
3212 Clear 10 1011 56 10000 4.12 100 18:40 16.03.2022
3213 Clear 11 1011 53 10000 5.66 110 17:44 16.03.2022
3214 Clear 12 1011 52 10000 5.66 110 17:26 16.03.2022
3215 Clear 13 1012 51 10000 5.66 100 15:56 16.03.2022
3216 Clouds 13 1012 52 10000 5.14 110 14:35 16.03.2022
3217 Clouds 12 1012 55 10000 3.58 90 13:34 16.03.2022
3218 Clear 11 1012 61 10000 2.57 130 12:18 16.03.2022
3219 Clear 10 1012 67 10000 2.24 79 11:23 16.03.2022
3220 Clear 8 1012 83 10000 0.45 137 10:28 16.03.2022
3221 Clouds 6 1012 86 9000 0 0 09:55 16.03.2022
3222 Fog 1 1026 83 450 2.06 110 06:47 16.03.2022
3223 Clouds 3 1026 86 250 1.54 290 02:44 16.03.2022
3224 Clouds 4 1010 81 6000 0 0 22:54 15.03.2022
3225 Clouds 5 1010 78 6000 0 0 22:35 15.03.2022
3226 Clouds 7 1010 80 10000 1.54 60 20:51 15.03.2022
3227 Clear 9 1010 76 10000 2.06 90 19:37 15.03.2022
3228 Clear 10 1010 61 10000 2.57 110 17:42 15.03.2022
3229 Clear 11 1009 62 10000 2.57 90 16:35 15.03.2022
3230 Clear 12 1010 64 10000 2.06 150 15:28 15.03.2022
3231 Clear 12 1010 59 10000 2.57 160 14:52 15.03.2022
3232 Clear 12 1011 59 10000 2.06 160 13:55 15.03.2022
3233 Clear 12 1011 60 10000 2.06 110 13:21 15.03.2022
3234 Clear 11 1012 66 10000 2.24 0 11:32 15.03.2022
3235 Clear 8 1012 86 10000 1.54 150 10:22 15.03.2022
3236 Clouds 6 1012 86 6000 1.54 100 09:20 15.03.2022
3237 Mist 4 1012 89 4400 1.03 90 08:21 15.03.2022
3238 Fog 3 1012 91 3900 1.03 90 07:36 15.03.2022
3239 Clouds 3 1012 85 5000 0.89 25 05:55 15.03.2022
3240 Clouds 4 1012 84 10000 2.06 260 00:31 15.03.2022
3241 Clouds 6 1012 84 10000 2.57 260 23:29 14.03.2022
3242 Clouds 6 1012 86 10000 2.57 260 22:49 14.03.2022
3243 Clouds 7 1012 92 10000 3.09 240 21:51 14.03.2022
3244 Clouds 8 1012 85 10000 3.09 230 20:55 14.03.2022
3245 Clouds 8 1012 86 10000 2.57 220 20:24 14.03.2022
3246 Clouds 8 1012 86 10000 2.06 220 19:24 14.03.2022
3247 Clouds 8 1011 86 10000 3.09 220 17:57 14.03.2022
3248 Clouds 8 1011 86 10000 3.09 220 17:39 14.03.2022
3249 Clouds 8 1011 92 9000 3.09 230 16:33 14.03.2022
3250 Clouds 8 1011 79 10000 2.57 220 14:48 14.03.2022
3251 Clouds 9 1010 62 10000 3.6 240 13:29 14.03.2022
3252 Clouds 9 1010 47 10000 3.6 280 11:26 14.03.2022
3253 Clear 7 1009 41 10000 2.06 240 09:57 14.03.2022
3254 Clear 6 1009 38 10000 2.06 240 09:34 14.03.2022
3255 Clear 4 1009 49 10000 1.54 160 08:57 14.03.2022
3256 Clear 2 1009 48 10000 1.54 110 08:26 14.03.2022
3257 Clear 0 1008 54 10000 0 0 06:47 14.03.2022
3258 Clear 2 1008 43 10000 3.09 100 02:59 14.03.2022
3259 Clear 3 1008 43 10000 3.6 100 01:39 14.03.2022
3260 Clear 4 1008 38 10000 3.09 110 23:41 13.03.2022
3261 Clear 7 1007 32 10000 5.66 110 21:49 13.03.2022
3262 Clear 7 1018 33 10000 5.66 110 21:21 13.03.2022
3263 Clear 8 1018 28 10000 5.66 120 20:46 13.03.2022
3264 Clear 9 1007 29 10000 6.26 127 20:22 13.03.2022
3265 Clear 9 1007 29 10000 5.36 128 19:42 13.03.2022
3266 Clear 9 1007 31 10000 4.47 119 19:22 13.03.2022
3267 Clear 9 1007 31 10000 4.47 119 19:22 13.03.2022
3268 Clear 10 1007 30 10000 4.63 110 18:45 13.03.2022
3269 Clear 10 1007 29 10000 5.14 120 18:25 13.03.2022
3270 Clear 12 1007 23 10000 6.17 120 17:36 13.03.2022
3271 Clear 13 1007 26 10000 7.72 110 16:45 13.03.2022
3272 Clear 13 1007 26 10000 6.69 110 16:23 13.03.2022
3273 Clear 13 1007 27 10000 6.69 110 15:42 13.03.2022
3274 Clear 13 1007 25 10000 8.23 110 14:37 13.03.2022
3275 Clear 12 1007 27 10000 5.14 120 13:28 13.03.2022
3276 Clear 11 1007 26 10000 5.14 110 12:23 13.03.2022
3277 Clear 10 1007 27 10000 4.63 90 11:39 13.03.2022
3278 Clear 8 1008 28 10000 5.14 100 10:50 13.03.2022
3279 Clear 7 1008 30 10000 4.63 100 10:29 13.03.2022
3280 Clear 5 1008 35 10000 4.12 120 09:42 13.03.2022
3281 Clear 4 1008 42 10000 3.6 90 08:50 13.03.2022
3282 Clear 1 1008 49 10000 3.09 100 08:30 13.03.2022
3283 Clouds -1 1008 54 10000 2.68 0 07:19 13.03.2022
3284 Clouds -1 1008 50 10000 2.68 135 04:59 13.03.2022
3285 Clouds 1 1008 45 10000 3.6 110 01:48 13.03.2022
3286 Clouds 3 1008 41 10000 3.09 110 23:28 12.03.2022
3287 Clear 4 1008 36 10000 3.6 100 21:39 12.03.2022
3288 Clear 6 1008 33 10000 4.12 110 20:20 12.03.2022
3289 Clear 7 1008 31 10000 4.63 110 19:46 12.03.2022
3290 Clouds 8 1020 29 10000 3.6 100 18:41 12.03.2022
3291 Clear 10 1008 25 10000 5.66 110 17:53 12.03.2022
3292 Clear 12 1008 26 10000 7.2 110 16:28 12.03.2022
3293 Clear 12 1008 26 10000 7.2 110 15:52 12.03.2022
3294 Clear 12 1008 26 10000 7.2 110 15:21 12.03.2022
3295 Clear 12 1009 25 10000 5.66 100 13:54 12.03.2022
3296 Clear 11 1009 26 10000 5.14 90 12:33 12.03.2022
3297 Clear 9 1009 26 10000 4.47 0 11:55 12.03.2022
3298 Clear 9 1009 27 10000 4.12 100 11:34 12.03.2022
3299 Clear 6 1009 28 10000 4.02 0 10:32 12.03.2022
3300 Clear 5 1009 29 10000 4.02 0 09:43 12.03.2022
3301 Clouds 2 1009 33 10000 4.47 0 08:24 12.03.2022
3302 Clear 0 1009 44 10000 4.47 0 06:44 12.03.2022
3303 Clear 2 1009 40 10000 6.69 100 00:55 12.03.2022
3304 Clear 3 1009 39 10000 5.81 113 23:46 11.03.2022
3305 Clear 4 1009 37 10000 6.69 130 22:36 11.03.2022
3306 Clear 5 1009 36 10000 10.29 120 21:24 11.03.2022
3307 Clear 5 1009 36 10000 11.32 120 20:48 11.03.2022
3308 Clear 5 1009 37 10000 10.29 120 20:26 11.03.2022
3309 Clear 6 1009 34 10000 10.29 120 19:35 11.03.2022
3310 Clear 7 1009 33 10000 10.8 110 18:33 11.03.2022
3311 Clear 8 1009 31 10000 8.23 110 17:26 11.03.2022
3312 Clear 9 1009 29 10000 9.26 120 16:26 11.03.2022
3313 Clear 9 1009 30 10000 10.29 120 15:51 11.03.2022
3314 Clear 8 1010 31 10000 10.29 110 13:45 11.03.2022
3315 Clear 8 1010 34 10000 9.26 110 12:43 11.03.2022
3316 Clear 7 1010 37 10000 9.77 110 12:20 11.03.2022
3317 Clear 5 1010 36 10000 9.77 110 11:28 11.03.2022
3318 Clear 2 1011 45 10000 7.72 100 09:36 11.03.2022
3319 Clear 0 1011 53 10000 8.23 100 08:29 11.03.2022
3320 Clear -1 1011 56 10000 6.69 110 07:48 11.03.2022
3321 Clouds -1 1010 65 10000 5.66 100 06:55 11.03.2022
3322 Clouds 0 1011 58 10000 5.66 100 05:20 11.03.2022
3323 Clouds 1 1011 62 10000 4.92 98 02:45 11.03.2022
3324 Clear 3 1011 54 10000 6.69 110 22:51 10.03.2022
3325 Clear 4 1011 56 10000 5.14 120 22:27 10.03.2022
3326 Clouds 5 1012 58 10000 6.17 110 21:26 10.03.2022
3327 Clouds 6 1012 58 10000 6.17 110 20:45 10.03.2022
3328 Clear 8 1012 53 10000 5.66 110 19:22 10.03.2022
3329 Clear 9 1011 57 10000 6.17 110 18:30 10.03.2022
3330 Clear 11 1011 47 10000 7.2 120 16:53 10.03.2022
3331 Clear 13 1012 37 10000 7.2 110 15:41 10.03.2022
3332 Clear 12 1012 34 10000 8.23 110 14:23 10.03.2022
3333 Clear 12 1012 37 10000 6.69 100 12:46 10.03.2022
3334 Clear 11 1012 39 10000 5.66 110 11:37 10.03.2022
3335 Clear 8 1012 46 10000 4.47 144 10:19 10.03.2022
3336 Clear 5 1012 59 10000 3.6 100 08:48 10.03.2022
3337 Clear -1 1027 55 10000 2.57 100 05:50 10.03.2022
3338 Clear 0 1027 75 10000 3.09 100 03:42 10.03.2022
3339 Clear 2 1011 52 10000 2.57 90 00:23 10.03.2022
3340 Clear 4 1011 58 10000 2.06 90 22:45 09.03.2022
3341 Clear 4 1011 55 10000 2.06 100 21:48 09.03.2022
3342 Clear 4 1011 52 10000 2.06 100 21:23 09.03.2022
3343 Clear 6 1011 48 10000 1.54 100 19:40 09.03.2022
3344 Clear 9 1010 47 10000 3.09 90 18:25 09.03.2022
3345 Clear 12 1010 37 10000 3.09 90 17:26 09.03.2022
3346 Clear 12 1010 37 10000 3.09 90 16:24 09.03.2022
3347 Clear 13 1011 34 10000 2.57 0 14:32 09.03.2022
3348 Clear 13 1011 31 10000 2.68 90 13:52 09.03.2022
3349 Clear 11 1011 33 10000 1.54 0 12:39 09.03.2022
3350 Clear 10 1011 35 10000 1.54 170 11:52 09.03.2022
3351 Clear 10 1011 36 10000 1.54 170 11:32 09.03.2022
3352 Clear 4 1011 66 10000 1.54 110 09:45 09.03.2022
3353 Clear 1 1011 71 10000 2.06 90 08:47 09.03.2022
3354 Clouds -3 1025 60 10000 1.54 100 06:51 09.03.2022
3355 Clouds 0 1010 65 10000 2.06 100 01:54 09.03.2022
3356 Clouds 0 1010 63 10000 1.34 102 00:27 09.03.2022
3357 Clear 1 1010 59 10000 2.06 120 22:47 08.03.2022
3358 Clear 2 1010 56 10000 2.06 90 21:52 08.03.2022
3359 Clear 2 1010 54 10000 1.54 100 21:22 08.03.2022
3360 Clear 3 1010 54 10000 2.57 110 20:24 08.03.2022
3361 Clear 5 1010 48 10000 3.6 100 19:30 08.03.2022
3362 Clear 6 1024 43 10000 3.6 100 18:41 08.03.2022
3363 Clear 9 1010 41 10000 3.6 130 16:59 08.03.2022
3364 Clear 10 1010 37 10000 5.14 120 14:58 08.03.2022
3365 Clear 10 1011 39 10000 5.66 120 14:18 08.03.2022
3366 Clear 9 1011 45 10000 4.63 110 12:41 08.03.2022
3367 Clear 7 1011 47 10000 2.06 110 11:44 08.03.2022
3368 Clear 6 1011 60 10000 2.68 24 10:41 08.03.2022
3369 Clear 4 1011 55 10000 2.06 100 09:37 08.03.2022
3370 Clouds -3 1011 74 10000 2.06 100 06:34 08.03.2022
3371 Clear -2 1011 74 10000 1.03 120 04:47 08.03.2022
3372 Clear -1 1012 63 10000 0 0 23:36 07.03.2022
3373 Clear 0 1011 68 10000 0 0 21:50 07.03.2022
3374 Clear 1 1011 67 10000 0 0 21:31 07.03.2022
3375 Clear 1 1011 59 10000 1.03 0 20:44 07.03.2022
3376 Clear 2 1011 57 10000 1.03 0 19:55 07.03.2022
3377 Clear 3 1011 55 10000 1.03 0 19:29 07.03.2022
3378 Clear 4 1027 49 10000 1.17 52 18:42 07.03.2022
3379 Clear 7 1025 36 10000 1.54 40 17:47 07.03.2022
3380 Clear 8 1011 47 10000 2.06 0 16:55 07.03.2022
3381 Clear 8 1011 49 10000 2.57 310 15:32 07.03.2022
3382 Clouds 7 1012 55 10000 2.24 23 13:24 07.03.2022
3383 Clear 6 1012 58 10000 3.09 270 12:23 07.03.2022
3384 Clear 4 1012 56 10000 2.06 270 10:38 07.03.2022
3385 Clear 1 1012 61 10000 1.03 0 08:48 07.03.2022
3386 Clouds 0 1011 61 10000 2.06 330 03:41 07.03.2022
3387 Clouds 0 1012 60 10000 1.03 0 00:22 07.03.2022
3388 Clouds 0 1012 59 10000 1.54 300 23:31 06.03.2022
3389 Clouds 0 1012 59 10000 1.03 0 22:40 06.03.2022
3390 Clouds 0 1012 67 10000 0 0 21:46 06.03.2022
3391 Clouds 0 1011 68 10000 0 0 20:31 06.03.2022
3392 Clouds 1 1011 59 10000 0 0 19:51 06.03.2022
3393 Clouds 1 1011 66 10000 1.03 0 18:52 06.03.2022
3394 Clouds 2 1011 64 10000 1.54 120 18:23 06.03.2022
3395 Clouds 2 1011 60 10000 2.24 0 17:21 06.03.2022
3396 Clouds 2 1011 54 10000 1.79 0 16:41 06.03.2022
3397 Clouds 2 1011 53 10000 2.57 60 15:49 06.03.2022
3398 Clouds 2 1011 53 10000 2.57 60 15:49 06.03.2022
3399 Clouds 2 1011 54 10000 2.68 38 14:49 06.03.2022
3400 Clouds 2 1011 54 10000 2.68 29 14:30 06.03.2022
3401 Clouds 2 1011 61 10000 2.68 39 13:18 06.03.2022
3402 Clouds 2 1011 60 10000 2.68 0 12:31 06.03.2022
3403 Clouds 2 1011 60 10000 2.24 0 10:59 06.03.2022
3404 Clouds 2 1011 61 10000 1.79 0 10:22 06.03.2022
3405 Clouds 1 1011 63 10000 1.54 70 08:29 06.03.2022
3406 Clouds 1 1011 63 10000 1.54 70 08:29 06.03.2022
3407 Clouds 1 1011 63 10000 1.54 70 08:29 06.03.2022
3408 Clouds 1 1011 63 10000 1.54 70 08:29 06.03.2022
3409 Clouds 0 1011 63 10000 1.54 70 07:34 06.03.2022
3410 Clouds 0 1011 70 10000 1.54 70 05:40 06.03.2022
3411 Clouds 1 1010 69 10000 3.09 90 00:51 06.03.2022
3412 Clouds 1 1010 69 10000 2.57 70 00:30 06.03.2022
3413 Clouds 1 1010 63 10000 1.54 90 23:21 05.03.2022
3414 Clouds 1 1010 70 10000 2.57 80 22:53 05.03.2022
3415 Clouds 2 1010 67 10000 1.54 100 21:56 05.03.2022
3416 Clouds 1 1010 58 10000 0.51 0 21:23 05.03.2022
3417 Clouds 2 1010 65 10000 1.03 70 19:44 05.03.2022
3418 Clouds 3 1010 60 10000 1.54 80 18:56 05.03.2022
3419 Clouds 3 1010 55 10000 1.03 120 18:27 05.03.2022
3420 Clouds 6 1010 49 10000 4.12 110 16:49 05.03.2022
3421 Clouds 6 1010 48 10000 4.12 110 15:31 05.03.2022
3422 Clouds 6 1010 48 10000 4.12 120 14:47 05.03.2022
3423 Clouds 7 1010 48 10000 4.63 110 14:29 05.03.2022
3424 Clouds 6 1010 50 10000 5.14 110 13:22 05.03.2022
3425 Clouds 5 1010 58 10000 4.12 120 11:48 05.03.2022
3426 Clear 4 1010 60 10000 4.63 100 11:19 05.03.2022
3427 Clear 3 1011 67 10000 4.12 120 10:20 05.03.2022
3428 Clear 2 1011 70 10000 2.57 100 09:22 05.03.2022
3429 Clear -2 1010 80 10000 2.06 80 07:51 05.03.2022
3430 Clouds -2 1010 67 10000 1.54 80 05:43 05.03.2022
3431 Clouds -1 1010 64 10000 1.79 0 03:49 05.03.2022
3432 Clouds 1 1010 65 10000 1.54 100 23:38 04.03.2022
3433 Clouds 1 1024 67 10000 2.06 140 22:44 04.03.2022
3434 Clouds 1 1024 66 10000 2.57 100 22:23 04.03.2022
3435 Clouds 2 1024 75 10000 1.54 70 20:57 04.03.2022
3436 Clouds 2 1024 78 10000 1.03 0 20:28 04.03.2022
3437 Clouds 2 1024 78 10000 0 0 19:36 04.03.2022
3438 Clouds 3 1010 65 10000 2.57 120 18:46 04.03.2022
3439 Clouds 3 1010 63 10000 2.57 100 18:20 04.03.2022
3440 Clouds 3 1010 61 10000 3.09 80 17:28 04.03.2022
3441 Clouds 4 1010 60 10000 4.12 100 15:31 04.03.2022
3442 Clouds 4 1024 48 10000 3.6 100 14:36 04.03.2022
3443 Clouds 4 1025 64 10000 2.57 140 13:27 04.03.2022
3444 Clouds 3 1025 74 10000 3.09 70 11:56 04.03.2022
3445 Clouds 2 1010 66 10000 3.13 0 10:58 04.03.2022
3446 Clouds 2 1010 65 10000 3.6 110 10:21 04.03.2022
3447 Clouds 1 1010 64 10000 2.06 100 09:27 04.03.2022
3448 Clouds 0 1010 64 10000 1.03 100 07:47 04.03.2022
3449 Clouds 0 1010 65 10000 3.09 110 05:44 04.03.2022
3450 Clouds 1 1010 87 10000 2.57 110 00:43 04.03.2022
3451 Clouds 0 1010 81 10000 3.09 90 23:28 03.03.2022
3452 Clouds 0 1010 81 10000 3.09 90 22:18 03.03.2022
3453 Clouds 0 1010 82 10000 3.09 90 21:36 03.03.2022
3454 Clouds 0 1009 80 10000 3.6 100 20:32 03.03.2022
3455 Clouds 1 1009 80 10000 4.12 90 19:22 03.03.2022
3456 Clouds 2 1021 70 10000 2.06 60 18:25 03.03.2022
3457 Clouds 3 1021 67 10000 4.12 80 17:31 03.03.2022
3458 Clear 6 1020 49 10000 3.46 62 16:41 03.03.2022
3459 Clear 7 1020 54 10000 4.31 60 15:44 03.03.2022
3460 Clear 7 1009 59 10000 2.57 50 14:44 03.03.2022
3461 Clear 7 1009 56 10000 3.09 30 14:25 03.03.2022
3462 Clear 7 1009 50 10000 2.06 30 12:33 03.03.2022
3463 Clear 5 1009 55 10000 1.03 0 11:26 03.03.2022
3464 Clear 4 1009 57 10000 1.03 0 10:38 03.03.2022
3465 Clear 1 1021 75 10000 0 0 08:42 03.03.2022
3466 Clouds -2 1021 68 10000 0 0 06:58 03.03.2022
3467 Clouds -2 1021 67 10000 0 0 05:44 03.03.2022
3468 Clouds 0 1010 67 10000 1.03 100 00:30 03.03.2022
3469 Clear 0 1010 61 10000 1.54 110 23:18 02.03.2022
3470 Clear 0 1010 65 10000 0 0 22:42 02.03.2022
3471 Clear 1 1010 63 10000 1.54 100 21:23 02.03.2022
3472 Clear 2 997 62 10000 2.14 106 20:30 02.03.2022
3473 Clear 2 1010 57 10000 1.03 100 19:45 02.03.2022
3474 Clear 3 1010 55 10000 1.03 70 19:26 02.03.2022
3475 Clear 4 1010 52 10000 1.03 80 18:39 02.03.2022
3476 Clear 4 1010 52 10000 1.03 80 18:39 02.03.2022
3477 Clear 4 1010 52 10000 1.03 80 18:39 02.03.2022
3478 Clear 6 1023 49 10000 2.06 90 17:45 02.03.2022
3479 Clear 8 1010 40 10000 3.09 110 16:56 02.03.2022
3480 Clear 8 1010 40 10000 3.09 110 16:36 02.03.2022
3481 Clear 9 1010 44 10000 2.06 0 14:42 02.03.2022
3482 Clear 8 1011 43 10000 2.57 120 13:24 02.03.2022
3483 Clear 7 1011 45 10000 1.54 0 12:41 02.03.2022
3484 Clear 6 1011 52 10000 2.06 140 11:39 02.03.2022
3485 Clear 4 1011 58 10000 1.54 100 11:18 02.03.2022
3486 Clear 2 1011 58 10000 1.54 90 09:41 02.03.2022
3487 Clear 1 1011 57 10000 1.03 90 08:52 02.03.2022
3488 Clear 0 1011 83 10000 0 0 07:28 02.03.2022
3489 Clouds 0 1011 69 10000 1.03 100 05:44 02.03.2022
3490 Clouds 1 1012 59 10000 2.06 100 00:58 02.03.2022
3491 Clouds 1 1012 59 10000 2.06 100 00:58 02.03.2022
3492 Clouds 1 1012 64 10000 0 0 23:47 01.03.2022
3493 Clouds 2 1012 55 10000 0 0 22:45 01.03.2022
3494 Clouds 2 1012 58 10000 0.45 156 21:57 01.03.2022
3495 Clouds 2 1012 57 10000 0 0 21:24 01.03.2022
3496 Clear 3 1012 55 10000 1.54 110 20:30 01.03.2022
3497 Clear 3 1012 55 10000 1.54 110 20:30 01.03.2022
3498 Clear 3 1013 54 10000 1.03 80 19:28 01.03.2022
3499 Clear 4 1013 54 10000 1.03 0 18:49 01.03.2022
3500 Clear 4 1012 56 10000 1.54 90 18:19 01.03.2022
3501 Clear 6 1013 43 10000 2.06 80 17:22 01.03.2022
3502 Clear 7 1013 44 10000 2.06 100 16:33 01.03.2022
3503 Clear 8 1013 39 10000 1.03 0 15:38 01.03.2022
3504 Clear 8 1013 40 10000 2.06 180 14:35 01.03.2022
3505 Clear 8 1013 41 10000 2.06 210 13:52 01.03.2022
3506 Clear 7 1013 43 10000 2.06 190 13:24 01.03.2022
3507 Clear 6 1013 41 10000 3.6 160 12:32 01.03.2022
3508 Clear 3 1014 52 10000 1.54 110 10:36 01.03.2022
3509 Clear 0 997 59 10000 1.79 0 08:45 01.03.2022
3510 Clear -1 997 76 10000 2.24 0 07:54 01.03.2022
3511 Clear -3 1014 74 10000 1.34 135 06:20 01.03.2022
3512 Clear -1 1014 69 10000 1.34 169 02:44 01.03.2022
3513 Clear 0 1014 67 10000 4.63 140 00:36 01.03.2022
3514 Clear 1 1015 62 10000 5.14 140 23:31 28.02.2022
3515 Clear 1 1015 66 10000 4.12 110 22:24 28.02.2022
3516 Clear 1 1015 66 10000 4.12 100 21:39 28.02.2022
3517 Clear 1 1015 66 10000 4.12 110 20:28 28.02.2022
3518 Clear 1 1015 65 10000 5.14 110 19:41 28.02.2022
3519 Clear 2 1015 66 10000 4.63 110 18:49 28.02.2022
3520 Clear 3 1015 63 10000 4.63 110 17:33 28.02.2022
3521 Clear 4 1015 62 10000 4.63 110 16:53 28.02.2022
3522 Clear 5 1034 70 10000 5.66 110 15:31 28.02.2022
3523 Clear 6 1034 63 10000 4.63 110 14:32 28.02.2022
3524 Clouds 5 1035 67 9000 4.12 90 13:48 28.02.2022
3525 Mist 4 1035 74 5000 3.09 110 12:53 28.02.2022
3526 Mist 2 1035 79 5000 3.6 130 11:59 28.02.2022
3527 Mist 2 1035 84 4100 3.6 120 11:19 28.02.2022
3528 Mist 1 1035 81 3100 2.57 110 10:22 28.02.2022
3529 Mist 0 1035 82 3200 2.57 140 09:43 28.02.2022
3530 Mist -1 1035 85 1200 3.09 140 08:52 28.02.2022
3531 Mist -1 1015 84 1900 4.12 120 07:58 28.02.2022
3532 Clear -2 1015 82 10000 2.24 134 05:54 28.02.2022
3533 Clear -1 1015 82 10000 2.24 132 04:30 28.02.2022
3534 Clear 0 1015 64 10000 2.06 110 00:53 28.02.2022
3535 Clear 1 1015 63 10000 3.09 90 22:53 27.02.2022
3536 Clear 1 1015 62 10000 3.09 100 22:32 27.02.2022
3537 Clear 2 1015 61 10000 2.57 90 21:42 27.02.2022
3538 Clear 2 1015 59 10000 3.6 100 20:44 27.02.2022
3539 Clear 3 1016 67 10000 3.09 100 20:18 27.02.2022
3540 Clear 3 1016 66 10000 3.09 110 19:49 27.02.2022
3541 Clear 3 1016 59 10000 2.57 110 19:22 27.02.2022
3542 Clear 4 1016 58 10000 2.57 110 18:37 27.02.2022
3543 Clear 5 1016 65 10000 4.12 110 17:52 27.02.2022
3544 Clear 7 1016 52 10000 5.66 110 16:30 27.02.2022
3545 Clear 8 1016 48 10000 5.66 130 15:24 27.02.2022
3546 Clouds 7 1016 60 10000 1.34 0 12:37 27.02.2022
3547 Clouds 6 1017 64 10000 2.24 0 11:54 27.02.2022
3548 Clouds 4 1017 75 10000 3.13 0 10:37 27.02.2022
3549 Clear 3 1016 85 10000 2.24 0 09:58 27.02.2022
3550 Clear 2 1016 86 10000 2.68 0 09:24 27.02.2022
3551 Clear 1 1016 87 10000 2.06 100 08:51 27.02.2022
3552 Clear -2 1016 90 10000 2.57 90 06:42 27.02.2022
3553 Clear -1 1016 84 10000 2.06 80 04:26 27.02.2022
3554 Clear 0 1016 79 10000 1.03 110 00:34 27.02.2022
3555 Clear 0 1016 75 10000 1.54 120 22:50 26.02.2022
3556 Clear 1 1015 70 10000 1.54 90 21:34 26.02.2022
3557 Clear 2 1016 76 10000 1.03 80 20:48 26.02.2022
3558 Clear 3 1015 67 10000 1.03 80 19:59 26.02.2022
3559 Clear 3 1015 68 10000 1.34 0 19:34 26.02.2022
3560 Clouds 5 1015 59 10000 1.34 0 18:46 26.02.2022
3561 Clear 7 1033 45 10000 1.54 30 17:40 26.02.2022
3562 Clear 8 1015 51 10000 2.06 360 16:48 26.02.2022
3563 Clouds 9 1015 58 10000 2.57 310 15:48 26.02.2022
3564 Clouds 9 1015 62 10000 3.6 290 15:20 26.02.2022
3565 Clouds 9 1015 66 10000 4.12 280 14:52 26.02.2022
3566 Clouds 9 1015 67 10000 4.12 280 14:33 26.02.2022
3567 Clouds 8 1015 63 10000 3.09 270 13:19 26.02.2022
3568 Clouds 7 1015 73 10000 3.6 270 12:20 26.02.2022
3569 Clouds 6 1015 73 10000 3.09 290 11:28 26.02.2022
3570 Clouds 5 1015 66 10000 3.09 310 10:40 26.02.2022
3571 Clouds 4 997 86 10000 2.68 295 08:53 26.02.2022
3572 Clouds 3 997 80 10000 2.68 0 06:51 26.02.2022
3573 Clouds 2 997 83 10000 3.13 0 00:56 26.02.2022
3574 Clouds 3 997 83 10000 2.24 269 22:49 25.02.2022
3575 Clouds 3 997 85 10000 2.24 289 21:43 25.02.2022
3576 Clouds 3 997 85 10000 3.13 278 21:25 25.02.2022
3577 Clouds 3 1009 86 10000 6.17 280 20:33 25.02.2022
3578 Clouds 3 1009 84 10000 7.72 280 19:18 25.02.2022
3579 Clouds 4 1007 82 10000 6.69 260 17:29 25.02.2022
3580 Clouds 4 1007 90 10000 7.2 250 16:35 25.02.2022
3581 Clouds 4 1007 81 7000 8.75 270 15:48 25.02.2022
3582 Clouds 5 1007 61 10000 8.75 250 15:22 25.02.2022
3583 Clouds 6 1006 63 10000 8.23 250 14:42 25.02.2022
3584 Clouds 6 1007 64 10000 9.26 250 13:51 25.02.2022
3585 Clouds 5 1016 66 10000 8.23 250 13:19 25.02.2022
3586 Clouds 6 1006 60 10000 9.77 250 11:28 25.02.2022
3587 Clouds 5 1006 60 10000 10.29 250 10:48 25.02.2022
3588 Clouds 5 1006 60 10000 10.29 250 10:22 25.02.2022
3589 Clouds 4 1006 69 10000 7.72 250 09:31 25.02.2022
3590 Clear 3 1006 65 10000 7.72 250 07:44 25.02.2022
3591 Clouds 3 1005 66 10000 7.2 250 05:58 25.02.2022
3592 Clouds 3 1005 66 10000 7.2 250 05:36 25.02.2022
3593 Clouds 3 1003 71 10000 6.69 270 00:30 25.02.2022
3594 Clouds 4 1002 79 10000 6.69 270 22:29 24.02.2022
3595 Clouds 4 1002 81 10000 8.23 260 21:43 24.02.2022
3596 Clouds 4 1002 81 10000 8.23 260 21:43 24.02.2022
3597 Clouds 4 1002 87 10000 8.75 270 21:21 24.02.2022
3598 Clouds 4 1002 83 10000 7.72 270 20:42 24.02.2022
3599 Clouds 5 1004 70 5712 11.4 248 19:19 24.02.2022
3600 Clouds 10 1000 60 10000 6.69 220 18:20 24.02.2022
3601 Clouds 10 1000 61 10000 6.69 220 17:51 24.02.2022
3602 Clouds 10 1000 60 10000 6.69 220 16:57 24.02.2022
3603 Clouds 11 1000 60 10000 7.2 220 16:25 24.02.2022
3604 Clouds 11 1001 57 10000 6.69 210 15:41 24.02.2022
3605 Clouds 11 1001 55 10000 6.69 220 14:44 24.02.2022
3606 Clouds 11 1002 55 10000 5.36 0 13:51 24.02.2022
3607 Clouds 11 1002 55 10000 5.66 210 13:30 24.02.2022
3608 Clouds 9 1004 60 10000 4.63 220 10:50 24.02.2022
3609 Clouds 8 1004 58 10000 4.63 220 10:31 24.02.2022
3610 Clouds 7 1004 60 10000 2.06 180 08:43 24.02.2022
3611 Clouds 7 1014 56 10000 4.63 220 06:28 24.02.2022
3612 Clouds 7 1014 53 10000 3.6 230 05:40 24.02.2022
3613 Clouds 5 1019 59 10000 3.09 200 00:30 24.02.2022
3614 Clouds 5 1008 59 10000 3.09 220 22:19 23.02.2022
3615 Clouds 5 1009 58 10000 2.06 180 20:45 23.02.2022
3616 Clear 6 1009 58 10000 2.57 190 20:26 23.02.2022
3617 Clear 6 1009 58 10000 2.06 180 19:35 23.02.2022
3618 Clear 7 1009 63 10000 3.6 250 18:26 23.02.2022
3619 Clouds 10 1010 50 10000 6.17 260 16:28 23.02.2022
3620 Clouds 10 1010 52 10000 6.69 260 13:58 23.02.2022
3621 Clouds 9 1010 58 10000 6.69 260 12:31 23.02.2022
3622 Clouds 7 1010 59 10000 6.17 260 10:58 23.02.2022
3623 Clouds 7 1010 66 10000 6.17 270 10:23 23.02.2022
3624 Clouds 6 1009 64 10000 5.14 270 08:55 23.02.2022
3625 Clouds 5 1009 63 10000 6.17 270 07:55 23.02.2022
3626 Clouds 6 1006 62 10000 6.17 280 02:58 23.02.2022
3627 Clouds 6 1005 78 10000 7.72 280 00:18 23.02.2022
3628 Clouds 6 1005 64 10000 7.72 290 23:34 22.02.2022
3629 Clouds 7 1003 82 10000 8.75 290 22:28 22.02.2022
3630 Clouds 8 1003 92 7000 7.72 240 21:48 22.02.2022
3631 Clouds 7 1003 86 10000 6.69 230 21:24 22.02.2022
3632 Clouds 7 1003 84 10000 6.69 240 20:47 22.02.2022
3633 Drizzle 7 1003 84 10000 7.2 230 20:28 22.02.2022
3634 Drizzle 7 1003 88 7000 6.69 220 19:34 22.02.2022
3635 Clouds 7 1003 82 10000 4.02 0 18:50 22.02.2022
3636 Clouds 6 1004 79 10000 4.12 220 17:36 22.02.2022
3637 Clouds 6 1004 79 10000 4.12 220 17:18 22.02.2022
3638 Clouds 7 1004 62 10000 6.17 240 16:36 22.02.2022
3639 Clouds 8 1005 67 10000 6.17 240 15:37 22.02.2022
3640 Clouds 8 1005 61 10000 5.66 250 14:42 22.02.2022
3641 Clouds 7 1006 59 10000 7.72 270 11:41 22.02.2022
3642 Clouds 5 1006 56 10000 7.2 280 10:24 22.02.2022
3643 Clouds 3 1005 78 10000 5.14 280 07:43 22.02.2022
3644 Clouds 3 1004 78 10000 6.17 290 07:25 22.02.2022
3645 Clouds 5 1002 80 10000 8.23 300 02:52 22.02.2022
3646 Clouds 5 1001 80 10000 6.17 280 00:48 22.02.2022
3647 Clouds 5 1000 80 10000 5.66 270 22:38 21.02.2022
3648 Clouds 5 999 82 10000 6.17 290 21:30 21.02.2022
3649 Clouds 4 998 82 10000 6.17 300 20:29 21.02.2022
3650 Clouds 4 997 90 10000 6.17 290 18:41 21.02.2022
3651 Drizzle 4 995 85 10000 7.2 230 16:48 21.02.2022
3652 Clouds 4 996 78 10000 8.23 230 14:24 21.02.2022
3653 Clouds 4 996 71 10000 7.72 230 13:59 21.02.2022
3654 Clouds 5 996 59 10000 8.23 240 12:59 21.02.2022
3655 Clouds 5 996 60 10000 10.8 240 12:23 21.02.2022
3656 Clouds 5 996 62 10000 9.77 250 10:45 21.02.2022
3657 Clouds 4 996 70 10000 7.15 257 09:30 21.02.2022
3658 Clouds 4 996 70 10000 7.15 257 09:30 21.02.2022
3659 Clouds 7 993 83 10000 10.8 270 02:58 21.02.2022
3660 Clouds 9 995 82 10000 8.23 220 23:29 20.02.2022
3661 Clouds 9 995 81 10000 7.72 220 22:19 20.02.2022
3662 Clouds 9 996 86 10000 7.72 220 21:42 20.02.2022
3663 Clouds 8 997 82 10000 7.2 220 20:52 20.02.2022
3664 Clouds 8 997 82 10000 7.2 230 20:23 20.02.2022
3665 Clouds 9 997 82 10000 7.2 230 19:30 20.02.2022
3666 Clouds 9 998 81 10000 7.2 230 18:49 20.02.2022
3667 Clouds 9 998 86 10000 8.23 240 18:31 20.02.2022
3668 Clouds 9 998 77 10000 7.72 240 17:34 20.02.2022
3669 Clouds 9 999 81 10000 7.2 240 15:31 20.02.2022
3670 Clouds 8 999 84 10000 7.2 230 14:41 20.02.2022
3671 Clouds 7 1000 84 10000 7.2 230 13:23 20.02.2022
3672 Clouds 6 1000 87 10000 6.69 210 12:22 20.02.2022
3673 Clouds 5 1002 78 10000 4.63 230 10:21 20.02.2022
3674 Clouds 5 1002 68 10000 7.2 240 09:53 20.02.2022
3675 Clouds 4 1002 88 10000 4.63 290 07:45 20.02.2022
3676 Clouds 3 1001 80 10000 4.63 180 00:54 20.02.2022
3677 Clouds 4 1001 86 10000 4.12 200 00:29 20.02.2022
3678 Clouds 5 1002 66 10000 5.66 220 22:44 19.02.2022
3679 Clouds 5 1003 58 10000 6.69 220 22:21 19.02.2022
3680 Clouds 6 1003 53 10000 5.66 230 20:51 19.02.2022
3681 Clear 6 1003 51 10000 5.14 240 19:48 19.02.2022
3682 Clear 6 1003 58 10000 4.63 250 19:25 19.02.2022
3683 Clear 6 1004 54 10000 5.14 250 18:32 19.02.2022
3684 Clear 6 1004 51 10000 6.17 260 17:33 19.02.2022
3685 Clouds 7 1004 51 10000 9.77 250 16:22 19.02.2022
3686 Clouds 7 1004 59 10000 10.8 260 14:56 19.02.2022
3687 Clouds 6 1004 60 10000 10.8 260 14:37 19.02.2022
3688 Clouds 6 1003 57 10000 11.32 260 12:50 19.02.2022
3689 Clouds 6 1003 57 10000 10.29 260 11:36 19.02.2022
3690 Clouds 5 1001 57 10000 10.8 260 09:36 19.02.2022
3691 Clouds 4 999 61 10000 12.35 260 06:54 19.02.2022
3692 Clouds 7 997 41 10000 16.46 260 02:52 19.02.2022
3693 Clouds 7 995 46 10000 13.38 250 23:28 18.02.2022
3694 Clouds 7 994 52 10000 14.4 260 21:49 18.02.2022
3695 Clouds 7 993 50 10000 15.95 250 20:42 18.02.2022
3696 Clear 10 993 42 10000 12.35 250 19:52 18.02.2022
3697 Clouds 10 993 54 10000 6.26 0 18:50 18.02.2022
3698 Clouds 10 997 58 10000 8.49 357 18:20 18.02.2022
3699 Clouds 12 993 59 10000 9.26 220 17:38 18.02.2022
3700 Clouds 10 996 76 10000 6.69 200 14:50 18.02.2022
3701 Clouds 8 997 79 10000 3.6 170 13:55 18.02.2022
3702 Clouds 7 998 79 9000 3.6 140 12:53 18.02.2022
3703 Clouds 7 999 74 10000 3.09 140 11:58 18.02.2022
3704 Clear 7 999 64 10000 3.6 140 11:22 18.02.2022
3705 Clouds 6 1001 62 10000 4.63 200 09:52 18.02.2022
3706 Clouds 5 1002 78 10000 3.6 250 06:56 18.02.2022
3707 Clouds 5 1002 77 10000 4.63 240 05:39 18.02.2022
3708 Clouds 6 1002 58 10000 8.23 270 23:24 17.02.2022
3709 Clouds 7 1001 57 10000 9.77 280 21:45 17.02.2022
3710 Clouds 6 1001 51 10000 8.23 280 21:19 17.02.2022
3711 Clouds 6 1001 53 10000 9.77 270 20:37 17.02.2022
3712 Clouds 6 1000 54 10000 8.23 270 19:48 17.02.2022
3713 Clouds 7 1000 50 10000 8.75 280 18:41 17.02.2022
3714 Clouds 7 999 49 10000 10.8 270 17:50 17.02.2022
3715 Clear 9 998 42 10000 12.35 280 16:29 17.02.2022
3716 Clouds 9 998 44 10000 13.89 270 15:32 17.02.2022
3717 Clouds 9 997 44 10000 13.38 280 14:26 17.02.2022
3718 Clouds 9 997 44 10000 13.89 280 12:36 17.02.2022
3719 Clouds 9 996 46 10000 14.4 280 11:23 17.02.2022
3720 Clouds 9 996 46 10000 14.4 280 11:23 17.02.2022
3721 Clouds 9 994 52 10000 15.43 280 08:52 17.02.2022
3722 Clouds 10 991 85 10000 13.89 300 02:26 17.02.2022
3723 Clouds 12 991 86 10000 9.26 230 23:21 16.02.2022
3724 Clouds 11 992 84 10000 7.2 220 21:40 16.02.2022
3725 Clouds 12 994 76 10000 6.69 240 19:47 16.02.2022
3726 Clouds 11 995 81 10000 6.17 230 18:39 16.02.2022
3727 Clouds 11 995 86 10000 6.17 230 17:53 16.02.2022
3728 Drizzle 10 995 81 2700 7.2 240 15:39 16.02.2022
3729 Clouds 10 995 79 10000 8.23 240 15:19 16.02.2022
3730 Clouds 10 995 62 10000 7.72 230 13:28 16.02.2022
3731 Clouds 9 996 61 10000 8.75 220 12:19 16.02.2022
3732 Drizzle 8 996 76 10000 9.26 220 11:26 16.02.2022
3733 Clouds 8 997 60 10000 7.2 210 10:33 16.02.2022
3734 Clouds 7 1010 63 10000 7.72 210 08:20 16.02.2022
3735 Clouds 6 1011 83 10000 7.2 220 06:29 16.02.2022
3736 Clouds 7 1013 61 10000 7.72 220 23:45 15.02.2022
3737 Clouds 7 1014 57 10000 5.66 220 22:30 15.02.2022
3738 Clouds 7 1014 58 10000 7.2 220 21:47 15.02.2022
3739 Clouds 7 1014 65 10000 6.17 210 21:27 15.02.2022
3740 Clouds 7 1014 60 10000 4.63 200 20:56 15.02.2022
3741 Clear 6 1014 67 10000 5.14 230 19:57 15.02.2022
3742 Clouds 6 1014 60 10000 4.12 220 19:21 15.02.2022
3743 Clouds 7 1015 61 10000 4.12 240 18:23 15.02.2022
3744 Clouds 7 1015 60 10000 3.09 240 17:50 15.02.2022
3745 Clouds 8 1015 60 10000 4.12 250 17:19 15.02.2022
3746 Clouds 9 1015 67 10000 5.14 260 15:30 15.02.2022
3747 Clouds 9 1015 66 10000 6.69 250 13:28 15.02.2022
3748 Clouds 9 1015 67 10000 3.13 0 12:53 15.02.2022
3749 Clouds 9 1015 59 10000 6.17 250 11:40 15.02.2022
3750 Clouds 7 1015 64 10000 4.63 250 09:47 15.02.2022
3751 Clouds 6 1014 67 10000 4.63 230 06:59 15.02.2022
3752 Clouds 6 1014 62 10000 4.63 230 05:32 15.02.2022
3753 Clouds 7 1013 59 10000 3.6 220 23:34 14.02.2022
3754 Clouds 8 1013 67 10000 3.09 220 21:54 14.02.2022
3755 Clouds 9 1004 53 10000 3.09 220 20:50 14.02.2022
3756 Clouds 9 1004 52 10000 2.57 240 19:45 14.02.2022
3757 Clouds 9 1004 52 10000 2.57 240 19:45 14.02.2022
3758 Clear 9 1012 59 10000 5.14 240 19:26 14.02.2022
3759 Clouds 10 1012 60 10000 4.63 240 18:23 14.02.2022
3760 Clouds 11 1011 58 10000 5.66 230 17:27 14.02.2022
3761 Clouds 12 1011 64 10000 6.69 210 16:26 14.02.2022
3762 Clouds 13 1011 52 10000 6.69 230 14:43 14.02.2022
3763 Clear 13 1011 49 10000 8.23 230 13:34 14.02.2022
3764 Clear 13 1011 51 10000 7.72 220 12:56 14.02.2022
3765 Clear 12 1011 52 10000 5.66 210 11:56 14.02.2022
3766 Clear 11 1011 53 10000 5.66 210 11:37 14.02.2022
3767 Clear 9 1011 54 10000 3.6 170 09:25 14.02.2022
3768 Clear 6 1011 62 10000 3.09 140 07:37 14.02.2022
3769 Clear 6 1011 62 10000 3.09 150 07:19 14.02.2022
3770 Clouds 6 1014 60 10000 4.63 170 22:48 13.02.2022
3771 Clouds 6 1014 60 10000 4.12 170 22:29 13.02.2022
3772 Clouds 6 1014 59 10000 3.09 170 21:48 13.02.2022
3773 Clouds 6 1014 59 10000 3.6 170 20:42 13.02.2022
3774 Clouds 6 1015 67 10000 3.58 144 19:57 13.02.2022
3775 Clouds 6 1015 56 10000 2.68 169 18:58 13.02.2022
3776 Clouds 7 1010 56 10000 2.57 160 18:40 13.02.2022
3777 Clear 8 1016 52 10000 4.63 200 16:53 13.02.2022
3778 Clear 9 1016 46 10000 4.12 200 15:51 13.02.2022
3779 Clear 9 1017 45 10000 5.36 0 14:50 13.02.2022
3780 Clear 8 1017 44 10000 3.13 0 13:27 13.02.2022
3781 Clear 7 1018 44 10000 5.14 210 12:42 13.02.2022
3782 Clear 4 1018 53 10000 5.14 230 10:43 13.02.2022
3783 Clear 4 1018 53 10000 4.02 0 10:23 13.02.2022
3784 Clouds 1 1018 58 10000 0.45 0 08:56 13.02.2022
3785 Clouds 2 1020 61 10000 2.57 200 02:49 13.02.2022
3786 Clouds 2 1020 70 10000 2.06 150 00:32 13.02.2022
3787 Clouds 1 1021 68 10000 2.06 140 22:56 12.02.2022
3788 Clouds 1 1021 73 10000 2.06 140 22:32 12.02.2022
3789 Clouds 1 1021 83 10000 2.06 120 21:18 12.02.2022
3790 Clouds 1 1022 76 10000 2.06 130 20:24 12.02.2022
3791 Clouds 2 1022 58 10000 2.57 140 18:54 12.02.2022
3792 Clouds 2 1022 58 10000 2.57 140 18:36 12.02.2022
3793 Clear 3 1022 59 10000 2.57 160 17:55 12.02.2022
3794 Clear 4 1023 64 10000 3.09 150 16:54 12.02.2022
3795 Clear 5 1023 60 10000 3.09 190 16:18 12.02.2022
3796 Clear 6 1023 58 10000 4.12 150 15:32 12.02.2022
3797 Clear 6 1024 51 10000 3.6 210 14:30 12.02.2022
3798 Clear 5 1025 58 10000 2.57 190 12:26 12.02.2022
3799 Clear 2 1026 72 10000 3.09 170 10:35 12.02.2022
3800 Clear 1 1026 71 10000 2.57 160 09:38 12.02.2022
3801 Clouds -1 1026 84 10000 2.57 170 08:48 12.02.2022
3802 Clouds -1 1026 84 10000 2.57 170 08:48 12.02.2022
3803 Clouds -2 1026 85 10000 2.57 170 07:50 12.02.2022
3804 Clear -2 1026 91 10000 1.03 0 05:33 12.02.2022
3805 Clear -1 1026 85 10000 0 0 02:20 12.02.2022
3806 Clear -1 1026 84 10000 0 0 01:44 12.02.2022
3807 Clear 0 1026 82 10000 2.06 270 22:27 11.02.2022
3808 Clear 0 1026 81 10000 2.57 290 21:45 11.02.2022
3809 Clear 1 1025 81 10000 2.57 290 20:39 11.02.2022
3810 Clear 2 1025 80 10000 3.09 290 19:35 11.02.2022
3811 Clouds 2 1024 81 10000 5.14 300 18:59 11.02.2022
3812 Clouds 3 1024 83 10000 6.17 320 17:41 11.02.2022
3813 Clouds 4 1023 84 10000 5.81 0 17:22 11.02.2022
3814 Clouds 4 1022 88 10000 5.14 320 15:56 11.02.2022
3815 Drizzle 5 1021 94 10000 5.14 330 14:43 11.02.2022
3816 Drizzle 5 1020 90 3800 6.17 300 14:21 11.02.2022
3817 Rain 5 1020 89 6000 5.66 280 13:57 11.02.2022
3818 Drizzle 5 1020 89 6000 5.66 280 13:39 11.02.2022
3819 Rain 4 1020 84 10000 7.72 250 11:41 11.02.2022
3820 Clouds 4 1019 85 10000 5.66 250 09:57 11.02.2022
3821 Clouds 3 1019 83 10000 4.63 240 08:49 11.02.2022
3822 Rain 3 1019 82 10000 3.6 220 08:26 11.02.2022
3823 Clear 2 1019 81 10000 4.63 230 07:18 11.02.2022
3824 Clouds 4 1020 67 10000 2.24 250 02:26 11.02.2022
3825 Clouds 4 1020 83 10000 4.63 240 00:52 11.02.2022
3826 Clear 5 1020 68 10000 4.12 250 22:51 10.02.2022
3827 Clouds 5 1020 68 10000 4.63 250 21:46 10.02.2022
3828 Clouds 6 1020 67 10000 5.14 240 20:59 10.02.2022
3829 Rain 6 1020 67 10000 5.14 240 20:38 10.02.2022
3830 Rain 6 1019 80 10000 3.6 240 19:26 10.02.2022
3831 Clear 6 1019 87 10000 4.12 240 18:46 10.02.2022
3832 Clouds 6 1019 81 10000 4.12 260 17:27 10.02.2022
3833 Clouds 7 1019 81 10000 4.63 260 16:55 10.02.2022
3834 Clouds 7 1019 87 10000 2.68 0 15:51 10.02.2022
3835 Clouds 7 1019 88 10000 2.57 220 15:31 10.02.2022
3836 Clouds 7 1019 81 10000 3.09 310 14:48 10.02.2022
3837 Clouds 7 1019 81 10000 4.63 310 14:24 10.02.2022
3838 Drizzle 7 1019 84 7000 5.14 260 13:29 10.02.2022
3839 Clouds 8 1019 82 9000 5.14 270 12:50 10.02.2022
3840 Clouds 8 1019 70 10000 4.63 240 11:34 10.02.2022
3841 Clouds 8 1019 66 10000 5.14 240 10:56 10.02.2022
3842 Clouds 8 1019 66 10000 4.63 240 10:18 10.02.2022
3843 Clouds 8 1019 70 10000 4.12 230 09:25 10.02.2022
3844 Clouds 7 1019 65 10000 0.51 0 07:36 10.02.2022
3845 Clouds 8 1019 70 10000 2.06 200 05:51 10.02.2022
3846 Clouds 8 1020 71 10000 3.6 230 01:52 10.02.2022
3847 Clouds 8 1020 67 10000 3.09 220 00:50 10.02.2022
3848 Clouds 8 1021 67 10000 3.09 240 00:28 10.02.2022
3849 Clouds 9 1021 67 10000 4.12 240 23:24 09.02.2022
3850 Clouds 9 1021 67 10000 3.6 250 22:36 09.02.2022
3851 Clouds 9 1021 70 10000 4.12 250 21:52 09.02.2022
3852 Clouds 9 1021 70 10000 4.12 250 21:29 09.02.2022
3853 Clouds 9 1021 70 10000 4.63 250 20:48 09.02.2022
3854 Clouds 9 1021 65 10000 4.63 250 20:29 09.02.2022
3855 Clouds 9 1020 64 10000 2.24 0 19:56 09.02.2022
3856 Clouds 9 1021 65 10000 5.66 250 19:32 09.02.2022
3857 Clouds 9 1021 64 10000 6.17 260 17:38 09.02.2022
3858 Clouds 9 1021 64 10000 7.2 260 16:52 09.02.2022
3859 Clouds 10 1021 69 10000 6.69 260 15:52 09.02.2022
3860 Clouds 10 1021 64 10000 7.72 260 14:42 09.02.2022
3861 Clouds 9 1021 66 10000 5.66 260 12:28 09.02.2022
3862 Clouds 9 1021 79 10000 7.2 260 10:55 09.02.2022
3863 Clouds 9 1021 79 10000 7.2 260 10:55 09.02.2022
3864 Clouds 9 1021 79 10000 6.17 250 10:30 09.02.2022
3865 Clouds 9 1021 70 10000 6.17 250 09:40 09.02.2022
3866 Clouds 9 1021 67 10000 5.66 250 09:19 09.02.2022
3867 Clouds 9 1021 66 10000 4.63 250 07:55 09.02.2022
3868 Clouds 9 1022 71 10000 4.63 240 05:30 09.02.2022
3869 Clouds 9 1022 81 10000 6.69 260 03:50 09.02.2022
3870 Clouds 8 1022 90 5000 7.2 260 01:27 09.02.2022
3871 Clouds 9 1022 89 5000 6.69 260 23:34 08.02.2022
3872 Clouds 9 1022 89 10000 6.69 260 22:50 08.02.2022
3873 Clouds 9 1022 87 10000 6.17 260 22:22 08.02.2022
3874 Clouds 9 1022 90 7000 7.2 260 21:50 08.02.2022
3875 Clouds 9 1022 84 10000 6.69 260 21:21 08.02.2022
3876 Drizzle 9 1022 85 4000 6.69 260 20:45 08.02.2022
3877 Drizzle 9 1021 83 6000 6.69 260 19:47 08.02.2022
3878 Clouds 9 1021 83 6000 4.02 0 18:52 08.02.2022
3879 Clouds 9 1021 83 10000 7.2 260 17:50 08.02.2022
3880 Drizzle 9 1021 83 8000 6.69 260 16:34 08.02.2022
3881 Drizzle 9 1020 86 10000 7.72 260 15:30 08.02.2022
3882 Clouds 9 1020 84 10000 8.75 260 14:44 08.02.2022
3883 Clouds 9 1021 78 10000 8.75 260 13:29 08.02.2022
3884 Clouds 9 1021 79 10000 8.75 250 11:55 08.02.2022
3885 Clouds 8 1021 84 10000 8.23 250 10:39 08.02.2022
3886 Drizzle 7 1021 87 10000 8.23 250 09:45 08.02.2022
3887 Drizzle 5 1020 87 9000 5.14 230 08:25 08.02.2022
3888 Clouds 4 1021 87 5000 4.63 230 05:41 08.02.2022
3889 Clouds 5 1021 66 10000 5.36 0 04:39 08.02.2022
3890 Clouds 4 1021 67 10000 6.69 250 04:21 08.02.2022
3891 Clouds 4 1021 67 10000 5.14 240 03:36 08.02.2022
3892 Clouds 4 1021 67 10000 5.14 250 03:18 08.02.2022
3893 Clouds 4 1022 68 10000 4.12 240 02:59 08.02.2022
3894 Clouds 4 1022 68 10000 4.12 240 02:36 08.02.2022
3895 Clouds 4 1022 69 10000 4.12 250 02:18 08.02.2022
3896 Clouds 3 1022 80 10000 4.63 240 01:44 08.02.2022
3897 Clouds 3 1022 86 10000 3.6 240 01:24 08.02.2022
3898 Clouds 3 1022 88 10000 4.12 250 00:55 08.02.2022
3899 Clouds 3 1022 82 10000 3.09 260 23:58 07.02.2022
3900 Clouds 3 1022 82 10000 3.09 260 23:40 07.02.2022
3901 Clouds 3 1022 82 10000 3.09 270 23:18 07.02.2022
3902 Clouds 3 1022 81 10000 4.12 270 22:56 07.02.2022
3903 Clouds 3 1022 82 10000 4.63 270 22:18 07.02.2022
3904 Clouds 3 1022 81 10000 5.14 280 21:47 07.02.2022
3905 Clouds 3 1021 82 10000 4.63 270 21:26 07.02.2022
3906 Clouds 4 1021 83 10000 3.6 270 20:41 07.02.2022
3907 Clouds 3 1021 82 10000 3.6 280 20:18 07.02.2022
3908 Clouds 3 1021 83 10000 5.14 290 19:46 07.02.2022
3909 Clouds 3 1020 91 10000 3.13 357 18:24 07.02.2022
3910 Rain 3 1020 86 10000 6.17 280 16:53 07.02.2022
3911 Clouds 4 1020 84 10000 7.2 300 16:21 07.02.2022
3912 Clouds 4 1020 68 10000 9.77 310 15:48 07.02.2022
3913 Rain 6 1018 69 10000 7.72 290 13:39 07.02.2022
3914 Clouds 6 1018 68 10000 8.23 290 13:21 07.02.2022
3915 Clouds 6 1018 62 10000 3.58 0 11:58 07.02.2022
3916 Clouds 5 1018 63 10000 5.36 0 11:38 07.02.2022
3917 Clouds 5 1017 77 10000 2.68 0 10:53 07.02.2022
3918 Clouds 4 1017 79 10000 2.68 0 10:33 07.02.2022
3919 Clouds 4 1016 85 10000 5.36 0 09:53 07.02.2022
3920 Clouds 3 1016 85 10000 2.68 0 09:18 07.02.2022
3921 Clouds 3 1015 84 10000 5.36 342 08:44 07.02.2022
3922 Clouds 3 1014 84 10000 3.13 305 07:34 07.02.2022
3923 Clouds 2 1013 85 7000 5.81 0 06:34 07.02.2022
3924 Clouds 2 1011 82 10000 5.36 0 04:18 07.02.2022
3925 Clouds 3 1009 83 10000 4.92 288 00:54 07.02.2022
3926 Clouds 3 1008 82 10000 5.81 284 23:50 06.02.2022
3927 Clouds 4 1008 82 10000 5.81 272 23:19 06.02.2022
3928 Clouds 4 1008 83 10000 4.47 279 22:38 06.02.2022
3929 Clouds 4 1007 89 10000 4.02 256 21:37 06.02.2022
3930 Rain 4 1007 82 10000 6.26 293 20:58 06.02.2022
3931 Rain 5 1007 81 10000 5.36 0 20:37 06.02.2022
3932 Clouds 5 1008 83 10000 4.92 241 19:50 06.02.2022
3933 Clouds 5 1008 90 10000 4.47 0 18:52 06.02.2022
3934 Clouds 5 1008 91 10000 5.36 0 18:27 06.02.2022
3935 Clouds 4 1007 85 10000 4.47 254 17:29 06.02.2022
3936 Clouds 5 1007 84 9000 4.47 262 16:50 06.02.2022
3937 Rain 6 1007 89 10000 7.6 0 15:51 06.02.2022
3938 Rain 6 1007 81 10000 4.92 0 15:28 06.02.2022
3939 Rain 6 1007 83 10000 5.36 0 14:59 06.02.2022
3940 Drizzle 7 1008 80 10000 4.47 0 13:59 06.02.2022
3941 Clouds 7 1009 80 10000 7.6 0 13:20 06.02.2022
3942 Clouds 7 1010 81 10000 5.36 0 12:19 06.02.2022
3943 Rain 6 1011 88 10000 6.71 0 10:33 06.02.2022
3944 Rain 6 1011 84 10000 5.36 0 09:43 06.02.2022
3945 Rain 6 1011 88 10000 5.81 0 08:41 06.02.2022
3946 Rain 5 1012 85 10000 5.36 0 06:34 06.02.2022
3947 Rain 5 1013 83 10000 4.47 0 05:28 06.02.2022
3948 Rain 5 1015 81 10000 6.71 234 02:25 06.02.2022
3949 Clouds 5 1015 65 10000 5.81 0 00:33 06.02.2022
3950 Clouds 6 1016 64 10000 5.36 0 23:39 05.02.2022
3951 Clouds 6 1017 68 10000 6.26 0 21:47 05.02.2022
3952 Clouds 6 1017 62 10000 4.47 0 20:47 05.02.2022
3953 Clouds 6 1017 62 10000 4.47 0 20:22 05.02.2022
3954 Clouds 5 1018 61 10000 5.36 0 19:42 05.02.2022
3955 Clouds 5 1018 68 10000 4.47 0 18:37 05.02.2022
3956 Clouds 5 1018 64 10000 3.13 0 17:35 05.02.2022
3957 Clouds 6 1018 67 10000 4.02 0 16:20 05.02.2022
3958 Clouds 6 1018 61 10000 4.92 0 15:31 05.02.2022
3959 Clouds 6 1018 60 10000 5.81 0 13:55 05.02.2022
3960 Clouds 6 1018 68 10000 5.36 0 12:46 05.02.2022
3961 Clouds 6 1018 64 10000 5.81 0 11:47 05.02.2022
3962 Clouds 4 1018 65 10000 4.47 274 10:44 05.02.2022
3963 Clouds 4 1018 64 10000 4.47 0 09:51 05.02.2022
3964 Clouds 4 1018 78 10000 5.36 0 08:51 05.02.2022
3965 Clouds 4 1017 77 10000 4.02 0 07:27 05.02.2022
3966 Clouds 4 1017 77 10000 5.36 0 06:55 05.02.2022
3967 Clouds 4 1016 67 10000 5.81 0 02:43 05.02.2022
3968 Clouds 4 1015 81 10000 4.92 0 01:18 05.02.2022
3969 Clouds 4 1015 81 10000 4.92 292 00:36 05.02.2022
3970 Clouds 3 1014 90 10000 4.47 297 23:33 04.02.2022
3971 Clouds 3 1014 86 10000 6.26 289 22:55 04.02.2022
3972 Rain 3 1013 85 10000 4.92 301 21:36 04.02.2022
3973 Rain 3 1013 84 10000 6.26 278 21:18 04.02.2022
3974 Clouds 5 1011 81 10000 9.39 0 20:40 04.02.2022
3975 Rain 7 1011 67 10000 6.71 0 19:29 04.02.2022
3976 Clouds 8 1012 64 10000 4.02 0 16:56 04.02.2022
3977 Clouds 8 1012 65 10000 4.02 0 15:34 04.02.2022
3978 Clouds 8 1013 65 10000 2.24 0 14:51 04.02.2022
3979 Clouds 8 1014 70 10000 4.02 0 12:43 04.02.2022
3980 Clouds 8 1014 66 10000 4.47 0 11:46 04.02.2022
3981 Clouds 7 1014 72 10000 4.02 0 11:18 04.02.2022
3982 Clouds 7 1015 68 10000 3.13 0 10:30 04.02.2022
3983 Clouds 6 1015 81 10000 2.68 0 08:33 04.02.2022
3984 Clouds 6 1015 83 10000 3.13 0 04:53 04.02.2022
3985 Clouds 6 1015 83 10000 2.24 0 02:39 04.02.2022
3986 Clouds 6 1016 83 10000 1.34 0 00:26 04.02.2022
3987 Clouds 6 1016 83 10000 2.24 0 22:55 03.02.2022
3988 Clouds 6 1016 83 10000 2.24 0 22:22 03.02.2022
3989 Clouds 6 1016 84 10000 2.24 0 21:41 03.02.2022
3990 Rain 6 1016 89 10000 1.34 0 20:26 03.02.2022
3991 Clouds 6 1016 90 10000 0.45 0 19:57 03.02.2022
3992 Clouds 7 1016 89 10000 2.24 0 19:26 03.02.2022
3993 Clouds 7 1016 88 8000 1.79 0 18:26 03.02.2022
3994 Clouds 7 1016 88 10000 2.24 0 17:27 03.02.2022
3995 Clouds 8 1017 88 10000 0.45 0 15:44 03.02.2022
3996 Clouds 8 1017 87 10000 1.79 0 14:26 03.02.2022
3997 Rain 7 1018 90 10000 1.34 0 12:37 03.02.2022
3998 Rain 6 1018 88 10000 0.89 0 09:29 03.02.2022
3999 Rain 5 1018 88 10000 0.89 0 08:19 03.02.2022
4000 Clouds 3 1020 80 10000 0.45 0 03:28 03.02.2022
4001 Clouds 2 1020 89 10000 0.89 208 00:30 03.02.2022
4002 Clouds 2 1020 81 10000 0.45 226 22:47 02.02.2022
4003 Clouds 2 1020 87 10000 1.54 270 21:53 02.02.2022
4004 Clouds 2 1020 79 10000 0.45 0 21:29 02.02.2022
4005 Clouds 3 1020 79 10000 0.89 359 20:33 02.02.2022
4006 Clear 3 1020 64 10000 2.24 280 19:51 02.02.2022
4007 Clouds 3 1020 60 10000 2.24 293 19:20 02.02.2022
4008 Clouds 4 1019 82 10000 1.34 327 18:27 02.02.2022
4009 Clear 5 1019 61 10000 3.13 295 17:38 02.02.2022
4010 Clear 5 1019 60 10000 2.68 305 17:19 02.02.2022
4011 Clouds 5 1018 62 10000 4.92 0 16:30 02.02.2022
4012 Clouds 6 1017 64 10000 5.81 0 12:54 02.02.2022
4013 Clouds 6 1016 56 10000 5.36 0 12:18 02.02.2022
4014 Clouds 6 1016 59 10000 3.58 0 11:31 02.02.2022
4015 Clouds 5 1015 83 10000 6.26 0 09:46 02.02.2022
4016 Clouds 5 1014 67 10000 6.26 0 07:32 02.02.2022
4017 Rain 6 1012 80 10000 4.47 0 22:46 01.02.2022
4018 Clouds 6 1011 87 10000 6.26 0 21:36 01.02.2022
4019 Rain 6 1011 84 10000 5.36 0 19:58 01.02.2022
4020 Drizzle 6 1011 90 10000 6.26 0 17:41 01.02.2022
4021 Drizzle 5 1011 89 6000 6.26 0 16:36 01.02.2022
4022 Mist 4 1013 86 3400 4.92 0 13:32 01.02.2022
4023 Mist 4 1014 83 4200 5.36 0 12:42 01.02.2022
4024 Clear 4 1016 66 10000 4.47 0 11:20 01.02.2022
4025 Clouds 2 1017 86 10000 0.89 255 02:34 01.02.2022
4026 Clouds 2 1017 91 10000 1.34 313 23:41 31.01.2022
4027 Clouds 2 1017 91 10000 1.34 308 22:57 31.01.2022
4028 Clouds 2 1016 95 10000 1.34 329 21:39 31.01.2022
4029 Clouds 2 1016 90 10000 1.79 329 21:19 31.01.2022
4030 Rain 2 1015 95 10000 1.34 325 20:29 31.01.2022
4031 Clouds 2 1014 88 10000 2.24 320 19:29 31.01.2022
4032 Clouds 2 1014 88 10000 0.89 351 18:26 31.01.2022
4033 Clouds 2 1013 88 10000 1.54 320 17:33 31.01.2022
4034 Mist 2 1012 88 5000 1.54 330 16:29 31.01.2022
4035 Mist 3 1012 87 2500 0.45 25 14:54 31.01.2022
4036 Mist 3 1011 87 5000 0.89 17 14:22 31.01.2022
4037 Mist 3 1011 87 5000 0 0 12:39 31.01.2022
4038 Clouds 3 1020 85 10000 4.47 266 11:55 31.01.2022
4039 Snow 2 1011 92 5000 1.03 0 10:50 31.01.2022
4040 Mist 2 1011 92 5000 1.03 0 10:50 31.01.2022
4041 Snow 2 1011 87 2000 1.54 160 10:25 31.01.2022
4042 Snow 1 1011 86 2600 0.45 174 09:26 31.01.2022
4043 Snow 1 1011 86 5000 1.34 169 08:50 31.01.2022
4044 Rain 1 1012 83 10000 1.34 179 08:20 31.01.2022
4045 Rain 3 1013 64 10000 0.89 0 06:18 31.01.2022
4046 Clouds 3 1019 63 10000 1.79 261 00:55 31.01.2022
4047 Clouds 4 1020 70 10000 2.68 251 23:18 30.01.2022
4048 Clouds 4 1020 62 10000 2.68 0 22:29 30.01.2022
4049 Clouds 4 1020 69 10000 3.58 0 21:42 30.01.2022
4050 Clouds 4 1020 68 10000 2.68 0 21:19 30.01.2022
4051 Clouds 5 1020 67 10000 3.13 0 20:47 30.01.2022
4052 Clouds 5 1020 61 10000 4.47 0 20:28 30.01.2022
4053 Clouds 5 1020 60 10000 3.13 0 19:52 30.01.2022
4054 Clouds 5 1020 60 10000 4.02 0 18:44 30.01.2022
4055 Clouds 5 1021 61 10000 4.02 0 18:20 30.01.2022
4056 Clouds 5 1020 58 10000 5.81 0 17:27 30.01.2022
4057 Clouds 6 1020 58 10000 5.36 0 16:40 30.01.2022
4058 Clouds 6 1020 58 10000 5.36 0 16:40 30.01.2022
4059 Clouds 6 1020 57 10000 4.92 0 16:22 30.01.2022
4060 Clouds 6 1020 56 10000 7.15 0 15:51 30.01.2022
4061 Clouds 6 1020 56 10000 5.36 358 15:32 30.01.2022
4062 Clouds 6 1020 63 10000 7.6 0 14:46 30.01.2022
4063 Clouds 6 1020 63 10000 5.36 0 12:54 30.01.2022
4064 Clouds 6 1020 64 10000 7.6 0 12:33 30.01.2022
4065 Clouds 6 1020 59 10000 6.26 0 10:36 30.01.2022
4066 Clouds 5 1019 62 10000 4.92 0 09:56 30.01.2022
4067 Clouds 5 1019 71 10000 7.6 0 08:58 30.01.2022
4068 Clouds 4 1019 73 10000 8.05 0 07:56 30.01.2022
4069 Clouds 6 1018 67 10000 8.94 0 02:42 30.01.2022
4070 Clouds 6 1018 74 10000 8.05 0 01:39 30.01.2022
4071 Clouds 7 1017 65 10000 7.15 0 23:30 29.01.2022
4072 Clouds 7 1017 64 10000 7.15 0 22:34 29.01.2022
4073 Rain 7 1017 72 10000 7.15 0 21:27 29.01.2022
4074 Clouds 8 1017 79 10000 8.94 0 20:38 29.01.2022
4075 Clouds 9 1016 70 10000 5.81 0 19:47 29.01.2022
4076 Clouds 9 1016 80 10000 5.81 0 19:25 29.01.2022
4077 Clouds 10 1016 80 10000 8.05 0 18:32 29.01.2022
4078 Clouds 9 1016 84 10000 6.26 0 17:41 29.01.2022
4079 Mist 9 1016 84 5000 5.81 0 16:42 29.01.2022
4080 Clouds 9 1017 80 10000 8.05 0 14:52 29.01.2022
4081 Clouds 9 1017 79 10000 5.81 0 13:46 29.01.2022
4082 Clouds 9 1018 81 10000 6.26 0 13:26 29.01.2022
4083 Clouds 8 1018 87 10000 6.26 0 12:40 29.01.2022
4084 Clouds 8 1019 82 10000 6.26 0 11:38 29.01.2022
4085 Clouds 7 1019 82 10000 4.92 0 10:25 29.01.2022
4086 Clouds 6 1020 85 10000 4.47 0 07:24 29.01.2022
4087 Clouds 4 1023 68 10000 3.58 0 01:35 29.01.2022
4088 Clouds 4 1024 67 10000 4.02 0 00:31 29.01.2022
4089 Clouds 4 1024 67 10000 2.68 0 23:22 28.01.2022
4090 Clouds 4 1024 66 10000 0.89 0 22:42 28.01.2022
4091 Clouds 3 1024 67 10000 0.89 0 22:18 28.01.2022
4092 Clouds 4 1025 66 10000 2.24 0 20:40 28.01.2022
4093 Clouds 4 1025 73 10000 2.24 0 19:53 28.01.2022
4094 Clouds 4 1025 74 10000 2.24 0 18:51 28.01.2022
4095 Clouds 4 1025 65 10000 0.89 0 17:52 28.01.2022
4096 Clouds 6 1024 61 10000 4.47 0 15:46 28.01.2022
4097 Clouds 6 1024 60 10000 4.47 0 14:20 28.01.2022
4098 Clouds 6 1024 68 10000 4.02 0 12:40 28.01.2022
4099 Clouds 5 1024 64 10000 5.36 0 11:38 28.01.2022
4100 Clouds 5 1024 64 10000 5.36 0 11:38 28.01.2022
4101 Clouds 4 1023 67 10000 4.02 0 10:26 28.01.2022
4102 Clouds 4 1023 65 10000 4.47 358 09:45 28.01.2022
4103 Clouds 3 1022 83 10000 5.36 327 07:40 28.01.2022
4104 Clouds 4 1021 86 6000 4.02 0 05:30 28.01.2022
4105 Clouds 4 1020 66 10000 5.36 0 03:48 28.01.2022
4106 Clouds 4 1020 64 10000 6.26 0 02:24 28.01.2022
4107 Clouds 4 1020 89 10000 5.36 0 01:35 28.01.2022
4108 Clouds 4 1020 70 10000 3.58 0 00:33 28.01.2022
4109 Clouds 5 1019 83 10000 5.81 0 21:58 27.01.2022
4110 Clouds 5 1019 83 10000 5.36 0 21:34 27.01.2022
4111 Clouds 5 1019 83 10000 5.36 0 21:34 27.01.2022
4112 Rain 5 1018 88 10000 3.58 0 20:58 27.01.2022
4113 Clouds 6 1018 82 10000 5.36 0 19:36 27.01.2022
4114 Clouds 6 1018 84 10000 5.36 0 17:58 27.01.2022
4115 Clouds 6 1018 86 10000 4.02 0 16:45 27.01.2022
4116 Clouds 5 1018 89 10000 6.26 0 13:48 27.01.2022
4117 Clouds 5 1018 90 6000 5.36 0 12:48 27.01.2022
4118 Mist 4 1019 86 2800 5.81 0 11:24 27.01.2022
4119 Clouds 3 1019 81 6000 7.6 249 09:47 27.01.2022
4120 Clouds 3 1020 89 10000 7.15 248 08:39 27.01.2022
4121 Clouds 3 1020 67 10000 5.36 246 07:23 27.01.2022
4122 Clouds 3 1021 85 10000 4.92 293 02:59 27.01.2022
4123 Clouds 3 1022 91 5000 4.02 259 00:23 27.01.2022
4124 Clouds 3 1023 86 10000 2.68 285 22:27 26.01.2022
4125 Clouds 3 1023 87 6000 3.13 246 21:42 26.01.2022
4126 Clouds 2 1023 89 4200 4.02 246 20:43 26.01.2022
4127 Clouds 2 1023 89 4900 4.02 254 20:24 26.01.2022
4128 Clouds 2 1023 93 4100 4.47 282 19:30 26.01.2022
4129 Clouds 2 1023 93 4700 3.13 339 18:46 26.01.2022
4130 Mist 2 1023 93 4400 4.92 258 17:53 26.01.2022
4131 Drizzle 2 1023 93 4400 3.13 256 17:32 26.01.2022
4132 Drizzle 2 1023 86 3000 4.47 267 16:46 26.01.2022
4133 Mist 2 1024 83 3600 4.02 354 15:56 26.01.2022
4134 Mist 2 1024 90 4700 4.02 251 14:30 26.01.2022
4135 Drizzle 2 1025 90 4500 2.24 290 12:18 26.01.2022
4136 Drizzle 2 1024 85 6000 3.13 269 10:50 26.01.2022
4137 Clouds 2 1024 85 7000 4.47 295 09:52 26.01.2022
4138 Clouds 2 1024 87 10000 2.24 308 08:46 26.01.2022
4139 Clouds 2 1025 87 8000 2.68 324 06:28 26.01.2022
4140 Clouds 2 1025 87 8000 2.68 324 06:28 26.01.2022
4141 Clouds 2 1025 87 8000 2.68 324 06:28 26.01.2022
4142 Clouds 2 1025 87 8000 2.68 324 06:28 26.01.2022
4143 Clouds 3 1025 85 7000 0.45 256 00:21 26.01.2022
4144 Clouds 3 1025 87 6000 1.34 248 23:37 25.01.2022
4145 Clouds 3 1025 87 5000 3.09 250 22:48 25.01.2022
4146 Clouds 3 1025 87 5000 2.57 260 22:18 25.01.2022
4147 Clouds 3 1025 93 6000 0.45 243 21:27 25.01.2022
4148 Clouds 3 1025 86 6000 0.89 261 20:45 25.01.2022
4149 Drizzle 3 1026 86 6000 1.34 293 19:54 25.01.2022
4150 Drizzle 3 1026 86 6000 0.45 257 19:23 25.01.2022
4151 Drizzle 4 1026 84 5000 1.34 340 17:56 25.01.2022
4152 Clouds 4 1026 83 7000 1.34 261 17:20 25.01.2022
4153 Clouds 4 1026 89 9000 2.24 0 16:34 25.01.2022
4154 Clouds 4 1025 71 10000 2.24 0 15:39 25.01.2022
4155 Clouds 4 1026 71 10000 2.24 0 15:19 25.01.2022
4156 Clouds 5 1026 67 10000 2.68 0 14:51 25.01.2022
4157 Clouds 4 1026 84 7000 0.89 267 12:20 25.01.2022
4158 Clouds 3 1026 69 10000 2.24 0 09:25 25.01.2022
4159 Clouds 3 1026 86 7000 0.89 0 07:52 25.01.2022
4160 Clouds 3 1026 87 7000 0.45 0 07:20 25.01.2022
4161 Clouds 4 1026 92 10000 1.34 0 05:23 25.01.2022
4162 Clouds 4 1027 87 10000 0.89 0 00:35 25.01.2022
4163 Clouds 4 1027 91 10000 1.79 0 23:36 24.01.2022
4164 Clouds 4 1027 91 10000 0.89 0 23:18 24.01.2022
4165 Clouds 4 1027 88 10000 0.89 0 22:42 24.01.2022
4166 Clouds 4 1026 90 10000 1.34 0 22:23 24.01.2022
4167 Clouds 5 1026 90 10000 0.45 0 21:42 24.01.2022
4168 Clouds 5 1026 89 10000 0.89 0 21:24 24.01.2022
4169 Clouds 5 1027 87 10000 1.34 0 20:27 24.01.2022
4170 Clouds 5 1027 89 10000 0.89 0 19:38 24.01.2022
4171 Clouds 5 1026 88 10000 0.89 0 18:50 24.01.2022
4172 Clouds 5 1026 92 10000 3.6 270 17:39 24.01.2022
4173 Clouds 5 1026 92 10000 1.34 0 17:21 24.01.2022
4174 Clouds 6 1026 89 10000 0.89 0 16:31 24.01.2022
4175 Clouds 6 1026 90 10000 2.57 250 15:25 24.01.2022
4176 Mist 6 1027 92 4500 0.45 0 13:59 24.01.2022
4177 Mist 6 1027 94 3500 0 0 12:34 24.01.2022
4178 Mist 6 1027 92 4100 1.54 130 11:41 24.01.2022
4179 Mist 6 1027 92 3100 0 0 10:19 24.01.2022
4180 Mist 5 1027 92 2300 0.51 0 09:45 24.01.2022
4181 Mist 5 1027 94 4800 0 0 08:18 24.01.2022
4182 Clouds 6 1020 94 10000 1.07 288 02:26 24.01.2022
4183 Clouds 6 1020 94 10000 1.27 274 01:26 24.01.2022
4184 Clouds 6 1020 93 10000 1.41 268 00:31 24.01.2022
4185 Clouds 6 1020 93 10000 0.45 0 23:40 23.01.2022
4186 Clouds 6 1020 96 10000 0.45 0 22:20 23.01.2022
4187 Clouds 6 1020 94 10000 0.45 0 21:40 23.01.2022
4188 Clouds 6 1020 94 10000 1.79 0 21:20 23.01.2022
4189 Clouds 6 1020 94 10000 0.45 0 20:22 23.01.2022
4190 Mist 6 1027 95 2800 0.45 0 18:56 23.01.2022
4191 Mist 6 1027 97 3900 0.45 0 18:24 23.01.2022
4192 Clouds 6 1027 94 5000 0.89 0 17:19 23.01.2022
4193 Clouds 6 1027 97 3600 1.79 0 15:59 23.01.2022
4194 Clouds 7 1027 95 7000 1.34 0 14:52 23.01.2022
4195 Mist 7 1027 91 3200 1.79 0 14:18 23.01.2022
4196 Mist 6 1027 94 3100 1.79 0 12:46 23.01.2022
4197 Mist 6 1027 94 4800 1.34 0 12:20 23.01.2022
4198 Drizzle 6 1027 95 4000 2.24 0 11:26 23.01.2022
4199 Drizzle 5 1027 96 2300 2.24 0 10:58 23.01.2022
4200 Drizzle 5 1027 94 3400 2.24 0 10:25 23.01.2022
4201 Drizzle 5 1026 93 4000 2.24 0 09:32 23.01.2022
4202 Clouds 5 1020 93 10000 0.89 0 08:50 23.01.2022
4203 Clouds 5 1020 90 10000 2.24 0 03:59 23.01.2022
4204 Clouds 5 1020 91 10000 1.34 0 01:40 23.01.2022
4205 Clouds 5 1020 93 10000 0.89 0 00:47 23.01.2022
4206 Clouds 5 1020 96 10000 1.34 0 00:22 23.01.2022
4207 Clouds 5 1020 90 10000 1.79 0 23:18 22.01.2022
4208 Clouds 5 1020 90 10000 0.89 0 22:33 22.01.2022
4209 Clouds 5 1020 93 10000 2.24 0 21:18 22.01.2022
4210 Clouds 5 1020 93 10000 0.89 0 19:46 22.01.2022
4211 Clouds 6 1020 96 10000 2.68 0 18:43 22.01.2022
4212 Clouds 6 1025 94 10000 2.24 0 17:56 22.01.2022
4213 Clouds 6 1025 94 10000 1.79 0 17:35 22.01.2022
4214 Clouds 6 1024 96 10000 2.68 0 16:55 22.01.2022
4215 Clouds 6 1024 94 5000 2.24 0 15:49 22.01.2022
4216 Clouds 7 1024 91 10000 2.68 0 14:57 22.01.2022
4217 Clouds 6 1020 94 7689 0.89 0 13:36 22.01.2022
4218 Clouds 6 1024 91 10000 2.68 0 12:48 22.01.2022
4219 Clouds 6 1024 91 10000 2.68 0 12:28 22.01.2022
4220 Drizzle 6 1024 94 2200 0.89 0 10:56 22.01.2022
4221 Clouds 6 1024 94 8000 2.24 0 10:28 22.01.2022
4222 Drizzle 6 1024 92 2200 1.34 0 09:57 22.01.2022
4223 Clouds 6 1020 92 10000 1.34 0 08:51 22.01.2022
4224 Clouds 6 1020 91 10000 0.89 0 07:34 22.01.2022
4225 Clouds 6 1020 94 10000 2.68 0 04:52 22.01.2022
4226 Clouds 6 1020 94 10000 2.68 0 04:52 22.01.2022
4227 Clouds 5 1020 94 5057 4.02 0 01:34 22.01.2022
4228 Clouds 5 1020 90 6674 4.02 0 23:35 21.01.2022
4229 Clouds 5 1020 91 10000 5.36 0 22:27 21.01.2022
4230 Mist 4 1023 87 4300 3.13 336 20:22 21.01.2022
4231 Clouds 3 1023 89 10000 2.68 355 18:39 21.01.2022
4232 Clouds 3 1023 83 10000 2.24 324 17:28 21.01.2022
4233 Clouds 3 1023 68 10000 3.58 0 15:30 21.01.2022
4234 Clouds 3 1024 68 10000 4.02 0 13:37 21.01.2022
4235 Clouds 3 1024 82 10000 4.47 0 12:38 21.01.2022
4236 Clouds 2 1020 70 10000 4.02 0 11:28 21.01.2022
4237 Clouds 1 1023 88 10000 2.68 0 10:19 21.01.2022
4238 Clouds 0 1020 84 10000 3.58 276 08:24 21.01.2022
4239 Clouds 0 1020 83 10000 2.68 268 06:57 21.01.2022
4240 Clear -1 1020 72 10000 2.24 299 23:36 20.01.2022
4241 Clear -1 1020 78 10000 1.34 307 22:41 20.01.2022
4242 Clear -1 1020 77 10000 2.24 302 21:43 20.01.2022
4243 Clear 0 1020 72 10000 3.13 299 20:53 20.01.2022
4244 Clouds 0 1020 73 10000 4.02 294 19:20 20.01.2022
4245 Clouds 0 1020 84 6000 3.58 305 18:50 20.01.2022
4246 Clouds 0 1020 70 8537 4.02 292 17:29 20.01.2022
4247 Clouds 1 1020 78 5000 4.02 293 15:44 20.01.2022
4248 Snow 1 1020 81 4200 4.02 317 15:22 20.01.2022
4249 Clouds 2 1020 68 10000 5.36 286 13:42 20.01.2022
4250 Clouds 2 1020 72 10000 3.58 349 12:35 20.01.2022
4251 Clouds 2 1020 66 10000 4.47 284 11:57 20.01.2022
4252 Clouds 2 1023 64 10000 4.92 0 10:40 20.01.2022
4253 Clouds 1 1023 66 10000 4.02 332 09:40 20.01.2022
4254 Clouds 1 1023 73 10000 4.02 325 08:34 20.01.2022
4255 Clouds 3 1021 83 10000 7.15 345 05:34 20.01.2022
4256 Clouds 4 1021 86 10000 5.36 0 23:35 19.01.2022
4257 Clouds 4 1021 85 9000 6.26 0 22:37 19.01.2022
4258 Clouds 4 1021 84 10000 5.36 0 21:24 19.01.2022
4259 Clouds 4 1021 86 10000 5.36 0 20:51 19.01.2022
4260 Clouds 3 1021 86 7000 4.92 0 19:58 19.01.2022
4261 Clouds 4 1022 73 10000 4.02 0 18:43 19.01.2022
4262 Clouds 4 1022 67 10000 4.47 0 17:49 19.01.2022
4263 Clouds 4 1023 67 10000 4.47 0 16:59 19.01.2022
4264 Clouds 4 1024 72 10000 4.47 0 14:42 19.01.2022
4265 Clouds 4 1025 68 10000 4.02 0 12:53 19.01.2022
4266 Clouds 4 1025 81 10000 4.92 0 11:42 19.01.2022
4267 Clouds 3 1026 91 10000 3.13 0 10:38 19.01.2022
4268 Clear 2 1026 84 10000 0.89 0 09:34 19.01.2022
4269 Mist 0 1027 86 4500 0.45 172 07:18 19.01.2022
4270 Clouds 1 1028 85 10000 1.03 0 05:19 19.01.2022
4271 Clouds 4 1030 81 10000 0.89 0 23:41 18.01.2022
4272 Clouds 5 1030 67 10000 1.79 0 23:18 18.01.2022
4273 Clouds 6 1031 67 10000 0.89 293 21:43 18.01.2022
4274 Clouds 6 1031 67 10000 1.79 272 19:57 18.01.2022
4275 Clouds 6 1031 66 10000 1.34 304 19:38 18.01.2022
4276 Clouds 6 1031 67 10000 0.45 342 19:18 18.01.2022
4277 Clouds 6 1031 70 10000 0.89 346 17:59 18.01.2022
4278 Clouds 7 1031 70 10000 0.89 0 17:29 18.01.2022
4279 Clouds 7 1031 71 10000 0.89 0 15:56 18.01.2022
4280 Clouds 7 1031 70 10000 0.89 0 15:24 18.01.2022
4281 Clouds 7 1031 70 10000 0.89 0 13:32 18.01.2022
4282 Clouds 6 1031 88 8000 0.89 0 11:20 18.01.2022
4283 Clouds 5 1031 91 10000 0.89 0 09:58 18.01.2022
4284 Clouds 5 1031 86 10000 0.89 0 08:19 18.01.2022
4285 Clouds 5 1031 86 10000 0.89 0 07:31 18.01.2022
4286 Clouds 3 1030 75 10000 1.34 266 00:22 18.01.2022
4287 Clouds 2 1030 66 10000 1.34 271 22:39 17.01.2022
4288 Clouds 3 1029 65 10000 2.24 284 21:41 17.01.2022
4289 Clouds 3 1029 70 10000 1.34 0 20:39 17.01.2022
4290 Clouds 5 1028 65 10000 3.58 0 18:46 17.01.2022
4291 Clouds 5 1028 68 10000 1.34 0 18:23 17.01.2022
4292 Clouds 5 1027 70 10000 2.24 0 17:19 17.01.2022
4293 Clouds 6 1027 71 10000 5.36 0 15:47 17.01.2022
4294 Clouds 7 1026 73 10000 3.58 0 14:58 17.01.2022
4295 Clouds 7 1026 87 6000 4.47 0 14:22 17.01.2022
4296 Rain 7 1025 84 10000 3.58 0 13:18 17.01.2022
4297 Drizzle 6 1025 84 9000 7.15 0 11:51 17.01.2022
4298 Drizzle 6 1025 86 8000 6.26 0 10:52 17.01.2022
4299 Drizzle 5 1025 68 10000 7.15 0 09:35 17.01.2022
4300 Clouds 5 1025 72 10000 7.15 0 08:43 17.01.2022
4301 Clouds 6 1025 67 10000 5.81 0 07:20 17.01.2022
4302 Clouds 6 1025 86 10000 4.92 0 00:59 17.01.2022
4303 Clouds 5 1025 86 8000 6.71 0 23:27 16.01.2022
4304 Clouds 5 1025 82 10000 4.92 0 20:50 16.01.2022
4305 Clouds 5 1024 67 10000 4.02 0 19:56 16.01.2022
4306 Clouds 5 1024 87 10000 4.02 0 18:45 16.01.2022
4307 Clouds 5 1024 88 9000 3.13 0 17:47 16.01.2022
4308 Clouds 5 1024 83 7000 3.13 0 16:53 16.01.2022
4309 Clouds 4 1024 84 6000 3.13 0 15:40 16.01.2022
4310 Clouds 4 1024 86 6000 3.58 0 14:29 16.01.2022
4311 Drizzle 3 1024 86 5000 2.24 0 13:21 16.01.2022
4312 Clouds 3 1024 84 9000 3.58 0 11:58 16.01.2022
4313 Clouds 3 1024 86 9000 5.81 0 11:27 16.01.2022
4314 Clouds 2 1024 89 10000 4.47 269 10:27 16.01.2022
4315 Clouds 2 1024 88 10000 2.68 279 09:57 16.01.2022
4316 Clouds 2 1024 91 10000 2.68 291 09:23 16.01.2022
4317 Clouds 2 1024 90 10000 3.13 259 08:53 16.01.2022
4318 Clouds 1 1020 86 7000 1.03 250 05:52 16.01.2022
4319 Clouds 2 1027 77 10000 0.89 137 00:19 16.01.2022
4320 Clouds 1 1026 96 8000 1.03 100 22:49 15.01.2022
4321 Clouds 1 1026 84 10000 0 0 21:21 15.01.2022
4322 Clouds 2 1027 82 10000 0 0 20:44 15.01.2022
4323 Clouds 2 1026 83 10000 0 0 20:18 15.01.2022
4324 Clouds 3 1027 71 10000 0 0 19:25 15.01.2022
4325 Clouds 4 1027 70 10000 0.45 354 17:58 15.01.2022
4326 Clouds 5 1027 71 10000 0.89 0 16:43 15.01.2022
4327 Clouds 5 1027 89 10000 0.45 0 14:32 15.01.2022
4328 Clouds 5 1028 91 7000 0.45 0 12:38 15.01.2022
4329 Mist 5 1028 91 4500 1.03 0 11:20 15.01.2022
4330 Fog 4 1028 93 300 0 0 09:45 15.01.2022
4331 Clouds 4 1029 90 350 1.54 300 01:27 15.01.2022
4332 Clouds 5 1029 93 4700 0.89 0 22:40 14.01.2022
4333 Clouds 6 1029 90 3100 1.34 0 20:57 14.01.2022
4334 Mist 6 1029 90 3900 1.79 0 20:24 14.01.2022
4335 Mist 5 1029 93 4200 2.24 0 19:49 14.01.2022
4336 Clouds 5 1029 88 4600 3.13 0 18:38 14.01.2022
4337 Drizzle 5 1029 89 5000 2.24 0 17:21 14.01.2022
4338 Drizzle 5 1029 87 6000 2.68 0 16:40 14.01.2022
4339 Clouds 6 1029 83 9000 4.02 0 14:50 14.01.2022
4340 Clouds 5 1029 83 9000 4.02 0 14:25 14.01.2022
4341 Clouds 5 1029 69 9000 2.68 0 12:47 14.01.2022
4342 Clouds 5 1029 90 9000 3.13 0 11:51 14.01.2022
4343 Clouds 4 1029 85 10000 4.47 0 10:30 14.01.2022
4344 Clouds 4 1029 86 8000 4.02 0 08:52 14.01.2022
4345 Clouds 4 1029 90 7000 3.13 257 07:30 14.01.2022
4346 Clouds 3 1030 85 7000 3.58 264 02:20 14.01.2022
4347 Clouds 3 1030 84 6000 4.47 256 00:21 14.01.2022
4348 Clouds 3 1031 84 6000 5.36 272 21:47 13.01.2022
4349 Clouds 3 1031 90 7000 4.02 260 21:29 13.01.2022
4350 Clouds 3 1031 86 6000 2.68 293 19:45 13.01.2022
4351 Clouds 3 1031 72 6000 2.68 0 19:23 13.01.2022
4352 Clouds 4 1031 70 6000 2.68 0 18:37 13.01.2022
4353 Clouds 4 1031 70 10000 3.13 0 16:52 13.01.2022
4354 Clouds 5 1031 74 10000 2.68 0 15:39 13.01.2022
4355 Clouds 5 1031 70 10000 4.02 0 15:20 13.01.2022
4356 Clouds 5 1031 72 10000 2.68 0 13:28 13.01.2022
4357 Mist 4 1032 87 5000 5.36 0 10:49 13.01.2022
4358 Mist 3 1032 89 4900 3.13 0 09:23 13.01.2022
4359 Mist 3 1031 86 5000 2.68 0 08:29 13.01.2022
4360 Mist 3 1032 90 5000 3.58 349 07:58 13.01.2022
4361 Mist 3 1032 93 5000 4.02 339 07:19 13.01.2022
4362 Clouds 2 1027 85 10000 3.13 289 05:21 13.01.2022
4363 Clouds 3 1032 72 10000 2.68 358 03:48 13.01.2022
4364 Clouds 3 1032 73 10000 3.58 258 01:39 13.01.2022
4365 Clouds 2 1032 87 9000 2.68 314 23:54 12.01.2022
4366 Clouds 3 1032 88 9000 2.24 252 23:34 12.01.2022
4367 Clouds 3 1032 86 9000 2.24 265 22:32 12.01.2022
4368 Clouds 3 1032 87 10000 1.34 265 21:43 12.01.2022
4369 Clouds 4 1032 86 10000 3.13 269 21:19 12.01.2022
4370 Clouds 4 1032 86 10000 2.24 269 20:47 12.01.2022
4371 Clouds 4 1032 92 10000 1.34 283 18:52 12.01.2022
4372 Clouds 4 1032 89 10000 2.24 333 18:25 12.01.2022
4373 Clouds 4 1032 85 10000 0.89 346 16:57 12.01.2022
4374 Clouds 4 1032 89 10000 3.13 272 15:38 12.01.2022
4375 Clouds 4 1032 87 7000 1.34 342 14:39 12.01.2022
4376 Drizzle 4 1032 86 4900 1.34 357 12:57 12.01.2022
4377 Clouds 3 1031 74 10000 2.68 358 09:57 12.01.2022
4378 Clouds 3 1031 77 10000 0.89 0 07:59 12.01.2022
4379 Clouds 3 1031 76 10000 1.34 351 07:33 12.01.2022
4380 Clouds 2 1031 88 10000 0.89 0 04:54 12.01.2022
4381 Clouds 1 1031 93 5000 0.89 182 23:27 11.01.2022
4382 Clouds 1 1031 93 4100 2.24 173 22:41 11.01.2022
4383 Clouds 1 1031 93 3900 1.79 172 22:20 11.01.2022
4384 Clouds 1 1031 92 2400 2.24 161 20:40 11.01.2022
4385 Fog 1 1030 93 650 1.34 173 19:41 11.01.2022
4386 Clear 1 1030 78 10000 1.34 157 18:22 11.01.2022
4387 Clear 2 1030 77 10000 0.89 164 17:18 11.01.2022
4388 Clouds 3 1030 77 10000 1.34 6 16:36 11.01.2022
4389 Clouds 4 1030 75 10000 0.45 0 14:59 11.01.2022
4390 Clouds 4 1030 75 10000 1.34 0 14:40 11.01.2022
4391 Clouds 4 1030 87 10000 0.45 0 13:54 11.01.2022
4392 Clouds 4 1030 88 10000 0.45 0 13:31 11.01.2022
4393 Clouds 4 1030 89 10000 2.06 140 12:37 11.01.2022
4394 Mist 3 1030 92 4500 1.34 0 10:59 11.01.2022
4395 Clouds 3 1030 91 6000 1.54 190 08:58 11.01.2022
4396 Clouds 3 1029 89 8000 0.89 0 06:28 11.01.2022
4397 Clouds 3 1028 91 4700 0.45 0 00:30 11.01.2022
4398 Clouds 3 1028 89 4100 2.06 100 23:41 10.01.2022
4399 Clouds 4 1028 87 1800 0.45 0 22:51 10.01.2022
4400 Clouds 4 1028 87 1000 1.54 60 22:19 10.01.2022
4401 Clouds 4 1028 89 1600 2.06 100 21:52 10.01.2022
4402 Clouds 4 1027 87 1100 0.89 0 21:19 10.01.2022
4403 Clouds 4 1027 87 2500 0.45 0 20:56 10.01.2022
4404 Mist 4 1027 90 3200 0 0 20:27 10.01.2022
4405 Mist 5 1027 86 3600 0 0 19:42 10.01.2022
4406 Mist 5 1027 86 4000 0 0 19:20 10.01.2022
4407 Mist 5 1027 86 4000 0.45 0 18:48 10.01.2022
4408 Clouds 5 1026 87 6000 0.89 0 17:41 10.01.2022
4409 Clouds 5 1026 85 10000 0.89 0 16:42 10.01.2022
4410 Clouds 5 1025 84 10000 0.45 0 15:45 10.01.2022
4411 Clouds 5 1025 84 10000 0.89 0 14:30 10.01.2022
4412 Clouds 5 1023 86 10000 1.34 0 11:58 10.01.2022
4413 Clouds 5 1023 87 10000 1.34 0 11:25 10.01.2022
4414 Clouds 4 1022 88 10000 2.68 0 09:52 10.01.2022
4415 Clouds 3 1021 89 10000 0.45 0 07:31 10.01.2022
4416 Clouds 3 1020 89 10000 0.89 0 05:49 10.01.2022
4417 Clouds 4 1018 85 10000 2.68 0 01:31 10.01.2022
4418 Clouds 4 1017 83 10000 2.68 0 00:25 10.01.2022
4419 Clouds 4 1017 83 10000 2.68 0 23:43 09.01.2022
4420 Clouds 4 1016 83 10000 2.68 0 22:40 09.01.2022
4421 Clouds 4 1016 83 10000 2.68 0 21:47 09.01.2022
4422 Clouds 4 1016 83 10000 3.13 0 21:24 09.01.2022
4423 Clouds 4 1016 83 10000 3.13 0 21:24 09.01.2022
4424 Clouds 4 1015 83 10000 3.13 0 20:54 09.01.2022
4425 Clouds 4 1015 83 10000 2.68 0 20:36 09.01.2022
4426 Clouds 4 1015 83 10000 2.68 0 20:18 09.01.2022
4427 Clouds 4 1015 84 10000 3.13 0 19:37 09.01.2022
4428 Clouds 4 1014 89 10000 2.68 0 19:18 09.01.2022
4429 Clouds 5 1014 89 10000 3.13 0 18:37 09.01.2022
4430 Clouds 5 1014 86 10000 3.13 0 17:48 09.01.2022
4431 Clouds 5 1013 89 10000 3.58 0 17:26 09.01.2022
4432 Rain 5 1013 90 10000 4.02 0 16:38 09.01.2022
4433 Rain 5 1013 87 10000 3.58 0 15:38 09.01.2022
4434 Rain 5 1012 91 10000 4.92 0 14:41 09.01.2022
4435 Rain 4 1027 88 934 4.92 0 14:23 09.01.2022
4436 Rain 4 1012 89 10000 3.13 331 13:48 09.01.2022
4437 Rain 3 1011 86 10000 2.24 242 11:56 09.01.2022
4438 Rain 3 1011 86 10000 2.24 287 11:25 09.01.2022
4439 Rain 2 1010 90 10000 3.58 234 09:55 09.01.2022
4440 Clouds 2 1010 72 10000 0.89 9 08:59 09.01.2022
4441 Rain 3 1009 71 10000 2.68 122 06:56 09.01.2022
4442 Clouds 3 1011 69 10000 2.68 0 01:29 09.01.2022
4443 Clouds 3 1011 68 10000 2.24 0 00:37 09.01.2022
4444 Clouds 2 1012 67 10000 1.34 0 23:34 08.01.2022
4445 Clouds 3 1012 66 10000 1.34 127 22:48 08.01.2022
4446 Clouds 2 1014 66 10000 2.24 0 21:28 08.01.2022
4447 Clouds 2 1014 69 10000 1.34 0 20:44 08.01.2022
4448 Clouds 2 1014 67 10000 2.24 0 20:22 08.01.2022
4449 Clouds 2 1015 67 10000 2.24 174 19:22 08.01.2022
4450 Clear 2 1016 73 10000 2.68 0 17:38 08.01.2022
4451 Clouds 3 1017 68 10000 1.34 0 16:45 08.01.2022
4452 Clouds 4 1017 74 10000 3.13 0 15:34 08.01.2022
4453 Clouds 4 1018 69 10000 3.58 0 14:25 08.01.2022
4454 Clouds 3 1018 70 10000 2.68 0 11:43 08.01.2022
4455 Clouds 2 1018 71 10000 2.24 0 10:43 08.01.2022
4456 Clouds 2 1018 71 10000 3.13 0 10:23 08.01.2022
4457 Clouds 2 1019 74 10000 1.79 0 09:34 08.01.2022
4458 Clouds 1 1018 89 10000 0.89 0 06:22 08.01.2022
4459 Clouds 1 1018 94 10000 2.24 0 01:49 08.01.2022
4460 Snow 2 1018 85 9000 2.24 0 00:22 08.01.2022
4461 Rain 2 1027 73 69 2.24 0 22:21 07.01.2022
4462 Clouds 3 1018 72 10000 3.58 0 20:35 07.01.2022
4463 Clouds 3 1018 72 10000 3.58 0 20:35 07.01.2022
4464 Clear 3 1018 71 10000 2.24 0 19:34 07.01.2022
4465 Clouds 3 1018 71 10000 1.34 0 18:50 07.01.2022
4466 Clouds 3 1019 76 10000 3.13 0 18:26 07.01.2022
4467 Clouds 3 1019 71 10000 2.24 0 17:24 07.01.2022
4468 Clouds 3 1019 76 10000 2.68 0 15:55 07.01.2022
4469 Clouds 3 1019 69 10000 3.58 0 13:52 07.01.2022
4470 Clouds 3 1019 69 10000 4.47 0 13:18 07.01.2022
4471 Clouds 3 1019 74 10000 3.13 0 12:25 07.01.2022
4472 Clouds 2 1020 73 10000 2.68 0 06:47 07.01.2022
4473 Clouds 0 1022 69 10000 1.34 0 02:54 07.01.2022
4474 Clouds 0 1022 70 10000 1.34 340 01:52 07.01.2022
4475 Clouds 0 1022 73 10000 3.6 200 01:27 07.01.2022
4476 Clouds 0 1022 74 10000 1.79 174 00:55 07.01.2022
4477 Clouds 0 1023 68 10000 2.24 353 22:46 06.01.2022
4478 Clear 0 1023 74 10000 0.89 209 21:23 06.01.2022
4479 Clear 0 1027 64 10000 0.89 220 20:20 06.01.2022
4480 Clouds 1 1023 68 10000 0.89 213 19:40 06.01.2022
4481 Clouds 2 1023 71 10000 0.45 229 17:53 06.01.2022
4482 Clouds 2 1023 71 10000 0.89 355 17:32 06.01.2022
4483 Clear 2 1023 70 10000 1.34 0 16:40 06.01.2022
4484 Clouds 3 1022 70 10000 3.13 0 15:45 06.01.2022
4485 Clouds 4 1022 68 10000 2.24 0 15:24 06.01.2022
4486 Clouds 4 1022 69 10000 3.13 0 14:21 06.01.2022
4487 Clouds 4 1022 70 10000 3.58 0 13:47 06.01.2022
4488 Clouds 3 1022 70 10000 2.68 0 12:43 06.01.2022
4489 Clear 3 1022 71 10000 2.24 0 11:42 06.01.2022
4490 Clear 3 1022 71 10000 2.24 0 11:42 06.01.2022
4491 Clear 2 1022 74 10000 2.24 0 11:22 06.01.2022
4492 Clear 0 1021 76 10000 0.89 0 08:51 06.01.2022
4493 Clouds 3 1017 71 10000 5.36 0 00:43 06.01.2022
4494 Clouds 3 1016 73 10000 4.92 0 23:37 05.01.2022
4495 Rain 4 1016 73 10000 1.79 0 22:56 05.01.2022
4496 Clouds 4 1016 73 10000 2.68 0 22:31 05.01.2022
4497 Rain 4 1015 72 10000 5.81 0 21:48 05.01.2022
4498 Rain 5 1015 70 10000 5.81 0 20:57 05.01.2022
4499 Clouds 5 1015 70 10000 5.81 0 20:18 05.01.2022
4500 Clouds 5 1014 72 10000 4.47 0 18:42 05.01.2022
4501 Clouds 4 1014 72 10000 4.92 0 17:26 05.01.2022
4502 Clouds 4 1013 72 10000 3.58 0 16:50 05.01.2022
4503 Clouds 4 1013 72 10000 5.81 0 15:26 05.01.2022
4504 Clouds 3 1013 73 5000 7.15 0 13:52 05.01.2022
4505 Rain 3 1013 72 10000 4.47 0 13:22 05.01.2022
4506 Clouds 3 1013 66 10000 4.92 0 10:34 05.01.2022
4507 Clouds 2 1012 70 10000 4.92 242 07:47 05.01.2022
4508 Clouds 3 1012 70 10000 4.92 256 06:25 05.01.2022
4509 Clouds 4 1012 69 10000 2.24 262 00:59 05.01.2022
4510 Clouds 4 1012 69 10000 1.34 279 23:28 04.01.2022
4511 Clouds 4 1012 69 10000 2.24 290 22:55 04.01.2022
4512 Clouds 4 1012 69 10000 1.34 265 21:31 04.01.2022
4513 Clouds 4 1012 69 10000 1.34 265 21:31 04.01.2022
4514 Clouds 6 1011 72 10000 2.24 274 19:20 04.01.2022
4515 Clouds 6 1011 70 10000 2.24 267 17:54 04.01.2022
4516 Clouds 7 1010 70 10000 3.13 0 16:53 04.01.2022
4517 Clouds 7 1010 70 10000 3.13 0 16:25 04.01.2022
4518 Clouds 8 1010 70 10000 2.68 0 14:54 04.01.2022
4519 Clouds 8 1010 70 10000 2.68 0 14:35 04.01.2022
4520 Clouds 8 1010 71 10000 2.68 0 13:40 04.01.2022
4521 Clouds 7 1011 72 10000 2.24 0 10:52 04.01.2022
4522 Clouds 7 1011 72 10000 2.24 0 09:58 04.01.2022
4523 Clouds 7 1012 72 10000 0.89 0 08:35 04.01.2022
4524 Clouds 7 1014 71 10000 0.45 0 03:39 04.01.2022
4525 Clouds 8 1015 75 10000 2.24 0 00:42 04.01.2022
4526 Clouds 8 1015 75 10000 1.79 0 23:41 03.01.2022
4527 Clouds 7 1015 69 10000 1.34 0 22:21 03.01.2022
4528 Clouds 7 1016 74 10000 1.34 0 21:35 03.01.2022
4529 Clouds 7 1016 69 10000 3.13 0 20:34 03.01.2022
4530 Clouds 8 1016 70 10000 3.13 0 18:54 03.01.2022
4531 Clear 8 1016 76 10000 4.02 0 18:29 03.01.2022
4532 Clear 9 1017 68 10000 3.13 0 17:20 03.01.2022
4533 Clouds 9 1017 66 10000 3.13 0 16:28 03.01.2022
4534 Clouds 11 1017 65 10000 4.47 0 14:31 03.01.2022
4535 Clouds 11 1018 70 10000 4.47 0 12:52 03.01.2022
4536 Clouds 11 1018 70 10000 4.47 0 11:50 03.01.2022
4537 Clouds 10 1018 72 10000 6.71 0 10:37 03.01.2022
4538 Clouds 9 1018 75 10000 2.68 0 09:27 03.01.2022
4539 Clouds 9 1018 76 10000 3.58 0 07:52 03.01.2022
4540 Clouds 10 1016 70 10000 6.71 0 02:56 03.01.2022
4541 Clouds 11 1017 69 10000 5.36 0 23:23 02.01.2022
4542 Clouds 11 1018 69 10000 5.81 0 22:56 02.01.2022
4543 Clouds 11 1018 76 10000 4.47 0 21:58 02.01.2022
4544 Clouds 11 1018 69 10000 4.92 0 20:50 02.01.2022
4545 Clouds 11 1018 69 10000 3.13 0 20:30 02.01.2022
4546 Clouds 12 1018 67 10000 3.58 0 19:31 02.01.2022
4547 Clouds 12 1018 73 10000 5.81 0 18:56 02.01.2022
4548 Clouds 12 1018 67 10000 5.36 0 17:58 02.01.2022
4549 Clouds 12 1018 67 10000 5.81 0 17:39 02.01.2022
4550 Clouds 12 1018 67 10000 4.02 0 17:21 02.01.2022
4551 Clouds 12 1018 68 10000 4.02 0 16:28 02.01.2022
4552 Clouds 13 1018 67 10000 5.81 0 14:44 02.01.2022
4553 Clear 13 1018 65 10000 5.36 0 13:38 02.01.2022
4554 Clear 12 1019 68 10000 3.13 0 12:32 02.01.2022
4555 Clear 12 1019 70 10000 4.47 0 11:49 02.01.2022
4556 Clear 12 1020 70 10000 1.34 0 10:55 02.01.2022
4557 Drizzle 11 1021 75 10000 3.13 0 09:58 02.01.2022
4558 Clouds 11 1021 71 10000 2.68 0 07:35 02.01.2022
4559 Clouds 10 1022 71 10000 0.45 0 02:57 02.01.2022
4560 Clouds 10 1024 71 10000 1.34 0 23:50 01.01.2022
4561 Clouds 10 1024 70 10000 0.89 0 23:27 01.01.2022
4562 Clouds 10 1024 71 10000 0.89 0 22:26 01.01.2022
4563 Clouds 10 1024 75 10000 1.34 188 21:54 01.01.2022
4564 Clouds 10 1024 75 10000 0.89 188 21:36 01.01.2022
4565 Clouds 11 1024 68 10000 1.34 180 20:36 01.01.2022
4566 Clouds 12 1025 69 10000 0.89 184 19:45 01.01.2022
4567 Clouds 12 1025 69 10000 1.79 216 18:52 01.01.2022
4568 Clouds 12 1025 69 10000 0.89 0 17:41 01.01.2022
4569 Clouds 13 1025 69 10000 0.89 0 16:35 01.01.2022
4570 Clouds 13 1025 74 10000 1.79 0 15:45 01.01.2022
4571 Clouds 14 1025 68 10000 0.89 0 14:40 01.01.2022
4572 Clouds 14 1025 68 10000 2.24 0 13:42 01.01.2022
4573 Clouds 13 1025 75 10000 2.68 0 12:26 01.01.2022
4574 Clouds 13 1025 69 10000 2.68 0 11:30 01.01.2022
4575 Clouds 13 1025 70 10000 2.24 0 10:59 01.01.2022
4576 Clouds 12 1025 71 10000 2.24 0 09:48 01.01.2022
4577 Clouds 12 1025 70 10000 1.34 0 08:49 01.01.2022
4578 Clouds 12 1025 71 10000 3.13 0 08:21 01.01.2022
4579 Clouds 12 1024 68 10000 2.68 0 07:40 01.01.2022
4580 Clouds 12 1024 70 10000 2.68 0 06:44 01.01.2022
4581 Clouds 12 1024 70 10000 2.68 0 05:25 01.01.2022
4582 Clouds 12 1024 71 10000 3.13 0 04:37 01.01.2022
4583 Clouds 12 1023 83 10000 4.47 0 00:37 01.01.2022
4584 Clouds 12 1023 90 10000 4.47 0 22:40 31.12.2021
4585 Clouds 12 1022 84 9000 5.36 0 21:51 31.12.2021
4586 Clouds 13 1022 69 10000 4.47 0 20:28 31.12.2021
4587 Clouds 13 1021 67 10000 5.81 0 19:28 31.12.2021
4588 Clouds 13 1015 82 10000 7.2 280 18:30 31.12.2021
4589 Clouds 13 1021 76 10000 5.36 0 17:37 31.12.2021
4590 Rain 13 1021 75 10000 5.36 0 17:18 31.12.2021
4591 Clouds 14 1020 67 10000 3.13 0 16:19 31.12.2021
4592 Clouds 14 1020 66 10000 4.02 0 15:53 31.12.2021
4593 Clouds 14 1020 67 10000 3.58 0 15:28 31.12.2021
4594 Clouds 14 1021 67 10000 3.13 0 14:43 31.12.2021
4595 Clouds 14 1021 67 10000 4.92 0 14:18 31.12.2021
4596 Clouds 14 1021 73 10000 4.47 0 13:36 31.12.2021
4597 Clouds 14 1021 74 10000 4.92 0 12:44 31.12.2021
4598 Clouds 14 1021 73 10000 5.36 0 11:43 31.12.2021
4599 Clouds 14 1021 68 10000 4.47 0 11:24 31.12.2021
4600 Clouds 14 1021 67 10000 3.58 0 10:34 31.12.2021
4601 Clouds 13 1021 73 10000 3.13 0 09:52 31.12.2021
4602 Clouds 13 1021 74 10000 2.68 0 09:32 31.12.2021
4603 Clouds 13 1021 69 10000 4.47 308 08:27 31.12.2021
4604 Clouds 13 1021 88 5000 4.47 349 07:30 31.12.2021
4605 Clouds 13 1021 91 10000 4.47 249 23:23 30.12.2021
4606 Clouds 13 1021 92 5000 3.13 253 22:33 30.12.2021
4607 Clouds 13 1021 92 5000 3.13 253 22:33 30.12.2021
4608 Clouds 12 1021 94 3400 1.79 0 21:56 30.12.2021
4609 Clouds 12 1021 94 3400 2.68 0 21:37 30.12.2021
4610 Clouds 12 1021 92 3700 2.68 0 20:46 30.12.2021
4611 Clouds 12 1021 92 3800 3.13 0 20:25 30.12.2021
4612 Clouds 12 1021 94 3800 2.68 0 19:47 30.12.2021
4613 Clouds 12 1021 94 3800 3.13 0 18:48 30.12.2021
4614 Clouds 13 1020 89 4200 2.68 0 18:19 30.12.2021
4615 Clouds 13 1020 88 6000 4.02 0 16:20 30.12.2021
4616 Clouds 13 1020 94 3400 3.13 0 15:52 30.12.2021
4617 Clouds 13 1019 94 10000 4.92 0 14:40 30.12.2021
4618 Mist 12 1019 94 3000 3.58 0 13:55 30.12.2021
4619 Clouds 12 1019 94 10000 2.68 0 12:44 30.12.2021
4620 Clouds 11 1019 90 10000 4.02 0 10:59 30.12.2021
4621 Clouds 11 1019 90 10000 2.24 0 09:59 30.12.2021
4622 Clouds 10 1019 92 10000 2.24 0 09:23 30.12.2021
4623 Clouds 9 1019 92 10000 3.13 0 06:54 30.12.2021
4624 Clouds 10 1018 93 10000 2.68 0 04:20 30.12.2021
4625 Clouds 10 1018 93 10000 2.68 0 04:20 30.12.2021
4626 Clouds 9 1018 98 10000 2.68 0 03:39 30.12.2021
4627 Clouds 7 1017 94 3900 1.34 0 00:35 30.12.2021
4628 Clouds 7 1017 93 3200 1.34 0 23:31 29.12.2021
4629 Clouds 7 1017 93 6000 0.45 0 22:30 29.12.2021
4630 Clouds 6 1017 93 10000 1.34 0 21:53 29.12.2021
4631 Clouds 7 1017 93 9000 0.89 0 20:56 29.12.2021
4632 Clouds 7 1017 91 9000 0.89 0 20:18 29.12.2021
4633 Clouds 7 1017 91 10000 0.45 0 19:31 29.12.2021
4634 Clouds 7 1017 91 10000 0.45 0 18:30 29.12.2021
4635 Clouds 7 1017 92 10000 0.89 0 17:30 29.12.2021
4636 Clouds 7 1017 92 10000 0.45 0 16:58 29.12.2021
4637 Clouds 7 1017 93 9000 0.89 0 16:19 29.12.2021
4638 Clouds 7 1017 94 8000 0.89 0 14:59 29.12.2021
4639 Drizzle 7 1016 92 6000 1.79 0 12:57 29.12.2021
4640 Drizzle 7 1016 92 3300 2.24 0 12:30 29.12.2021
4641 Drizzle 7 1016 93 1900 2.24 0 11:22 29.12.2021
4642 Drizzle 6 1015 92 2600 1.79 0 09:24 29.12.2021
4643 Clouds 6 1014 93 5000 0.89 0 06:59 29.12.2021
4644 Clouds 5 1014 94 7000 0.89 0 06:30 29.12.2021
4645 Clouds 5 1014 92 10000 0.89 0 05:55 29.12.2021
4646 Clouds 5 1013 92 10000 0.89 0 04:57 29.12.2021
4647 Clouds 4 1012 91 10000 1.54 220 00:43 29.12.2021
4648 Clouds 5 1011 89 10000 2.57 240 23:58 28.12.2021
4649 Clouds 5 1011 89 10000 2.24 0 22:57 28.12.2021
4650 Clouds 5 1011 90 10000 0.89 0 22:25 28.12.2021
4651 Clouds 5 1011 90 10000 0.89 0 22:25 28.12.2021
4652 Clouds 5 1011 88 10000 1.34 0 21:54 28.12.2021
4653 Clouds 5 1011 88 10000 1.34 0 21:35 28.12.2021
4654 Clouds 5 1010 90 5000 0.89 0 20:32 28.12.2021
4655 Clouds 5 1010 75 10000 0.89 0 18:54 28.12.2021
4656 Clouds 5 1010 76 10000 1.34 0 18:28 28.12.2021
4657 Clouds 5 1010 74 5000 1.34 0 17:42 28.12.2021
4658 Clouds 6 1010 74 10000 3.13 0 16:25 28.12.2021
4659 Clouds 6 1010 74 10000 2.68 0 15:41 28.12.2021
4660 Clouds 6 1010 76 10000 4.02 0 14:57 28.12.2021
4661 Clouds 6 1010 76 10000 4.02 0 14:57 28.12.2021
4662 Clouds 6 1010 76 10000 2.68 0 14:38 28.12.2021
4663 Clouds 6 1011 76 10000 4.02 0 14:20 28.12.2021
4664 Clouds 6 1011 76 10000 2.24 0 13:38 28.12.2021
4665 Clear 6 1011 76 10000 2.24 0 12:56 28.12.2021
4666 Clear 6 1011 76 10000 2.68 0 12:38 28.12.2021
4667 Clouds 4 1012 89 9000 4.02 0 10:52 28.12.2021
4668 Clouds 2 1012 77 5000 1.79 0 07:39 28.12.2021
4669 Clouds 2 1013 75 5000 1.79 0 06:40 28.12.2021
4670 Clouds 2 1014 77 10000 2.68 0 23:42 27.12.2021
4671 Clouds 1 1014 78 10000 2.68 0 22:53 27.12.2021
4672 Clouds 2 1014 78 10000 2.68 0 21:33 27.12.2021
4673 Clouds 2 1015 77 10000 2.24 0 20:45 27.12.2021
4674 Clouds 2 1015 76 10000 2.24 0 19:57 27.12.2021
4675 Clouds 2 1015 76 10000 2.68 0 19:39 27.12.2021
4676 Clouds 1 1015 76 10000 4.02 0 18:23 27.12.2021
4677 Clouds 1 1015 76 10000 2.24 0 17:46 27.12.2021
4678 Clouds 1 1015 77 10000 2.68 0 16:38 27.12.2021
4679 Clouds 1 1015 80 10000 2.24 0 15:51 27.12.2021
4680 Clouds 1 1015 76 10000 2.68 0 14:32 27.12.2021
4681 Clouds 1 1015 77 10000 0.89 0 13:39 27.12.2021
4682 Clouds 0 1015 76 10000 1.34 0 12:19 27.12.2021
4683 Clouds -1 1016 75 10000 2.68 0 10:31 27.12.2021
4684 Clouds -2 1016 74 10000 2.24 0 09:47 27.12.2021
4685 Clouds -2 1016 74 10000 0.89 0 07:38 27.12.2021
4686 Clouds -2 1016 78 10000 2.68 0 07:20 27.12.2021
4687 Clouds -3 1017 71 10000 2.24 0 02:19 27.12.2021
4688 Clouds -3 1018 71 10000 2.68 0 23:58 26.12.2021
4689 Clouds -3 1018 71 10000 1.34 0 23:36 26.12.2021
4690 Clouds -4 1018 70 10000 2.68 0 22:34 26.12.2021
4691 Clouds -4 1018 70 10000 3.13 0 20:59 26.12.2021
4692 Clouds -5 1019 71 10000 0.45 0 19:47 26.12.2021
4693 Clouds -5 1019 70 10000 3.13 0 18:24 26.12.2021
4694 Clear -5 1019 68 10000 2.24 0 17:24 26.12.2021
4695 Clear -3 1019 66 10000 4.02 0 14:29 26.12.2021
4696 Clear -3 1019 69 10000 3.13 0 13:41 26.12.2021
4697 Clear -3 1019 68 10000 3.58 0 13:20 26.12.2021
4698 Clear -4 1020 67 10000 2.68 0 12:33 26.12.2021
4699 Clear -4 1020 67 10000 2.68 0 12:33 26.12.2021
4700 Clear -7 1020 75 10000 2.24 0 10:43 26.12.2021
4701 Clear -8 1020 74 10000 1.79 0 09:28 26.12.2021
4702 Clear -9 1020 75 10000 1.34 136 08:44 26.12.2021
4703 Clear -9 1020 78 10000 1.79 137 07:59 26.12.2021
4704 Clear -9 1020 77 10000 2.24 127 01:36 26.12.2021
4705 Clear -8 1013 73 10000 1.54 90 23:58 25.12.2021
4706 Clear -8 1013 86 10000 1.54 130 23:28 25.12.2021
4707 Clear -8 1014 91 10000 1.54 100 22:28 25.12.2021
4708 Clear -7 1014 76 10000 1.54 100 21:25 25.12.2021
4709 Clear -7 1021 73 10000 1.54 100 19:28 25.12.2021
4710 Clear -7 1021 75 10000 1.54 100 18:57 25.12.2021
4711 Clear -6 1021 88 10000 0.45 66 18:25 25.12.2021
4712 Clear -5 1020 71 10000 2.06 80 16:49 25.12.2021
4713 Clear -3 1020 65 10000 1.34 0 15:30 25.12.2021
4714 Clear -3 1020 67 10000 2.68 0 13:47 25.12.2021
4715 Snow -4 1020 70 10000 1.79 0 12:19 25.12.2021
4716 Clouds -4 1020 72 10000 1.34 0 10:38 25.12.2021
4717 Clouds -5 1020 68 10000 2.24 0 09:48 25.12.2021
4718 Clouds -6 1019 73 10000 0.89 21 07:27 25.12.2021
4719 Clouds -3 1018 73 10000 4.47 0 01:36 25.12.2021
4720 Clouds -2 1018 81 10000 5.36 0 00:21 25.12.2021
4721 Snow -1 1017 81 10000 2.68 0 21:57 24.12.2021
4722 Snow 1 1016 78 8000 0.89 0 19:27 24.12.2021
4723 Snow 1 1016 78 5000 1.34 6 18:56 24.12.2021
4724 Rain 2 1015 76 6000 0.45 359 16:49 24.12.2021
4725 Clouds 3 1014 76 6000 2.24 349 15:50 24.12.2021
4726 Clouds 3 1014 76 6000 2.24 0 15:25 24.12.2021
4727 Clouds 4 1014 76 10000 1.34 348 14:35 24.12.2021
4728 Clouds 5 1013 74 9000 4.02 0 13:57 24.12.2021
4729 Clouds 6 999 55 9000 4.63 350 13:32 24.12.2021
4730 Clouds 8 1013 90 10000 6.26 0 12:45 24.12.2021
4731 Clouds 9 1013 90 10000 5.81 0 11:46 24.12.2021
4732 Clouds 9 1013 92 8000 5.36 0 11:24 24.12.2021
4733 Clouds 8 1013 93 5000 4.47 0 10:36 24.12.2021
4734 Clouds 8 1013 92 4600 4.02 0 09:22 24.12.2021
4735 Clouds 7 1013 93 6000 3.13 0 08:19 24.12.2021
4736 Clouds 7 1013 77 4200 3.13 0 07:44 24.12.2021
4737 Rain 4 1014 73 3800 3.13 0 00:48 24.12.2021
4738 Clouds 3 1014 72 4000 3.13 0 23:54 23.12.2021
4739 Rain 3 1014 74 5000 4.02 247 22:54 23.12.2021
4740 Rain 3 1015 73 7000 4.92 0 22:27 23.12.2021
4741 Clouds 3 1015 73 8000 3.13 0 21:59 23.12.2021
4742 Clouds 2 1015 76 9000 4.02 0 20:56 23.12.2021
4743 Rain 2 1015 71 10000 5.36 0 19:47 23.12.2021
4744 Rain 1 1016 75 10000 2.68 0 18:34 23.12.2021
4745 Rain 1 1016 70 10000 2.24 0 17:55 23.12.2021
4746 Rain 1 1017 71 10000 0.45 0 16:43 23.12.2021
4747 Rain 1 1017 76 10000 0.89 0 16:23 23.12.2021
4748 Snow 1 1017 75 10000 2.24 0 15:31 23.12.2021
4749 Snow 1 1017 75 10000 2.24 0 15:31 23.12.2021
4750 Snow 1 1017 69 10000 0.89 0 14:49 23.12.2021
4751 Snow 1 1018 70 10000 1.34 0 14:30 23.12.2021
4752 Snow 0 1018 70 10000 2.68 0 12:53 23.12.2021
4753 Clear -1 1019 81 10000 0.45 0 10:44 23.12.2021
4754 Clear -1 1020 76 10000 1.54 250 09:35 23.12.2021
4755 Snow -2 1020 77 10000 2.24 0 08:59 23.12.2021
4756 Clouds -1 1015 75 10000 2.44 213 06:51 23.12.2021
4757 Clouds -2 1016 76 10000 2.05 192 04:30 23.12.2021
4758 Clouds -3 1021 84 4200 1.54 110 23:20 22.12.2021
4759 Clouds -3 1021 84 3800 2.06 100 22:42 22.12.2021
4760 Mist -3 1025 86 4400 0.45 0 21:56 22.12.2021
4761 Clouds -3 1027 84 10000 2.14 160 21:29 22.12.2021
4762 Mist -4 1025 91 1700 0.89 0 20:47 22.12.2021
4763 Mist -4 1025 96 1700 0.45 0 20:26 22.12.2021
4764 Mist -3 1025 89 1300 0.45 0 19:28 22.12.2021
4765 Fog -3 1026 90 1000 3.09 120 17:42 22.12.2021
4766 Clouds -2 1026 79 9000 2.06 110 16:40 22.12.2021
4767 Clouds -1 1026 77 7000 0.89 0 15:40 22.12.2021
4768 Clouds 0 1026 85 10000 2.06 240 13:33 22.12.2021
4769 Mist -1 1026 86 5000 0.51 0 12:41 22.12.2021
4770 Mist -2 1026 81 2000 1.03 0 10:36 22.12.2021
4771 Mist -3 1027 89 2000 1.03 0 09:39 22.12.2021
4772 Fog -4 1027 78 700 1.54 160 07:30 22.12.2021
4773 Clouds -4 1027 76 700 0.45 0 05:50 22.12.2021
4774 Clouds -3 1027 79 700 0.45 0 05:26 22.12.2021
4775 Clouds -3 1027 80 600 0.89 0 04:52 22.12.2021
4776 Clouds -3 1027 80 700 2.06 160 04:29 22.12.2021
4777 Clouds -3 1027 79 750 0.45 0 03:33 22.12.2021
4778 Clouds -2 1027 80 650 0.89 0 00:57 22.12.2021
4779 Clouds -2 1027 78 550 0.45 0 23:32 21.12.2021
4780 Fog -2 1027 78 650 0.45 0 22:29 21.12.2021
4781 Fog -2 1027 78 600 2.06 200 21:44 21.12.2021
4782 Clear -2 1027 75 10000 0.45 0 21:24 21.12.2021
4783 Fog -2 1027 77 450 0 0 20:23 21.12.2021
4784 Fog -2 1027 79 500 1.03 0 19:46 21.12.2021
4785 Fog -2 1027 77 450 0.51 0 19:19 21.12.2021
4786 Fog -1 1027 79 450 0 0 18:22 21.12.2021
4787 Fog -1 1027 82 550 0 0 17:51 21.12.2021
4788 Fog -1 1027 81 350 0 0 16:39 21.12.2021
4789 Fog 0 1027 78 300 1.03 0 15:29 21.12.2021
4790 Mist 0 1027 78 1500 1.03 0 13:51 21.12.2021
4791 Mist 0 1027 79 1500 1.03 0 13:32 21.12.2021
4792 Fog 0 1027 78 800 0.45 0 12:20 21.12.2021
4793 Fog -1 1027 80 900 0.89 0 10:37 21.12.2021
4794 Fog -2 1027 78 300 1.03 220 09:35 21.12.2021
4795 Fog -2 1027 75 300 1.03 0 08:30 21.12.2021
4796 Fog -2 1027 78 300 1.03 0 07:32 21.12.2021
4797 Clouds -2 1027 72 300 0.89 323 06:56 21.12.2021
4798 Clouds -3 1027 73 10000 0 0 03:22 21.12.2021
4799 Clouds -2 1027 70 5000 0 0 01:18 21.12.2021
4800 Clouds -3 1027 76 7000 0 0 23:34 20.12.2021
4801 Clouds -2 1027 83 1100 0 0 22:35 20.12.2021
4802 Clear -2 1027 84 10000 1.54 280 21:48 20.12.2021
4803 Clear -2 1027 84 10000 1.03 280 21:24 20.12.2021
4804 Clear -2 1027 77 10000 1.03 270 20:50 20.12.2021
4805 Clear -2 1027 77 10000 0 0 19:55 20.12.2021
4806 Clear -2 1027 77 10000 0 0 19:55 20.12.2021
4807 Clear -2 1027 77 10000 0 0 19:55 20.12.2021
4808 Clear -1 1027 77 10000 0 0 19:34 20.12.2021
4809 Clear -1 1027 82 10000 1.54 290 18:55 20.12.2021
4810 Clear -1 1027 77 10000 0 0 18:28 20.12.2021
4811 Clear 0 1027 77 10000 1.54 310 17:49 20.12.2021
4812 Clear 1 1027 75 10000 0.45 354 16:44 20.12.2021
4813 Clear 2 1027 72 10000 0.89 298 15:52 20.12.2021
4814 Clear 3 1027 70 10000 1.34 0 15:31 20.12.2021
4815 Clear 3 1027 71 10000 1.79 0 13:31 20.12.2021
4816 Clear 2 1027 74 10000 0.45 0 11:47 20.12.2021
4817 Clear 0 1027 78 10000 0.89 296 10:35 20.12.2021
4818 Clear -1 1027 77 10000 0.89 315 09:38 20.12.2021
4819 Clear -2 1027 81 10000 1.34 0 08:44 20.12.2021
4820 Clear -2 1027 80 6000 0.89 0 08:00 20.12.2021
4821 Clear -1 1027 80 6000 0.89 0 07:32 20.12.2021
4822 Clear -1 1026 83 10000 0.89 0 06:32 20.12.2021
4823 Clear -1 1026 83 10000 0.89 0 06:32 20.12.2021
4824 Clouds 2 1026 83 10000 0.45 291 00:19 20.12.2021
4825 Clouds 4 1026 75 10000 2.24 318 22:56 19.12.2021
4826 Clouds 4 1026 75 10000 1.79 334 22:24 19.12.2021
4827 Clouds 4 1025 79 10000 1.79 0 21:32 19.12.2021
4828 Clouds 6 1025 72 10000 2.68 313 20:36 19.12.2021
4829 Clouds 6 1025 76 10000 3.58 317 19:53 19.12.2021
4830 Clouds 7 1025 77 10000 2.24 313 19:34 19.12.2021
4831 Clouds 7 1025 75 10000 3.13 0 18:35 19.12.2021
4832 Clouds 7 1025 80 10000 4.47 304 17:53 19.12.2021
4833 Clouds 7 1025 81 10000 3.58 311 17:28 19.12.2021
4834 Clouds 7 1025 81 10000 4.02 304 16:27 19.12.2021
4835 Clouds 7 1025 81 10000 4.02 304 16:27 19.12.2021
4836 Clouds 7 1025 80 10000 4.02 294 15:51 19.12.2021
4837 Clouds 7 1025 80 10000 5.36 289 15:23 19.12.2021
4838 Clouds 7 1025 80 8000 4.47 295 14:45 19.12.2021
4839 Clouds 7 1026 79 10000 4.02 300 13:26 19.12.2021
4840 Drizzle 7 1026 79 10000 4.92 306 12:50 19.12.2021
4841 Clouds 7 1026 77 10000 3.13 300 12:28 19.12.2021
4842 Drizzle 7 1026 77 10000 4.47 298 11:33 19.12.2021
4843 Drizzle 7 1027 75 10000 4.47 302 10:48 19.12.2021
4844 Clouds 7 1027 75 10000 5.36 288 10:21 19.12.2021
4845 Clouds 7 1027 76 10000 5.36 294 08:46 19.12.2021
4846 Clouds 7 1027 80 10000 5.36 295 06:30 19.12.2021
4847 Clouds 7 1028 76 10000 4.47 0 01:45 19.12.2021
4848 Clouds 7 1029 77 10000 4.02 0 00:54 19.12.2021
4849 Clouds 7 1029 80 10000 3.13 0 22:51 18.12.2021
4850 Clouds 7 1029 80 10000 2.24 0 22:24 18.12.2021
4851 Clouds 7 1029 80 10000 3.13 0 21:41 18.12.2021
4852 Clouds 8 1029 81 10000 2.24 0 21:22 18.12.2021
4853 Clouds 7 1030 83 10000 2.24 0 20:25 18.12.2021
4854 Clouds 7 1030 83 10000 2.24 0 19:34 18.12.2021
4855 Clouds 7 1030 82 10000 2.68 343 18:24 18.12.2021
4856 Clouds 7 1030 83 10000 3.13 333 17:49 18.12.2021
4857 Clouds 7 1030 82 5000 2.68 274 16:36 18.12.2021
4858 Clouds 7 1030 82 7000 2.24 275 16:18 18.12.2021
4859 Mist 7 1031 81 3800 2.68 272 14:54 18.12.2021
4860 Clouds 7 1031 81 10000 2.68 282 13:44 18.12.2021
4861 Drizzle 7 1031 82 2200 2.68 318 11:55 18.12.2021
4862 Drizzle 7 1032 82 2400 2.24 276 09:54 18.12.2021
4863 Clouds 6 1032 82 2300 2.24 274 09:31 18.12.2021
4864 Clouds 6 1032 82 2600 2.24 277 08:36 18.12.2021
4865 Clouds 6 1032 84 10000 2.24 290 06:28 18.12.2021
4866 Drizzle 7 1032 83 3900 0.89 0 01:45 18.12.2021
4867 Clouds 7 1032 81 2500 0.89 0 23:49 17.12.2021
4868 Clouds 7 1032 81 2500 1.34 0 22:39 17.12.2021
4869 Clouds 7 1032 79 2800 2.24 0 21:31 17.12.2021
4870 Clouds 7 1032 80 4700 0.45 0 20:43 17.12.2021
4871 Clouds 7 1032 82 10000 1.34 0 19:56 17.12.2021
4872 Clouds 7 1032 79 10000 2.24 0 18:40 17.12.2021
4873 Clouds 7 1032 80 10000 1.34 0 17:59 17.12.2021
4874 Clouds 7 1032 80 10000 1.34 0 16:53 17.12.2021
4875 Clouds 7 1032 80 10000 1.34 0 16:28 17.12.2021
4876 Clouds 7 1032 82 10000 2.68 0 15:49 17.12.2021
4877 Clouds 7 1032 80 10000 0.89 0 14:43 17.12.2021
4878 Clouds 7 1032 81 10000 2.24 0 13:51 17.12.2021
4879 Clouds 7 1032 81 10000 3.13 0 12:37 17.12.2021
4880 Drizzle 7 1032 80 10000 1.34 0 10:42 17.12.2021
4881 Drizzle 7 1032 80 10000 1.34 0 10:42 17.12.2021
4882 Clouds 7 1032 81 7000 0.89 0 09:47 17.12.2021
4883 Clouds 6 1032 83 6000 0.89 0 08:32 17.12.2021
4884 Clouds 6 1038 80 6000 2.06 300 07:38 17.12.2021
4885 Clouds 6 1038 77 10000 2.06 310 04:57 17.12.2021
4886 Clouds 5 1032 79 9000 0.89 351 00:57 17.12.2021
4887 Clouds 6 1032 82 10000 0.45 0 22:44 16.12.2021
4888 Clouds 7 1032 80 10000 0.89 0 22:22 16.12.2021
4889 Clouds 7 1032 80 10000 0.89 0 21:43 16.12.2021
4890 Clouds 7 1032 81 10000 2.24 0 20:40 16.12.2021
4891 Clouds 7 1032 81 10000 1.79 0 20:21 16.12.2021
4892 Clouds 7 1032 81 10000 1.79 0 20:21 16.12.2021
4893 Clouds 8 1032 79 10000 0.45 0 19:27 16.12.2021
4894 Clouds 8 1032 82 10000 1.34 0 18:31 16.12.2021
4895 Clouds 8 1032 82 10000 1.34 0 17:46 16.12.2021
4896 Clouds 9 1031 81 10000 1.34 0 16:24 16.12.2021
4897 Clouds 9 1031 81 10000 1.34 0 15:38 16.12.2021
4898 Mist 9 1031 82 5000 1.34 0 13:45 16.12.2021
4899 Drizzle 9 1031 83 2400 1.34 0 11:56 16.12.2021
4900 Mist 9 1031 82 1800 1.34 0 11:18 16.12.2021
4901 Drizzle 9 1031 82 1800 1.79 0 10:39 16.12.2021
4902 Drizzle 8 1030 82 2300 1.34 0 09:43 16.12.2021
4903 Clouds 7 1029 82 9000 1.79 0 06:23 16.12.2021
4904 Clouds 7 1029 83 9000 1.34 0 04:33 16.12.2021
4905 Clouds 8 1029 77 10000 2.24 0 23:47 15.12.2021
4906 Clouds 8 1029 77 10000 2.68 0 22:50 15.12.2021
4907 Clouds 9 1029 76 10000 2.24 0 22:21 15.12.2021
4908 Clouds 9 1029 79 10000 1.79 0 21:31 15.12.2021
4909 Clouds 9 1028 78 10000 2.68 0 20:51 15.12.2021
4910 Clouds 9 1028 80 10000 0.89 0 19:53 15.12.2021
4911 Clouds 9 1028 80 10000 2.24 0 19:18 15.12.2021
4912 Clouds 9 1028 80 10000 0.89 0 18:19 15.12.2021
4913 Clouds 9 1028 80 10000 3.13 0 17:45 15.12.2021
4914 Clouds 9 1028 80 10000 1.79 0 17:21 15.12.2021
4915 Clouds 9 1028 82 10000 2.24 0 15:49 15.12.2021
4916 Clouds 9 1028 81 10000 1.34 0 15:30 15.12.2021
4917 Drizzle 9 1028 81 9000 2.24 0 14:48 15.12.2021
4918 Clouds 9 1028 82 9000 3.13 0 13:34 15.12.2021
4919 Clouds 9 1028 80 10000 2.68 0 11:52 15.12.2021
4920 Drizzle 9 1028 81 5000 3.13 0 10:22 15.12.2021
4921 Mist 8 1027 81 5000 2.68 0 08:26 15.12.2021
4922 Clouds 8 1027 81 10000 0.89 0 05:53 15.12.2021
4923 Clouds 8 1027 82 8000 0.89 0 00:37 15.12.2021
4924 Clouds 8 1027 82 3200 1.34 0 23:31 14.12.2021
4925 Clouds 8 1027 83 3700 2.24 342 22:44 14.12.2021
4926 Clouds 8 1027 84 5000 2.68 0 21:43 14.12.2021
4927 Clouds 8 1027 84 5000 2.68 0 21:43 14.12.2021
4928 Drizzle 8 1027 81 5000 2.24 0 20:22 14.12.2021
4929 Drizzle 8 1027 80 3400 0.89 0 19:37 14.12.2021
4930 Drizzle 7 1027 84 3600 1.79 0 18:38 14.12.2021
4931 Clouds 8 1027 78 6000 0.45 0 17:56 14.12.2021
4932 Clouds 8 1027 78 7000 1.34 0 16:47 14.12.2021
4933 Drizzle 8 1027 77 4500 2.68 0 16:28 14.12.2021
4934 Clouds 9 1026 74 10000 2.68 0 14:32 14.12.2021
4935 Clouds 9 1026 79 10000 1.34 0 12:58 14.12.2021
4936 Clouds 9 1026 75 10000 2.68 0 11:51 14.12.2021
4937 Clouds 8 1026 76 10000 3.13 0 11:22 14.12.2021
4938 Clouds 8 1026 80 10000 2.68 0 09:55 14.12.2021
4939 Clouds 7 1026 77 10000 1.34 0 09:19 14.12.2021
4940 Clouds 7 1026 78 10000 2.68 0 08:22 14.12.2021
4941 Clouds 7 1026 78 10000 0.89 0 07:39 14.12.2021
4942 Clouds 8 1027 80 10000 0.89 0 23:59 13.12.2021
4943 Clouds 8 1027 80 10000 0.45 0 22:33 13.12.2021
4944 Clouds 8 1027 80 10000 0.89 0 21:49 13.12.2021
4945 Clouds 8 1027 80 10000 2.06 250 20:58 13.12.2021
4946 Clouds 8 1027 79 10000 0.45 0 20:29 13.12.2021
4947 Clouds 8 1027 79 10000 0.45 0 19:51 13.12.2021
4948 Clouds 9 1027 81 10000 0.45 0 17:55 13.12.2021
4949 Clouds 9 1027 81 10000 0.45 0 17:19 13.12.2021
4950 Clouds 9 1027 82 10000 2.24 0 15:49 13.12.2021
4951 Clouds 9 1027 82 10000 1.34 0 14:55 13.12.2021
4952 Clouds 10 1027 84 10000 2.24 0 13:38 13.12.2021
4953 Clouds 10 1027 86 10000 2.24 0 12:41 13.12.2021
4954 Drizzle 9 1027 86 5000 1.34 0 11:54 13.12.2021
4955 Mist 9 1027 86 5000 1.34 0 11:35 13.12.2021
4956 Drizzle 9 1027 88 3700 2.24 0 10:41 13.12.2021
4957 Mist 8 1026 86 4300 1.34 0 08:52 13.12.2021
4958 Clouds 8 1026 86 6000 1.34 0 07:37 13.12.2021
4959 Clouds 8 1026 87 2700 2.24 0 05:23 13.12.2021
4960 Clouds 7 1025 86 4200 1.34 0 00:43 13.12.2021
4961 Clouds 6 1025 86 3300 2.68 0 21:59 12.12.2021
4962 Clouds 6 1025 86 3300 2.24 0 21:33 12.12.2021
4963 Clouds 6 1025 85 5000 2.68 0 19:38 12.12.2021
4964 Clouds 5 1024 87 5000 2.68 0 18:35 12.12.2021
4965 Mist 5 1024 84 4100 4.02 0 16:58 12.12.2021
4966 Clouds 5 1024 82 10000 4.02 0 16:27 12.12.2021
4967 Clouds 5 1024 85 10000 3.58 0 15:41 12.12.2021
4968 Mist 5 1024 80 4200 4.02 0 15:21 12.12.2021
4969 Clouds 5 1024 80 10000 3.13 0 14:30 12.12.2021
4970 Clouds 5 1024 80 10000 3.13 0 14:30 12.12.2021
4971 Clouds 5 1024 82 10000 3.13 0 12:56 12.12.2021
4972 Clouds 4 1024 79 10000 4.02 0 12:26 12.12.2021
4973 Drizzle 4 1024 78 6000 2.68 358 11:44 12.12.2021
4974 Clouds 4 1024 76 10000 1.79 354 10:56 12.12.2021
4975 Clouds 3 1024 81 9000 0.45 0 10:22 12.12.2021
4976 Clouds 3 1024 74 10000 1.34 0 08:54 12.12.2021
4977 Clouds 3 1024 76 10000 1.34 0 07:31 12.12.2021
4978 Clouds 2 1025 78 10000 1.34 0 05:57 12.12.2021
4979 Clouds 2 1025 79 10000 0.89 160 04:55 12.12.2021
4980 Clouds 1 1025 81 10000 0.45 266 02:58 12.12.2021
4981 Clouds 1 1024 79 10000 3.13 354 23:31 11.12.2021
4982 Clouds 1 1024 78 10000 2.68 353 22:22 11.12.2021
4983 Clouds 1 1024 78 10000 2.24 331 21:51 11.12.2021
4984 Clouds 1 1023 78 10000 2.68 279 20:29 11.12.2021
4985 Clouds 1 1023 77 10000 2.24 326 19:21 11.12.2021
4986 Clear 1 1023 82 10000 2.24 296 18:52 11.12.2021
4987 Clear 1 1023 81 10000 0.89 304 18:19 11.12.2021
4988 Clear 2 1022 77 10000 2.24 345 17:20 11.12.2021
4989 Clear 3 1022 76 10000 0.89 212 15:52 11.12.2021
4990 Clear 3 1021 76 10000 0.89 0 15:27 11.12.2021
4991 Mist 2 1021 81 1500 0.89 0 12:50 11.12.2021
4992 Mist 2 1021 81 1500 0.89 0 12:50 11.12.2021
4993 Fog 1 1020 83 300 0.45 0 11:25 11.12.2021
4994 Mist 0 1019 90 4000 1.54 230 09:45 11.12.2021
4995 Clouds 0 1019 89 3600 0.45 0 08:23 11.12.2021
4996 Clouds 0 1016 86 750 0 0 02:23 11.12.2021
4997 Clouds 0 1015 83 750 2.06 70 23:58 10.12.2021
4998 Clouds 0 1014 84 900 0.45 0 23:20 10.12.2021
4999 Clouds 0 1014 83 600 0.45 0 21:56 10.12.2021
5000 Clouds 0 1013 83 550 0.45 0 21:28 10.12.2021
5001 Fog 0 1013 82 550 3.09 90 19:21 10.12.2021
5002 Clear 0 1012 80 10000 3.09 100 18:21 10.12.2021
5003 Clouds 2 1012 76 10000 0.45 0 16:56 10.12.2021
5004 Clouds 2 1012 74 10000 2.24 111 16:28 10.12.2021
5005 Clouds 3 1012 79 10000 0.89 141 15:41 10.12.2021
5006 Clouds 3 1012 79 10000 0.89 0 15:21 10.12.2021
5007 Clouds 4 1012 79 10000 1.79 122 13:52 10.12.2021
5008 Clouds 4 1012 74 10000 1.34 0 13:26 10.12.2021
5009 Clouds 4 1012 74 10000 0.89 0 12:45 10.12.2021
5010 Clouds 3 1012 77 10000 1.34 0 11:29 10.12.2021
5011 Clouds 2 1012 77 10000 2.24 0 10:38 10.12.2021
5012 Clouds 1 1012 83 10000 2.68 151 08:58 10.12.2021
5013 Clouds 2 1013 79 10000 1.34 9 06:56 10.12.2021
5014 Clouds 1 1014 83 10000 0.89 2 02:50 10.12.2021
5015 Clouds 1 1015 87 9000 0.89 0 00:55 10.12.2021
5016 Clouds 1 1015 84 6000 0.45 0 23:37 09.12.2021
5017 Clouds 2 1015 84 10000 0.45 0 22:40 09.12.2021
5018 Clouds 2 1016 82 9000 0.45 0 22:19 09.12.2021
5019 Clouds 2 1027 83 10000 1.34 200 21:20 09.12.2021
5020 Clouds 2 1016 82 5000 1.79 169 20:34 09.12.2021
5021 Clouds 2 1016 85 5000 0.45 0 19:22 09.12.2021
5022 Clouds 2 1016 85 5000 1.34 1 18:53 09.12.2021
5023 Clouds 2 1016 82 6000 1.34 1 17:57 09.12.2021
5024 Clouds 2 1016 82 6000 0.89 163 17:28 09.12.2021
5025 Mist 2 1016 81 5000 0.89 159 16:57 09.12.2021
5026 Clouds 2 1016 81 5000 1.79 168 16:20 09.12.2021
5027 Clouds 3 1016 81 6000 0.89 137 14:58 09.12.2021
5028 Clouds 3 1016 84 6000 1.34 45 13:52 09.12.2021
5029 Clouds 2 1016 82 7000 0.45 118 12:47 09.12.2021
5030 Clouds 2 1016 82 6000 1.34 136 11:29 09.12.2021
5031 Clouds 1 1016 82 6000 1.34 169 10:20 09.12.2021
5032 Clouds 1 1016 83 6000 1.34 18 06:53 09.12.2021
5033 Clouds 1 1015 84 6000 1.79 0 03:55 09.12.2021
5034 Clouds 2 1015 83 6000 2.68 148 00:25 09.12.2021
5035 Clouds 2 1015 83 6000 0.89 149 23:36 08.12.2021
5036 Clouds 2 1015 82 6000 2.24 11 22:57 08.12.2021
5037 Clouds 2 1015 82 7000 2.68 128 22:25 08.12.2021
5038 Clouds 2 1015 85 10000 2.68 137 21:33 08.12.2021
5039 Clear 2 1015 81 10000 2.24 72 20:48 08.12.2021
5040 Clouds 2 1015 80 10000 1.79 0 19:56 08.12.2021
5041 Clouds 2 1015 80 10000 1.34 5 19:20 08.12.2021
5042 Clear 2 1014 79 10000 1.34 0 18:22 08.12.2021
5043 Clear 3 1014 78 10000 2.24 5 16:53 08.12.2021
5044 Clear 3 1014 78 10000 0.89 2 15:42 08.12.2021
5045 Clouds 3 1014 82 10000 0.89 0 15:22 08.12.2021
5046 Clouds 4 1014 79 10000 2.68 0 13:26 08.12.2021
5047 Clouds 3 1014 82 10000 3.13 0 10:45 08.12.2021
5048 Clouds 3 1014 82 10000 3.13 0 10:45 08.12.2021
5049 Clouds 2 1014 84 10000 4.02 0 09:58 08.12.2021
5050 Rain 2 1014 85 10000 4.02 1 08:34 08.12.2021
5051 Snow 1 1014 78 9000 2.68 0 06:36 08.12.2021
5052 Clouds 2 1015 81 10000 4.92 0 01:20 08.12.2021
5053 Clouds 1 1016 84 10000 2.24 0 23:23 07.12.2021
5054 Clouds 1 1017 89 10000 2.68 0 21:26 07.12.2021
5055 Clouds 1 1017 85 10000 2.24 0 20:26 07.12.2021
5056 Clouds 2 1018 82 10000 2.24 140 19:23 07.12.2021
5057 Clouds 3 1018 84 10000 2.24 153 18:32 07.12.2021
5058 Clouds 3 1018 81 10000 2.24 143 17:27 07.12.2021
5059 Clouds 3 1018 80 10000 0.45 131 16:56 07.12.2021
5060 Clouds 3 1019 78 10000 0.89 133 16:26 07.12.2021
5061 Clouds 3 1018 73 10000 0.45 140 14:47 07.12.2021
5062 Clouds 4 1018 75 10000 0.89 0 13:45 07.12.2021
5063 Clouds 3 1018 77 10000 0.45 1 12:27 07.12.2021
5064 Clouds 2 1018 80 10000 0.89 0 11:23 07.12.2021
5065 Clouds 1 1018 80 10000 1.34 150 09:43 07.12.2021
5066 Clouds 1 1017 80 10000 2.24 143 07:52 07.12.2021
5067 Clouds 1 1017 84 10000 2.68 138 05:54 07.12.2021
5068 Clouds 1 1017 83 9000 1.79 139 05:27 07.12.2021
5069 Clouds 0 1019 82 10000 3.13 146 23:41 06.12.2021
5070 Clouds 1 1019 79 10000 2.68 0 22:44 06.12.2021
5071 Clouds 1 1019 82 10000 3.13 69 22:18 06.12.2021
5072 Clouds 1 1019 82 10000 4.02 158 21:37 06.12.2021
5073 Clouds 1 1020 83 10000 3.13 10 20:33 06.12.2021
5074 Clear 0 1020 80 10000 3.13 147 19:27 06.12.2021
5075 Clouds 0 1020 83 10000 4.02 4 18:57 06.12.2021
5076 Clouds 0 1020 82 10000 4.47 4 17:55 06.12.2021
5077 Clouds 0 1020 82 10000 2.68 0 17:36 06.12.2021
5078 Clouds 1 1021 85 10000 2.68 0 16:21 06.12.2021
5079 Clouds 1 1021 82 10000 2.24 3 14:54 06.12.2021
5080 Clouds 1 1021 81 10000 1.34 2 13:45 06.12.2021
5081 Clouds 1 1021 84 10000 2.24 116 12:39 06.12.2021
5082 Clouds 1 1022 87 10000 0.45 109 10:32 06.12.2021
5083 Drizzle 1 1021 88 7000 0.89 71 08:35 06.12.2021
5084 Clouds 1 1020 87 6000 0.45 0 04:56 06.12.2021
5085 Clouds 2 1019 86 4300 0.45 57 22:52 05.12.2021
5086 Clouds 3 1018 84 1000 1.34 0 21:26 05.12.2021
5087 Clouds 3 1018 84 1500 0.45 45 20:59 05.12.2021
5088 Clouds 3 1018 82 550 1.54 80 20:19 05.12.2021
5089 Clouds 3 1018 82 450 0.45 53 19:33 05.12.2021
5090 Fog 3 1017 86 900 2.68 91 18:43 05.12.2021
5091 Clouds 2 1017 80 10000 1.54 100 18:19 05.12.2021
5092 Clear 2 1017 80 10000 0 0 17:48 05.12.2021
5093 Clear 3 1017 81 10000 0 0 16:45 05.12.2021
5094 Clear 4 1016 81 10000 0 0 16:26 05.12.2021
5095 Clear 5 1016 80 10000 1.03 260 15:34 05.12.2021
5096 Clear 5 1016 79 10000 0.45 0 14:37 05.12.2021
5097 Clouds 5 1016 77 10000 3.09 250 14:19 05.12.2021
5098 Clouds 5 1016 79 10000 3.09 230 13:22 05.12.2021
5099 Clouds 5 1016 80 10000 3.6 230 12:40 05.12.2021
5100 Clouds 5 1015 80 10000 0.45 0 12:18 05.12.2021
5101 Clouds 5 1015 82 10000 2.06 220 11:20 05.12.2021
5102 Clouds 3 1015 85 10000 1.54 120 09:59 05.12.2021
5103 Clouds 3 1014 86 10000 0.45 0 07:55 05.12.2021
5104 Clouds 3 1013 87 7000 0.45 353 03:27 05.12.2021
5105 Rain 2 1012 83 5000 0.45 0 23:45 04.12.2021
5106 Snow 2 1011 90 4700 0.89 1 21:55 04.12.2021
5107 Snow 2 1011 83 9000 0.89 0 20:57 04.12.2021
5108 Clouds 3 1027 80 10000 0.45 0 20:20 04.12.2021
5109 Rain 3 1027 79 10000 2.24 1 19:32 04.12.2021
5110 Rain 4 1011 78 10000 2.68 0 18:21 04.12.2021
5111 Clouds 4 1011 77 10000 2.24 0 17:39 04.12.2021
5112 Clouds 4 1011 75 10000 1.34 0 16:51 04.12.2021
5113 Clouds 4 1011 75 10000 2.68 0 16:31 04.12.2021
5114 Clouds 4 1012 76 10000 1.79 0 15:57 04.12.2021
5115 Clouds 4 1013 76 10000 0.89 0 11:54 04.12.2021
5116 Clouds 4 1013 74 10000 0.89 0 11:32 04.12.2021
5117 Clouds 4 1013 79 10000 0.45 0 10:56 04.12.2021
5118 Clouds 3 1013 85 10000 1.03 200 08:49 04.12.2021
5119 Clouds 3 1013 80 10000 0.45 358 07:22 04.12.2021
5120 Clouds 3 1014 76 10000 2.68 324 04:42 04.12.2021
5121 Clouds 3 1015 73 10000 4.47 322 00:47 04.12.2021
5122 Clouds 3 1015 71 10000 3.58 0 23:27 03.12.2021
5123 Clouds 3 1015 71 10000 4.92 0 22:48 03.12.2021
5124 Clouds 3 1015 77 10000 5.81 356 21:50 03.12.2021
5125 Clouds 3 1015 72 10000 5.36 358 20:56 03.12.2021
5126 Clouds 3 1015 77 10000 5.36 358 20:26 03.12.2021
5127 Clouds 3 1016 68 8000 5.36 356 18:49 03.12.2021
5128 Clear 3 1016 67 10000 4.02 262 18:22 03.12.2021
5129 Clouds 3 1016 74 10000 3.13 0 17:29 03.12.2021
5130 Clouds 3 1017 71 10000 4.47 0 13:35 03.12.2021
5131 Clouds 2 1018 70 10000 4.92 0 12:20 03.12.2021
5132 Clouds 2 1018 73 10000 2.68 0 11:19 03.12.2021
5133 Clouds 0 1018 77 10000 3.58 0 08:40 03.12.2021
5134 Clouds 0 1027 77 10000 3.58 0 07:43 03.12.2021
5135 Clouds -1 1027 76 10000 2.24 0 06:41 03.12.2021
5136 Clouds -1 1017 80 10000 2.24 0 00:49 03.12.2021
5137 Clouds -1 1017 80 10000 0.89 0 23:48 02.12.2021
5138 Clouds -2 1017 81 10000 1.34 0 22:54 02.12.2021
5139 Clouds -2 1016 88 10000 1.34 0 21:41 02.12.2021
5140 Clear -1 1016 84 10000 1.34 0 20:46 02.12.2021
5141 Clear -1 1016 75 10000 0.45 0 20:22 02.12.2021
5142 Clear 0 1016 73 10000 0.45 0 19:22 02.12.2021
5143 Clouds 2 1014 82 10000 0.45 287 16:53 02.12.2021
5144 Clouds 3 1014 71 10000 1.34 282 15:41 02.12.2021
5145 Clear 3 1013 67 10000 1.79 318 14:53 02.12.2021
5146 Clouds 4 1013 67 10000 1.79 0 13:39 02.12.2021
5147 Clouds 4 1013 69 10000 2.68 0 12:46 02.12.2021
5148 Clear 3 1013 71 10000 1.34 0 11:52 02.12.2021
5149 Clouds 2 1012 75 10000 0.89 315 09:27 02.12.2021
5150 Clouds 2 1012 75 10000 2.24 312 08:19 02.12.2021
5151 Clouds 4 1009 72 10000 6.26 269 01:38 02.12.2021
5152 Clouds 5 1009 71 10000 5.36 273 00:50 02.12.2021
5153 Clouds 6 1008 76 10000 6.71 0 22:33 01.12.2021
5154 Clouds 6 1007 75 10000 10.73 0 21:55 01.12.2021
5155 Clouds 7 1007 76 10000 7.6 0 20:35 01.12.2021
5156 Clouds 7 1006 80 10000 7.15 0 19:47 01.12.2021
5157 Clouds 8 1006 73 10000 6.26 0 18:57 01.12.2021
5158 Clouds 8 1006 72 10000 6.71 0 17:39 01.12.2021
5159 Clouds 8 1006 76 10000 4.47 0 16:38 01.12.2021
5160 Clouds 9 1007 73 10000 7.15 0 14:49 01.12.2021
5161 Clouds 9 1007 73 10000 6.71 0 13:44 01.12.2021
5162 Clouds 8 1008 81 10000 6.71 0 11:42 01.12.2021
5163 Clouds 8 1009 81 10000 4.47 0 10:42 01.12.2021
5164 Clouds 8 1010 79 10000 3.58 0 08:55 01.12.2021
5165 Clouds 8 1010 84 10000 4.47 0 08:26 01.12.2021
5166 Clouds 8 1011 87 10000 5.36 0 07:33 01.12.2021
5167 Rain 6 1013 87 9000 0.45 0 04:22 01.12.2021
5168 Rain 5 1013 91 5000 1.79 0 03:39 01.12.2021
5169 Clouds 5 1015 88 10000 0.45 0 00:51 01.12.2021
5170 Clouds 5 1015 89 10000 0.89 0 23:45 30.11.2021
5171 Clouds 5 1016 87 10000 1.79 0 22:49 30.11.2021
5172 Clouds 5 1015 78 10000 2.24 0 21:28 30.11.2021
5173 Clouds 6 1015 77 10000 4.47 0 20:37 30.11.2021
5174 Clouds 5 1015 77 10000 3.58 0 19:53 30.11.2021
5175 Clouds 5 1015 75 10000 4.02 0 19:30 30.11.2021
5176 Clouds 5 1014 75 10000 4.02 0 18:35 30.11.2021
5177 Clouds 6 1014 76 10000 5.36 0 16:49 30.11.2021
5178 Clouds 7 1013 80 10000 5.81 0 15:18 30.11.2021
5179 Clouds 7 1013 83 10000 5.81 0 14:20 30.11.2021
5180 Clouds 7 1012 88 10000 6.26 0 13:25 30.11.2021
5181 Clouds 7 1012 90 10000 4.02 0 12:45 30.11.2021
5182 Clouds 6 1013 90 10000 5.81 0 11:49 30.11.2021
5183 Mist 6 1013 89 2200 7.15 0 11:19 30.11.2021
5184 Clouds 5 1013 88 3400 6.26 0 10:32 30.11.2021
5185 Clouds 3 1013 83 9000 5.36 0 08:52 30.11.2021
5186 Clouds 3 1013 88 10000 5.81 0 08:22 30.11.2021
5187 Clouds 2 1013 88 9000 8.05 0 07:47 30.11.2021
5188 Rain 2 1017 81 10000 3.13 0 02:41 30.11.2021
5189 Clouds 1 1017 84 10000 2.68 0 01:42 30.11.2021
5190 Clouds 1 1018 89 10000 2.24 0 00:24 30.11.2021
5191 Clouds 2 1018 81 10000 2.24 0 23:24 29.11.2021
5192 Clouds 2 1018 82 10000 1.34 0 22:56 29.11.2021
5193 Clouds 2 1018 82 10000 2.24 0 22:33 29.11.2021
5194 Clouds 3 1018 88 10000 2.68 0 21:30 29.11.2021
5195 Clouds 3 1018 88 10000 2.24 0 20:59 29.11.2021
5196 Clouds 3 1018 87 10000 1.34 0 20:40 29.11.2021
5197 Clouds 3 1018 81 10000 1.79 0 19:56 29.11.2021
5198 Clouds 3 1018 81 10000 2.24 0 19:36 29.11.2021
5199 Clouds 3 1018 81 10000 2.24 0 19:36 29.11.2021
5200 Clouds 3 1018 80 10000 2.24 0 18:52 29.11.2021
5201 Clouds 2 1008 95 309 4.45 293 17:55 29.11.2021
5202 Clouds 2 1007 96 580 4.28 291 17:20 29.11.2021
5203 Clouds 2 1007 96 1017 4.32 291 16:29 29.11.2021
5204 Clouds 2 1007 97 816 4.33 291 15:52 29.11.2021
5205 Clouds 2 1006 91 10000 4.84 293 14:43 29.11.2021
5206 Clouds 3 1005 85 10000 4.79 293 13:36 29.11.2021
5207 Clouds 3 1005 80 10000 4.27 294 12:42 29.11.2021
5208 Clouds 3 1004 82 10000 3.72 295 11:43 29.11.2021
5209 Clouds 2 1004 87 10000 2.81 312 10:59 29.11.2021
5210 Clouds 2 1004 95 2916 2.41 325 09:50 29.11.2021
5211 Clouds 2 1000 93 10000 2.57 280 06:43 29.11.2021
5212 Clouds 2 999 87 10000 2.57 270 04:53 29.11.2021
5213 Clouds 2 998 93 10000 3.09 250 00:44 29.11.2021
5214 Clouds 2 998 93 10000 3.09 260 23:47 28.11.2021
5215 Clouds 2 998 87 10000 2.57 260 23:28 28.11.2021
5216 Clouds 2 997 93 10000 3.09 260 21:53 28.11.2021
5217 Clouds 2 997 93 10000 2.57 260 21:28 28.11.2021
5218 Clouds 2 997 93 10000 2.06 270 20:35 28.11.2021
5219 Clouds 2 997 93 10000 2.06 260 19:29 28.11.2021
5220 Clouds 2 997 93 10000 2.06 260 18:40 28.11.2021
5221 Clouds 3 997 87 9000 2.57 290 17:57 28.11.2021
5222 Clouds 3 997 87 9000 2.57 290 17:32 28.11.2021
5223 Clouds 3 996 87 10000 2.57 280 16:45 28.11.2021
5224 Clouds 3 996 87 10000 3.6 280 16:27 28.11.2021
5225 Clouds 3 996 87 10000 3.6 290 15:45 28.11.2021
5226 Clouds 3 996 81 10000 4.12 280 14:51 28.11.2021
5227 Clouds 3 996 81 10000 4.63 240 13:53 28.11.2021
5228 Clouds 4 996 75 10000 4.63 240 12:54 28.11.2021
5229 Clouds 2 996 87 10000 2.57 240 11:29 28.11.2021
5230 Clouds 1 996 86 10000 2.57 210 10:23 28.11.2021
5231 Clouds 1 996 86 10000 2.06 210 09:46 28.11.2021
5232 Clear 0 996 93 10000 1.54 170 09:27 28.11.2021
5233 Clouds 0 994 86 10000 1.54 220 00:50 28.11.2021
5234 Clouds 2 993 87 10000 2.57 210 21:49 27.11.2021
5235 Clouds 4 993 81 10000 3.09 230 19:50 27.11.2021
5236 Clouds 3 992 93 10000 0 0 18:26 27.11.2021
5237 Clouds 4 991 87 10000 1.54 180 16:18 27.11.2021
5238 Drizzle 4 990 87 10000 3.6 240 14:44 27.11.2021
5239 Clouds 4 990 87 10000 1.54 180 13:39 27.11.2021
5240 Clouds 4 989 81 10000 2.57 150 11:37 27.11.2021
5241 Clouds 4 988 75 10000 3.09 150 10:19 27.11.2021
5242 Clouds 3 988 81 10000 2.57 130 09:18 27.11.2021
5243 Clouds 2 987 87 10000 2.57 100 06:59 27.11.2021
5244 Clouds 3 987 81 10000 3.09 120 04:53 27.11.2021
5245 Clouds 2 988 93 10000 3.6 130 00:25 27.11.2021
5246 Rain 2 989 93 10000 3.6 150 22:51 26.11.2021
5247 Rain 3 990 81 10000 3.6 150 22:24 26.11.2021
5248 Rain 3 990 81 10000 3.09 150 21:33 26.11.2021
5249 Rain 2 990 87 10000 2.57 140 20:42 26.11.2021
5250 Clouds 2 991 87 10000 2.06 170 19:56 26.11.2021
5251 Clear 2 991 93 10000 2.06 0 19:18 26.11.2021
5252 Clouds 3 992 87 10000 2.57 140 17:54 26.11.2021
5253 Clouds 3 992 93 10000 3.09 150 17:21 26.11.2021
5254 Drizzle 3 994 93 9000 3.09 190 15:29 26.11.2021
5255 Drizzle 4 1011 85 9000 2.68 0 13:35 26.11.2021
5256 Clouds 5 1013 79 10000 2.24 0 11:30 26.11.2021
5257 Clouds 5 1013 74 10000 2.68 0 10:35 26.11.2021
5258 Clouds 4 1014 77 10000 1.34 0 08:56 26.11.2021
5259 Clouds 3 1014 86 10000 0.89 0 08:21 26.11.2021
5260 Clouds 3 1014 86 10000 0.89 0 07:25 26.11.2021
5261 Clouds 4 1014 78 10000 1.34 0 06:26 26.11.2021
5262 Clouds 4 1015 85 10000 3.13 0 03:57 26.11.2021
5263 Clouds 3 1016 89 10000 4.02 0 01:53 26.11.2021
5264 Clouds 4 1017 79 8000 2.24 0 22:48 25.11.2021
5265 Clouds 5 1017 77 10000 2.68 0 21:26 25.11.2021
5266 Clouds 5 1017 77 10000 2.68 0 20:27 25.11.2021
5267 Clouds 5 1017 76 10000 2.68 0 18:47 25.11.2021
5268 Clouds 5 1017 73 10000 3.58 0 17:47 25.11.2021
5269 Clouds 5 1017 73 10000 2.68 0 17:25 25.11.2021
5270 Clouds 5 1017 73 10000 4.47 0 16:33 25.11.2021
5271 Clouds 6 1017 65 10000 3.58 0 14:59 25.11.2021
5272 Clouds 6 1018 65 10000 2.24 0 13:50 25.11.2021
5273 Clouds 6 1018 74 10000 2.68 0 12:27 25.11.2021
5274 Clouds 6 1018 63 10000 2.68 0 11:50 25.11.2021
5275 Clouds 5 1019 80 10000 0.89 247 09:41 25.11.2021
5276 Clouds 4 1011 81 10000 0.51 170 06:22 25.11.2021
5277 Clouds 5 1013 81 10000 0 0 02:50 25.11.2021
5278 Clouds 5 1015 81 10000 1.54 150 23:31 24.11.2021
5279 Clouds 5 1016 68 10000 0 0 22:26 24.11.2021
5280 Clouds 5 1016 68 10000 0 0 21:38 24.11.2021
5281 Clouds 5 1022 72 10000 0.45 0 20:56 24.11.2021
5282 Clouds 5 1023 72 10000 0 0 20:26 24.11.2021
5283 Clouds 6 1023 74 10000 2.06 180 18:31 24.11.2021
5284 Clouds 6 1023 74 10000 1.54 180 17:59 24.11.2021
5285 Clouds 7 1024 75 10000 0.45 0 15:47 24.11.2021
5286 Clouds 7 1024 76 10000 0.45 0 14:54 24.11.2021
5287 Clouds 7 1024 76 10000 0.45 0 14:54 24.11.2021
5288 Clouds 7 1024 79 10000 0.45 0 14:20 24.11.2021
5289 Clouds 7 1024 79 10000 0.45 0 14:20 24.11.2021
5290 Clouds 8 1025 82 10000 1.34 0 12:50 24.11.2021
5291 Clouds 7 1026 85 10000 0.45 0 11:22 24.11.2021
5292 Clouds 7 1026 87 10000 0.89 0 10:50 24.11.2021
5293 Clouds 7 1026 90 10000 0.89 0 10:27 24.11.2021
5294 Clouds 6 1026 89 6000 0.89 0 07:56 24.11.2021
5295 Clouds 6 1026 89 5000 1.34 0 06:56 24.11.2021
5296 Clouds 6 1027 93 4200 0.89 0 03:59 24.11.2021
5297 Clouds 7 1027 91 3400 1.34 0 01:29 24.11.2021
5298 Mist 6 1027 90 3300 1.79 0 22:59 23.11.2021
5299 Mist 6 1027 90 3300 1.79 0 22:34 23.11.2021
5300 Mist 6 1027 93 5000 1.34 0 21:45 23.11.2021
5301 Mist 6 1027 93 5000 1.34 0 21:45 23.11.2021
5302 Drizzle 6 1027 88 6000 3.09 260 20:21 23.11.2021
5303 Clouds 6 1027 90 7000 3.6 260 19:20 23.11.2021
5304 Clouds 6 1027 87 6000 4.12 260 18:29 23.11.2021
5305 Drizzle 6 1027 89 10000 4.63 250 17:23 23.11.2021
5306 Drizzle 7 1027 89 9000 4.12 250 16:35 23.11.2021
5307 Clouds 7 1027 92 8000 4.63 250 15:25 23.11.2021
5308 Mist 7 1027 87 2200 3.6 240 14:39 23.11.2021
5309 Mist 7 1027 92 4600 4.63 270 12:50 23.11.2021
5310 Mist 6 1027 88 1800 4.12 260 10:26 23.11.2021
5311 Mist 5 1027 86 3500 3.6 270 09:43 23.11.2021
5312 Clouds 5 1026 86 7000 4.63 260 07:51 23.11.2021
5313 Rain 4 1026 76 10000 4.12 250 04:38 23.11.2021
5314 Clouds 4 1027 83 10000 3.09 270 03:27 23.11.2021
5315 Clouds 2 1028 79 10000 2.57 260 23:35 22.11.2021
5316 Clouds 2 1028 89 10000 2.57 260 22:57 22.11.2021
5317 Clouds 1 1027 90 10000 3.09 260 22:30 22.11.2021
5318 Clouds 1 1027 90 10000 3.09 260 22:30 22.11.2021
5319 Clear 1 1027 78 10000 2.57 260 21:44 22.11.2021
5320 Clear 1 1027 76 10000 2.57 260 21:18 22.11.2021
5321 Clouds 1 1027 88 10000 2.57 270 20:26 22.11.2021
5322 Clouds 2 1027 75 10000 1.54 280 19:20 22.11.2021
5323 Clear 2 1027 73 10000 1.54 290 18:40 22.11.2021
5324 Clear 2 1026 75 10000 2.06 280 17:46 22.11.2021
5325 Clear 4 1026 80 10000 2.57 310 16:30 22.11.2021
5326 Clouds 6 1025 63 10000 2.57 310 14:41 22.11.2021
5327 Clouds 6 1025 71 10000 2.57 330 12:48 22.11.2021
5328 Clear 4 1025 81 10000 2.06 340 11:28 22.11.2021
5329 Clear 3 1024 86 10000 2.06 340 10:19 22.11.2021
5330 Clouds 2 1023 88 10000 1.54 340 08:43 22.11.2021
5331 Clouds 2 1022 91 10000 2.06 350 07:33 22.11.2021
5332 Clouds 4 1016 87 10000 1.54 340 01:36 22.11.2021
5333 Clouds 4 1015 85 10000 1.54 290 23:20 21.11.2021
5334 Clouds 4 1014 86 10000 2.06 310 22:42 21.11.2021
5335 Clouds 5 1013 91 10000 1.54 290 20:45 21.11.2021
5336 Clouds 5 1012 83 10000 2.06 300 20:26 21.11.2021
5337 Clouds 6 1011 89 10000 2.06 300 18:53 21.11.2021
5338 Clouds 6 1010 79 10000 2.57 280 17:56 21.11.2021
5339 Clouds 6 1010 79 10000 2.57 280 17:35 21.11.2021
5340 Clouds 9 1009 79 10000 3.6 300 14:50 21.11.2021
5341 Clouds 9 1009 79 10000 3.6 270 14:31 21.11.2021
5342 Clouds 9 1009 87 10000 3.6 290 12:58 21.11.2021
5343 Clouds 9 1009 90 10000 4.63 280 12:25 21.11.2021
5344 Drizzle 9 1009 89 7000 3.6 280 11:37 21.11.2021
5345 Drizzle 8 1009 84 7000 4.63 260 10:19 21.11.2021
5346 Drizzle 8 1009 85 2600 4.63 260 09:45 21.11.2021
5347 Clouds 8 1009 81 3400 4.63 250 08:32 21.11.2021
5348 Clouds 8 1009 87 10000 4.63 230 07:53 21.11.2021
5349 Clouds 8 1009 78 7000 4.63 250 06:37 21.11.2021
5350 Clouds 8 1010 77 6000 5.14 260 05:42 21.11.2021
5351 Clouds 8 1011 73 10000 4.63 240 03:26 21.11.2021
5352 Clouds 9 1011 72 10000 5.66 250 02:56 21.11.2021
5353 Clouds 9 1011 71 10000 5.66 250 02:32 21.11.2021
5354 Clouds 9 1013 73 10000 6.69 250 00:51 21.11.2021
5355 Clouds 9 1015 75 8000 6.17 250 22:55 20.11.2021
5356 Clouds 9 1015 73 8000 5.14 250 21:34 20.11.2021
5357 Clouds 9 1016 82 9000 4.63 260 20:39 20.11.2021
5358 Clouds 10 1018 70 9000 6.17 260 18:46 20.11.2021
5359 Clouds 10 1018 70 9000 6.17 260 18:25 20.11.2021
5360 Clouds 10 1018 79 9000 4.63 260 17:22 20.11.2021
5361 Clouds 10 1019 79 9000 5.14 260 16:41 20.11.2021
5362 Clouds 11 1020 65 10000 5.66 250 14:40 20.11.2021
5363 Clouds 11 1021 66 10000 6.17 260 14:21 20.11.2021
5364 Clouds 11 1023 82 10000 5.14 260 11:56 20.11.2021
5365 Clouds 11 1024 76 10000 3.6 260 10:29 20.11.2021
5366 Clouds 11 1024 84 10000 5.14 260 08:57 20.11.2021
5367 Clouds 11 1024 76 10000 4.63 260 07:20 20.11.2021
5368 Clouds 11 1025 85 10000 2.24 0 05:26 20.11.2021
5369 Clouds 11 1025 80 10000 2.24 0 04:50 20.11.2021
5370 Clouds 11 1026 84 10000 2.68 0 01:48 20.11.2021
5371 Clouds 11 1026 85 10000 3.13 0 00:40 20.11.2021
5372 Clouds 11 1026 85 10000 2.68 0 22:55 19.11.2021
5373 Clouds 11 1026 77 10000 3.13 0 21:58 19.11.2021
5374 Clouds 11 1026 76 10000 3.13 0 20:58 19.11.2021
5375 Clouds 11 1026 76 10000 3.13 0 20:36 19.11.2021
5376 Clouds 11 1026 83 10000 4.02 0 19:50 19.11.2021
5377 Clouds 11 1025 78 10000 2.68 0 18:54 19.11.2021
5378 Clouds 11 1025 78 10000 4.02 0 18:22 19.11.2021
5379 Clouds 12 1025 77 10000 3.58 0 17:26 19.11.2021
5380 Clouds 12 1025 76 10000 3.13 0 15:51 19.11.2021
5381 Clouds 12 1025 78 10000 4.02 0 13:28 19.11.2021
5382 Clouds 11 1026 89 10000 4.47 0 10:27 19.11.2021
5383 Clouds 11 1026 89 10000 4.47 0 10:27 19.11.2021
5384 Clouds 11 1026 92 10000 3.58 0 09:37 19.11.2021
5385 Drizzle 10 1025 90 4700 3.58 0 08:20 19.11.2021
5386 Clouds 10 1024 88 5000 4.02 0 04:53 19.11.2021
5387 Clouds 10 1025 88 5000 2.68 0 02:35 19.11.2021
5388 Clouds 9 1025 90 4800 4.02 0 23:51 18.11.2021
5389 Clouds 9 1024 77 10000 6.71 0 21:56 18.11.2021
5390 Clouds 9 1024 75 10000 4.02 0 20:49 18.11.2021
5391 Clouds 10 1024 73 10000 6.71 0 20:31 18.11.2021
5392 Clouds 10 1024 71 10000 6.26 0 19:55 18.11.2021
5393 Clouds 10 1024 70 10000 4.92 0 19:34 18.11.2021
5394 Clouds 10 1024 67 10000 4.47 0 18:34 18.11.2021
5395 Clouds 10 1024 67 10000 4.47 0 17:51 18.11.2021
5396 Clouds 10 1024 67 10000 4.47 0 16:45 18.11.2021
5397 Clear 10 1024 67 10000 4.02 0 15:49 18.11.2021
5398 Clouds 10 1025 70 10000 5.36 0 13:59 18.11.2021
5399 Clouds 10 1025 79 10000 4.02 0 12:34 18.11.2021
5400 Clouds 10 1026 73 10000 4.47 0 11:43 18.11.2021
5401 Clouds 9 1026 73 10000 4.47 0 11:25 18.11.2021
5402 Clouds 9 1026 76 10000 3.58 0 10:19 18.11.2021
5403 Clouds 7 1025 88 10000 3.13 241 07:42 18.11.2021
5404 Clouds 7 1025 82 10000 2.68 243 06:20 18.11.2021
5405 Clouds 7 1025 82 10000 3.13 244 05:41 18.11.2021
5406 Clouds 6 1023 84 10000 2.68 254 01:25 18.11.2021
5407 Clouds 6 1023 84 10000 2.68 247 23:27 17.11.2021
5408 Clouds 6 1023 84 10000 1.79 237 22:39 17.11.2021
5409 Clouds 6 1023 84 10000 2.24 251 22:18 17.11.2021
5410 Clouds 6 1022 88 10000 2.24 256 21:35 17.11.2021
5411 Clouds 7 1021 85 10000 2.24 252 19:31 17.11.2021
5412 Drizzle 7 1020 85 10000 3.13 247 17:35 17.11.2021
5413 Clouds 7 1019 85 10000 1.79 0 15:54 17.11.2021
5414 Clouds 7 1019 77 10000 2.68 0 13:18 17.11.2021
5415 Clouds 7 1019 75 10000 3.13 0 12:36 17.11.2021
5416 Clouds 6 1019 81 10000 4.02 0 10:52 17.11.2021
5417 Clouds 5 1019 82 10000 1.79 0 09:38 17.11.2021
5418 Clouds 5 1019 85 10000 3.58 0 07:46 17.11.2021
5419 Clouds 5 1019 85 10000 1.79 0 07:23 17.11.2021
5420 Clouds 4 1019 87 10000 1.34 0 02:48 17.11.2021
5421 Clouds 4 1020 90 5000 0.89 0 23:58 16.11.2021
5422 Clouds 4 1021 86 6000 0.89 0 22:30 16.11.2021
5423 Clouds 4 1021 85 9000 1.34 0 20:19 16.11.2021
5424 Clouds 4 1021 85 10000 0.89 0 19:39 16.11.2021
5425 Clouds 5 1021 85 7000 1.34 0 18:49 16.11.2021
5426 Clouds 5 1021 84 8000 0.89 0 18:28 16.11.2021
5427 Clouds 5 1021 84 7000 1.03 290 17:18 16.11.2021
5428 Drizzle 5 1021 84 9000 0.89 0 16:20 16.11.2021
5429 Drizzle 5 1021 84 9000 0.89 0 15:43 16.11.2021
5430 Drizzle 5 1022 83 5000 1.54 160 13:47 16.11.2021
5431 Mist 5 1024 83 5000 0.45 0 10:27 16.11.2021
5432 Mist 5 1024 83 5000 1.34 0 09:42 16.11.2021
5433 Mist 4 1024 93 5000 2.57 110 07:53 16.11.2021
5434 Mist 4 1024 93 5000 2.06 80 07:28 16.11.2021
5435 Clouds 5 1026 86 10000 3.09 120 23:54 15.11.2021
5436 Clouds 5 1027 86 10000 0.89 89 22:41 15.11.2021
5437 Clouds 5 1027 86 10000 1.34 86 22:20 15.11.2021
5438 Clouds 5 1027 85 10000 2.24 103 21:46 15.11.2021
5439 Clouds 5 1027 77 10000 0.89 114 21:21 15.11.2021
5440 Clouds 5 1027 83 10000 1.34 91 19:39 15.11.2021
5441 Clouds 5 1027 83 10000 3.13 91 17:36 15.11.2021
5442 Clouds 6 1027 75 10000 2.68 114 15:57 15.11.2021
5443 Clouds 6 1027 75 10000 4.02 96 15:39 15.11.2021
5444 Clouds 6 1027 72 10000 4.02 99 15:19 15.11.2021
5445 Clouds 6 1028 74 10000 2.24 106 12:43 15.11.2021
5446 Clouds 6 1028 76 10000 2.68 0 10:53 15.11.2021
5447 Clouds 5 1028 86 10000 3.13 0 09:24 15.11.2021
5448 Clouds 5 1028 87 10000 3.09 80 07:26 15.11.2021
5449 Clouds 5 1028 87 9000 5.66 100 04:45 15.11.2021
5450 Clouds 6 1029 85 6000 0.45 83 22:47 14.11.2021
5451 Clouds 6 1028 90 6000 2.24 82 22:28 14.11.2021
5452 Clouds 7 1028 87 10000 2.24 89 19:51 14.11.2021
5453 Clouds 7 1028 91 9000 0.89 7 19:18 14.11.2021
5454 Clouds 7 1027 91 10000 1.34 75 18:54 14.11.2021
5455 Clouds 7 1027 91 10000 1.34 0 18:36 14.11.2021
5456 Clouds 7 1027 91 10000 1.79 72 18:18 14.11.2021
5457 Clouds 7 1027 87 10000 0.89 0 17:55 14.11.2021
5458 Clouds 7 1027 87 10000 1.34 0 17:37 14.11.2021
5459 Clouds 7 1027 87 6000 1.34 0 17:19 14.11.2021
5460 Clouds 7 1026 87 6000 0.89 0 16:45 14.11.2021
5461 Clouds 7 1026 87 7000 0.89 0 16:19 14.11.2021
5462 Clouds 8 1025 83 10000 2.06 90 15:22 14.11.2021
5463 Clouds 8 1025 84 10000 2.06 60 14:45 14.11.2021
5464 Clouds 8 1025 86 9000 1.54 50 14:26 14.11.2021
5465 Clouds 8 1025 86 7000 1.54 60 13:54 14.11.2021
5466 Clouds 8 1025 86 7000 1.54 60 13:35 14.11.2021
5467 Clouds 8 1024 88 6000 0.89 0 12:27 14.11.2021
5468 Clouds 8 1024 88 7000 0.89 0 11:41 14.11.2021
5469 Clouds 8 1024 88 6000 0.89 0 10:41 14.11.2021
5470 Clouds 7 1023 88 7000 0.45 0 09:47 14.11.2021
5471 Clouds 7 1023 87 10000 1.34 0 08:53 14.11.2021
5472 Clouds 7 1021 87 10000 0.45 0 07:19 14.11.2021
5473 Clouds 7 1018 81 10000 1.32 192 23:47 13.11.2021
5474 Clouds 7 1017 80 10000 0.84 236 22:25 13.11.2021
5475 Clouds 7 1017 80 10000 0.84 236 21:56 13.11.2021
5476 Clouds 7 1016 88 10000 1.06 266 21:22 13.11.2021
5477 Clouds 7 1016 88 10000 1.54 360 19:38 13.11.2021
5478 Clouds 8 1015 86 10000 0.45 0 18:33 13.11.2021
5479 Clouds 8 1015 81 10000 0.45 0 17:55 13.11.2021
5480 Clouds 8 1014 79 10000 0.45 0 16:37 13.11.2021
5481 Clouds 8 1014 77 10000 2.06 270 15:29 13.11.2021
5482 Clouds 8 1013 77 10000 0.89 0 14:30 13.11.2021
5483 Clouds 8 1013 76 10000 0.89 0 13:32 13.11.2021
5484 Clouds 8 1013 78 10000 2.24 0 12:24 13.11.2021
5485 Clouds 8 1013 81 10000 0.45 0 11:38 13.11.2021
5486 Clouds 7 1013 85 10000 1.03 0 10:45 13.11.2021
5487 Clouds 6 1013 86 10000 0.45 0 10:22 13.11.2021
5488 Rain 6 1013 87 10000 0.45 0 09:38 13.11.2021
5489 Clouds 5 1012 87 10000 2.42 196 08:56 13.11.2021
5490 Clouds 5 1012 84 10000 2.42 196 08:30 13.11.2021
5491 Clouds 5 1012 81 10000 3.34 196 05:59 13.11.2021
5492 Clouds 4 1012 87 10000 2.24 0 04:30 13.11.2021
5493 Clouds 4 1013 89 10000 2.67 192 01:38 13.11.2021
5494 Clouds 3 1014 91 1300 0.45 0 22:58 12.11.2021
5495 Clouds 4 1014 94 800 0.45 0 21:49 12.11.2021
5496 Fog 4 1015 91 1000 0.45 0 20:18 12.11.2021
5497 Mist 4 1015 92 2300 1.79 0 19:28 12.11.2021
5498 Mist 5 1015 92 3600 2.24 0 18:46 12.11.2021
5499 Clouds 6 1016 82 10000 2.24 0 16:39 12.11.2021
5500 Clouds 8 1017 77 10000 1.34 0 15:33 12.11.2021
5501 Clouds 9 1018 87 10000 3.09 90 12:54 12.11.2021
5502 Clouds 9 1018 87 10000 3.09 90 12:54 12.11.2021
5503 Clouds 8 1019 84 10000 3.6 140 10:58 12.11.2021
5504 Clouds 8 1020 88 6000 3.13 0 09:45 12.11.2021
5505 Mist 7 1021 90 2400 0.45 0 08:39 12.11.2021
5506 Clouds 7 1023 91 9000 0 0 03:27 12.11.2021
5507 Clouds 7 1024 84 7000 2.06 240 23:43 11.11.2021
5508 Clouds 7 1024 84 8000 1.54 280 22:40 11.11.2021
5509 Drizzle 7 1024 90 9000 2.06 230 21:29 11.11.2021
5510 Drizzle 7 1024 90 7000 0.45 0 20:48 11.11.2021
5511 Clouds 8 1024 82 10000 0.89 0 19:30 11.11.2021
5512 Clouds 8 1024 79 10000 0.45 0 18:22 11.11.2021
5513 Clouds 8 1024 79 10000 0.89 0 17:37 11.11.2021
5514 Clouds 9 1024 83 10000 1.34 0 15:20 11.11.2021
5515 Clouds 9 1024 82 10000 1.79 0 14:36 11.11.2021
5516 Clouds 9 1024 76 10000 1.34 0 14:18 11.11.2021
5517 Clouds 10 1024 76 10000 1.34 0 13:34 11.11.2021
5518 Clouds 9 1024 81 10000 0.89 0 12:23 11.11.2021
5519 Clouds 6 1024 91 10000 0.45 0 09:54 11.11.2021
5520 Clouds 4 1024 87 10000 1.03 0 08:28 11.11.2021
5521 Clouds 3 1023 83 10000 0 0 06:45 11.11.2021
5522 Clouds 2 1024 78 9000 0 0 00:38 11.11.2021
5523 Clouds 3 1024 91 10000 0 0 22:41 10.11.2021
5524 Clouds 4 1024 82 10000 0.45 0 21:53 10.11.2021
5525 Clouds 5 1024 82 10000 0.45 0 20:55 10.11.2021
5526 Clear 5 1025 80 10000 0 0 20:18 10.11.2021
5527 Clear 6 1025 79 10000 0 0 19:39 10.11.2021
5528 Clear 7 1024 73 10000 1.03 320 17:22 10.11.2021
5529 Clear 9 1024 65 10000 1.54 210 15:47 10.11.2021
5530 Clear 10 1024 59 10000 0.89 0 14:25 10.11.2021
5531 Clear 10 1024 71 10000 1.34 0 13:37 10.11.2021
5532 Clear 9 1025 76 10000 1.54 250 12:31 10.11.2021
5533 Clouds 4 1025 89 10000 0 0 09:29 10.11.2021
5534 Clouds 3 1025 93 8000 1.03 100 08:42 10.11.2021
5535 Clouds 3 1025 93 8000 1.03 100 08:42 10.11.2021
5536 Clouds 2 1025 93 7000 0 0 06:50 10.11.2021
5537 Clouds 2 1025 93 10000 1.03 0 05:58 10.11.2021
5538 Clouds 3 1025 93 8000 1.03 100 04:58 10.11.2021
5539 Clouds 4 1027 78 10000 0.45 0 22:41 09.11.2021
5540 Clear 6 1027 76 10000 1.54 120 20:51 09.11.2021
5541 Clear 7 1028 85 10000 0.89 0 19:51 09.11.2021
5542 Clear 7 1028 73 10000 0.45 0 18:58 09.11.2021
5543 Clear 8 1027 70 10000 0.45 194 17:24 09.11.2021
5544 Clouds 12 1027 69 10000 0.45 0 15:38 09.11.2021
5545 Clouds 13 1028 64 10000 0.89 260 13:55 09.11.2021
5546 Clear 12 1028 72 10000 1.34 0 12:50 09.11.2021
5547 Clouds 10 1028 84 10000 0.45 0 11:34 09.11.2021
5548 Clouds 9 1029 85 10000 0.89 0 10:41 09.11.2021
5549 Clouds 8 1028 91 10000 0.89 0 09:22 09.11.2021
5550 Drizzle 8 1028 92 10000 0 0 08:18 09.11.2021
5551 Clouds 8 1026 86 10000 0.89 0 05:23 09.11.2021
5552 Clouds 8 1025 86 10000 0.45 0 01:58 09.11.2021
5553 Clouds 8 1025 86 10000 0.89 0 01:39 09.11.2021
5554 Clouds 8 1025 91 10000 2.24 0 23:35 08.11.2021
5555 Clouds 8 1024 85 10000 1.34 0 22:48 08.11.2021
5556 Clouds 8 1024 84 10000 1.34 0 21:46 08.11.2021
5557 Clouds 9 1023 83 10000 1.34 0 20:38 08.11.2021
5558 Clouds 9 1023 81 10000 2.68 0 19:48 08.11.2021
5559 Clouds 9 1022 77 10000 0.89 0 17:55 08.11.2021
5560 Clouds 10 1021 77 10000 2.24 0 15:59 08.11.2021
5561 Clouds 11 1021 63 10000 2.24 0 14:57 08.11.2021
5562 Clouds 11 1021 64 10000 2.24 0 14:34 08.11.2021
5563 Clouds 10 1021 66 10000 3.58 0 13:24 08.11.2021
5564 Clouds 10 1021 70 10000 2.68 0 11:56 08.11.2021
5565 Clouds 9 1021 72 10000 3.13 0 10:50 08.11.2021
5566 Clouds 8 1020 76 10000 3.13 0 09:37 08.11.2021
5567 Clouds 8 1020 76 10000 3.13 0 09:37 08.11.2021
5568 Clouds 7 1020 81 10000 2.24 0 08:52 08.11.2021
5569 Clouds 7 1019 82 10000 2.24 0 07:28 08.11.2021
5570 Clouds 7 1017 79 10000 2.68 0 03:42 08.11.2021
5571 Clouds 7 1016 79 10000 4.02 0 03:22 08.11.2021
5572 Clouds 8 1015 78 10000 3.13 0 23:45 07.11.2021
5573 Clouds 8 1014 76 10000 3.13 260 21:46 07.11.2021
5574 Clouds 8 1013 75 10000 4.92 258 20:52 07.11.2021
5575 Clouds 8 1013 84 10000 4.47 0 19:25 07.11.2021
5576 Clouds 7 1012 84 10000 2.68 0 18:22 07.11.2021
5577 Clouds 8 1011 78 10000 4.02 0 16:50 07.11.2021
5578 Clouds 10 1011 65 10000 1.79 0 15:47 07.11.2021
5579 Clouds 11 1011 62 10000 4.47 0 14:28 07.11.2021
5580 Clouds 11 1011 66 10000 6.71 0 13:26 07.11.2021
5581 Clouds 10 1011 80 10000 4.92 0 11:42 07.11.2021
5582 Clouds 9 1011 83 10000 2.68 0 09:49 07.11.2021
5583 Clouds 9 1011 86 10000 3.58 0 07:20 07.11.2021
5584 Clouds 9 1014 73 10000 4.92 0 02:38 07.11.2021
5585 Clouds 9 1018 71 10000 3.58 0 23:37 06.11.2021
5586 Clouds 9 1019 72 10000 4.92 0 22:47 06.11.2021
5587 Clouds 9 1020 72 10000 2.68 0 21:33 06.11.2021
5588 Clouds 9 1020 79 10000 4.02 0 20:50 06.11.2021
5589 Clouds 10 1022 71 10000 2.68 0 18:56 06.11.2021
5590 Clear 10 1023 69 10000 1.34 0 16:47 06.11.2021
5591 Clear 10 1023 69 10000 1.34 0 16:47 06.11.2021
5592 Clear 10 1023 69 10000 1.34 0 16:47 06.11.2021
5593 Clear 10 1023 69 10000 1.34 0 16:47 06.11.2021
5594 Clear 10 1023 69 10000 1.34 0 16:47 06.11.2021
5595 Clear 10 1023 69 10000 1.34 0 16:47 06.11.2021
5596 Clear 10 1024 68 10000 4.02 0 15:20 06.11.2021
5597 Clouds 9 1025 70 10000 3.13 0 13:38 06.11.2021
5598 Clouds 9 1026 70 10000 3.58 0 11:53 06.11.2021
5599 Clouds 8 1026 76 10000 3.58 0 09:25 06.11.2021
5600 Clouds 7 1026 87 10000 2.68 0 04:59 06.11.2021
5601 Clouds 7 1026 90 10000 3.13 0 02:36 06.11.2021
5602 Clouds 7 1025 89 10000 1.79 0 23:37 05.11.2021
5603 Clouds 7 1025 93 10000 2.24 0 22:34 05.11.2021
5604 Clouds 8 1024 86 10000 2.68 0 21:26 05.11.2021
5605 Rain 8 1024 84 10000 1.34 0 20:20 05.11.2021
5606 Clouds 8 1024 83 10000 3.13 0 19:48 05.11.2021
5607 Clouds 9 1023 88 10000 2.68 0 18:40 05.11.2021
5608 Clouds 9 1022 83 10000 3.13 0 17:28 05.11.2021
5609 Clouds 10 1022 83 10000 2.24 0 15:38 05.11.2021
5610 Clouds 9 1021 91 10000 2.68 0 13:38 05.11.2021
5611 Clouds 8 1019 92 10000 3.58 0 11:27 05.11.2021
5612 Clouds 7 1017 93 8000 2.24 0 08:40 05.11.2021
5613 Clouds 7 1016 93 7000 2.24 0 07:39 05.11.2021
5614 Clouds 7 1016 93 7000 2.24 0 07:39 05.11.2021
5615 Clouds 7 1014 94 6000 2.24 0 05:33 05.11.2021
5616 Rain 7 1011 94 6000 1.34 0 02:26 05.11.2021
5617 Rain 7 1010 93 7000 2.24 0 00:52 05.11.2021
5618 Rain 7 1009 93 9000 2.24 0 23:24 04.11.2021
5619 Rain 7 1008 96 8000 2.24 0 22:19 04.11.2021
5620 Rain 7 1007 96 7000 2.24 0 21:38 04.11.2021
5621 Rain 7 1007 94 8000 2.24 0 20:50 04.11.2021
5622 Rain 7 1006 94 6000 2.24 0 20:22 04.11.2021
5623 Rain 7 1006 93 6000 1.79 0 19:47 04.11.2021
5624 Rain 7 1005 94 10000 1.34 0 18:52 04.11.2021
5625 Rain 7 1005 92 10000 3.13 0 18:18 04.11.2021
5626 Rain 7 1003 94 10000 3.13 293 16:48 04.11.2021
5627 Rain 7 1002 94 6000 3.13 299 15:18 04.11.2021
5628 Rain 7 1000 93 7000 2.24 308 12:53 04.11.2021
5629 Rain 7 1001 92 7000 2.68 353 09:42 04.11.2021
5630 Rain 7 1001 92 4000 1.34 347 08:31 04.11.2021
5631 Mist 7 1001 92 4500 1.79 356 07:35 04.11.2021
5632 Rain 7 1001 91 6000 1.34 346 06:18 04.11.2021
5633 Rain 7 1002 88 10000 0.45 0 22:53 03.11.2021
5634 Rain 8 1002 88 10000 2.57 80 21:50 03.11.2021
5635 Rain 8 1002 88 10000 2.57 100 21:31 03.11.2021
5636 Rain 8 1002 93 10000 0.45 0 20:38 03.11.2021
5637 Rain 8 1002 86 10000 2.57 80 20:18 03.11.2021
5638 Rain 8 1002 92 8000 0.45 0 19:19 03.11.2021
5639 Rain 8 1002 84 8000 0.45 0 18:25 03.11.2021
5640 Rain 8 1002 84 10000 0.89 0 17:41 03.11.2021
5641 Rain 9 1002 81 10000 0.89 0 16:27 03.11.2021
5642 Rain 9 1002 76 10000 0.89 0 15:47 03.11.2021
5643 Rain 9 1002 75 10000 0.45 0 15:28 03.11.2021
5644 Rain 9 1002 75 10000 0.45 0 15:28 03.11.2021
5645 Clouds 10 1002 71 10000 0.89 0 12:33 03.11.2021
5646 Clouds 9 1003 84 10000 0.45 0 11:27 03.11.2021
5647 Clouds 8 1003 86 10000 1.34 0 10:49 03.11.2021
5648 Clear 7 1003 94 10000 1.03 0 09:34 03.11.2021
5649 Clouds 5 1003 94 10000 2.06 180 08:37 03.11.2021
5650 Fog 3 1002 93 10000 1.03 90 07:39 03.11.2021
5651 Clouds 5 1002 84 10000 1.03 90 05:44 03.11.2021
5652 Clouds 6 1002 86 10000 1.54 100 04:21 03.11.2021
5653 Clouds 7 1002 83 10000 0.89 0 00:54 03.11.2021
5654 Clouds 7 1002 85 10000 0.45 0 22:52 02.11.2021
5655 Clouds 7 1001 78 10000 0.45 0 21:47 02.11.2021
5656 Clear 6 1001 81 10000 0.45 0 20:34 02.11.2021
5657 Clear 6 1001 82 10000 0.45 0 19:55 02.11.2021
5658 Clear 6 1001 80 10000 0.45 0 19:20 02.11.2021
5659 Clear 8 1000 85 10000 0 0 18:27 02.11.2021
5660 Clear 9 1000 83 10000 1.03 0 17:43 02.11.2021
5661 Clouds 10 1000 70 10000 0.45 0 16:34 02.11.2021
5662 Clouds 11 1000 64 10000 1.34 0 15:48 02.11.2021
5663 Clouds 12 1000 62 10000 1.79 0 14:50 02.11.2021
5664 Clouds 12 1000 63 10000 1.79 0 13:29 02.11.2021
5665 Clear 11 1000 71 10000 0.89 0 12:46 02.11.2021
5666 Clouds 11 1000 70 10000 1.79 0 11:38 02.11.2021
5667 Clouds 10 1000 75 10000 3.6 250 10:54 02.11.2021
5668 Clouds 10 1000 77 10000 1.34 0 10:32 02.11.2021
5669 Clouds 8 1000 93 10000 0.45 0 09:40 02.11.2021
5670 Fog 5 1001 86 10000 0.45 0 07:45 02.11.2021
5671 Clouds 5 1000 92 10000 0.45 0 04:39 02.11.2021
5672 Clouds 6 1000 83 10000 0.45 0 03:20 02.11.2021
5673 Clear 8 1001 78 10000 0.89 0 23:39 01.11.2021
5674 Clear 8 1002 74 10000 0.45 0 21:29 01.11.2021
5675 Clear 9 1002 82 10000 0.89 0 20:42 01.11.2021
5676 Clear 9 1001 79 10000 0.45 0 19:58 01.11.2021
5677 Clear 9 1001 79 10000 0.89 0 19:38 01.11.2021
5678 Clear 10 1001 67 10000 0.45 0 18:23 01.11.2021
5679 Clear 11 1001 66 10000 0.45 0 17:36 01.11.2021
5680 Clouds 12 1001 71 10000 3.6 200 16:52 01.11.2021
5681 Clouds 13 1001 61 10000 0.89 0 16:20 01.11.2021
5682 Clouds 13 1001 59 10000 2.24 0 15:29 01.11.2021
5683 Clouds 14 1001 59 10000 2.24 0 14:45 01.11.2021
5684 Clouds 13 1001 61 10000 1.79 0 14:23 01.11.2021
5685 Clouds 13 1001 63 10000 1.34 0 13:50 01.11.2021
5686 Clear 13 1001 65 10000 3.13 0 12:34 01.11.2021
5687 Clear 12 1001 70 10000 2.68 0 11:30 01.11.2021
5688 Clouds 11 1001 81 10000 2.24 0 10:19 01.11.2021
5689 Clouds 10 1001 80 10000 1.34 0 08:18 01.11.2021
5690 Rain 11 1001 79 10000 0.45 0 07:45 01.11.2021
5691 Clouds 14 998 62 10000 2.68 286 03:49 01.11.2021
5692 Clouds 15 999 59 10000 3.58 0 01:43 01.11.2021
5693 Clouds 15 999 60 10000 4.63 130 22:48 31.10.2021
5694 Clouds 15 999 61 10000 3.13 0 20:50 31.10.2021
5695 Clouds 16 1001 66 10000 2.68 1 19:22 31.10.2021
5696 Clouds 16 1001 67 10000 4.47 110 18:41 31.10.2021
5697 Clear 16 1002 68 10000 2.24 19 17:52 31.10.2021
5698 Clouds 17 1004 74 10000 2.68 128 15:51 31.10.2021
5699 Clouds 17 1005 65 10000 2.24 120 14:24 31.10.2021
5700 Clouds 17 1006 65 10000 0.89 143 12:50 31.10.2021
5701 Clouds 16 1007 66 10000 1.79 168 11:42 31.10.2021
5702 Clouds 15 1008 71 10000 0.89 156 10:47 31.10.2021
5703 Clouds 12 1009 81 10000 1.54 100 09:22 31.10.2021
5704 Clouds 11 1009 82 10000 0.45 0 08:37 31.10.2021
5705 Clouds 12 1007 74 10000 2.24 0 02:19 31.10.2021
5706 Clouds 12 1005 67 10000 4.02 0 23:41 30.10.2021
5707 Clouds 12 1005 70 10000 2.57 190 21:36 30.10.2021
5708 Clouds 12 1005 59 10000 1.34 0 20:52 30.10.2021
5709 Clear 11 1005 70 10000 0.89 0 19:23 30.10.2021
5710 Clear 12 1005 67 10000 0.45 0 17:42 30.10.2021
5711 Clear 14 1004 67 10000 1.79 0 15:30 30.10.2021
5712 Clear 13 1004 65 10000 2.68 0 13:56 30.10.2021
5713 Clear 14 1005 62 10000 3.6 90 13:22 30.10.2021
5714 Clear 14 1006 50 10000 2.57 100 12:57 30.10.2021
5715 Clear 13 1006 64 10000 2.68 0 11:49 30.10.2021
5716 Clear 11 1007 58 10000 1.34 0 10:32 30.10.2021
5717 Clouds 9 1007 63 10000 2.68 0 08:55 30.10.2021
5718 Clouds 8 1008 71 10000 2.68 0 07:55 30.10.2021
5719 Clear 9 1009 69 10000 1.79 141 05:45 30.10.2021
5720 Clouds 10 1010 70 10000 0.45 0 01:58 30.10.2021
5721 Clouds 10 1010 81 10000 1.34 0 23:20 29.10.2021
5722 Clouds 10 1010 73 10000 3.09 180 22:33 29.10.2021
5723 Clouds 10 1009 71 10000 2.24 0 20:55 29.10.2021
5724 Clear 11 1009 68 10000 2.68 0 20:31 29.10.2021
5725 Clear 12 1009 65 10000 1.79 0 18:49 29.10.2021
5726 Clouds 15 1010 57 10000 1.34 0 17:28 29.10.2021
5727 Clear 17 1010 57 10000 1.34 132 15:22 29.10.2021
5728 Clear 15 1012 59 10000 2.24 35 12:30 29.10.2021
5729 Clear 11 1012 52 10000 2.64 156 10:46 29.10.2021
5730 Clear 9 1012 84 10000 2.54 165 09:27 29.10.2021
5731 Clouds 7 1014 79 10000 0.89 0 00:55 29.10.2021
5732 Clouds 8 1015 74 10000 2.24 0 23:47 28.10.2021
5733 Clear 9 1015 84 10000 0.89 0 22:21 28.10.2021
5734 Clear 9 1015 74 10000 1.79 0 20:59 28.10.2021
5735 Clear 10 1015 73 10000 2.24 0 19:52 28.10.2021
5736 Clear 10 1015 73 10000 2.24 0 19:52 28.10.2021
5737 Clear 13 1015 79 10000 0.45 0 18:36 28.10.2021
5738 Clear 16 1016 71 10000 0.89 117 17:27 28.10.2021
5739 Clear 17 1016 67 10000 1.34 162 16:38 28.10.2021
5740 Clear 17 1018 66 10000 1.34 129 14:40 28.10.2021
5741 Clear 16 1019 70 10000 0.89 26 13:33 28.10.2021
5742 Clear 15 1019 66 10000 1.79 165 12:49 28.10.2021
5743 Clear 13 1020 79 10000 0.45 0 11:37 28.10.2021
5744 Clear 10 1020 91 10000 0.45 0 10:23 28.10.2021
5745 Clouds 9 1020 77 10000 1.82 170 09:37 28.10.2021
5746 Clear 7 1021 83 10000 1.54 110 08:36 28.10.2021
5747 Clear 8 1021 94 10000 0.89 0 07:41 28.10.2021
5748 Clouds 9 1022 83 10000 1.34 0 01:48 28.10.2021
5749 Clouds 10 1022 77 10000 0.89 0 22:49 27.10.2021
5750 Clear 11 1022 85 10000 0.45 0 21:57 27.10.2021
5751 Clouds 11 1022 76 10000 0.45 0 21:28 27.10.2021
5752 Clouds 12 1022 73 10000 3.09 230 20:43 27.10.2021
5753 Clouds 13 1022 80 10000 0.45 0 19:47 27.10.2021
5754 Clouds 14 1022 80 10000 0.45 0 18:56 27.10.2021
5755 Clouds 14 1022 71 10000 2.68 0 17:49 27.10.2021
5756 Clouds 15 1022 67 10000 3.13 0 16:25 27.10.2021
5757 Clouds 15 1022 67 10000 3.13 0 15:25 27.10.2021
5758 Clouds 15 1022 69 10000 3.13 0 14:28 27.10.2021
5759 Clouds 13 1023 75 10000 1.34 0 11:18 27.10.2021
5760 Clouds 13 1023 78 10000 2.24 0 10:56 27.10.2021
5761 Clouds 12 1023 77 10000 1.34 0 09:28 27.10.2021
5762 Clouds 12 1021 83 10000 2.68 0 07:47 27.10.2021
5763 Clouds 12 1022 82 10000 2.68 0 06:34 27.10.2021
5764 Clouds 11 1021 74 10000 2.24 0 01:26 27.10.2021
5765 Clouds 12 1021 80 10000 2.68 0 00:55 27.10.2021
5766 Clouds 11 1021 72 10000 2.68 0 23:56 26.10.2021
5767 Clouds 12 1021 71 10000 1.34 0 22:54 26.10.2021
5768 Clouds 12 1021 77 10000 3.13 0 22:27 26.10.2021
5769 Clouds 12 1021 76 10000 1.34 0 21:51 26.10.2021
5770 Clear 12 1021 69 10000 1.34 0 19:59 26.10.2021
5771 Clear 12 1021 68 10000 0.45 0 19:25 26.10.2021
5772 Clear 13 1020 74 10000 1.34 0 18:30 26.10.2021
5773 Clouds 14 1020 69 10000 3.13 0 15:53 26.10.2021
5774 Clouds 14 1019 63 10000 2.24 0 14:18 26.10.2021
5775 Clouds 13 1020 77 10000 3.13 0 11:31 26.10.2021
5776 Drizzle 11 1019 89 8000 0.45 0 09:28 26.10.2021
5777 Drizzle 10 1018 88 10000 2.24 245 07:23 26.10.2021
5778 Clouds 10 1018 80 10000 0 0 00:50 26.10.2021
5779 Clouds 10 1018 79 10000 0.89 0 23:48 25.10.2021
5780 Clouds 10 1018 70 10000 0.45 0 22:37 25.10.2021
5781 Clouds 9 1018 69 10000 0.89 0 21:55 25.10.2021
5782 Clouds 9 1017 64 10000 1.54 140 21:25 25.10.2021
5783 Clear 9 1018 79 10000 0.89 0 19:45 25.10.2021
5784 Clear 9 1018 68 10000 0.89 0 19:24 25.10.2021
5785 Clear 9 1018 70 10000 0.45 0 18:51 25.10.2021
5786 Clear 11 1018 61 10000 0.89 0 17:43 25.10.2021
5787 Clear 13 1018 54 10000 1.34 0 15:38 25.10.2021
5788 Clear 13 1019 67 10000 2.24 0 13:54 25.10.2021
5789 Clear 11 1019 62 10000 1.34 0 12:22 25.10.2021
5790 Clouds 6 1020 71 10000 0.89 0 09:58 25.10.2021
5791 Clear 4 1020 70 10000 0.45 0 07:47 25.10.2021
5792 Clear 5 1020 71 10000 1.34 0 05:58 25.10.2021
5793 Clear 5 1021 71 10000 0.89 0 00:53 25.10.2021
5794 Clear 5 1021 71 10000 0.89 0 00:35 25.10.2021
5795 Clear 5 1021 87 10000 0.45 0 23:45 24.10.2021
5796 Clear 5 1022 69 10000 1.34 0 22:42 24.10.2021
5797 Clear 5 1022 75 10000 0.45 0 22:21 24.10.2021
5798 Clear 5 1022 75 10000 1.34 0 21:37 24.10.2021
5799 Clear 6 1022 84 10000 1.34 0 20:42 24.10.2021
5800 Clear 7 1023 68 10000 1.34 0 19:50 24.10.2021
5801 Clear 9 1023 63 10000 0.45 0 18:47 24.10.2021
5802 Clouds 11 1023 63 10000 0.89 0 17:48 24.10.2021
5803 Clear 13 1024 53 10000 1.34 0 16:40 24.10.2021
5804 Clear 13 1025 48 10000 1.79 0 15:24 24.10.2021
5805 Clear 12 1026 54 10000 1.79 0 13:44 24.10.2021
5806 Clear 11 1027 56 10000 1.34 0 12:40 24.10.2021
5807 Clear 9 1028 73 10000 1.34 0 11:37 24.10.2021
5808 Clear 7 1028 81 10000 1.79 0 10:43 24.10.2021
5809 Clouds 3 1029 83 10000 1.34 0 08:51 24.10.2021
5810 Clear 4 1029 82 10000 0.45 0 03:30 24.10.2021
5811 Clouds 6 1030 77 10000 0.45 0 23:56 23.10.2021
5812 Clouds 7 1030 85 10000 0.45 0 22:55 23.10.2021
5813 Clouds 7 1029 76 10000 0.45 0 21:21 23.10.2021
5814 Clouds 8 1029 72 10000 0.45 0 19:37 23.10.2021
5815 Clouds 9 1028 67 10000 0.45 0 18:45 23.10.2021
5816 Clear 10 1028 65 10000 0.89 0 17:46 23.10.2021
5817 Clear 11 1028 63 10000 0.89 0 17:26 23.10.2021
5818 Clouds 11 1027 62 10000 2.24 0 15:58 23.10.2021
5819 Clouds 12 1025 61 10000 4.92 0 13:47 23.10.2021
5820 Clouds 5 1020 81 10000 2.68 0 02:36 23.10.2021
5821 Clouds 6 1018 87 10000 2.68 0 23:41 22.10.2021
5822 Clouds 6 1017 79 10000 3.13 0 22:28 22.10.2021
5823 Clouds 7 1014 86 10000 4.02 0 19:49 22.10.2021
5824 Clouds 8 1012 81 10000 4.02 0 18:33 22.10.2021
5825 Clouds 9 1011 80 10000 5.81 0 17:19 22.10.2021
5826 Rain 9 1009 70 10000 6.26 0 14:58 22.10.2021
5827 Clouds 10 1009 60 10000 8.05 0 12:54 22.10.2021
5828 Clouds 9 1009 66 10000 5.81 0 10:58 22.10.2021
5829 Clouds 9 1009 67 10000 5.81 0 10:37 22.10.2021
5830 Clear 8 1009 76 10000 4.47 0 09:36 22.10.2021
5831 Clear 6 1009 76 10000 3.58 0 07:53 22.10.2021
5832 Clear 6 1010 76 10000 4.02 0 07:21 22.10.2021
5833 Clouds 6 1010 77 10000 4.47 0 02:37 22.10.2021
5834 Clouds 6 1010 77 10000 4.47 0 02:37 22.10.2021
5835 Clouds 6 1010 77 10000 4.47 0 02:37 22.10.2021
5836 Clouds 6 1008 77 10000 4.92 0 23:51 21.10.2021
5837 Clear 7 1008 76 10000 3.13 0 22:47 21.10.2021
5838 Clear 7 1008 76 10000 3.13 0 22:47 21.10.2021
5839 Clouds 7 1006 79 10000 5.36 0 21:39 21.10.2021
5840 Clouds 7 1005 81 10000 4.92 0 20:26 21.10.2021
5841 Clouds 7 1004 81 10000 4.02 0 19:57 21.10.2021
5842 Clouds 8 1004 83 10000 4.02 0 19:26 21.10.2021
5843 Clouds 8 1003 90 10000 4.47 0 18:38 21.10.2021
5844 Rain 8 1002 84 10000 3.58 0 17:53 21.10.2021
5845 Clouds 8 1001 84 10000 3.13 0 17:32 21.10.2021
5846 Clouds 11 999 74 10000 5.36 255 15:34 21.10.2021
5847 Clouds 11 999 79 10000 4.92 243 14:57 21.10.2021
5848 Clouds 12 998 75 10000 5.81 0 14:37 21.10.2021
5849 Rain 10 996 89 10000 7.6 0 12:37 21.10.2021
5850 Clouds 13 988 66 10000 5.81 0 09:56 21.10.2021
5851 Rain 14 987 58 10000 8.05 0 08:21 21.10.2021
5852 Clouds 15 987 58 10000 8.05 0 07:23 21.10.2021
5853 Clear 16 997 77 10000 2.68 0 00:52 21.10.2021
5854 Clouds 16 998 77 10000 4.92 0 23:20 20.10.2021
5855 Clear 16 999 79 10000 5.36 0 21:51 20.10.2021
5856 Clear 16 999 71 10000 4.02 0 21:27 20.10.2021
5857 Clouds 16 1000 70 10000 3.13 226 20:46 20.10.2021
5858 Clouds 16 1000 70 10000 2.68 225 20:26 20.10.2021
5859 Clouds 16 1001 71 10000 4.92 230 19:28 20.10.2021
5860 Clouds 17 1001 70 10000 4.47 243 18:45 20.10.2021
5861 Clouds 17 1002 69 10000 4.47 222 17:39 20.10.2021
5862 Clear 18 1002 62 10000 4.92 233 15:26 20.10.2021
5863 Clear 16 1007 62 10000 5.36 0 10:23 20.10.2021
5864 Clear 14 1008 68 10000 4.02 0 07:43 20.10.2021
5865 Clouds 15 1012 78 10000 2.68 0 02:47 20.10.2021
5866 Clouds 14 1013 84 10000 2.24 224 00:35 20.10.2021
5867 Clouds 15 1014 84 10000 2.24 239 23:32 19.10.2021
5868 Clouds 15 1014 81 10000 3.13 0 21:41 19.10.2021
5869 Clouds 15 1015 80 10000 3.58 0 20:45 19.10.2021
5870 Clouds 15 1015 79 10000 3.13 0 20:22 19.10.2021
5871 Clouds 15 1015 79 10000 3.13 0 19:39 19.10.2021
5872 Clouds 15 1015 77 10000 2.68 0 18:47 19.10.2021
5873 Clouds 15 1015 76 10000 2.24 0 17:57 19.10.2021
5874 Clouds 15 1017 74 10000 1.79 0 15:38 19.10.2021
5875 Clouds 15 1017 73 10000 2.68 0 15:18 19.10.2021
5876 Clouds 15 1017 71 10000 4.02 0 14:23 19.10.2021
5877 Clouds 15 1018 68 10000 1.79 0 12:34 19.10.2021
5878 Clouds 14 1019 68 10000 2.24 0 11:31 19.10.2021
5879 Clouds 12 1019 72 10000 2.24 0 09:56 19.10.2021
5880 Clouds 11 1019 71 10000 0.89 358 08:57 19.10.2021
5881 Clouds 11 1020 82 10000 2.24 228 06:34 19.10.2021
5882 Clouds 10 1021 74 10000 0.89 212 00:24 19.10.2021
5883 Clouds 10 1022 77 10000 1.34 204 23:49 18.10.2021
5884 Clouds 10 1022 80 10000 0.89 0 23:19 18.10.2021
5885 Clouds 9 1022 80 10000 0.89 0 22:53 18.10.2021
5886 Clouds 11 1022 69 10000 1.54 130 21:19 18.10.2021
5887 Clouds 11 1022 70 10000 1.54 110 20:41 18.10.2021
5888 Clear 11 1022 65 10000 0.45 0 19:53 18.10.2021
5889 Clear 11 1022 72 10000 0.45 0 19:30 18.10.2021
5890 Clear 12 1022 68 10000 0.45 0 18:54 18.10.2021
5891 Clear 15 1023 59 10000 1.79 0 15:45 18.10.2021
5892 Clear 15 1023 53 10000 1.79 0 14:26 18.10.2021
5893 Clear 12 1024 64 10000 0.89 0 10:43 18.10.2021
5894 Clear 9 1024 72 10000 0.89 0 09:31 18.10.2021
5895 Clouds 8 1022 77 10000 1.54 250 05:32 18.10.2021
5896 Clouds 10 1022 76 10000 0.45 0 23:37 17.10.2021
5897 Clouds 10 1022 76 10000 0 0 21:55 17.10.2021
5898 Rain 10 1021 82 10000 0.45 0 21:18 17.10.2021
5899 Clouds 10 1021 84 10000 0.45 0 20:40 17.10.2021
5900 Clear 10 1021 72 10000 0.89 0 19:43 17.10.2021
5901 Clear 10 1021 74 10000 0.89 0 19:24 17.10.2021
5902 Clear 11 1020 68 10000 0.45 0 17:47 17.10.2021
5903 Clear 12 1020 61 10000 2.24 0 15:54 17.10.2021
5904 Clouds 12 1020 69 10000 2.68 0 14:32 17.10.2021
5905 Clear 12 1021 62 10000 3.13 0 13:56 17.10.2021
5906 Clear 11 1020 73 10000 2.68 0 12:38 17.10.2021
5907 Clear 9 1020 71 10000 2.24 0 10:45 17.10.2021
5908 Clear 9 1020 77 10000 0.89 0 09:48 17.10.2021
5909 Clouds 7 1019 81 10000 0.45 210 07:42 17.10.2021
5910 Clouds 5 1020 88 10000 0 0 01:44 17.10.2021
5911 Clouds 7 1020 83 10000 0 0 00:27 17.10.2021
5912 Clouds 8 1021 75 10000 0 0 22:35 16.10.2021
5913 Clouds 8 1021 75 10000 0.51 0 20:36 16.10.2021
5914 Clear 9 1021 79 10000 0.45 0 19:58 16.10.2021
5915 Clear 9 1021 78 10000 0.45 0 19:39 16.10.2021
5916 Clear 9 1021 69 10000 0.45 0 19:18 16.10.2021
5917 Clear 10 1021 68 10000 0.89 0 18:43 16.10.2021
5918 Clear 10 1021 68 10000 0.45 0 18:22 16.10.2021
5919 Clouds 11 1021 74 10000 1.34 0 17:30 16.10.2021
5920 Clouds 11 1021 65 10000 0.89 270 15:40 16.10.2021
5921 Clouds 11 1022 82 10000 0.45 0 12:45 16.10.2021
5922 Clouds 9 1022 82 10000 1.34 0 11:24 16.10.2021
5923 Clouds 6 1022 89 10000 1.54 270 08:57 16.10.2021
5924 Clouds 5 1020 93 10000 0.45 0 01:37 16.10.2021
5925 Clear 6 1020 84 10000 0.45 0 00:29 16.10.2021
5926 Clear 6 1020 84 10000 0.89 0 23:25 15.10.2021
5927 Clear 7 1019 82 10000 0.45 0 22:20 15.10.2021
5928 Clear 7 1019 82 10000 0.89 0 21:40 15.10.2021
5929 Clear 7 1019 82 10000 0.89 0 20:54 15.10.2021
5930 Clear 8 1019 80 10000 2.24 0 20:25 15.10.2021
5931 Clouds 9 1018 76 10000 0.89 248 19:20 15.10.2021
5932 Clear 11 1017 73 10000 0.89 0 18:22 15.10.2021
5933 Clouds 13 1015 69 10000 3.58 0 15:48 15.10.2021
5934 Drizzle 11 1015 91 8000 1.34 0 14:22 15.10.2021
5935 Rain 11 1013 92 7000 2.24 0 12:25 15.10.2021
5936 Rain 12 1011 73 10000 4.47 0 11:19 15.10.2021
5937 Clouds 13 1011 69 10000 3.58 235 10:31 15.10.2021
5938 Clouds 12 1012 74 10000 3.13 0 07:37 15.10.2021
5939 Clouds 12 1014 84 10000 2.68 0 04:46 15.10.2021
5940 Clouds 12 1017 84 10000 3.58 0 00:23 15.10.2021
5941 Clouds 12 1018 85 10000 2.68 0 23:26 14.10.2021
5942 Clouds 12 1018 85 10000 2.68 0 22:22 14.10.2021
5943 Clouds 12 1018 85 10000 2.24 0 21:37 14.10.2021
5944 Clouds 12 1019 89 10000 2.68 0 20:22 14.10.2021
5945 Clouds 12 1019 89 10000 2.24 0 19:49 14.10.2021
5946 Clouds 12 1019 84 10000 2.68 0 18:44 14.10.2021
5947 Clouds 13 1020 88 10000 2.68 335 16:59 14.10.2021
5948 Clouds 13 1020 89 10000 2.24 356 16:33 14.10.2021
5949 Clouds 13 1020 80 10000 2.68 0 15:20 14.10.2021
5950 Clouds 13 1021 87 10000 4.02 0 14:30 14.10.2021
5951 Clouds 12 1021 85 10000 3.58 0 13:35 14.10.2021
5952 Clouds 12 1022 87 10000 2.24 0 11:40 14.10.2021
5953 Clouds 11 1022 92 10000 2.68 0 09:33 14.10.2021
5954 Clouds 10 1022 93 10000 2.68 0 06:46 14.10.2021
5955 Clouds 9 1023 92 10000 1.34 0 00:52 14.10.2021
5956 Clouds 9 1024 82 10000 1.34 0 22:47 13.10.2021
5957 Rain 9 1024 80 10000 1.34 0 21:37 13.10.2021
5958 Clouds 10 1024 78 10000 1.34 0 20:46 13.10.2021
5959 Clouds 10 1023 78 10000 0.89 0 19:47 13.10.2021
5960 Clouds 11 1023 76 10000 1.34 0 18:49 13.10.2021
5961 Clouds 11 1023 76 10000 1.34 0 18:49 13.10.2021
5962 Clouds 11 1023 73 10000 0.89 0 17:35 13.10.2021
5963 Clouds 12 1023 65 10000 1.34 0 15:23 13.10.2021
5964 Clouds 13 1022 74 10000 0.89 0 14:44 13.10.2021
5965 Clouds 11 1022 74 10000 3.13 0 12:54 13.10.2021
5966 Clouds 10 1023 86 10000 1.34 0 11:55 13.10.2021
5967 Clouds 8 1022 92 10000 2.68 0 10:21 13.10.2021
5968 Fog 6 1021 93 550 1.34 0 07:56 13.10.2021
5969 Clouds 6 1021 92 450 0.89 0 05:41 13.10.2021
5970 Clouds 5 1019 88 1100 0.45 0 02:24 13.10.2021
5971 Clouds 6 1019 84 10000 0.89 0 23:55 12.10.2021
5972 Clouds 7 1019 83 10000 0.89 0 23:29 12.10.2021
5973 Clouds 7 1018 81 10000 0.45 0 22:43 12.10.2021
5974 Clouds 8 1018 78 10000 0.45 0 21:19 12.10.2021
5975 Clouds 8 1017 78 10000 0.45 279 20:33 12.10.2021
5976 Clouds 8 1017 75 10000 0.45 307 19:51 12.10.2021
5977 Clear 10 1016 66 10000 0.45 0 18:27 12.10.2021
5978 Clear 11 1015 58 10000 1.34 304 17:38 12.10.2021
5979 Clouds 12 1015 63 10000 3.13 314 16:38 12.10.2021
5980 Clouds 13 1015 56 10000 4.92 331 15:44 12.10.2021
5981 Clouds 12 1015 67 10000 1.79 313 14:38 12.10.2021
5982 Clouds 12 1015 67 10000 2.24 315 13:42 12.10.2021
5983 Clear 10 1016 91 10000 0.89 0 11:36 12.10.2021
5984 Rain 9 1016 90 10000 0.89 0 09:41 12.10.2021
5985 Drizzle 9 1016 91 10000 3.13 0 08:42 12.10.2021
5986 Rain 9 1017 88 10000 2.24 0 06:56 12.10.2021
5987 Clouds 8 1018 89 10000 2.24 0 05:29 12.10.2021
5988 Clouds 8 1019 90 10000 1.34 0 04:31 12.10.2021
5989 Clouds 8 1021 90 10000 2.24 0 00:27 12.10.2021
5990 Clouds 8 1022 89 10000 0.89 0 23:40 11.10.2021
5991 Clouds 9 1022 88 10000 1.34 0 22:57 11.10.2021
5992 Clear 9 1022 87 10000 1.34 258 21:45 11.10.2021
5993 Clouds 10 1022 86 10000 1.79 0 20:39 11.10.2021
5994 Clouds 10 1022 85 10000 1.79 0 19:44 11.10.2021
5995 Clouds 10 1022 84 9000 1.34 0 18:37 11.10.2021
5996 Clouds 12 1022 73 10000 1.34 0 17:46 11.10.2021
5997 Clouds 14 1021 77 10000 1.34 0 16:31 11.10.2021
5998 Clouds 14 1021 76 10000 1.79 0 15:50 11.10.2021
5999 Clouds 15 1021 67 10000 2.68 311 14:55 11.10.2021
6000 Clouds 15 1022 62 10000 2.24 344 14:30 11.10.2021
6001 Clouds 14 1022 68 10000 2.68 0 13:36 11.10.2021
6002 Clouds 12 1023 87 6000 1.79 0 11:38 11.10.2021
6003 Clouds 11 1023 89 2200 2.68 0 10:31 11.10.2021
6004 Clouds 11 1023 89 2200 2.68 0 10:31 11.10.2021
6005 Mist 9 1023 88 3400 1.34 0 09:19 11.10.2021
6006 Clouds 6 1023 81 10000 0.45 0 04:55 11.10.2021
6007 Clouds 5 1024 79 10000 0.45 200 01:37 11.10.2021
6008 Clouds 5 1024 74 10000 0 0 00:45 11.10.2021
6009 Clouds 5 1025 73 10000 0.45 181 23:57 10.10.2021
6010 Clouds 5 1025 73 10000 0.45 181 23:57 10.10.2021
6011 Clouds 6 1025 72 10000 0.45 179 21:52 10.10.2021
6012 Clouds 6 1025 73 10000 0.45 161 21:31 10.10.2021
6013 Clear 7 1025 83 10000 0.45 173 20:43 10.10.2021
6014 Clear 7 1025 81 10000 0.89 153 20:21 10.10.2021
6015 Clear 7 1025 81 10000 0.89 142 19:58 10.10.2021
6016 Clear 8 1025 80 10000 0.45 142 19:35 10.10.2021
6017 Clear 11 1025 58 10000 0.89 145 18:33 10.10.2021
6018 Clear 15 1025 44 10000 1.34 176 16:46 10.10.2021
6019 Clear 16 1025 43 10000 1.79 188 15:44 10.10.2021
6020 Clear 15 1027 57 10000 0.45 155 13:53 10.10.2021
6021 Clear 14 1027 55 10000 0.89 136 13:32 10.10.2021
6022 Clear 13 1027 65 10000 1.34 159 12:33 10.10.2021
6023 Clouds 7 1028 81 10000 2.06 130 10:43 10.10.2021
6024 Clear 3 1028 90 10000 1.79 0 09:29 10.10.2021
6025 Clear 5 1028 84 10000 2.45 132 08:53 10.10.2021
6026 Clouds 1 1028 92 10000 1.03 110 07:28 10.10.2021
6027 Clouds 4 1030 85 10000 0.45 0 02:42 10.10.2021
6028 Clouds 5 1030 83 10000 0.89 112 00:55 10.10.2021
6029 Clouds 5 1030 85 10000 0.89 143 00:23 10.10.2021
6030 Clouds 6 1031 82 10000 2.06 90 22:52 09.10.2021
6031 Clouds 7 1031 78 10000 0.89 89 21:45 09.10.2021
6032 Clouds 7 1031 80 10000 0.89 95 21:26 09.10.2021
6033 Clear 9 1031 71 10000 0.89 96 19:44 09.10.2021
6034 Clear 10 1031 67 10000 1.34 89 19:19 09.10.2021
6035 Clear 12 1031 58 10000 2.57 100 18:33 09.10.2021
6036 Clear 15 1031 48 10000 1.34 6 16:43 09.10.2021
6037 Clear 16 1030 46 10000 1.34 36 15:33 09.10.2021
6038 Clear 14 1032 52 10000 3.13 41 13:44 09.10.2021
6039 Clear 13 1031 61 10000 1.34 11 12:40 09.10.2021
6040 Clear 11 1032 73 10000 0.45 0 11:48 09.10.2021
6041 Clear 8 1032 83 10000 1.34 0 10:42 09.10.2021
6042 Clear 7 1032 90 10000 0.89 0 09:52 09.10.2021
6043 Clear 4 1032 94 8000 2.06 100 08:30 09.10.2021
6044 Clear 3 1031 96 8000 2.06 90 07:49 09.10.2021
6045 Clear 5 1031 94 10000 2.57 80 05:29 09.10.2021
6046 Clear 6 1031 93 7000 0.89 0 02:59 09.10.2021
6047 Clear 6 1031 93 7000 0.45 0 02:40 09.10.2021
6048 Clouds 8 1032 93 3600 0.45 0 23:52 08.10.2021
6049 Mist 9 1032 92 3500 1.34 0 22:59 08.10.2021
6050 Clear 9 1032 93 5000 0.45 0 22:24 08.10.2021
6051 Clear 10 1032 92 10000 0.89 69 21:18 08.10.2021
6052 Clear 12 1032 85 10000 0.45 80 19:39 08.10.2021
6053 Clouds 15 1031 73 10000 2.24 0 17:36 08.10.2021
6054 Clouds 16 1030 69 10000 2.24 39 16:53 08.10.2021
6055 Clouds 16 1031 70 10000 0.89 8 16:24 08.10.2021
6056 Clouds 16 1031 76 10000 3.58 101 13:58 08.10.2021
6057 Clouds 16 1031 76 10000 0.89 0 13:35 08.10.2021
6058 Clouds 13 1032 89 10000 0.89 27 11:40 08.10.2021
6059 Clouds 11 1033 91 10000 1.54 90 10:41 08.10.2021
6060 Clouds 9 1032 83 10000 0 0 09:46 08.10.2021
6061 Clouds 7 1031 93 2600 1.03 80 00:35 08.10.2021
6062 Clear 8 1031 95 10000 0 0 23:22 07.10.2021
6063 Clear 9 1031 91 10000 1.03 90 21:47 07.10.2021
6064 Rain 10 1030 90 10000 1.03 100 21:28 07.10.2021
6065 Rain 11 1030 87 10000 0.45 155 20:28 07.10.2021
6066 Clear 12 1030 82 10000 0.45 155 19:31 07.10.2021
6067 Clear 14 1029 76 10000 1.31 79 18:27 07.10.2021
6068 Clouds 17 1028 65 10000 0.45 146 17:27 07.10.2021
6069 Clouds 17 1028 65 10000 0.45 225 15:56 07.10.2021
6070 Clouds 17 1028 64 10000 1.79 159 14:48 07.10.2021
6071 Clouds 16 1028 69 10000 0.45 120 13:43 07.10.2021
6072 Clouds 16 1028 70 10000 0.45 127 12:49 07.10.2021
6073 Clear 13 1028 82 10000 0.89 82 10:57 07.10.2021
6074 Clear 11 1028 88 10000 0.45 0 10:22 07.10.2021
6075 Clouds 10 1027 91 10000 0.45 0 09:34 07.10.2021
6076 Clear 9 1027 91 10000 0.45 0 08:52 07.10.2021
6077 Clouds 7 1026 93 10000 1.03 90 07:57 07.10.2021
6078 Clouds 7 1026 94 10000 1.03 90 07:37 07.10.2021
6079 Clouds 8 1024 94 10000 0.89 0 04:24 07.10.2021
6080 Clouds 10 1021 86 10000 0.89 0 00:29 07.10.2021
6081 Clouds 11 1021 85 10000 1.34 0 22:59 06.10.2021
6082 Clear 11 1020 85 10000 0.89 0 22:24 06.10.2021
6083 Clear 11 1019 81 10000 0.45 0 20:51 06.10.2021
6084 Clouds 12 1019 64 10000 1.54 140 20:26 06.10.2021
6085 Clear 13 1018 63 10000 0.89 0 18:43 06.10.2021
6086 Clear 15 1017 57 10000 2.68 214 17:19 06.10.2021
6087 Clouds 16 1016 58 10000 4.92 268 15:34 06.10.2021
6088 Clouds 15 1015 60 10000 2.24 358 14:34 06.10.2021
6089 Clouds 15 1015 56 10000 2.68 0 13:24 06.10.2021
6090 Clouds 15 1015 68 10000 3.13 0 12:46 06.10.2021
6091 Clouds 14 1015 62 10000 1.79 228 12:24 06.10.2021
6092 Clear 13 1014 68 10000 2.68 0 10:37 06.10.2021
6093 Clear 12 1013 77 10000 1.34 180 09:39 06.10.2021
6094 Clear 11 1013 81 10000 0.89 0 08:58 06.10.2021
6095 Clear 10 1012 81 10000 1.34 0 08:30 06.10.2021
6096 Clouds 11 1011 81 10000 0.45 0 05:38 06.10.2021
6097 Clouds 12 1009 81 10000 1.79 0 01:56 06.10.2021
6098 Clouds 13 1007 78 10000 2.24 0 00:22 06.10.2021
6099 Clouds 13 1007 85 10000 0.89 0 23:51 05.10.2021
6100 Clouds 13 1007 79 10000 1.34 0 23:29 05.10.2021
6101 Clouds 12 1007 80 10000 1.34 0 22:31 05.10.2021
6102 Clouds 12 1007 77 10000 1.34 0 21:57 05.10.2021
6103 Clouds 12 1007 80 10000 0.89 0 21:20 05.10.2021
6104 Clear 11 1007 92 10000 0.45 0 20:26 05.10.2021
6105 Clouds 12 1007 84 9000 1.34 0 19:50 05.10.2021
6106 Clear 13 1007 82 10000 1.34 0 19:23 05.10.2021
6107 Clear 14 1007 81 10000 0.89 0 18:21 05.10.2021
6108 Clouds 13 1008 90 7000 0.89 0 15:33 05.10.2021
6109 Clouds 12 1009 89 10000 0.45 0 13:49 05.10.2021
6110 Clouds 13 1009 89 10000 0 0 13:22 05.10.2021
6111 Rain 12 1009 93 10000 0 0 12:34 05.10.2021
6112 Rain 12 1010 91 7000 0 0 11:41 05.10.2021
6113 Rain 11 1011 89 6000 0 0 10:34 05.10.2021
6114 Rain 11 1012 86 10000 0.45 0 07:59 05.10.2021
6115 Clouds 10 1016 81 10000 0.89 0 01:46 05.10.2021
6116 Clouds 10 1017 77 10000 0.45 0 22:56 04.10.2021
6117 Clouds 12 1018 67 10000 0.45 0 21:27 04.10.2021
6118 Clear 15 1017 59 10000 0.45 0 18:52 04.10.2021
6119 Clear 17 1017 51 10000 0.89 231 17:29 04.10.2021
6120 Clear 17 1018 52 10000 2.68 224 15:50 04.10.2021
6121 Clear 17 1018 53 10000 3.13 238 15:24 04.10.2021
6122 Clear 17 1017 60 10000 1.79 0 14:34 04.10.2021
6123 Clear 17 1018 64 10000 1.34 208 13:32 04.10.2021
6124 Clear 16 1018 59 10000 0.45 0 12:50 04.10.2021
6125 Clear 15 1018 62 10000 0.89 249 11:34 04.10.2021
6126 Clear 15 1017 63 10000 1.34 0 10:47 04.10.2021
6127 Rain 14 1017 76 10000 0.89 0 09:45 04.10.2021
6128 Clear 12 1016 73 10000 0.89 188 07:54 04.10.2021
6129 Clouds 12 1015 74 10000 0.45 217 06:50 04.10.2021
6130 Clouds 16 1011 79 10000 3.13 0 23:38 03.10.2021
6131 Clouds 19 1008 57 10000 2.68 0 22:30 03.10.2021
6132 Clouds 20 1007 55 10000 4.47 245 21:34 03.10.2021
6133 Clouds 21 1006 53 10000 2.68 223 20:49 03.10.2021
6134 Rain 21 1004 56 10000 3.58 202 19:50 03.10.2021
6135 Clear 22 1003 48 10000 4.02 214 18:30 03.10.2021
6136 Clear 22 1002 48 10000 4.92 206 17:39 03.10.2021
6137 Clear 22 1002 46 10000 4.02 204 15:30 03.10.2021
6138 Clear 22 1002 48 10000 4.47 204 14:35 03.10.2021
6139 Clear 22 1002 43 10000 4.47 198 13:36 03.10.2021
6140 Clear 21 1002 43 10000 4.02 224 12:50 03.10.2021
6141 Clear 20 1002 48 10000 2.68 184 11:48 03.10.2021
6142 Clear 19 1002 52 10000 2.24 0 10:31 03.10.2021
6143 Clouds 20 1002 58 10000 4.02 3 07:39 03.10.2021
6144 Clouds 17 1005 61 10000 3.13 0 23:50 02.10.2021
6145 Clouds 16 1005 68 10000 1.34 0 22:19 02.10.2021
6146 Clouds 15 1007 68 10000 1.34 0 20:35 02.10.2021
6147 Clear 16 1008 77 10000 1.34 141 18:58 02.10.2021
6148 Clear 17 1009 65 10000 0.89 128 18:28 02.10.2021
6149 Clouds 18 1009 62 10000 0.45 162 17:38 02.10.2021
6150 Clouds 18 1009 61 10000 0.45 189 16:40 02.10.2021
6151 Clouds 18 1011 58 10000 2.68 234 14:36 02.10.2021
6152 Clouds 16 1024 55 10000 5.81 0 15:38 30.09.2021
6153 Clouds 16 1024 49 10000 4.92 0 14:42 30.09.2021
6154 Clouds 14 1024 59 10000 4.02 0 12:20 30.09.2021
6155 Clouds 13 1024 63 10000 6.26 0 11:29 30.09.2021
6156 Clear 12 1024 68 10000 5.36 0 10:26 30.09.2021
6157 Clear 9 1023 83 10000 1.79 0 08:32 30.09.2021
6158 Clouds 9 1023 77 10000 2.24 0 07:57 30.09.2021
6159 Clouds 10 1022 73 10000 5.36 0 05:50 30.09.2021
6160 Clouds 10 1020 74 10000 2.68 0 02:33 30.09.2021
6161 Clouds 10 1020 73 10000 4.02 0 00:37 30.09.2021
6162 Clouds 10 1019 80 10000 4.02 0 22:59 29.09.2021
6163 Clouds 10 1018 75 10000 2.24 0 21:54 29.09.2021
6164 Clouds 11 1018 75 10000 4.47 0 20:42 29.09.2021
6165 Clouds 11 1018 76 10000 4.02 0 20:20 29.09.2021
6166 Clouds 11 1017 75 10000 2.24 0 19:26 29.09.2021
6167 Clear 12 1016 78 10000 3.13 0 18:18 29.09.2021
6168 Rain 13 1015 81 7934 3.58 0 16:56 29.09.2021
6169 Clouds 17 1014 62 10000 4.02 261 16:29 29.09.2021
6170 Clouds 18 1014 60 10000 2.24 218 15:43 29.09.2021
6171 Clouds 18 1013 56 10000 4.92 240 14:38 29.09.2021
6172 Clouds 18 1014 62 10000 3.58 240 13:34 29.09.2021
6173 Clear 16 1015 69 10000 1.34 0 12:41 29.09.2021
6174 Clouds 14 1016 86 10000 1.34 0 11:24 29.09.2021
6175 Clear 13 1016 88 10000 1.34 0 10:34 29.09.2021
6176 Clear 12 1016 88 10000 1.34 0 09:44 29.09.2021
6177 Clouds 10 1017 89 8000 0.89 0 08:24 29.09.2021
6178 Clouds 10 1017 87 10000 0.89 0 06:53 29.09.2021
6179 Clouds 11 1020 82 10000 0.89 0 00:51 29.09.2021
6180 Clouds 11 1021 81 10000 2.57 125 23:20 28.09.2021
6181 Clear 12 1021 82 10000 1.54 90 22:22 28.09.2021
6182 Clear 12 1021 81 10000 1.03 100 21:25 28.09.2021
6183 Clear 13 1021 86 10000 0 0 20:26 28.09.2021
6184 Clear 14 1022 83 10000 0 0 19:41 28.09.2021
6185 Clear 16 1022 71 10000 0 0 18:44 28.09.2021
6186 Clear 18 1022 56 10000 0.45 159 17:31 28.09.2021
6187 Clear 18 1022 55 10000 0.45 158 17:30 28.09.2021
6188 Clear 18 1023 65 10000 1.34 249 15:21 28.09.2021
6189 Clear 18 1023 57 10000 1.79 238 13:28 28.09.2021
6190 Clouds 17 1023 65 10000 1.34 255 12:28 28.09.2021
6191 Clouds 17 1023 69 10000 2.24 282 11:55 28.09.2021
6192 Clouds 16 1023 70 10000 1.34 346 11:35 28.09.2021
6193 Clouds 15 1023 82 10000 1.79 262 10:47 28.09.2021
6194 Clear 14 1023 89 10000 1.79 258 09:45 28.09.2021
6195 Clear 12 1023 94 10000 0.89 0 08:44 28.09.2021
6196 Clear 12 1023 93 10000 0.89 0 08:25 28.09.2021
6197 Clouds 12 1022 92 10000 0.89 265 06:47 28.09.2021
6198 Clouds 13 1021 90 10000 1.34 0 04:48 28.09.2021
6199 Rain 14 1019 85 10000 0.45 0 01:22 28.09.2021
6200 Rain 16 1019 76 10000 3.58 0 00:20 28.09.2021
6201 Clouds 18 1017 72 10000 2.24 257 23:30 27.09.2021
6202 Rain 18 1016 71 10000 1.79 230 22:46 27.09.2021
6203 Clouds 18 1016 71 10000 1.34 217 21:41 27.09.2021
6204 Rain 19 1016 70 10000 0.89 183 20:38 27.09.2021
6205 Clear 19 1015 69 10000 1.34 185 19:49 27.09.2021
6206 Clear 19 1015 67 10000 0.45 215 19:23 27.09.2021
6207 Clear 20 1015 64 10000 0.89 215 18:31 27.09.2021
6208 Clouds 21 1015 60 10000 0.89 219 17:28 27.09.2021
6209 Clouds 22 1015 56 10000 1.34 180 16:41 27.09.2021
6210 Clouds 22 1015 56 10000 2.24 193 15:43 27.09.2021
6211 Clouds 22 1015 57 10000 2.24 213 14:56 27.09.2021
6212 Clouds 22 1015 62 10000 1.34 213 13:31 27.09.2021
6213 Clouds 20 1016 81 10000 2.24 243 11:23 27.09.2021
6214 Clouds 18 1016 96 7000 0.89 177 09:54 27.09.2021
6215 Clouds 17 1015 94 6000 1.34 0 08:48 27.09.2021
6216 Rain 17 1016 93 10000 0 0 05:21 27.09.2021
6217 Clouds 18 1016 89 10000 1.34 276 02:59 27.09.2021
6218 Clouds 19 1016 83 10000 0.89 215 22:33 26.09.2021
6219 Clouds 19 1016 83 10000 0.45 211 21:50 26.09.2021
6220 Clouds 19 1016 84 10000 0.45 211 21:25 26.09.2021
6221 Clear 19 1015 85 10000 0.45 216 20:21 26.09.2021
6222 Clear 20 1015 79 10000 0 0 19:48 26.09.2021
6223 Clear 22 1014 67 10000 0.45 229 18:45 26.09.2021
6224 Clear 24 1014 60 10000 1.34 220 17:57 26.09.2021
6225 Clear 24 1015 58 10000 2.24 241 17:23 26.09.2021
6226 Clouds 25 1015 57 10000 1.79 202 16:54 26.09.2021
6227 Clouds 25 1015 55 10000 3.58 245 15:59 26.09.2021
6228 Clouds 25 1015 57 10000 2.24 253 15:22 26.09.2021
6229 Clear 24 1015 57 10000 1.79 149 13:57 26.09.2021
6230 Clear 23 1015 58 10000 0.89 220 13:21 26.09.2021
6231 Clear 22 1015 62 10000 1.79 227 12:25 26.09.2021
6232 Clear 21 1015 72 10000 2.24 116 11:42 26.09.2021
6233 Clear 18 1016 81 10000 3.13 0 10:37 26.09.2021
6234 Clear 15 1015 91 10000 2.24 0 09:21 26.09.2021
6235 Clouds 13 1016 94 10000 1.34 0 07:57 26.09.2021
6236 Clouds 14 1016 91 10000 0.45 0 00:28 26.09.2021
6237 Clouds 14 1017 89 10000 0.45 0 23:40 25.09.2021
6238 Clouds 14 1017 90 10000 0.89 0 22:38 25.09.2021
6239 Clouds 15 1017 89 10000 0.45 0 22:18 25.09.2021
6240 Clouds 15 1017 77 10000 0 0 21:33 25.09.2021
6241 Clear 16 1017 75 10000 0 0 20:51 25.09.2021
6242 Clear 18 1016 68 10000 0.51 0 19:33 25.09.2021
6243 Clear 20 1016 70 10000 0.89 212 18:27 25.09.2021
6244 Clouds 22 1016 57 10000 1.34 211 17:19 25.09.2021
6245 Clouds 21 1016 60 10000 1.34 239 14:25 25.09.2021
6246 Clouds 20 1016 62 10000 2.24 243 13:54 25.09.2021
6247 Clouds 19 1016 73 10000 3.13 258 12:36 25.09.2021
6248 Clouds 18 1016 81 10000 4.02 0 10:42 25.09.2021
6249 Clouds 17 1015 76 10000 2.24 0 09:59 25.09.2021
6250 Clouds 16 1015 78 10000 2.24 0 08:52 25.09.2021
6251 Clouds 16 1014 79 10000 2.24 0 07:47 25.09.2021
6252 Clouds 17 1014 81 10000 2.24 240 00:52 25.09.2021
6253 Clouds 17 1014 72 10000 2.68 262 21:58 24.09.2021
6254 Clouds 17 1014 73 10000 3.13 239 21:32 24.09.2021
6255 Clouds 17 1014 73 10000 2.68 339 20:32 24.09.2021
6256 Clouds 17 1014 73 10000 3.13 254 19:29 24.09.2021
6257 Clouds 18 1013 72 10000 3.58 253 18:18 24.09.2021
6258 Clear 18 1013 71 10000 4.47 260 17:42 24.09.2021
6259 Clouds 18 1013 71 10000 3.13 254 17:23 24.09.2021
6260 Clouds 18 1013 68 10000 3.58 263 15:39 24.09.2021
6261 Clouds 18 1014 65 10000 4.47 258 13:21 24.09.2021
6262 Clouds 18 1014 64 10000 4.92 0 12:43 24.09.2021
6263 Clouds 17 1014 70 10000 3.13 350 12:25 24.09.2021
6264 Clouds 15 1015 76 10000 2.24 0 10:53 24.09.2021
6265 Clouds 14 1015 87 10000 3.13 0 09:37 24.09.2021
6266 Clouds 12 1014 88 10000 1.34 0 08:21 24.09.2021
6267 Clouds 11 1014 87 10000 0.45 0 06:59 24.09.2021
6268 Clouds 12 1014 84 10000 1.34 0 05:57 24.09.2021
6269 Clouds 12 1014 87 10000 3.13 0 03:56 24.09.2021
6270 Clouds 14 1013 83 10000 2.68 0 22:38 23.09.2021
6271 Clouds 14 1012 86 10000 3.58 0 21:59 23.09.2021
6272 Clouds 15 1013 86 10000 4.47 0 21:59 23.09.2021
6273 Clouds 15 1012 86 10000 4.92 0 21:20 23.09.2021
6274 Clouds 15 1012 86 10000 4.92 0 21:20 23.09.2021
6275 Clouds 17 1011 78 10000 4.47 0 20:32 23.09.2021
6276 Clouds 18 1011 62 10000 7.15 266 18:36 23.09.2021
6277 Clouds 19 1012 55 10000 4.02 265 16:39 23.09.2021
6278 Clear 20 1012 55 10000 4.92 243 15:19 23.09.2021
6279 Clear 20 1013 47 10000 4.47 263 14:52 23.09.2021
6280 Clear 20 1014 46 10000 5.81 258 13:36 23.09.2021
6281 Clear 19 1014 49 10000 5.81 247 13:18 23.09.2021
6282 Clear 19 1014 51 10000 6.26 353 12:45 23.09.2021
6283 Clear 18 1014 56 10000 5.81 0 12:21 23.09.2021
6284 Clear 15 1016 68 10000 2.24 0 10:41 23.09.2021
6285 Clear 14 1017 73 10000 3.58 0 09:57 23.09.2021
6286 Clear 13 1017 75 10000 2.68 0 09:38 23.09.2021
6287 Clouds 10 1019 87 10000 1.34 0 06:25 23.09.2021
6288 Clear 11 1023 82 10000 1.34 0 00:25 23.09.2021
6289 Clear 11 1024 77 10000 0.45 0 22:54 22.09.2021
6290 Clear 12 1024 79 10000 3.36 233 22:22 22.09.2021
6291 Clear 12 1024 78 10000 2.06 260 21:44 22.09.2021
6292 Clear 13 1024 76 10000 0.45 0 20:58 22.09.2021
6293 Clear 14 1024 71 10000 0.89 0 20:27 22.09.2021
6294 Clear 15 1025 68 10000 0.89 0 19:27 22.09.2021
6295 Clouds 17 1025 63 10000 1.34 265 18:35 22.09.2021
6296 Clouds 19 1025 57 10000 2.24 315 17:33 22.09.2021
6297 Clouds 19 1026 65 10000 2.68 323 15:53 22.09.2021
6298 Clouds 19 1027 57 10000 1.79 291 14:37 22.09.2021
6299 Clouds 17 1027 60 10000 2.24 303 13:24 22.09.2021
6300 Clouds 16 1028 82 10000 3.13 0 11:20 22.09.2021
6301 Clouds 14 1028 85 8000 2.24 277 10:18 22.09.2021
6302 Mist 12 1028 87 5000 0.45 0 08:52 22.09.2021
6303 Fog 11 1028 88 6000 2.06 280 07:49 22.09.2021
6304 Clouds 11 1028 86 5000 0.89 269 06:56 22.09.2021
6305 Clouds 11 1028 84 10000 0.89 0 05:49 22.09.2021
6306 Clouds 11 1028 91 10000 0.45 0 05:18 22.09.2021
6307 Clouds 13 1028 79 10000 1.34 0 03:34 22.09.2021
6308 Clouds 13 1028 76 10000 2.24 0 00:19 22.09.2021
6309 Clouds 14 1028 63 10000 2.68 0 22:43 21.09.2021
6310 Clouds 14 1028 62 10000 3.13 0 21:31 21.09.2021
6311 Clouds 14 1028 70 10000 1.79 0 19:39 21.09.2021
6312 Clouds 14 1028 61 10000 2.24 0 19:20 21.09.2021
6313 Clouds 16 1028 52 10000 2.24 0 16:59 21.09.2021
6314 Clouds 16 1028 53 10000 2.24 0 16:29 21.09.2021
6315 Clouds 15 1028 66 10000 0.89 0 15:31 21.09.2021
6316 Clouds 14 1029 56 10000 1.34 0 14:56 21.09.2021
6317 Clouds 14 1029 56 10000 1.34 0 14:56 21.09.2021
6318 Clear 15 1029 55 10000 1.79 0 13:40 21.09.2021
6319 Clear 15 1029 66 10000 2.68 263 13:19 21.09.2021
6320 Clouds 14 1028 59 10000 2.69 290 11:21 21.09.2021
6321 Clear 10 1028 87 10000 2.06 260 09:54 21.09.2021
6322 Clear 8 1027 93 10000 1.54 260 07:59 21.09.2021
6323 Clouds 9 1027 93 10000 2.06 320 06:38 21.09.2021
6324 Clouds 12 1025 76 10000 1.54 360 23:58 20.09.2021
6325 Clouds 12 1024 76 10000 1.54 0 22:18 20.09.2021
6326 Clouds 12 1024 76 10000 1.54 10 21:36 20.09.2021
6327 Clouds 12 1024 59 10000 0.81 32 20:29 20.09.2021
6328 Clouds 13 1023 65 10000 0 0 19:29 20.09.2021
6329 Clouds 14 1023 58 10000 0.45 0 17:40 20.09.2021
6330 Clouds 15 1022 64 10000 0.89 0 16:43 20.09.2021
6331 Clear 15 1022 56 10000 1.34 0 15:49 20.09.2021
6332 Clear 15 1022 57 10000 1.34 0 15:23 20.09.2021
6333 Clouds 15 1022 57 10000 1.79 70 13:45 20.09.2021
6334 Clouds 14 1022 67 10000 0.89 8 12:35 20.09.2021
6335 Clouds 14 1022 67 10000 0.89 8 12:35 20.09.2021
6336 Clear 13 1022 66 10000 1.34 0 11:25 20.09.2021
6337 Clear 12 1021 75 10000 1.34 0 09:59 20.09.2021
6338 Clear 12 1021 76 10000 0.45 0 09:36 20.09.2021
6339 Clear 11 1021 77 10000 0.45 0 09:18 20.09.2021
6340 Clouds 11 1021 79 10000 0.45 0 07:45 20.09.2021
6341 Clear 12 1019 76 10000 2.06 80 23:49 19.09.2021
6342 Clouds 12 1019 76 10000 0 0 22:26 19.09.2021
6343 Clouds 12 1019 75 10000 0.45 0 21:43 19.09.2021
6344 Clouds 12 1018 71 10000 0.45 0 20:43 19.09.2021
6345 Clouds 13 1018 76 10000 0.45 0 19:31 19.09.2021
6346 Clouds 14 1018 60 10000 0.89 0 18:29 19.09.2021
6347 Clouds 15 1018 59 10000 2.24 0 17:23 19.09.2021
6348 Clouds 14 1018 59 10000 1.79 0 15:59 19.09.2021
6349 Clouds 15 1018 59 10000 1.34 0 15:30 19.09.2021
6350 Clouds 15 1018 59 10000 1.34 0 15:30 19.09.2021
6351 Clouds 14 1018 60 10000 1.34 0 14:48 19.09.2021
6352 Clouds 14 1018 62 10000 1.79 0 13:29 19.09.2021
6353 Clouds 14 1019 67 10000 2.24 0 12:51 19.09.2021
6354 Clouds 13 1019 78 10000 2.24 0 11:28 19.09.2021
6355 Clouds 13 1019 80 10000 1.34 0 10:53 19.09.2021
6356 Clouds 13 1018 84 10000 2.24 0 09:49 19.09.2021
6357 Rain 12 1018 87 10000 1.34 0 08:35 19.09.2021
6358 Clouds 11 1018 93 10000 2.57 80 06:42 19.09.2021
6359 Clouds 14 1019 87 10000 0.89 0 23:53 18.09.2021
6360 Clouds 14 1018 86 10000 0.89 0 22:31 18.09.2021
6361 Clouds 15 1018 85 10000 1.54 80 20:58 18.09.2021
6362 Clouds 15 1018 85 10000 1.54 80 20:38 18.09.2021
6363 Clouds 15 1017 85 10000 0 0 19:40 18.09.2021
6364 Clouds 15 1017 85 10000 0 0 19:21 18.09.2021
6365 Clouds 15 1017 83 10000 1.54 360 18:37 18.09.2021
6366 Clouds 16 1017 89 10000 0.89 0 17:45 18.09.2021
6367 Clouds 16 1017 80 10000 0.45 0 16:34 18.09.2021
6368 Clouds 16 1018 75 10000 0.89 0 13:50 18.09.2021
6369 Clouds 16 1018 77 10000 0.89 0 13:30 18.09.2021
6370 Clouds 15 1018 87 10000 0.89 0 12:50 18.09.2021
6371 Clouds 14 1017 85 10000 1.34 0 11:42 18.09.2021
6372 Clouds 13 1017 88 10000 0.45 0 10:33 18.09.2021
6373 Clouds 13 1017 87 10000 1.34 346 09:48 18.09.2021
6374 Drizzle 12 1017 88 3400 0.89 272 09:19 18.09.2021
6375 Clouds 11 1016 86 10000 1.34 267 06:54 18.09.2021
6376 Clear 13 1015 86 10000 0.45 296 00:42 18.09.2021
6377 Clear 13 1015 77 10000 0.89 0 23:52 17.09.2021
6378 Clear 13 1015 77 10000 0.45 0 22:40 17.09.2021
6379 Clear 13 1015 76 10000 0.45 0 22:20 17.09.2021
6380 Clouds 14 1015 81 10000 0.89 0 21:24 17.09.2021
6381 Clouds 16 1014 68 10000 0.45 0 19:26 17.09.2021
6382 Clouds 17 1014 64 10000 1.34 323 17:29 17.09.2021
6383 Clear 17 1014 61 10000 0.89 0 16:27 17.09.2021
6384 Clouds 17 1014 63 10000 2.24 2 14:24 17.09.2021
6385 Clouds 17 1015 73 10000 7.2 290 11:30 17.09.2021
6386 Clouds 15 1014 81 10000 1.34 0 09:24 17.09.2021
6387 Clouds 14 1014 88 10000 2.24 0 07:35 17.09.2021
6388 Clouds 14 1015 87 10000 2.24 0 03:58 17.09.2021
6389 Clouds 15 1015 79 10000 2.68 0 23:41 16.09.2021
6390 Clouds 15 1015 80 10000 2.68 0 22:33 16.09.2021
6391 Clouds 15 1015 79 10000 0.89 0 21:52 16.09.2021
6392 Clouds 15 1015 86 10000 1.79 0 21:27 16.09.2021
6393 Clouds 16 1015 82 10000 2.68 0 20:24 16.09.2021
6394 Clouds 17 1014 77 10000 2.24 0 18:27 16.09.2021
6395 Rain 18 1014 68 10000 4.02 0 17:58 16.09.2021
6396 Clouds 18 1014 67 10000 3.13 0 15:24 16.09.2021
6397 Clouds 18 1014 66 10000 2.68 0 14:35 16.09.2021
6398 Clouds 17 1014 72 10000 2.68 0 12:59 16.09.2021
6399 Drizzle 17 1014 73 8000 3.13 344 12:36 16.09.2021
6400 Drizzle 16 1014 70 8000 2.68 0 11:46 16.09.2021
6401 Clouds 17 1014 78 10000 4.47 266 10:40 16.09.2021
6402 Clouds 16 1014 70 10000 3.13 276 10:18 16.09.2021
6403 Clouds 16 1013 77 10000 1.79 356 08:43 16.09.2021
6404 Clouds 15 1013 78 10000 2.24 0 07:46 16.09.2021
6405 Clouds 15 1013 79 10000 1.34 0 06:55 16.09.2021
6406 Clouds 15 1013 79 10000 2.68 279 06:32 16.09.2021
6407 Clouds 17 1012 87 10000 0.45 0 02:58 16.09.2021
6408 Clouds 18 1011 90 5000 1.79 279 00:46 16.09.2021
6409 Clouds 19 1010 93 9000 1.34 260 22:59 15.09.2021
6410 Clouds 19 1010 93 10000 1.34 268 22:20 15.09.2021
6411 Clouds 19 1010 92 10000 1.34 274 21:30 15.09.2021
6412 Clouds 20 1009 85 10000 2.24 296 20:26 15.09.2021
6413 Clouds 20 1009 78 10000 4.02 242 19:31 15.09.2021
6414 Clouds 21 1009 71 10000 1.34 226 18:37 15.09.2021
6415 Clouds 22 1009 83 10000 3.6 210 17:33 15.09.2021
6416 Clouds 21 1009 85 10000 1.34 199 16:28 15.09.2021
6417 Rain 22 1010 85 10000 2.57 240 14:59 15.09.2021
6418 Clouds 22 1010 86 10000 2.57 240 14:40 15.09.2021
6419 Rain 22 1010 61 10000 1.34 232 13:45 15.09.2021
6420 Rain 22 1010 73 10000 2.06 140 13:26 15.09.2021
6421 Clouds 22 1010 79 10000 0.45 97 12:29 15.09.2021
6422 Rain 21 1011 71 10000 0 0 11:50 15.09.2021
6423 Clouds 21 1011 74 10000 0.51 0 10:57 15.09.2021
6424 Clear 19 1011 77 10000 0.45 0 09:59 15.09.2021
6425 Clear 18 1011 78 10000 0.89 0 08:47 15.09.2021
6426 Clear 17 1011 81 10000 0.89 165 07:25 15.09.2021
6427 Clouds 18 1013 81 10000 1.79 146 00:55 15.09.2021
6428 Clouds 18 1014 77 10000 1.34 124 22:24 14.09.2021
6429 Clouds 18 1014 79 10000 1.34 107 21:21 14.09.2021
6430 Clouds 18 1014 79 10000 1.34 107 21:21 14.09.2021
6431 Clouds 20 1014 64 10000 0.89 95 20:18 14.09.2021
6432 Clear 23 1014 57 10000 1.34 95 18:57 14.09.2021
6433 Clear 24 1015 61 10000 1.79 110 17:33 14.09.2021
6434 Clear 24 1015 53 10000 2.68 112 16:37 14.09.2021
6435 Clear 24 1016 53 10000 4.02 94 14:32 14.09.2021
6436 Clear 23 1016 55 10000 3.13 120 13:53 14.09.2021
6437 Clear 21 1017 61 10000 3.13 150 11:46 14.09.2021
6438 Clear 17 1017 83 10000 1.34 147 10:25 14.09.2021
6439 Clear 16 1017 90 10000 1.79 0 09:48 14.09.2021
6440 Clouds 11 1017 90 8000 2.57 100 07:50 14.09.2021
6441 Clouds 12 1018 86 6000 0.89 0 01:28 14.09.2021
6442 Clouds 13 1019 85 10000 1.54 100 23:27 13.09.2021
6443 Clouds 13 1018 92 10000 0 0 22:27 13.09.2021
6444 Clouds 14 1019 92 10000 0 0 21:55 13.09.2021
6445 Clear 14 1019 91 10000 1.03 0 21:32 13.09.2021
6446 Clear 17 1018 70 10000 0.45 0 19:35 13.09.2021
6447 Clear 18 1018 73 10000 1.34 347 18:44 13.09.2021
6448 Clouds 19 1018 58 10000 1.34 334 17:27 13.09.2021
6449 Clouds 20 1018 68 10000 1.79 339 16:49 13.09.2021
6450 Clouds 20 1019 65 10000 0.89 326 14:44 13.09.2021
6451 Clouds 17 1019 75 10000 2.24 283 11:44 13.09.2021
6452 Clouds 16 1019 81 10000 1.34 0 10:40 13.09.2021
6453 Clouds 13 1018 88 9000 0.89 0 08:23 13.09.2021
6454 Clouds 14 1017 87 10000 0.89 0 00:34 13.09.2021
6455 Clouds 15 1017 73 10000 0.45 0 22:51 12.09.2021
6456 Clouds 16 1017 72 10000 0.89 0 22:22 12.09.2021
6457 Clouds 17 1016 70 10000 0.89 0 20:57 12.09.2021
6458 Clear 18 1016 67 10000 0.89 0 20:19 12.09.2021
6459 Clouds 19 1016 61 10000 0.45 258 19:36 12.09.2021
6460 Clear 20 1016 61 10000 0.89 267 19:18 12.09.2021
6461 Clear 21 1016 68 10000 2.24 275 17:50 12.09.2021
6462 Clouds 21 1016 61 10000 3.13 270 15:56 12.09.2021
6463 Clouds 21 1017 75 10000 4.02 273 14:47 12.09.2021
6464 Clouds 19 1017 87 10000 1.34 0 12:43 12.09.2021
6465 Clouds 18 1017 78 10000 1.34 347 10:32 12.09.2021
6466 Clouds 17 1017 83 10000 1.34 0 08:39 12.09.2021
6467 Clouds 17 1016 83 10000 1.34 0 07:30 12.09.2021
6468 Clouds 15 1017 90 10000 0.45 0 00:47 12.09.2021
6469 Clouds 15 1017 90 10000 0.45 0 00:47 12.09.2021
6470 Clouds 16 1017 79 10000 0.45 0 22:58 11.09.2021
6471 Clouds 16 1016 77 10000 0 0 21:39 11.09.2021
6472 Clear 20 1016 59 10000 3.09 290 19:41 11.09.2021
6473 Clear 22 1016 59 10000 1.79 277 18:28 11.09.2021
6474 Clouds 22 1015 58 10000 4.02 295 17:29 11.09.2021
6475 Clouds 22 1015 61 10000 2.24 273 15:37 11.09.2021
6476 Clouds 21 1016 72 10000 1.34 280 13:25 11.09.2021
6477 Clouds 21 1016 73 10000 2.24 269 11:45 11.09.2021
6478 Clouds 20 1016 82 10000 3.13 264 10:40 11.09.2021
6479 Clouds 19 1015 87 10000 1.34 235 09:28 11.09.2021
6480 Clouds 17 1015 91 10000 1.54 230 07:44 11.09.2021
6481 Clouds 18 1015 90 10000 0.89 249 04:23 11.09.2021
6482 Clouds 19 1014 85 10000 1.79 236 22:48 10.09.2021
6483 Clouds 19 1014 85 10000 0.89 217 22:22 10.09.2021
6484 Clouds 19 1014 84 10000 1.34 230 21:43 10.09.2021
6485 Clear 21 1013 89 10000 0.89 101 19:33 10.09.2021
6486 Clouds 22 1013 77 10000 0.89 101 18:20 10.09.2021
6487 Clouds 22 1013 85 10000 1.54 260 16:34 10.09.2021
6488 Rain 23 1013 79 10000 0.89 264 13:52 10.09.2021
6489 Clear 23 1014 70 10000 1.34 235 11:46 10.09.2021
6490 Clouds 19 1013 89 10000 0.45 237 08:29 10.09.2021
6491 Rain 18 1012 88 10000 0 0 07:45 10.09.2021
6492 Clouds 20 1011 71 10000 0.89 240 00:42 10.09.2021
6493 Clouds 20 1011 65 10000 0.45 238 22:18 09.09.2021
6494 Clouds 21 1011 58 10000 0.45 238 21:28 09.09.2021
6495 Clouds 21 1010 67 10000 0 0 20:42 09.09.2021
6496 Clear 26 1010 46 10000 0.89 242 18:55 09.09.2021
6497 Clear 28 1010 44 10000 2.24 228 17:54 09.09.2021
6498 Clear 28 1010 39 10000 0.45 217 16:40 09.09.2021
6499 Clear 29 1011 38 10000 1.34 244 15:27 09.09.2021
6500 Clear 26 1011 44 10000 1.34 83 12:48 09.09.2021
6501 Clear 23 1012 59 10000 0.89 172 11:33 09.09.2021
6502 Clear 18 1012 76 10000 1.79 129 09:39 09.09.2021
6503 Clear 15 1012 85 10000 1.34 0 08:32 09.09.2021
6504 Clouds 12 1013 92 9000 0.45 0 06:24 09.09.2021
6505 Clouds 14 1014 88 10000 0.45 0 01:31 09.09.2021
6506 Clouds 14 1014 88 10000 0.45 0 01:31 09.09.2021
6507 Clear 17 1015 71 10000 0.45 118 22:34 08.09.2021
6508 Clouds 19 1016 61 10000 0.45 107 20:57 08.09.2021
6509 Clear 22 1016 45 10000 2.06 80 19:56 08.09.2021
6510 Clear 24 1016 52 10000 2.57 90 18:50 08.09.2021
6511 Clear 25 1016 45 10000 1.79 110 18:27 08.09.2021
6512 Clear 25 1016 43 10000 3.13 94 17:55 08.09.2021
6513 Clear 26 1017 45 10000 1.34 90 16:28 08.09.2021
6514 Clear 25 1019 43 10000 2.68 88 13:56 08.09.2021
6515 Clear 24 1020 47 10000 3.58 109 12:43 08.09.2021
6516 Clear 23 1020 49 10000 2.68 144 12:25 08.09.2021
6517 Clear 22 1020 55 10000 2.68 121 11:29 08.09.2021
6518 Clear 20 1021 69 10000 2.68 121 10:33 08.09.2021
6519 Clear 18 1021 77 10000 1.34 111 09:59 08.09.2021
6520 Clear 14 1021 94 10000 0.89 119 08:31 08.09.2021
6521 Clear 12 1021 92 10000 2.06 110 07:32 08.09.2021
6522 Clear 12 1022 91 10000 2.06 90 04:19 08.09.2021
6523 Clouds 14 1023 88 10000 1.54 90 22:38 07.09.2021
6524 Clear 15 1023 77 10000 0 0 21:52 07.09.2021
6525 Clear 20 1023 57 10000 0.45 49 19:47 07.09.2021
6526 Clear 22 1023 49 10000 0.45 36 18:40 07.09.2021
6527 Clear 23 1023 53 10000 0.89 49 17:49 07.09.2021
6528 Clear 23 1024 46 10000 0.45 17 16:33 07.09.2021
6529 Clear 23 1024 44 10000 0.89 340 15:35 07.09.2021
6530 Clear 23 1024 44 10000 0.89 317 14:42 07.09.2021
6531 Clear 21 1025 52 10000 0.89 275 12:41 07.09.2021
6532 Clear 20 1025 60 10000 0.89 326 11:37 07.09.2021
6533 Clear 19 1025 63 10000 0.45 9 10:41 07.09.2021
6534 Clear 14 1025 84 10000 0.45 0 08:25 07.09.2021
6535 Clear 13 1024 86 10000 0 0 07:23 07.09.2021
6536 Clouds 13 1024 84 10000 0 0 05:40 07.09.2021
6537 Clouds 15 1024 81 10000 0 0 02:34 07.09.2021
6538 Clouds 15 1024 77 10000 0.51 0 00:46 07.09.2021
6539 Clouds 15 1024 77 10000 0 0 23:34 06.09.2021
6540 Clouds 16 1024 70 10000 0 0 22:53 06.09.2021
6541 Clouds 17 1025 69 10000 0.45 0 22:33 06.09.2021
6542 Clouds 17 1024 77 10000 0 0 20:56 06.09.2021
6543 Clear 20 1023 58 10000 1.03 350 19:31 06.09.2021
6544 Clear 20 1024 50 10000 0.45 327 18:48 06.09.2021
6545 Clear 21 1024 50 10000 0.45 327 18:23 06.09.2021
6546 Clear 22 1024 45 10000 1.34 2 17:36 06.09.2021
6547 Clear 22 1024 48 10000 2.24 323 15:52 06.09.2021
6548 Clear 21 1024 56 10000 2.24 287 13:48 06.09.2021
6549 Clear 20 1024 60 10000 0.89 307 12:47 06.09.2021
6550 Clouds 15 1024 91 10000 0.45 214 10:48 06.09.2021
6551 Fog 11 1024 90 8000 0 0 08:35 06.09.2021
6552 Clouds 8 1023 88 650 0 0 06:47 06.09.2021
6553 Clouds 11 1024 86 1100 0 0 23:37 05.09.2021
6554 Clear 11 1024 86 4700 0 0 22:50 05.09.2021
6555 Clear 12 1024 82 8000 0.45 0 22:28 05.09.2021
6556 Clear 12 1023 84 7000 0.45 0 21:49 05.09.2021
6557 Fog 14 1023 82 10000 0.45 16 20:33 05.09.2021
6558 Clear 17 1023 72 8000 0.89 0 18:56 05.09.2021
6559 Clouds 18 1023 77 10000 1.79 32 17:34 05.09.2021
6560 Clouds 18 1023 65 9000 3.13 66 15:31 05.09.2021
6561 Clouds 18 1023 66 10000 3.13 47 14:23 05.09.2021
6562 Clouds 17 1023 70 9000 2.24 24 12:30 05.09.2021
6563 Clouds 14 1023 86 8000 2.57 110 10:55 05.09.2021
6564 Mist 13 1023 89 2300 0.89 0 10:33 05.09.2021
6565 Fog 12 1022 95 600 1.34 0 09:22 05.09.2021
6566 Clouds 10 1022 89 500 0.89 0 08:21 05.09.2021
6567 Clouds 9 1021 85 10000 0 0 03:19 05.09.2021
6568 Clear 10 1021 81 10000 1.54 100 00:30 05.09.2021
6569 Clouds 10 1021 78 10000 2.03 94 23:43 04.09.2021
6570 Clouds 12 1020 79 10000 1.03 120 22:36 04.09.2021
6571 Clouds 13 1020 73 10000 1.03 0 21:58 04.09.2021
6572 Clouds 16 1019 60 10000 1.54 50 19:53 04.09.2021
6573 Clouds 17 1019 56 10000 2.06 30 19:27 04.09.2021
6574 Clouds 19 1019 52 10000 2.06 0 16:27 04.09.2021
6575 Clouds 18 1020 50 10000 2.06 0 13:36 04.09.2021
6576 Clouds 16 1020 56 10000 2.57 340 11:20 04.09.2021
6577 Clouds 14 1020 70 10000 2.57 340 09:33 04.09.2021
6578 Clouds 13 1019 81 10000 1.54 320 06:55 04.09.2021
6579 Clear 13 1019 83 10000 2.06 320 00:28 04.09.2021
6580 Clear 14 1019 82 10000 2.06 330 23:32 03.09.2021
6581 Clear 14 1019 80 10000 0 0 22:40 03.09.2021
6582 Clear 15 1019 76 10000 0.51 0 21:36 03.09.2021
6583 Clear 17 1018 68 10000 0.51 0 20:52 03.09.2021
6584 Clear 20 1018 70 10000 0.45 333 19:56 03.09.2021
6585 Clear 21 1018 56 10000 1.79 327 19:29 03.09.2021
6586 Clear 23 1018 58 10000 2.24 269 17:57 03.09.2021
6587 Clear 24 1019 48 10000 1.79 280 16:40 03.09.2021
6588 Clear 24 1020 49 10000 2.24 321 15:34 03.09.2021
6589 Clear 21 1021 61 10000 2.24 281 12:59 03.09.2021
6590 Clouds 17 1022 88 10000 0.89 304 10:43 03.09.2021
6591 Fog 13 1022 94 350 2.06 260 09:19 03.09.2021
6592 Mist 11 1022 89 4000 0 0 07:51 03.09.2021
6593 Clouds 10 1022 89 10000 0 0 06:21 03.09.2021
6594 Clear 13 1024 84 10000 0 0 23:54 02.09.2021
6595 Clear 15 1025 77 10000 0.45 57 21:42 02.09.2021
6596 Clear 18 1025 79 10000 1.03 0 20:24 02.09.2021
6597 Clouds 21 1026 56 10000 0.89 36 17:33 02.09.2021
6598 Clouds 21 1027 59 10000 0.45 5 16:20 02.09.2021
6599 Clouds 20 1027 62 10000 1.34 259 14:36 02.09.2021
6600 Clouds 19 1028 65 10000 1.34 273 13:23 02.09.2021
6601 Clouds 17 1028 82 10000 1.03 0 11:41 02.09.2021
6602 Clouds 17 1028 77 10000 0.89 326 10:52 02.09.2021
6603 Clouds 14 1028 88 8000 0.45 0 08:49 02.09.2021
6604 Mist 13 1027 90 3700 1.03 320 07:22 02.09.2021
6605 Clear 12 1027 88 7000 0.45 276 05:31 02.09.2021
6606 Clear 12 1027 88 7000 0.45 276 05:31 02.09.2021
6607 Clouds 13 1027 85 10000 0.45 276 02:35 02.09.2021
6608 Clouds 14 1027 82 10000 0 0 01:48 02.09.2021
6609 Clouds 16 1026 76 10000 0.89 276 23:41 01.09.2021
6610 Clouds 16 1027 76 10000 0.89 275 22:42 01.09.2021
6611 Clear 16 1026 76 10000 0.45 257 21:46 01.09.2021
6612 Clear 17 1026 69 10000 0.89 259 20:54 01.09.2021
6613 Clear 20 1026 61 10000 1.34 278 19:24 01.09.2021
6614 Clouds 21 1026 57 10000 2.68 283 17:51 01.09.2021
6615 Clouds 21 1026 58 10000 2.68 263 16:55 01.09.2021
6616 Clouds 21 1026 57 10000 2.68 288 16:33 01.09.2021
6617 Clouds 19 1027 74 10000 2.24 321 13:57 01.09.2021
6618 Clouds 17 1027 72 10000 3.13 325 11:47 01.09.2021
6619 Clouds 17 1027 72 10000 1.79 287 11:47 01.09.2021
6620 Clouds 15 1027 87 10000 2.68 300 09:41 01.09.2021
6621 Clouds 14 1026 86 10000 2.24 285 07:58 01.09.2021
6622 Clouds 14 1026 87 9000 0.89 336 06:42 01.09.2021
6623 Clouds 15 1024 76 10000 1.34 331 23:29 31.08.2021
6624 Clouds 15 1023 74 10000 1.03 340 21:57 31.08.2021
6625 Clear 19 1022 54 10000 0.45 9 19:49 31.08.2021
6626 Clear 21 1022 50 10000 1.34 342 18:59 31.08.2021
6627 Clear 22 1022 44 10000 3.13 319 17:40 31.08.2021
6628 Clear 22 1022 51 10000 2.68 11 17:21 31.08.2021
6629 Clear 22 1022 51 10000 2.68 11 17:21 31.08.2021
6630 Clear 21 1022 54 10000 4.02 346 16:28 31.08.2021
6631 Clouds 22 1022 48 10000 2.24 353 15:25 31.08.2021
6632 Clouds 18 1022 73 10000 1.79 336 11:46 31.08.2021
6633 Clouds 17 1022 74 10000 1.79 322 11:18 31.08.2021
6634 Clouds 16 1022 88 10000 1.34 325 10:43 31.08.2021
6635 Clouds 14 1021 89 10000 1.34 274 09:41 31.08.2021
6636 Clouds 13 1021 90 5000 0.89 283 07:48 31.08.2021
6637 Clouds 13 1020 85 10000 0.45 304 05:56 31.08.2021
6638 Clouds 14 1019 81 10000 2.24 316 23:36 30.08.2021
6639 Clouds 15 1019 87 10000 1.34 349 22:32 30.08.2021
6640 Clouds 16 1019 78 10000 1.79 346 21:35 30.08.2021
6641 Clouds 16 1019 87 10000 1.34 339 20:41 30.08.2021
6642 Clouds 17 1018 74 10000 0.89 19 19:53 30.08.2021
6643 Clouds 17 1018 86 10000 2.24 5 18:58 30.08.2021
6644 Clouds 18 1017 75 10000 4.02 327 17:49 30.08.2021
6645 Clouds 18 1017 76 10000 0.89 337 16:28 30.08.2021
6646 Clouds 17 1017 92 10000 0.89 321 15:45 30.08.2021
6647 Clouds 18 1017 79 10000 2.24 3 13:58 30.08.2021
6648 Clouds 17 1017 68 10000 2.24 10 12:58 30.08.2021
6649 Clouds 17 1017 77 10000 2.24 8 10:59 30.08.2021
6650 Clouds 16 1016 93 10000 2.24 343 03:31 30.08.2021
6651 Clouds 16 1015 91 10000 2.68 343 21:36 29.08.2021
6652 Clouds 16 1015 90 7000 1.79 4 20:48 29.08.2021
6653 Clouds 17 1015 87 10000 2.24 2 19:28 29.08.2021
6654 Clouds 17 1014 86 8000 3.13 3 18:24 29.08.2021
6655 Clouds 17 1015 88 10000 2.24 335 15:58 29.08.2021
6656 Clouds 17 1015 90 10000 2.24 340 14:28 29.08.2021
6657 Clouds 17 1015 90 10000 2.24 340 14:28 29.08.2021
6658 Clouds 16 1015 92 10000 2.24 321 13:55 29.08.2021
6659 Clouds 16 1015 92 10000 2.24 321 13:55 29.08.2021
6660 Clouds 16 1015 95 7000 2.24 323 12:57 29.08.2021
6661 Clouds 15 1015 94 3000 1.34 318 12:18 29.08.2021
6662 Clouds 15 1015 94 10000 1.34 336 11:40 29.08.2021
6663 Drizzle 15 1015 94 6000 1.34 349 10:46 29.08.2021
6664 Drizzle 15 1015 95 2600 0.89 328 10:28 29.08.2021
6665 Drizzle 14 1015 94 10000 0.45 355 09:30 29.08.2021
6666 Rain 14 1015 96 10000 1.34 336 04:18 29.08.2021
6667 Rain 15 1016 91 10000 1.79 338 22:57 28.08.2021
6668 Rain 15 1016 90 8000 2.24 332 20:31 28.08.2021
6669 Rain 16 1016 87 10000 2.24 348 19:20 28.08.2021
6670 Clouds 16 1016 86 10000 0.45 325 18:22 28.08.2021
6671 Rain 16 1016 92 8000 0.45 311 17:46 28.08.2021
6672 Rain 17 1016 85 6000 1.34 317 16:32 28.08.2021
6673 Clouds 19 1016 66 10000 1.79 316 14:52 28.08.2021
6674 Clouds 17 1016 73 10000 2.24 293 13:58 28.08.2021
6675 Clouds 17 1016 71 10000 1.34 326 13:39 28.08.2021
6676 Clouds 17 1017 74 10000 1.79 318 12:30 28.08.2021
6677 Clouds 16 1016 82 10000 1.34 278 10:47 28.0